<?xml version="1.0" encoding="UTF-8" standalone="no" ?>
<gpx xmlns="http://www.topografix.com/GPX/1/1" xmlns:xsi="http://www.w3.org/2001/XMLSchema-instance" xsi:schemaLocation="http://www.topografix.com/GPX/1/1 http://www.topografix.com/GPX/1/1/gpx.xsd" version="1.1" creator="VisuGPX - https://www.visugpx.com">
  <metadata>
    <name>Tour du Causse d'Anglars</name>
    <desc><![CDATA[Tour du Causse d'Anglars]]></desc>
  </metadata>
  <trk>
    <name><![CDATA[Tour du Causse d'Anglars_1]]></name>
    <trkseg>
      <trkpt lat="44.10807" lon="1.78538">
        <ele>325.4</ele>
        <time>2018-01-24T10:26:16Z</time>
      </trkpt>
      <trkpt lat="44.10807" lon="1.78538">
        <ele>325.4</ele>
        <time>2018-01-24T10:26:28Z</time>
      </trkpt>
      <trkpt lat="44.10804" lon="1.78549">
        <ele>325.4</ele>
        <time>2018-01-24T10:26:29Z</time>
      </trkpt>
      <trkpt lat="44.1082" lon="1.78548">
        <ele>325.4</ele>
        <time>2018-01-24T10:26:30Z</time>
      </trkpt>
      <trkpt lat="44.10828" lon="1.78562">
        <ele>325.2</ele>
        <time>2018-01-24T10:26:31Z</time>
      </trkpt>
      <trkpt lat="44.10818" lon="1.78544">
        <ele>325.7</ele>
        <time>2018-01-24T10:26:32Z</time>
      </trkpt>
      <trkpt lat="44.10819" lon="1.78539">
        <ele>325.8</ele>
        <time>2018-01-24T10:26:40Z</time>
      </trkpt>
      <trkpt lat="44.1082" lon="1.78546">
        <ele>320.6</ele>
        <time>2018-01-24T10:28:09Z</time>
      </trkpt>
      <trkpt lat="44.10819" lon="1.78558">
        <ele>318.9</ele>
        <time>2018-01-24T10:28:15Z</time>
      </trkpt>
      <trkpt lat="44.10821" lon="1.78567">
        <ele>317.3</ele>
        <time>2018-01-24T10:28:21Z</time>
      </trkpt>
      <trkpt lat="44.10818" lon="1.78562">
        <ele>314</ele>
        <time>2018-01-24T10:28:35Z</time>
      </trkpt>
      <trkpt lat="44.10816" lon="1.78563">
        <ele>314.3</ele>
        <time>2018-01-24T10:28:42Z</time>
      </trkpt>
      <trkpt lat="44.10808" lon="1.78567">
        <ele>315.6</ele>
        <time>2018-01-24T10:30:42Z</time>
      </trkpt>
      <trkpt lat="44.10801" lon="1.78566">
        <ele>314.6</ele>
        <time>2018-01-24T10:30:47Z</time>
      </trkpt>
      <trkpt lat="44.10794" lon="1.78566">
        <ele>313.9</ele>
        <time>2018-01-24T10:30:51Z</time>
      </trkpt>
      <trkpt lat="44.10785" lon="1.78565">
        <ele>314.1</ele>
        <time>2018-01-24T10:30:55Z</time>
      </trkpt>
      <trkpt lat="44.10777" lon="1.78566">
        <ele>313.5</ele>
        <time>2018-01-24T10:30:58Z</time>
      </trkpt>
      <trkpt lat="44.10766" lon="1.78567">
        <ele>311</ele>
        <time>2018-01-24T10:31:01Z</time>
      </trkpt>
      <trkpt lat="44.10757" lon="1.78566">
        <ele>310.1</ele>
        <time>2018-01-24T10:31:03Z</time>
      </trkpt>
      <trkpt lat="44.10748" lon="1.78566">
        <ele>309.2</ele>
        <time>2018-01-24T10:31:06Z</time>
      </trkpt>
      <trkpt lat="44.10741" lon="1.78565">
        <ele>309.2</ele>
        <time>2018-01-24T10:31:09Z</time>
      </trkpt>
      <trkpt lat="44.10732" lon="1.78562">
        <ele>312.1</ele>
        <time>2018-01-24T10:31:15Z</time>
      </trkpt>
      <trkpt lat="44.10725" lon="1.78556">
        <ele>312.3</ele>
        <time>2018-01-24T10:31:19Z</time>
      </trkpt>
      <trkpt lat="44.10718" lon="1.78549">
        <ele>311.8</ele>
        <time>2018-01-24T10:31:23Z</time>
      </trkpt>
      <trkpt lat="44.10712" lon="1.78541">
        <ele>312</ele>
        <time>2018-01-24T10:31:26Z</time>
      </trkpt>
      <trkpt lat="44.10707" lon="1.78533">
        <ele>312.1</ele>
        <time>2018-01-24T10:31:29Z</time>
      </trkpt>
      <trkpt lat="44.107" lon="1.78523">
        <ele>311.8</ele>
        <time>2018-01-24T10:31:32Z</time>
      </trkpt>
      <trkpt lat="44.10693" lon="1.78513">
        <ele>311.9</ele>
        <time>2018-01-24T10:31:35Z</time>
      </trkpt>
      <trkpt lat="44.10686" lon="1.78502">
        <ele>312.2</ele>
        <time>2018-01-24T10:31:38Z</time>
      </trkpt>
      <trkpt lat="44.10679" lon="1.78491">
        <ele>313.2</ele>
        <time>2018-01-24T10:31:41Z</time>
      </trkpt>
      <trkpt lat="44.10673" lon="1.7848">
        <ele>314.8</ele>
        <time>2018-01-24T10:31:44Z</time>
      </trkpt>
      <trkpt lat="44.10666" lon="1.78468">
        <ele>314.4</ele>
        <time>2018-01-24T10:31:47Z</time>
      </trkpt>
      <trkpt lat="44.1066" lon="1.78457">
        <ele>314.3</ele>
        <time>2018-01-24T10:31:50Z</time>
      </trkpt>
      <trkpt lat="44.10655" lon="1.78447">
        <ele>316.3</ele>
        <time>2018-01-24T10:31:53Z</time>
      </trkpt>
      <trkpt lat="44.10649" lon="1.78437">
        <ele>318.2</ele>
        <time>2018-01-24T10:31:58Z</time>
      </trkpt>
      <trkpt lat="44.10641" lon="1.78431">
        <ele>317.2</ele>
        <time>2018-01-24T10:32:01Z</time>
      </trkpt>
      <trkpt lat="44.10635" lon="1.78424">
        <ele>317.8</ele>
        <time>2018-01-24T10:32:05Z</time>
      </trkpt>
      <trkpt lat="44.10626" lon="1.78418">
        <ele>318.4</ele>
        <time>2018-01-24T10:32:10Z</time>
      </trkpt>
      <trkpt lat="44.10618" lon="1.78414">
        <ele>318.8</ele>
        <time>2018-01-24T10:32:14Z</time>
      </trkpt>
      <trkpt lat="44.10611" lon="1.78409">
        <ele>318.7</ele>
        <time>2018-01-24T10:32:17Z</time>
      </trkpt>
      <trkpt lat="44.10604" lon="1.78403">
        <ele>318.8</ele>
        <time>2018-01-24T10:32:20Z</time>
      </trkpt>
      <trkpt lat="44.10596" lon="1.784">
        <ele>318.3</ele>
        <time>2018-01-24T10:32:23Z</time>
      </trkpt>
      <trkpt lat="44.10589" lon="1.78397">
        <ele>317.5</ele>
        <time>2018-01-24T10:32:26Z</time>
      </trkpt>
      <trkpt lat="44.1058" lon="1.78395">
        <ele>316</ele>
        <time>2018-01-24T10:32:30Z</time>
      </trkpt>
      <trkpt lat="44.10572" lon="1.78392">
        <ele>315.7</ele>
        <time>2018-01-24T10:32:33Z</time>
      </trkpt>
      <trkpt lat="44.10565" lon="1.78387">
        <ele>314.8</ele>
        <time>2018-01-24T10:32:36Z</time>
      </trkpt>
      <trkpt lat="44.10557" lon="1.78381">
        <ele>315</ele>
        <time>2018-01-24T10:32:39Z</time>
      </trkpt>
      <trkpt lat="44.1055" lon="1.78373">
        <ele>314.4</ele>
        <time>2018-01-24T10:32:42Z</time>
      </trkpt>
      <trkpt lat="44.10543" lon="1.78364">
        <ele>313</ele>
        <time>2018-01-24T10:32:45Z</time>
      </trkpt>
      <trkpt lat="44.10536" lon="1.78355">
        <ele>311.1</ele>
        <time>2018-01-24T10:32:48Z</time>
      </trkpt>
      <trkpt lat="44.10528" lon="1.78346">
        <ele>309</ele>
        <time>2018-01-24T10:32:51Z</time>
      </trkpt>
      <trkpt lat="44.10521" lon="1.78339">
        <ele>306.9</ele>
        <time>2018-01-24T10:32:53Z</time>
      </trkpt>
      <trkpt lat="44.10513" lon="1.78331">
        <ele>305</ele>
        <time>2018-01-24T10:32:55Z</time>
      </trkpt>
      <trkpt lat="44.10505" lon="1.7832">
        <ele>305</ele>
        <time>2018-01-24T10:32:57Z</time>
      </trkpt>
      <trkpt lat="44.10496" lon="1.78307">
        <ele>305.2</ele>
        <time>2018-01-24T10:32:59Z</time>
      </trkpt>
      <trkpt lat="44.10487" lon="1.78295">
        <ele>305.4</ele>
        <time>2018-01-24T10:33:01Z</time>
      </trkpt>
      <trkpt lat="44.10477" lon="1.78284">
        <ele>305.4</ele>
        <time>2018-01-24T10:33:03Z</time>
      </trkpt>
      <trkpt lat="44.10466" lon="1.78272">
        <ele>305.9</ele>
        <time>2018-01-24T10:33:05Z</time>
      </trkpt>
      <trkpt lat="44.10453" lon="1.78262">
        <ele>306</ele>
        <time>2018-01-24T10:33:07Z</time>
      </trkpt>
      <trkpt lat="44.10447" lon="1.78258">
        <ele>305.9</ele>
        <time>2018-01-24T10:33:08Z</time>
      </trkpt>
      <trkpt lat="44.10434" lon="1.78251">
        <ele>305.8</ele>
        <time>2018-01-24T10:33:10Z</time>
      </trkpt>
      <trkpt lat="44.10422" lon="1.78244">
        <ele>305.3</ele>
        <time>2018-01-24T10:33:12Z</time>
      </trkpt>
      <trkpt lat="44.10412" lon="1.78237">
        <ele>304.9</ele>
        <time>2018-01-24T10:33:14Z</time>
      </trkpt>
      <trkpt lat="44.10402" lon="1.7823">
        <ele>304.8</ele>
        <time>2018-01-24T10:33:16Z</time>
      </trkpt>
      <trkpt lat="44.10392" lon="1.78224">
        <ele>304.7</ele>
        <time>2018-01-24T10:33:18Z</time>
      </trkpt>
      <trkpt lat="44.10383" lon="1.78217">
        <ele>304.8</ele>
        <time>2018-01-24T10:33:20Z</time>
      </trkpt>
      <trkpt lat="44.10375" lon="1.78208">
        <ele>304.8</ele>
        <time>2018-01-24T10:33:22Z</time>
      </trkpt>
      <trkpt lat="44.10369" lon="1.78199">
        <ele>304.8</ele>
        <time>2018-01-24T10:33:24Z</time>
      </trkpt>
      <trkpt lat="44.10362" lon="1.7819">
        <ele>305.1</ele>
        <time>2018-01-24T10:33:26Z</time>
      </trkpt>
      <trkpt lat="44.10356" lon="1.78183">
        <ele>305.3</ele>
        <time>2018-01-24T10:33:28Z</time>
      </trkpt>
      <trkpt lat="44.10347" lon="1.78179">
        <ele>305.5</ele>
        <time>2018-01-24T10:33:30Z</time>
      </trkpt>
      <trkpt lat="44.1034" lon="1.78175">
        <ele>305.5</ele>
        <time>2018-01-24T10:33:32Z</time>
      </trkpt>
      <trkpt lat="44.10333" lon="1.78172">
        <ele>305.5</ele>
        <time>2018-01-24T10:33:34Z</time>
      </trkpt>
      <trkpt lat="44.10323" lon="1.78168">
        <ele>305.9</ele>
        <time>2018-01-24T10:33:37Z</time>
      </trkpt>
      <trkpt lat="44.10313" lon="1.78163">
        <ele>306.7</ele>
        <time>2018-01-24T10:33:40Z</time>
      </trkpt>
      <trkpt lat="44.10304" lon="1.78158">
        <ele>307.4</ele>
        <time>2018-01-24T10:33:43Z</time>
      </trkpt>
      <trkpt lat="44.10294" lon="1.78156">
        <ele>308.6</ele>
        <time>2018-01-24T10:33:46Z</time>
      </trkpt>
      <trkpt lat="44.10286" lon="1.78154">
        <ele>309.3</ele>
        <time>2018-01-24T10:33:49Z</time>
      </trkpt>
      <trkpt lat="44.10278" lon="1.78154">
        <ele>309.8</ele>
        <time>2018-01-24T10:33:51Z</time>
      </trkpt>
      <trkpt lat="44.10271" lon="1.78153">
        <ele>310.2</ele>
        <time>2018-01-24T10:33:53Z</time>
      </trkpt>
      <trkpt lat="44.10264" lon="1.78149">
        <ele>310.3</ele>
        <time>2018-01-24T10:33:55Z</time>
      </trkpt>
      <trkpt lat="44.10257" lon="1.78144">
        <ele>310.9</ele>
        <time>2018-01-24T10:33:57Z</time>
      </trkpt>
      <trkpt lat="44.10249" lon="1.78135">
        <ele>311.8</ele>
        <time>2018-01-24T10:34:00Z</time>
      </trkpt>
      <trkpt lat="44.10245" lon="1.78122">
        <ele>312.2</ele>
        <time>2018-01-24T10:34:03Z</time>
      </trkpt>
      <trkpt lat="44.10239" lon="1.7811">
        <ele>312.6</ele>
        <time>2018-01-24T10:34:06Z</time>
      </trkpt>
      <trkpt lat="44.10235" lon="1.781">
        <ele>313.1</ele>
        <time>2018-01-24T10:34:09Z</time>
      </trkpt>
      <trkpt lat="44.1023" lon="1.78092">
        <ele>313.3</ele>
        <time>2018-01-24T10:34:13Z</time>
      </trkpt>
      <trkpt lat="44.10226" lon="1.78083">
        <ele>314</ele>
        <time>2018-01-24T10:34:16Z</time>
      </trkpt>
      <trkpt lat="44.10221" lon="1.78074">
        <ele>314.2</ele>
        <time>2018-01-24T10:34:18Z</time>
      </trkpt>
      <trkpt lat="44.10215" lon="1.78065">
        <ele>314.6</ele>
        <time>2018-01-24T10:34:20Z</time>
      </trkpt>
      <trkpt lat="44.10209" lon="1.78055">
        <ele>314.2</ele>
        <time>2018-01-24T10:34:22Z</time>
      </trkpt>
      <trkpt lat="44.10202" lon="1.78048">
        <ele>314.2</ele>
        <time>2018-01-24T10:34:24Z</time>
      </trkpt>
      <trkpt lat="44.10194" lon="1.78041">
        <ele>314.4</ele>
        <time>2018-01-24T10:34:26Z</time>
      </trkpt>
      <trkpt lat="44.10188" lon="1.78033">
        <ele>314.5</ele>
        <time>2018-01-24T10:34:28Z</time>
      </trkpt>
      <trkpt lat="44.10183" lon="1.78024">
        <ele>314.2</ele>
        <time>2018-01-24T10:34:30Z</time>
      </trkpt>
      <trkpt lat="44.10177" lon="1.78017">
        <ele>314.2</ele>
        <time>2018-01-24T10:34:32Z</time>
      </trkpt>
      <trkpt lat="44.10171" lon="1.78009">
        <ele>313.9</ele>
        <time>2018-01-24T10:34:34Z</time>
      </trkpt>
      <trkpt lat="44.10164" lon="1.78001">
        <ele>313.4</ele>
        <time>2018-01-24T10:34:36Z</time>
      </trkpt>
      <trkpt lat="44.10158" lon="1.7799">
        <ele>313</ele>
        <time>2018-01-24T10:34:38Z</time>
      </trkpt>
      <trkpt lat="44.10152" lon="1.77979">
        <ele>312.8</ele>
        <time>2018-01-24T10:34:40Z</time>
      </trkpt>
      <trkpt lat="44.10147" lon="1.77966">
        <ele>312.3</ele>
        <time>2018-01-24T10:34:42Z</time>
      </trkpt>
      <trkpt lat="44.10141" lon="1.77953">
        <ele>312.2</ele>
        <time>2018-01-24T10:34:44Z</time>
      </trkpt>
      <trkpt lat="44.10134" lon="1.77941">
        <ele>311.6</ele>
        <time>2018-01-24T10:34:46Z</time>
      </trkpt>
      <trkpt lat="44.10128" lon="1.77928">
        <ele>311.1</ele>
        <time>2018-01-24T10:34:48Z</time>
      </trkpt>
      <trkpt lat="44.10121" lon="1.77914">
        <ele>310.8</ele>
        <time>2018-01-24T10:34:50Z</time>
      </trkpt>
      <trkpt lat="44.10112" lon="1.779">
        <ele>310.5</ele>
        <time>2018-01-24T10:34:52Z</time>
      </trkpt>
      <trkpt lat="44.10104" lon="1.77885">
        <ele>309.7</ele>
        <time>2018-01-24T10:34:54Z</time>
      </trkpt>
      <trkpt lat="44.10096" lon="1.77871">
        <ele>309.9</ele>
        <time>2018-01-24T10:34:56Z</time>
      </trkpt>
      <trkpt lat="44.10089" lon="1.77858">
        <ele>310.1</ele>
        <time>2018-01-24T10:34:58Z</time>
      </trkpt>
      <trkpt lat="44.10083" lon="1.77845">
        <ele>310</ele>
        <time>2018-01-24T10:35:00Z</time>
      </trkpt>
      <trkpt lat="44.10076" lon="1.77831">
        <ele>310</ele>
        <time>2018-01-24T10:35:02Z</time>
      </trkpt>
      <trkpt lat="44.10069" lon="1.77818">
        <ele>310.4</ele>
        <time>2018-01-24T10:35:04Z</time>
      </trkpt>
      <trkpt lat="44.10063" lon="1.77803">
        <ele>310.5</ele>
        <time>2018-01-24T10:35:06Z</time>
      </trkpt>
      <trkpt lat="44.10058" lon="1.77787">
        <ele>310.8</ele>
        <time>2018-01-24T10:35:08Z</time>
      </trkpt>
      <trkpt lat="44.1005" lon="1.77773">
        <ele>311.1</ele>
        <time>2018-01-24T10:35:10Z</time>
      </trkpt>
      <trkpt lat="44.10042" lon="1.77758">
        <ele>311.2</ele>
        <time>2018-01-24T10:35:12Z</time>
      </trkpt>
      <trkpt lat="44.10035" lon="1.77743">
        <ele>311.2</ele>
        <time>2018-01-24T10:35:14Z</time>
      </trkpt>
      <trkpt lat="44.10026" lon="1.7773">
        <ele>311.1</ele>
        <time>2018-01-24T10:35:16Z</time>
      </trkpt>
      <trkpt lat="44.10016" lon="1.77716">
        <ele>311</ele>
        <time>2018-01-24T10:35:18Z</time>
      </trkpt>
      <trkpt lat="44.10007" lon="1.77702">
        <ele>310.8</ele>
        <time>2018-01-24T10:35:20Z</time>
      </trkpt>
      <trkpt lat="44.09999" lon="1.77688">
        <ele>310.7</ele>
        <time>2018-01-24T10:35:22Z</time>
      </trkpt>
      <trkpt lat="44.09991" lon="1.77673">
        <ele>310.8</ele>
        <time>2018-01-24T10:35:24Z</time>
      </trkpt>
      <trkpt lat="44.09986" lon="1.77656">
        <ele>310.8</ele>
        <time>2018-01-24T10:35:26Z</time>
      </trkpt>
      <trkpt lat="44.09979" lon="1.77641">
        <ele>310.7</ele>
        <time>2018-01-24T10:35:28Z</time>
      </trkpt>
      <trkpt lat="44.09972" lon="1.77625">
        <ele>310.6</ele>
        <time>2018-01-24T10:35:30Z</time>
      </trkpt>
      <trkpt lat="44.09966" lon="1.7761">
        <ele>310.7</ele>
        <time>2018-01-24T10:35:32Z</time>
      </trkpt>
      <trkpt lat="44.09959" lon="1.77595">
        <ele>310.3</ele>
        <time>2018-01-24T10:35:34Z</time>
      </trkpt>
      <trkpt lat="44.09953" lon="1.7758">
        <ele>310.8</ele>
        <time>2018-01-24T10:35:36Z</time>
      </trkpt>
      <trkpt lat="44.0995" lon="1.77563">
        <ele>311.7</ele>
        <time>2018-01-24T10:35:38Z</time>
      </trkpt>
      <trkpt lat="44.09946" lon="1.77546">
        <ele>311.9</ele>
        <time>2018-01-24T10:35:40Z</time>
      </trkpt>
      <trkpt lat="44.09943" lon="1.77532">
        <ele>312.2</ele>
        <time>2018-01-24T10:35:42Z</time>
      </trkpt>
      <trkpt lat="44.0994" lon="1.77517">
        <ele>312.4</ele>
        <time>2018-01-24T10:35:44Z</time>
      </trkpt>
      <trkpt lat="44.09936" lon="1.77505">
        <ele>312.1</ele>
        <time>2018-01-24T10:35:46Z</time>
      </trkpt>
      <trkpt lat="44.09933" lon="1.77492">
        <ele>311.9</ele>
        <time>2018-01-24T10:35:48Z</time>
      </trkpt>
      <trkpt lat="44.0993" lon="1.7748">
        <ele>311.6</ele>
        <time>2018-01-24T10:35:50Z</time>
      </trkpt>
      <trkpt lat="44.09926" lon="1.77468">
        <ele>311.2</ele>
        <time>2018-01-24T10:35:52Z</time>
      </trkpt>
      <trkpt lat="44.09923" lon="1.77453">
        <ele>310.8</ele>
        <time>2018-01-24T10:35:54Z</time>
      </trkpt>
      <trkpt lat="44.09919" lon="1.77436">
        <ele>310.4</ele>
        <time>2018-01-24T10:35:56Z</time>
      </trkpt>
      <trkpt lat="44.09915" lon="1.77419">
        <ele>310.1</ele>
        <time>2018-01-24T10:35:58Z</time>
      </trkpt>
      <trkpt lat="44.09908" lon="1.77401">
        <ele>309.7</ele>
        <time>2018-01-24T10:36:00Z</time>
      </trkpt>
      <trkpt lat="44.09902" lon="1.77387">
        <ele>309.3</ele>
        <time>2018-01-24T10:36:02Z</time>
      </trkpt>
      <trkpt lat="44.09893" lon="1.77378">
        <ele>308.8</ele>
        <time>2018-01-24T10:36:04Z</time>
      </trkpt>
      <trkpt lat="44.09885" lon="1.77366">
        <ele>308.1</ele>
        <time>2018-01-24T10:36:06Z</time>
      </trkpt>
      <trkpt lat="44.09876" lon="1.77359">
        <ele>307.8</ele>
        <time>2018-01-24T10:36:08Z</time>
      </trkpt>
      <trkpt lat="44.09866" lon="1.77352">
        <ele>307.5</ele>
        <time>2018-01-24T10:36:10Z</time>
      </trkpt>
      <trkpt lat="44.09857" lon="1.77345">
        <ele>307</ele>
        <time>2018-01-24T10:36:12Z</time>
      </trkpt>
      <trkpt lat="44.09848" lon="1.77338">
        <ele>306.1</ele>
        <time>2018-01-24T10:36:14Z</time>
      </trkpt>
      <trkpt lat="44.09839" lon="1.77332">
        <ele>305.4</ele>
        <time>2018-01-24T10:36:16Z</time>
      </trkpt>
      <trkpt lat="44.0983" lon="1.77326">
        <ele>304.8</ele>
        <time>2018-01-24T10:36:18Z</time>
      </trkpt>
      <trkpt lat="44.09821" lon="1.7732">
        <ele>304.2</ele>
        <time>2018-01-24T10:36:20Z</time>
      </trkpt>
      <trkpt lat="44.09813" lon="1.77312">
        <ele>303.8</ele>
        <time>2018-01-24T10:36:22Z</time>
      </trkpt>
      <trkpt lat="44.09805" lon="1.77303">
        <ele>303.6</ele>
        <time>2018-01-24T10:36:24Z</time>
      </trkpt>
      <trkpt lat="44.09798" lon="1.77293">
        <ele>303.7</ele>
        <time>2018-01-24T10:36:26Z</time>
      </trkpt>
      <trkpt lat="44.09791" lon="1.77282">
        <ele>303.5</ele>
        <time>2018-01-24T10:36:28Z</time>
      </trkpt>
      <trkpt lat="44.09784" lon="1.77271">
        <ele>304.3</ele>
        <time>2018-01-24T10:36:30Z</time>
      </trkpt>
      <trkpt lat="44.09779" lon="1.77257">
        <ele>304.5</ele>
        <time>2018-01-24T10:36:32Z</time>
      </trkpt>
      <trkpt lat="44.09773" lon="1.77244">
        <ele>304.8</ele>
        <time>2018-01-24T10:36:34Z</time>
      </trkpt>
      <trkpt lat="44.09767" lon="1.7723">
        <ele>304.9</ele>
        <time>2018-01-24T10:36:36Z</time>
      </trkpt>
      <trkpt lat="44.09762" lon="1.77217">
        <ele>304.7</ele>
        <time>2018-01-24T10:36:38Z</time>
      </trkpt>
      <trkpt lat="44.09756" lon="1.77203">
        <ele>304.4</ele>
        <time>2018-01-24T10:36:40Z</time>
      </trkpt>
      <trkpt lat="44.09752" lon="1.77191">
        <ele>304.7</ele>
        <time>2018-01-24T10:36:42Z</time>
      </trkpt>
      <trkpt lat="44.09751" lon="1.77177">
        <ele>304.9</ele>
        <time>2018-01-24T10:36:44Z</time>
      </trkpt>
      <trkpt lat="44.09755" lon="1.77166">
        <ele>305.3</ele>
        <time>2018-01-24T10:36:46Z</time>
      </trkpt>
      <trkpt lat="44.0976" lon="1.77155">
        <ele>305.4</ele>
        <time>2018-01-24T10:36:48Z</time>
      </trkpt>
      <trkpt lat="44.09762" lon="1.77146">
        <ele>305.2</ele>
        <time>2018-01-24T10:36:50Z</time>
      </trkpt>
      <trkpt lat="44.09762" lon="1.77136">
        <ele>305</ele>
        <time>2018-01-24T10:36:52Z</time>
      </trkpt>
      <trkpt lat="44.09756" lon="1.77127">
        <ele>305.3</ele>
        <time>2018-01-24T10:36:54Z</time>
      </trkpt>
      <trkpt lat="44.09749" lon="1.77119">
        <ele>305.4</ele>
        <time>2018-01-24T10:36:56Z</time>
      </trkpt>
      <trkpt lat="44.09741" lon="1.77112">
        <ele>305.7</ele>
        <time>2018-01-24T10:36:58Z</time>
      </trkpt>
      <trkpt lat="44.09734" lon="1.77109">
        <ele>305.8</ele>
        <time>2018-01-24T10:37:00Z</time>
      </trkpt>
      <trkpt lat="44.09723" lon="1.77112">
        <ele>306.1</ele>
        <time>2018-01-24T10:37:03Z</time>
      </trkpt>
      <trkpt lat="44.09714" lon="1.77114">
        <ele>306.4</ele>
        <time>2018-01-24T10:37:05Z</time>
      </trkpt>
      <trkpt lat="44.09705" lon="1.77114">
        <ele>306.3</ele>
        <time>2018-01-24T10:37:07Z</time>
      </trkpt>
      <trkpt lat="44.09696" lon="1.77113">
        <ele>305.9</ele>
        <time>2018-01-24T10:37:09Z</time>
      </trkpt>
      <trkpt lat="44.09689" lon="1.77107">
        <ele>305.4</ele>
        <time>2018-01-24T10:37:11Z</time>
      </trkpt>
      <trkpt lat="44.09682" lon="1.77102">
        <ele>305.2</ele>
        <time>2018-01-24T10:37:13Z</time>
      </trkpt>
      <trkpt lat="44.09674" lon="1.77098">
        <ele>305.4</ele>
        <time>2018-01-24T10:37:16Z</time>
      </trkpt>
      <trkpt lat="44.09666" lon="1.77092">
        <ele>305.6</ele>
        <time>2018-01-24T10:37:20Z</time>
      </trkpt>
      <trkpt lat="44.09659" lon="1.77083">
        <ele>306.2</ele>
        <time>2018-01-24T10:37:24Z</time>
      </trkpt>
      <trkpt lat="44.09652" lon="1.77077">
        <ele>306.6</ele>
        <time>2018-01-24T10:37:27Z</time>
      </trkpt>
      <trkpt lat="44.09644" lon="1.77071">
        <ele>306.3</ele>
        <time>2018-01-24T10:37:30Z</time>
      </trkpt>
      <trkpt lat="44.09637" lon="1.77065">
        <ele>306.1</ele>
        <time>2018-01-24T10:37:33Z</time>
      </trkpt>
      <trkpt lat="44.09628" lon="1.77059">
        <ele>306</ele>
        <time>2018-01-24T10:37:36Z</time>
      </trkpt>
      <trkpt lat="44.0962" lon="1.77055">
        <ele>305.9</ele>
        <time>2018-01-24T10:37:38Z</time>
      </trkpt>
      <trkpt lat="44.09613" lon="1.77046">
        <ele>305.8</ele>
        <time>2018-01-24T10:37:41Z</time>
      </trkpt>
      <trkpt lat="44.09607" lon="1.77036">
        <ele>305.5</ele>
        <time>2018-01-24T10:37:44Z</time>
      </trkpt>
      <trkpt lat="44.09599" lon="1.77025">
        <ele>305.5</ele>
        <time>2018-01-24T10:37:47Z</time>
      </trkpt>
      <trkpt lat="44.09594" lon="1.77018">
        <ele>305.9</ele>
        <time>2018-01-24T10:37:49Z</time>
      </trkpt>
      <trkpt lat="44.09588" lon="1.77011">
        <ele>306.1</ele>
        <time>2018-01-24T10:37:51Z</time>
      </trkpt>
      <trkpt lat="44.09582" lon="1.77004">
        <ele>305.9</ele>
        <time>2018-01-24T10:37:53Z</time>
      </trkpt>
      <trkpt lat="44.09576" lon="1.76995">
        <ele>305.8</ele>
        <time>2018-01-24T10:37:55Z</time>
      </trkpt>
      <trkpt lat="44.09571" lon="1.76985">
        <ele>305.8</ele>
        <time>2018-01-24T10:37:57Z</time>
      </trkpt>
      <trkpt lat="44.09567" lon="1.76975">
        <ele>305.5</ele>
        <time>2018-01-24T10:37:59Z</time>
      </trkpt>
      <trkpt lat="44.09563" lon="1.76966">
        <ele>305.4</ele>
        <time>2018-01-24T10:38:01Z</time>
      </trkpt>
      <trkpt lat="44.09559" lon="1.76957">
        <ele>305</ele>
        <time>2018-01-24T10:38:03Z</time>
      </trkpt>
      <trkpt lat="44.09552" lon="1.76951">
        <ele>304.7</ele>
        <time>2018-01-24T10:38:05Z</time>
      </trkpt>
      <trkpt lat="44.09544" lon="1.76942">
        <ele>304.1</ele>
        <time>2018-01-24T10:38:08Z</time>
      </trkpt>
      <trkpt lat="44.09537" lon="1.76931">
        <ele>303.9</ele>
        <time>2018-01-24T10:38:11Z</time>
      </trkpt>
      <trkpt lat="44.09529" lon="1.76921">
        <ele>303.7</ele>
        <time>2018-01-24T10:38:14Z</time>
      </trkpt>
      <trkpt lat="44.09523" lon="1.7691">
        <ele>303.5</ele>
        <time>2018-01-24T10:38:17Z</time>
      </trkpt>
      <trkpt lat="44.09518" lon="1.76898">
        <ele>303</ele>
        <time>2018-01-24T10:38:20Z</time>
      </trkpt>
      <trkpt lat="44.09515" lon="1.76888">
        <ele>303</ele>
        <time>2018-01-24T10:38:22Z</time>
      </trkpt>
      <trkpt lat="44.09511" lon="1.76877">
        <ele>302.8</ele>
        <time>2018-01-24T10:38:24Z</time>
      </trkpt>
      <trkpt lat="44.09508" lon="1.76867">
        <ele>302.4</ele>
        <time>2018-01-24T10:38:26Z</time>
      </trkpt>
      <trkpt lat="44.09506" lon="1.76857">
        <ele>302.1</ele>
        <time>2018-01-24T10:38:28Z</time>
      </trkpt>
      <trkpt lat="44.09502" lon="1.76843">
        <ele>301.4</ele>
        <time>2018-01-24T10:38:31Z</time>
      </trkpt>
      <trkpt lat="44.09498" lon="1.76834">
        <ele>301.2</ele>
        <time>2018-01-24T10:38:33Z</time>
      </trkpt>
      <trkpt lat="44.09493" lon="1.76822">
        <ele>300.7</ele>
        <time>2018-01-24T10:38:35Z</time>
      </trkpt>
      <trkpt lat="44.09491" lon="1.76809">
        <ele>300.4</ele>
        <time>2018-01-24T10:38:38Z</time>
      </trkpt>
      <trkpt lat="44.09486" lon="1.76799">
        <ele>300</ele>
        <time>2018-01-24T10:38:40Z</time>
      </trkpt>
      <trkpt lat="44.09481" lon="1.76787">
        <ele>299.7</ele>
        <time>2018-01-24T10:38:42Z</time>
      </trkpt>
      <trkpt lat="44.09475" lon="1.76775">
        <ele>299</ele>
        <time>2018-01-24T10:38:44Z</time>
      </trkpt>
      <trkpt lat="44.0947" lon="1.76763">
        <ele>298.6</ele>
        <time>2018-01-24T10:38:46Z</time>
      </trkpt>
      <trkpt lat="44.09465" lon="1.7675">
        <ele>298.2</ele>
        <time>2018-01-24T10:38:48Z</time>
      </trkpt>
      <trkpt lat="44.09463" lon="1.76738">
        <ele>298.2</ele>
        <time>2018-01-24T10:38:50Z</time>
      </trkpt>
      <trkpt lat="44.0946" lon="1.76727">
        <ele>297.4</ele>
        <time>2018-01-24T10:38:52Z</time>
      </trkpt>
      <trkpt lat="44.09455" lon="1.76717">
        <ele>296.8</ele>
        <time>2018-01-24T10:38:54Z</time>
      </trkpt>
      <trkpt lat="44.0945" lon="1.76706">
        <ele>296.4</ele>
        <time>2018-01-24T10:38:56Z</time>
      </trkpt>
      <trkpt lat="44.09443" lon="1.76698">
        <ele>296</ele>
        <time>2018-01-24T10:38:58Z</time>
      </trkpt>
      <trkpt lat="44.09438" lon="1.76689">
        <ele>295.6</ele>
        <time>2018-01-24T10:39:00Z</time>
      </trkpt>
      <trkpt lat="44.09433" lon="1.76679">
        <ele>295.2</ele>
        <time>2018-01-24T10:39:02Z</time>
      </trkpt>
      <trkpt lat="44.09429" lon="1.7667">
        <ele>294.5</ele>
        <time>2018-01-24T10:39:04Z</time>
      </trkpt>
      <trkpt lat="44.09425" lon="1.76661">
        <ele>293.7</ele>
        <time>2018-01-24T10:39:06Z</time>
      </trkpt>
      <trkpt lat="44.09419" lon="1.76651">
        <ele>293.5</ele>
        <time>2018-01-24T10:39:08Z</time>
      </trkpt>
      <trkpt lat="44.09413" lon="1.76641">
        <ele>294.1</ele>
        <time>2018-01-24T10:39:10Z</time>
      </trkpt>
      <trkpt lat="44.09405" lon="1.76636">
        <ele>294.7</ele>
        <time>2018-01-24T10:39:12Z</time>
      </trkpt>
      <trkpt lat="44.09397" lon="1.76627">
        <ele>295</ele>
        <time>2018-01-24T10:39:15Z</time>
      </trkpt>
      <trkpt lat="44.0939" lon="1.76618">
        <ele>294.8</ele>
        <time>2018-01-24T10:39:17Z</time>
      </trkpt>
      <trkpt lat="44.09384" lon="1.7661">
        <ele>294.4</ele>
        <time>2018-01-24T10:39:19Z</time>
      </trkpt>
      <trkpt lat="44.09375" lon="1.76603">
        <ele>294.5</ele>
        <time>2018-01-24T10:39:21Z</time>
      </trkpt>
      <trkpt lat="44.09365" lon="1.76594">
        <ele>294.5</ele>
        <time>2018-01-24T10:39:23Z</time>
      </trkpt>
      <trkpt lat="44.09357" lon="1.76586">
        <ele>294.9</ele>
        <time>2018-01-24T10:39:25Z</time>
      </trkpt>
      <trkpt lat="44.09349" lon="1.76578">
        <ele>294.8</ele>
        <time>2018-01-24T10:39:27Z</time>
      </trkpt>
      <trkpt lat="44.09343" lon="1.76571">
        <ele>294.7</ele>
        <time>2018-01-24T10:39:29Z</time>
      </trkpt>
      <trkpt lat="44.09335" lon="1.76564">
        <ele>294.5</ele>
        <time>2018-01-24T10:39:32Z</time>
      </trkpt>
      <trkpt lat="44.09329" lon="1.76558">
        <ele>294.3</ele>
        <time>2018-01-24T10:39:34Z</time>
      </trkpt>
      <trkpt lat="44.09322" lon="1.76552">
        <ele>294.3</ele>
        <time>2018-01-24T10:39:36Z</time>
      </trkpt>
      <trkpt lat="44.09316" lon="1.76544">
        <ele>294.1</ele>
        <time>2018-01-24T10:39:38Z</time>
      </trkpt>
      <trkpt lat="44.09307" lon="1.76538">
        <ele>294.1</ele>
        <time>2018-01-24T10:39:41Z</time>
      </trkpt>
      <trkpt lat="44.09299" lon="1.76531">
        <ele>293.9</ele>
        <time>2018-01-24T10:39:44Z</time>
      </trkpt>
      <trkpt lat="44.09293" lon="1.76521">
        <ele>293.7</ele>
        <time>2018-01-24T10:39:47Z</time>
      </trkpt>
      <trkpt lat="44.09288" lon="1.76512">
        <ele>293.6</ele>
        <time>2018-01-24T10:39:49Z</time>
      </trkpt>
      <trkpt lat="44.09282" lon="1.76503">
        <ele>293.7</ele>
        <time>2018-01-24T10:39:51Z</time>
      </trkpt>
      <trkpt lat="44.09276" lon="1.76498">
        <ele>293.6</ele>
        <time>2018-01-24T10:39:53Z</time>
      </trkpt>
      <trkpt lat="44.09268" lon="1.76492">
        <ele>293.3</ele>
        <time>2018-01-24T10:39:55Z</time>
      </trkpt>
      <trkpt lat="44.09261" lon="1.76486">
        <ele>293.1</ele>
        <time>2018-01-24T10:39:57Z</time>
      </trkpt>
      <trkpt lat="44.09254" lon="1.76481">
        <ele>292.9</ele>
        <time>2018-01-24T10:39:59Z</time>
      </trkpt>
      <trkpt lat="44.09246" lon="1.76477">
        <ele>292.6</ele>
        <time>2018-01-24T10:40:01Z</time>
      </trkpt>
      <trkpt lat="44.09236" lon="1.76472">
        <ele>292.3</ele>
        <time>2018-01-24T10:40:03Z</time>
      </trkpt>
      <trkpt lat="44.09228" lon="1.76467">
        <ele>291.8</ele>
        <time>2018-01-24T10:40:05Z</time>
      </trkpt>
      <trkpt lat="44.0922" lon="1.76461">
        <ele>291.3</ele>
        <time>2018-01-24T10:40:07Z</time>
      </trkpt>
      <trkpt lat="44.09214" lon="1.76455">
        <ele>290.8</ele>
        <time>2018-01-24T10:40:09Z</time>
      </trkpt>
      <trkpt lat="44.09205" lon="1.76447">
        <ele>290</ele>
        <time>2018-01-24T10:40:12Z</time>
      </trkpt>
      <trkpt lat="44.09199" lon="1.76441">
        <ele>289.5</ele>
        <time>2018-01-24T10:40:14Z</time>
      </trkpt>
      <trkpt lat="44.0919" lon="1.76437">
        <ele>289</ele>
        <time>2018-01-24T10:40:16Z</time>
      </trkpt>
      <trkpt lat="44.09181" lon="1.76432">
        <ele>288.3</ele>
        <time>2018-01-24T10:40:18Z</time>
      </trkpt>
      <trkpt lat="44.09172" lon="1.7643">
        <ele>287.7</ele>
        <time>2018-01-24T10:40:20Z</time>
      </trkpt>
      <trkpt lat="44.09162" lon="1.76427">
        <ele>287.2</ele>
        <time>2018-01-24T10:40:22Z</time>
      </trkpt>
      <trkpt lat="44.09153" lon="1.76424">
        <ele>286.8</ele>
        <time>2018-01-24T10:40:24Z</time>
      </trkpt>
      <trkpt lat="44.09146" lon="1.76422">
        <ele>286.3</ele>
        <time>2018-01-24T10:40:26Z</time>
      </trkpt>
      <trkpt lat="44.09136" lon="1.7642">
        <ele>286</ele>
        <time>2018-01-24T10:40:29Z</time>
      </trkpt>
      <trkpt lat="44.09126" lon="1.76416">
        <ele>285.4</ele>
        <time>2018-01-24T10:40:32Z</time>
      </trkpt>
      <trkpt lat="44.09115" lon="1.76414">
        <ele>284.9</ele>
        <time>2018-01-24T10:40:35Z</time>
      </trkpt>
      <trkpt lat="44.09105" lon="1.76414">
        <ele>284.8</ele>
        <time>2018-01-24T10:40:38Z</time>
      </trkpt>
      <trkpt lat="44.09098" lon="1.76409">
        <ele>285.7</ele>
        <time>2018-01-24T10:40:41Z</time>
      </trkpt>
      <trkpt lat="44.09094" lon="1.76408">
        <ele>286.2</ele>
        <time>2018-01-24T10:40:48Z</time>
      </trkpt>
      <trkpt lat="44.09095" lon="1.76399">
        <ele>286.2</ele>
        <time>2018-01-24T10:41:04Z</time>
      </trkpt>
      <trkpt lat="44.0909" lon="1.76405">
        <ele>287</ele>
        <time>2018-01-24T10:41:18Z</time>
      </trkpt>
      <trkpt lat="44.09082" lon="1.76403">
        <ele>287.1</ele>
        <time>2018-01-24T10:41:21Z</time>
      </trkpt>
      <trkpt lat="44.09074" lon="1.764">
        <ele>287.1</ele>
        <time>2018-01-24T10:41:23Z</time>
      </trkpt>
      <trkpt lat="44.09065" lon="1.76397">
        <ele>287.1</ele>
        <time>2018-01-24T10:41:26Z</time>
      </trkpt>
      <trkpt lat="44.09056" lon="1.76393">
        <ele>287.2</ele>
        <time>2018-01-24T10:41:29Z</time>
      </trkpt>
      <trkpt lat="44.09048" lon="1.7639">
        <ele>287.4</ele>
        <time>2018-01-24T10:41:31Z</time>
      </trkpt>
      <trkpt lat="44.0904" lon="1.76385">
        <ele>287.7</ele>
        <time>2018-01-24T10:41:34Z</time>
      </trkpt>
      <trkpt lat="44.09035" lon="1.76374">
        <ele>288.4</ele>
        <time>2018-01-24T10:41:37Z</time>
      </trkpt>
      <trkpt lat="44.09031" lon="1.76366">
        <ele>288.6</ele>
        <time>2018-01-24T10:41:40Z</time>
      </trkpt>
      <trkpt lat="44.09025" lon="1.76356">
        <ele>288.9</ele>
        <time>2018-01-24T10:41:44Z</time>
      </trkpt>
      <trkpt lat="44.0902" lon="1.76347">
        <ele>289.7</ele>
        <time>2018-01-24T10:41:48Z</time>
      </trkpt>
      <trkpt lat="44.09015" lon="1.76336">
        <ele>290.6</ele>
        <time>2018-01-24T10:41:52Z</time>
      </trkpt>
      <trkpt lat="44.0901" lon="1.76329">
        <ele>291.5</ele>
        <time>2018-01-24T10:41:56Z</time>
      </trkpt>
      <trkpt lat="44.09005" lon="1.7632">
        <ele>293.1</ele>
        <time>2018-01-24T10:42:01Z</time>
      </trkpt>
      <trkpt lat="44.09001" lon="1.76311">
        <ele>293.6</ele>
        <time>2018-01-24T10:42:06Z</time>
      </trkpt>
      <trkpt lat="44.08997" lon="1.76301">
        <ele>294.4</ele>
        <time>2018-01-24T10:42:11Z</time>
      </trkpt>
      <trkpt lat="44.08992" lon="1.7629">
        <ele>295.2</ele>
        <time>2018-01-24T10:42:15Z</time>
      </trkpt>
      <trkpt lat="44.08986" lon="1.76284">
        <ele>296.1</ele>
        <time>2018-01-24T10:42:19Z</time>
      </trkpt>
      <trkpt lat="44.08981" lon="1.76273">
        <ele>297.6</ele>
        <time>2018-01-24T10:42:24Z</time>
      </trkpt>
      <trkpt lat="44.08979" lon="1.76262">
        <ele>298.1</ele>
        <time>2018-01-24T10:42:28Z</time>
      </trkpt>
      <trkpt lat="44.08973" lon="1.76255">
        <ele>298.3</ele>
        <time>2018-01-24T10:42:33Z</time>
      </trkpt>
      <trkpt lat="44.08969" lon="1.76245">
        <ele>298.1</ele>
        <time>2018-01-24T10:42:37Z</time>
      </trkpt>
      <trkpt lat="44.08967" lon="1.76235">
        <ele>298.4</ele>
        <time>2018-01-24T10:42:41Z</time>
      </trkpt>
      <trkpt lat="44.08963" lon="1.7623">
        <ele>298.5</ele>
        <time>2018-01-24T10:42:48Z</time>
      </trkpt>
      <trkpt lat="44.08955" lon="1.7621">
        <ele>300.6</ele>
        <time>2018-01-24T10:46:20Z</time>
      </trkpt>
      <trkpt lat="44.08949" lon="1.762">
        <ele>300.4</ele>
        <time>2018-01-24T10:46:24Z</time>
      </trkpt>
      <trkpt lat="44.08943" lon="1.76192">
        <ele>300.3</ele>
        <time>2018-01-24T10:46:28Z</time>
      </trkpt>
      <trkpt lat="44.08937" lon="1.76183">
        <ele>300.2</ele>
        <time>2018-01-24T10:46:31Z</time>
      </trkpt>
      <trkpt lat="44.08932" lon="1.76176">
        <ele>300.2</ele>
        <time>2018-01-24T10:46:34Z</time>
      </trkpt>
      <trkpt lat="44.0893" lon="1.76166">
        <ele>300.1</ele>
        <time>2018-01-24T10:46:37Z</time>
      </trkpt>
      <trkpt lat="44.08927" lon="1.76156">
        <ele>299.5</ele>
        <time>2018-01-24T10:46:40Z</time>
      </trkpt>
      <trkpt lat="44.08924" lon="1.76145">
        <ele>299.9</ele>
        <time>2018-01-24T10:46:43Z</time>
      </trkpt>
      <trkpt lat="44.08921" lon="1.76134">
        <ele>300.2</ele>
        <time>2018-01-24T10:46:47Z</time>
      </trkpt>
      <trkpt lat="44.08917" lon="1.76125">
        <ele>299.7</ele>
        <time>2018-01-24T10:46:51Z</time>
      </trkpt>
      <trkpt lat="44.08914" lon="1.76114">
        <ele>298.9</ele>
        <time>2018-01-24T10:46:54Z</time>
      </trkpt>
      <trkpt lat="44.08908" lon="1.76105">
        <ele>298.3</ele>
        <time>2018-01-24T10:46:57Z</time>
      </trkpt>
      <trkpt lat="44.08903" lon="1.76094">
        <ele>297.1</ele>
        <time>2018-01-24T10:47:00Z</time>
      </trkpt>
      <trkpt lat="44.089" lon="1.76082">
        <ele>296.2</ele>
        <time>2018-01-24T10:47:04Z</time>
      </trkpt>
      <trkpt lat="44.08895" lon="1.76071">
        <ele>296.1</ele>
        <time>2018-01-24T10:47:07Z</time>
      </trkpt>
      <trkpt lat="44.08889" lon="1.7606">
        <ele>295.5</ele>
        <time>2018-01-24T10:47:10Z</time>
      </trkpt>
      <trkpt lat="44.08884" lon="1.76051">
        <ele>295.2</ele>
        <time>2018-01-24T10:47:12Z</time>
      </trkpt>
      <trkpt lat="44.08879" lon="1.76041">
        <ele>294.5</ele>
        <time>2018-01-24T10:47:14Z</time>
      </trkpt>
      <trkpt lat="44.08874" lon="1.76031">
        <ele>294</ele>
        <time>2018-01-24T10:47:16Z</time>
      </trkpt>
      <trkpt lat="44.0887" lon="1.76021">
        <ele>293.5</ele>
        <time>2018-01-24T10:47:18Z</time>
      </trkpt>
      <trkpt lat="44.08867" lon="1.76011">
        <ele>293.3</ele>
        <time>2018-01-24T10:47:20Z</time>
      </trkpt>
      <trkpt lat="44.08863" lon="1.76002">
        <ele>293</ele>
        <time>2018-01-24T10:47:22Z</time>
      </trkpt>
      <trkpt lat="44.08858" lon="1.75994">
        <ele>293.1</ele>
        <time>2018-01-24T10:47:24Z</time>
      </trkpt>
      <trkpt lat="44.08853" lon="1.75987">
        <ele>293.4</ele>
        <time>2018-01-24T10:47:26Z</time>
      </trkpt>
      <trkpt lat="44.08849" lon="1.75977">
        <ele>293.3</ele>
        <time>2018-01-24T10:47:28Z</time>
      </trkpt>
      <trkpt lat="44.08846" lon="1.75967">
        <ele>293.1</ele>
        <time>2018-01-24T10:47:30Z</time>
      </trkpt>
      <trkpt lat="44.08844" lon="1.75955">
        <ele>292.9</ele>
        <time>2018-01-24T10:47:33Z</time>
      </trkpt>
      <trkpt lat="44.08839" lon="1.75943">
        <ele>292.7</ele>
        <time>2018-01-24T10:47:36Z</time>
      </trkpt>
      <trkpt lat="44.08834" lon="1.75934">
        <ele>291.9</ele>
        <time>2018-01-24T10:47:39Z</time>
      </trkpt>
      <trkpt lat="44.08831" lon="1.75924">
        <ele>291.2</ele>
        <time>2018-01-24T10:47:41Z</time>
      </trkpt>
      <trkpt lat="44.08827" lon="1.75912">
        <ele>290.4</ele>
        <time>2018-01-24T10:47:43Z</time>
      </trkpt>
      <trkpt lat="44.08822" lon="1.75903">
        <ele>289.6</ele>
        <time>2018-01-24T10:47:45Z</time>
      </trkpt>
      <trkpt lat="44.08817" lon="1.75896">
        <ele>289.2</ele>
        <time>2018-01-24T10:47:47Z</time>
      </trkpt>
      <trkpt lat="44.08811" lon="1.75888">
        <ele>288.8</ele>
        <time>2018-01-24T10:47:49Z</time>
      </trkpt>
      <trkpt lat="44.08808" lon="1.7588">
        <ele>288.7</ele>
        <time>2018-01-24T10:47:52Z</time>
      </trkpt>
      <trkpt lat="44.08804" lon="1.75867">
        <ele>287.9</ele>
        <time>2018-01-24T10:47:55Z</time>
      </trkpt>
      <trkpt lat="44.08803" lon="1.75854">
        <ele>287.9</ele>
        <time>2018-01-24T10:47:58Z</time>
      </trkpt>
      <trkpt lat="44.08801" lon="1.7584">
        <ele>287.5</ele>
        <time>2018-01-24T10:48:01Z</time>
      </trkpt>
      <trkpt lat="44.08797" lon="1.75829">
        <ele>287.6</ele>
        <time>2018-01-24T10:48:03Z</time>
      </trkpt>
      <trkpt lat="44.08793" lon="1.7582">
        <ele>287.9</ele>
        <time>2018-01-24T10:48:05Z</time>
      </trkpt>
      <trkpt lat="44.08786" lon="1.75809">
        <ele>288.2</ele>
        <time>2018-01-24T10:48:08Z</time>
      </trkpt>
      <trkpt lat="44.0878" lon="1.758">
        <ele>288.8</ele>
        <time>2018-01-24T10:48:11Z</time>
      </trkpt>
      <trkpt lat="44.08775" lon="1.75792">
        <ele>289.4</ele>
        <time>2018-01-24T10:48:13Z</time>
      </trkpt>
      <trkpt lat="44.08768" lon="1.75783">
        <ele>290.4</ele>
        <time>2018-01-24T10:48:15Z</time>
      </trkpt>
      <trkpt lat="44.08762" lon="1.75777">
        <ele>290.6</ele>
        <time>2018-01-24T10:48:17Z</time>
      </trkpt>
      <trkpt lat="44.08755" lon="1.75766">
        <ele>290.8</ele>
        <time>2018-01-24T10:48:20Z</time>
      </trkpt>
      <trkpt lat="44.0875" lon="1.75757">
        <ele>291</ele>
        <time>2018-01-24T10:48:23Z</time>
      </trkpt>
      <trkpt lat="44.08749" lon="1.75754">
        <ele>290.8</ele>
        <time>2018-01-24T10:48:30Z</time>
      </trkpt>
      <trkpt lat="44.08745" lon="1.75745">
        <ele>291.5</ele>
        <time>2018-01-24T10:48:49Z</time>
      </trkpt>
      <trkpt lat="44.08741" lon="1.75736">
        <ele>291.5</ele>
        <time>2018-01-24T10:48:52Z</time>
      </trkpt>
      <trkpt lat="44.08737" lon="1.75726">
        <ele>291.4</ele>
        <time>2018-01-24T10:48:56Z</time>
      </trkpt>
      <trkpt lat="44.08731" lon="1.75717">
        <ele>290.5</ele>
        <time>2018-01-24T10:49:01Z</time>
      </trkpt>
      <trkpt lat="44.08729" lon="1.75708">
        <ele>289.9</ele>
        <time>2018-01-24T10:49:06Z</time>
      </trkpt>
      <trkpt lat="44.08726" lon="1.75697">
        <ele>288.7</ele>
        <time>2018-01-24T10:49:20Z</time>
      </trkpt>
      <trkpt lat="44.08726" lon="1.75692">
        <ele>288.3</ele>
        <time>2018-01-24T10:49:27Z</time>
      </trkpt>
      <trkpt lat="44.08731" lon="1.75682">
        <ele>289.9</ele>
        <time>2018-01-24T10:50:20Z</time>
      </trkpt>
      <trkpt lat="44.08737" lon="1.75674">
        <ele>290.3</ele>
        <time>2018-01-24T10:50:24Z</time>
      </trkpt>
      <trkpt lat="44.08743" lon="1.75665">
        <ele>291</ele>
        <time>2018-01-24T10:50:27Z</time>
      </trkpt>
      <trkpt lat="44.08749" lon="1.75656">
        <ele>292.1</ele>
        <time>2018-01-24T10:50:30Z</time>
      </trkpt>
      <trkpt lat="44.08754" lon="1.75648">
        <ele>293.2</ele>
        <time>2018-01-24T10:50:34Z</time>
      </trkpt>
      <trkpt lat="44.0876" lon="1.7564">
        <ele>295.2</ele>
        <time>2018-01-24T10:50:39Z</time>
      </trkpt>
      <trkpt lat="44.08763" lon="1.7563">
        <ele>296.5</ele>
        <time>2018-01-24T10:50:43Z</time>
      </trkpt>
      <trkpt lat="44.08766" lon="1.75617">
        <ele>297.7</ele>
        <time>2018-01-24T10:50:48Z</time>
      </trkpt>
      <trkpt lat="44.08768" lon="1.75607">
        <ele>299.4</ele>
        <time>2018-01-24T10:50:54Z</time>
      </trkpt>
      <trkpt lat="44.08767" lon="1.75595">
        <ele>300.1</ele>
        <time>2018-01-24T10:50:59Z</time>
      </trkpt>
      <trkpt lat="44.08767" lon="1.75592">
        <ele>300.1</ele>
        <time>2018-01-24T10:51:06Z</time>
      </trkpt>
      <trkpt lat="44.08773" lon="1.75581">
        <ele>295.9</ele>
        <time>2018-01-24T10:51:46Z</time>
      </trkpt>
      <trkpt lat="44.08773" lon="1.75571">
        <ele>296.2</ele>
        <time>2018-01-24T10:51:50Z</time>
      </trkpt>
      <trkpt lat="44.08777" lon="1.75562">
        <ele>296.3</ele>
        <time>2018-01-24T10:51:54Z</time>
      </trkpt>
      <trkpt lat="44.08779" lon="1.75552">
        <ele>296.5</ele>
        <time>2018-01-24T10:51:58Z</time>
      </trkpt>
      <trkpt lat="44.08782" lon="1.75541">
        <ele>296.3</ele>
        <time>2018-01-24T10:52:03Z</time>
      </trkpt>
      <trkpt lat="44.08785" lon="1.7553">
        <ele>296.1</ele>
        <time>2018-01-24T10:52:08Z</time>
      </trkpt>
      <trkpt lat="44.08789" lon="1.75517">
        <ele>296.1</ele>
        <time>2018-01-24T10:52:12Z</time>
      </trkpt>
      <trkpt lat="44.08792" lon="1.75508">
        <ele>296.6</ele>
        <time>2018-01-24T10:52:15Z</time>
      </trkpt>
      <trkpt lat="44.08794" lon="1.75495">
        <ele>297.4</ele>
        <time>2018-01-24T10:52:19Z</time>
      </trkpt>
      <trkpt lat="44.08797" lon="1.75484">
        <ele>297.6</ele>
        <time>2018-01-24T10:52:23Z</time>
      </trkpt>
      <trkpt lat="44.08799" lon="1.75471">
        <ele>297.7</ele>
        <time>2018-01-24T10:52:27Z</time>
      </trkpt>
      <trkpt lat="44.08802" lon="1.75458">
        <ele>298</ele>
        <time>2018-01-24T10:52:30Z</time>
      </trkpt>
      <trkpt lat="44.08804" lon="1.75448">
        <ele>298.1</ele>
        <time>2018-01-24T10:52:33Z</time>
      </trkpt>
      <trkpt lat="44.08805" lon="1.75436">
        <ele>298.9</ele>
        <time>2018-01-24T10:52:36Z</time>
      </trkpt>
      <trkpt lat="44.08807" lon="1.75423">
        <ele>299.6</ele>
        <time>2018-01-24T10:52:39Z</time>
      </trkpt>
      <trkpt lat="44.08808" lon="1.75412">
        <ele>300.1</ele>
        <time>2018-01-24T10:52:42Z</time>
      </trkpt>
      <trkpt lat="44.08809" lon="1.75401">
        <ele>300.3</ele>
        <time>2018-01-24T10:52:45Z</time>
      </trkpt>
      <trkpt lat="44.08811" lon="1.75389">
        <ele>300.6</ele>
        <time>2018-01-24T10:52:49Z</time>
      </trkpt>
      <trkpt lat="44.08814" lon="1.75377">
        <ele>300.8</ele>
        <time>2018-01-24T10:52:52Z</time>
      </trkpt>
      <trkpt lat="44.08818" lon="1.75366">
        <ele>301.3</ele>
        <time>2018-01-24T10:52:56Z</time>
      </trkpt>
      <trkpt lat="44.08821" lon="1.75356">
        <ele>301.4</ele>
        <time>2018-01-24T10:52:59Z</time>
      </trkpt>
      <trkpt lat="44.08824" lon="1.75344">
        <ele>302.2</ele>
        <time>2018-01-24T10:53:03Z</time>
      </trkpt>
      <trkpt lat="44.08827" lon="1.75332">
        <ele>302.9</ele>
        <time>2018-01-24T10:53:07Z</time>
      </trkpt>
      <trkpt lat="44.08828" lon="1.75318">
        <ele>303.4</ele>
        <time>2018-01-24T10:53:10Z</time>
      </trkpt>
      <trkpt lat="44.0883" lon="1.75305">
        <ele>303.4</ele>
        <time>2018-01-24T10:53:13Z</time>
      </trkpt>
      <trkpt lat="44.08831" lon="1.75295">
        <ele>303.4</ele>
        <time>2018-01-24T10:53:15Z</time>
      </trkpt>
      <trkpt lat="44.08833" lon="1.75282">
        <ele>303.6</ele>
        <time>2018-01-24T10:53:18Z</time>
      </trkpt>
      <trkpt lat="44.08836" lon="1.75269">
        <ele>303.6</ele>
        <time>2018-01-24T10:53:21Z</time>
      </trkpt>
      <trkpt lat="44.08837" lon="1.75257">
        <ele>303.2</ele>
        <time>2018-01-24T10:53:24Z</time>
      </trkpt>
      <trkpt lat="44.08837" lon="1.75243">
        <ele>302.9</ele>
        <time>2018-01-24T10:53:27Z</time>
      </trkpt>
      <trkpt lat="44.08839" lon="1.7523">
        <ele>302.7</ele>
        <time>2018-01-24T10:53:30Z</time>
      </trkpt>
      <trkpt lat="44.08843" lon="1.7522">
        <ele>302.6</ele>
        <time>2018-01-24T10:53:33Z</time>
      </trkpt>
      <trkpt lat="44.08845" lon="1.75208">
        <ele>303</ele>
        <time>2018-01-24T10:53:37Z</time>
      </trkpt>
      <trkpt lat="44.08848" lon="1.75199">
        <ele>303.5</ele>
        <time>2018-01-24T10:53:40Z</time>
      </trkpt>
      <trkpt lat="44.0885" lon="1.75187">
        <ele>303.1</ele>
        <time>2018-01-24T10:53:43Z</time>
      </trkpt>
      <trkpt lat="44.08855" lon="1.75176">
        <ele>303.1</ele>
        <time>2018-01-24T10:53:47Z</time>
      </trkpt>
      <trkpt lat="44.08856" lon="1.75166">
        <ele>302.2</ele>
        <time>2018-01-24T10:53:52Z</time>
      </trkpt>
      <trkpt lat="44.08854" lon="1.75155">
        <ele>302.1</ele>
        <time>2018-01-24T10:53:59Z</time>
      </trkpt>
      <trkpt lat="44.08856" lon="1.75142">
        <ele>302.4</ele>
        <time>2018-01-24T10:54:04Z</time>
      </trkpt>
      <trkpt lat="44.08858" lon="1.75133">
        <ele>302.3</ele>
        <time>2018-01-24T10:54:10Z</time>
      </trkpt>
      <trkpt lat="44.08859" lon="1.75125">
        <ele>301.9</ele>
        <time>2018-01-24T10:54:17Z</time>
      </trkpt>
      <trkpt lat="44.0886" lon="1.75114">
        <ele>301.2</ele>
        <time>2018-01-24T10:54:24Z</time>
      </trkpt>
      <trkpt lat="44.08861" lon="1.75105">
        <ele>301.1</ele>
        <time>2018-01-24T10:54:31Z</time>
      </trkpt>
      <trkpt lat="44.08861" lon="1.75103">
        <ele>300</ele>
        <time>2018-01-24T10:54:38Z</time>
      </trkpt>
      <trkpt lat="44.08866" lon="1.75102">
        <ele>299.1</ele>
        <time>2018-01-24T10:54:55Z</time>
      </trkpt>
      <trkpt lat="44.08863" lon="1.75101">
        <ele>298.4</ele>
        <time>2018-01-24T10:55:02Z</time>
      </trkpt>
      <trkpt lat="44.08864" lon="1.75094">
        <ele>297.9</ele>
        <time>2018-01-24T10:55:09Z</time>
      </trkpt>
      <trkpt lat="44.08865" lon="1.75086">
        <ele>297.3</ele>
        <time>2018-01-24T10:55:16Z</time>
      </trkpt>
      <trkpt lat="44.08865" lon="1.75075">
        <ele>297.7</ele>
        <time>2018-01-24T10:55:21Z</time>
      </trkpt>
      <trkpt lat="44.08864" lon="1.75063">
        <ele>298.3</ele>
        <time>2018-01-24T10:55:25Z</time>
      </trkpt>
      <trkpt lat="44.08866" lon="1.75052">
        <ele>299.1</ele>
        <time>2018-01-24T10:55:29Z</time>
      </trkpt>
      <trkpt lat="44.08866" lon="1.7504">
        <ele>299.5</ele>
        <time>2018-01-24T10:55:33Z</time>
      </trkpt>
      <trkpt lat="44.0887" lon="1.7503">
        <ele>300.1</ele>
        <time>2018-01-24T10:55:37Z</time>
      </trkpt>
      <trkpt lat="44.08874" lon="1.75018">
        <ele>300.7</ele>
        <time>2018-01-24T10:55:42Z</time>
      </trkpt>
      <trkpt lat="44.08876" lon="1.75006">
        <ele>301.6</ele>
        <time>2018-01-24T10:55:46Z</time>
      </trkpt>
      <trkpt lat="44.08877" lon="1.74996">
        <ele>302</ele>
        <time>2018-01-24T10:55:49Z</time>
      </trkpt>
      <trkpt lat="44.08877" lon="1.74986">
        <ele>301.9</ele>
        <time>2018-01-24T10:55:53Z</time>
      </trkpt>
      <trkpt lat="44.08875" lon="1.74976">
        <ele>302.2</ele>
        <time>2018-01-24T10:55:56Z</time>
      </trkpt>
      <trkpt lat="44.08875" lon="1.74965">
        <ele>302.3</ele>
        <time>2018-01-24T10:56:00Z</time>
      </trkpt>
      <trkpt lat="44.08875" lon="1.74953">
        <ele>302.6</ele>
        <time>2018-01-24T10:56:06Z</time>
      </trkpt>
      <trkpt lat="44.08875" lon="1.74942">
        <ele>303</ele>
        <time>2018-01-24T10:56:10Z</time>
      </trkpt>
      <trkpt lat="44.08873" lon="1.74929">
        <ele>303.7</ele>
        <time>2018-01-24T10:56:14Z</time>
      </trkpt>
      <trkpt lat="44.08873" lon="1.74916">
        <ele>304.4</ele>
        <time>2018-01-24T10:56:18Z</time>
      </trkpt>
      <trkpt lat="44.08871" lon="1.74906">
        <ele>303.3</ele>
        <time>2018-01-24T10:56:23Z</time>
      </trkpt>
      <trkpt lat="44.08871" lon="1.74895">
        <ele>303.8</ele>
        <time>2018-01-24T10:56:27Z</time>
      </trkpt>
      <trkpt lat="44.08874" lon="1.74885">
        <ele>302.8</ele>
        <time>2018-01-24T10:56:31Z</time>
      </trkpt>
      <trkpt lat="44.08876" lon="1.74874">
        <ele>302.7</ele>
        <time>2018-01-24T10:56:36Z</time>
      </trkpt>
      <trkpt lat="44.08878" lon="1.74863">
        <ele>302.4</ele>
        <time>2018-01-24T10:56:40Z</time>
      </trkpt>
      <trkpt lat="44.08879" lon="1.74851">
        <ele>301.4</ele>
        <time>2018-01-24T10:56:44Z</time>
      </trkpt>
      <trkpt lat="44.08882" lon="1.7484">
        <ele>300.8</ele>
        <time>2018-01-24T10:56:47Z</time>
      </trkpt>
      <trkpt lat="44.08885" lon="1.7483">
        <ele>300.1</ele>
        <time>2018-01-24T10:56:50Z</time>
      </trkpt>
      <trkpt lat="44.08888" lon="1.74818">
        <ele>299.6</ele>
        <time>2018-01-24T10:56:54Z</time>
      </trkpt>
      <trkpt lat="44.08892" lon="1.74807">
        <ele>299.3</ele>
        <time>2018-01-24T10:56:58Z</time>
      </trkpt>
      <trkpt lat="44.08893" lon="1.74797">
        <ele>299.3</ele>
        <time>2018-01-24T10:57:01Z</time>
      </trkpt>
      <trkpt lat="44.08892" lon="1.74787">
        <ele>299.4</ele>
        <time>2018-01-24T10:57:04Z</time>
      </trkpt>
      <trkpt lat="44.08891" lon="1.74773">
        <ele>299.3</ele>
        <time>2018-01-24T10:57:08Z</time>
      </trkpt>
      <trkpt lat="44.08892" lon="1.74762">
        <ele>299.1</ele>
        <time>2018-01-24T10:57:11Z</time>
      </trkpt>
      <trkpt lat="44.08892" lon="1.7475">
        <ele>299.1</ele>
        <time>2018-01-24T10:57:14Z</time>
      </trkpt>
      <trkpt lat="44.08892" lon="1.7474">
        <ele>299</ele>
        <time>2018-01-24T10:57:17Z</time>
      </trkpt>
      <trkpt lat="44.0889" lon="1.74728">
        <ele>299.2</ele>
        <time>2018-01-24T10:57:22Z</time>
      </trkpt>
      <trkpt lat="44.08892" lon="1.7472">
        <ele>297.9</ele>
        <time>2018-01-24T10:57:29Z</time>
      </trkpt>
      <trkpt lat="44.08895" lon="1.74716">
        <ele>296.8</ele>
        <time>2018-01-24T10:57:36Z</time>
      </trkpt>
      <trkpt lat="44.08901" lon="1.74706">
        <ele>296.7</ele>
        <time>2018-01-24T10:57:40Z</time>
      </trkpt>
      <trkpt lat="44.08907" lon="1.747">
        <ele>297.2</ele>
        <time>2018-01-24T10:57:43Z</time>
      </trkpt>
      <trkpt lat="44.0891" lon="1.7469">
        <ele>297.7</ele>
        <time>2018-01-24T10:57:47Z</time>
      </trkpt>
      <trkpt lat="44.08911" lon="1.74678">
        <ele>297.9</ele>
        <time>2018-01-24T10:57:52Z</time>
      </trkpt>
      <trkpt lat="44.0891" lon="1.74668">
        <ele>298.1</ele>
        <time>2018-01-24T10:57:55Z</time>
      </trkpt>
      <trkpt lat="44.08908" lon="1.74655">
        <ele>298.5</ele>
        <time>2018-01-24T10:57:59Z</time>
      </trkpt>
      <trkpt lat="44.08908" lon="1.74643">
        <ele>298.5</ele>
        <time>2018-01-24T10:58:02Z</time>
      </trkpt>
      <trkpt lat="44.08908" lon="1.74631">
        <ele>298.4</ele>
        <time>2018-01-24T10:58:05Z</time>
      </trkpt>
      <trkpt lat="44.08909" lon="1.74618">
        <ele>298</ele>
        <time>2018-01-24T10:58:08Z</time>
      </trkpt>
      <trkpt lat="44.08908" lon="1.74605">
        <ele>297.6</ele>
        <time>2018-01-24T10:58:12Z</time>
      </trkpt>
      <trkpt lat="44.08908" lon="1.74593">
        <ele>297.4</ele>
        <time>2018-01-24T10:58:15Z</time>
      </trkpt>
      <trkpt lat="44.08908" lon="1.74582">
        <ele>297</ele>
        <time>2018-01-24T10:58:17Z</time>
      </trkpt>
      <trkpt lat="44.08907" lon="1.74571">
        <ele>296.5</ele>
        <time>2018-01-24T10:58:19Z</time>
      </trkpt>
      <trkpt lat="44.08905" lon="1.74558">
        <ele>295.9</ele>
        <time>2018-01-24T10:58:22Z</time>
      </trkpt>
      <trkpt lat="44.08904" lon="1.74546">
        <ele>295.5</ele>
        <time>2018-01-24T10:58:25Z</time>
      </trkpt>
      <trkpt lat="44.08902" lon="1.74535">
        <ele>295</ele>
        <time>2018-01-24T10:58:28Z</time>
      </trkpt>
      <trkpt lat="44.08901" lon="1.74523">
        <ele>295</ele>
        <time>2018-01-24T10:58:32Z</time>
      </trkpt>
      <trkpt lat="44.08901" lon="1.74512">
        <ele>294.6</ele>
        <time>2018-01-24T10:58:36Z</time>
      </trkpt>
      <trkpt lat="44.08901" lon="1.74502">
        <ele>294.5</ele>
        <time>2018-01-24T10:58:40Z</time>
      </trkpt>
      <trkpt lat="44.08897" lon="1.74489">
        <ele>294.2</ele>
        <time>2018-01-24T10:58:44Z</time>
      </trkpt>
      <trkpt lat="44.08892" lon="1.74476">
        <ele>293.8</ele>
        <time>2018-01-24T10:58:47Z</time>
      </trkpt>
      <trkpt lat="44.08891" lon="1.74463">
        <ele>293.8</ele>
        <time>2018-01-24T10:58:50Z</time>
      </trkpt>
      <trkpt lat="44.08887" lon="1.74452">
        <ele>293.4</ele>
        <time>2018-01-24T10:58:53Z</time>
      </trkpt>
      <trkpt lat="44.08884" lon="1.74443">
        <ele>293.6</ele>
        <time>2018-01-24T10:58:56Z</time>
      </trkpt>
      <trkpt lat="44.08886" lon="1.74432">
        <ele>293.3</ele>
        <time>2018-01-24T10:59:02Z</time>
      </trkpt>
      <trkpt lat="44.08888" lon="1.7442">
        <ele>292.5</ele>
        <time>2018-01-24T10:59:07Z</time>
      </trkpt>
      <trkpt lat="44.08889" lon="1.74409">
        <ele>292.5</ele>
        <time>2018-01-24T10:59:10Z</time>
      </trkpt>
      <trkpt lat="44.08891" lon="1.74399">
        <ele>292.1</ele>
        <time>2018-01-24T10:59:13Z</time>
      </trkpt>
      <trkpt lat="44.08892" lon="1.74388">
        <ele>291.6</ele>
        <time>2018-01-24T10:59:16Z</time>
      </trkpt>
      <trkpt lat="44.08896" lon="1.74378">
        <ele>291</ele>
        <time>2018-01-24T10:59:19Z</time>
      </trkpt>
      <trkpt lat="44.089" lon="1.74367">
        <ele>290.7</ele>
        <time>2018-01-24T10:59:22Z</time>
      </trkpt>
      <trkpt lat="44.08901" lon="1.74356">
        <ele>290.3</ele>
        <time>2018-01-24T10:59:26Z</time>
      </trkpt>
      <trkpt lat="44.08903" lon="1.74345">
        <ele>290</ele>
        <time>2018-01-24T10:59:29Z</time>
      </trkpt>
      <trkpt lat="44.089" lon="1.74334">
        <ele>290.1</ele>
        <time>2018-01-24T10:59:33Z</time>
      </trkpt>
      <trkpt lat="44.08892" lon="1.74331">
        <ele>289.3</ele>
        <time>2018-01-24T10:59:37Z</time>
      </trkpt>
      <trkpt lat="44.08884" lon="1.74324">
        <ele>288.8</ele>
        <time>2018-01-24T10:59:40Z</time>
      </trkpt>
      <trkpt lat="44.08875" lon="1.74318">
        <ele>288.8</ele>
        <time>2018-01-24T10:59:43Z</time>
      </trkpt>
      <trkpt lat="44.08868" lon="1.7431">
        <ele>288.5</ele>
        <time>2018-01-24T10:59:46Z</time>
      </trkpt>
      <trkpt lat="44.0886" lon="1.74301">
        <ele>288.5</ele>
        <time>2018-01-24T10:59:49Z</time>
      </trkpt>
      <trkpt lat="44.08854" lon="1.74293">
        <ele>287.9</ele>
        <time>2018-01-24T10:59:52Z</time>
      </trkpt>
      <trkpt lat="44.08847" lon="1.74287">
        <ele>287.3</ele>
        <time>2018-01-24T10:59:56Z</time>
      </trkpt>
      <trkpt lat="44.08842" lon="1.7428">
        <ele>286.8</ele>
        <time>2018-01-24T10:59:59Z</time>
      </trkpt>
      <trkpt lat="44.08835" lon="1.74272">
        <ele>286</ele>
        <time>2018-01-24T11:00:02Z</time>
      </trkpt>
      <trkpt lat="44.0883" lon="1.74261">
        <ele>284.8</ele>
        <time>2018-01-24T11:00:07Z</time>
      </trkpt>
      <trkpt lat="44.08825" lon="1.74252">
        <ele>283.8</ele>
        <time>2018-01-24T11:00:11Z</time>
      </trkpt>
      <trkpt lat="44.08816" lon="1.7425">
        <ele>282.6</ele>
        <time>2018-01-24T11:00:15Z</time>
      </trkpt>
      <trkpt lat="44.0881" lon="1.74242">
        <ele>281.8</ele>
        <time>2018-01-24T11:00:18Z</time>
      </trkpt>
      <trkpt lat="44.08805" lon="1.74232">
        <ele>281.2</ele>
        <time>2018-01-24T11:00:21Z</time>
      </trkpt>
      <trkpt lat="44.08799" lon="1.74224">
        <ele>280.4</ele>
        <time>2018-01-24T11:00:23Z</time>
      </trkpt>
      <trkpt lat="44.08794" lon="1.74216">
        <ele>279.6</ele>
        <time>2018-01-24T11:00:25Z</time>
      </trkpt>
      <trkpt lat="44.08794" lon="1.74203">
        <ele>278.7</ele>
        <time>2018-01-24T11:00:28Z</time>
      </trkpt>
      <trkpt lat="44.08792" lon="1.74191">
        <ele>277.3</ele>
        <time>2018-01-24T11:00:31Z</time>
      </trkpt>
      <trkpt lat="44.08786" lon="1.7418">
        <ele>276.1</ele>
        <time>2018-01-24T11:00:34Z</time>
      </trkpt>
      <trkpt lat="44.08779" lon="1.74176">
        <ele>275.4</ele>
        <time>2018-01-24T11:00:36Z</time>
      </trkpt>
      <trkpt lat="44.08772" lon="1.74166">
        <ele>274.8</ele>
        <time>2018-01-24T11:00:39Z</time>
      </trkpt>
      <trkpt lat="44.08768" lon="1.74157">
        <ele>275</ele>
        <time>2018-01-24T11:00:41Z</time>
      </trkpt>
      <trkpt lat="44.08761" lon="1.74149">
        <ele>274.9</ele>
        <time>2018-01-24T11:00:44Z</time>
      </trkpt>
      <trkpt lat="44.08754" lon="1.74144">
        <ele>275</ele>
        <time>2018-01-24T11:00:46Z</time>
      </trkpt>
      <trkpt lat="44.08747" lon="1.74139">
        <ele>275.1</ele>
        <time>2018-01-24T11:00:48Z</time>
      </trkpt>
      <trkpt lat="44.08741" lon="1.74127">
        <ele>275.4</ele>
        <time>2018-01-24T11:00:51Z</time>
      </trkpt>
      <trkpt lat="44.08735" lon="1.74122">
        <ele>275.3</ele>
        <time>2018-01-24T11:00:53Z</time>
      </trkpt>
      <trkpt lat="44.08726" lon="1.74122">
        <ele>275.4</ele>
        <time>2018-01-24T11:00:56Z</time>
      </trkpt>
      <trkpt lat="44.08718" lon="1.74121">
        <ele>276.8</ele>
        <time>2018-01-24T11:00:59Z</time>
      </trkpt>
      <trkpt lat="44.0871" lon="1.74115">
        <ele>278.4</ele>
        <time>2018-01-24T11:01:02Z</time>
      </trkpt>
      <trkpt lat="44.08704" lon="1.74107">
        <ele>280.2</ele>
        <time>2018-01-24T11:01:05Z</time>
      </trkpt>
      <trkpt lat="44.08695" lon="1.74099">
        <ele>281.5</ele>
        <time>2018-01-24T11:01:08Z</time>
      </trkpt>
      <trkpt lat="44.08687" lon="1.74091">
        <ele>282.3</ele>
        <time>2018-01-24T11:01:11Z</time>
      </trkpt>
      <trkpt lat="44.08677" lon="1.74087">
        <ele>283.7</ele>
        <time>2018-01-24T11:01:14Z</time>
      </trkpt>
      <trkpt lat="44.08671" lon="1.74082">
        <ele>284.7</ele>
        <time>2018-01-24T11:01:17Z</time>
      </trkpt>
      <trkpt lat="44.08664" lon="1.74075">
        <ele>285.5</ele>
        <time>2018-01-24T11:01:20Z</time>
      </trkpt>
      <trkpt lat="44.08655" lon="1.7407">
        <ele>286.1</ele>
        <time>2018-01-24T11:01:23Z</time>
      </trkpt>
      <trkpt lat="44.08648" lon="1.74064">
        <ele>286.5</ele>
        <time>2018-01-24T11:01:26Z</time>
      </trkpt>
      <trkpt lat="44.08641" lon="1.74058">
        <ele>287</ele>
        <time>2018-01-24T11:01:31Z</time>
      </trkpt>
      <trkpt lat="44.08634" lon="1.74052">
        <ele>287.6</ele>
        <time>2018-01-24T11:01:35Z</time>
      </trkpt>
      <trkpt lat="44.08633" lon="1.74044">
        <ele>288.1</ele>
        <time>2018-01-24T11:01:42Z</time>
      </trkpt>
      <trkpt lat="44.0863" lon="1.74034">
        <ele>287.4</ele>
        <time>2018-01-24T11:01:51Z</time>
      </trkpt>
      <trkpt lat="44.08623" lon="1.74028">
        <ele>287.1</ele>
        <time>2018-01-24T11:01:56Z</time>
      </trkpt>
      <trkpt lat="44.08616" lon="1.74023">
        <ele>286.8</ele>
        <time>2018-01-24T11:01:59Z</time>
      </trkpt>
      <trkpt lat="44.0861" lon="1.74018">
        <ele>286.4</ele>
        <time>2018-01-24T11:02:02Z</time>
      </trkpt>
      <trkpt lat="44.08604" lon="1.7401">
        <ele>286.5</ele>
        <time>2018-01-24T11:02:05Z</time>
      </trkpt>
      <trkpt lat="44.08597" lon="1.74002">
        <ele>286.4</ele>
        <time>2018-01-24T11:02:09Z</time>
      </trkpt>
      <trkpt lat="44.08595" lon="1.74001">
        <ele>286</ele>
        <time>2018-01-24T11:02:16Z</time>
      </trkpt>
      <trkpt lat="44.086" lon="1.74001">
        <ele>285.5</ele>
        <time>2018-01-24T11:02:33Z</time>
      </trkpt>
      <trkpt lat="44.08599" lon="1.73997">
        <ele>285.4</ele>
        <time>2018-01-24T11:04:09Z</time>
      </trkpt>
      <trkpt lat="44.08596" lon="1.73999">
        <ele>285.3</ele>
        <time>2018-01-24T11:04:16Z</time>
      </trkpt>
      <trkpt lat="44.08594" lon="1.74003">
        <ele>285.1</ele>
        <time>2018-01-24T11:04:23Z</time>
      </trkpt>
      <trkpt lat="44.08596" lon="1.73999">
        <ele>284.8</ele>
        <time>2018-01-24T11:04:30Z</time>
      </trkpt>
      <trkpt lat="44.08596" lon="1.73999">
        <ele>284.7</ele>
        <time>2018-01-24T11:04:37Z</time>
      </trkpt>
      <trkpt lat="44.086" lon="1.74003">
        <ele>287.3</ele>
        <time>2018-01-24T11:07:27Z</time>
      </trkpt>
      <trkpt lat="44.08599" lon="1.74006">
        <ele>287.3</ele>
        <time>2018-01-24T11:07:34Z</time>
      </trkpt>
      <trkpt lat="44.08599" lon="1.73997">
        <ele>287</ele>
        <time>2018-01-24T11:07:41Z</time>
      </trkpt>
      <trkpt lat="44.08594" lon="1.73996">
        <ele>286.9</ele>
        <time>2018-01-24T11:07:48Z</time>
      </trkpt>
      <trkpt lat="44.08591" lon="1.74005">
        <ele>287.3</ele>
        <time>2018-01-24T11:34:39Z</time>
      </trkpt>
      <trkpt lat="44.08595" lon="1.73997">
        <ele>287.1</ele>
        <time>2018-01-24T11:34:58Z</time>
      </trkpt>
      <trkpt lat="44.08605" lon="1.73996">
        <ele>288.4</ele>
        <time>2018-01-24T11:42:31Z</time>
      </trkpt>
      <trkpt lat="44.08612" lon="1.73991">
        <ele>288.5</ele>
        <time>2018-01-24T11:42:35Z</time>
      </trkpt>
      <trkpt lat="44.08621" lon="1.73986">
        <ele>288.5</ele>
        <time>2018-01-24T11:42:40Z</time>
      </trkpt>
      <trkpt lat="44.0863" lon="1.73983">
        <ele>288.8</ele>
        <time>2018-01-24T11:42:44Z</time>
      </trkpt>
      <trkpt lat="44.08639" lon="1.73982">
        <ele>288.6</ele>
        <time>2018-01-24T11:42:48Z</time>
      </trkpt>
      <trkpt lat="44.08648" lon="1.73978">
        <ele>288.8</ele>
        <time>2018-01-24T11:42:51Z</time>
      </trkpt>
      <trkpt lat="44.08656" lon="1.73974">
        <ele>288</ele>
        <time>2018-01-24T11:42:54Z</time>
      </trkpt>
      <trkpt lat="44.08663" lon="1.7397">
        <ele>288.2</ele>
        <time>2018-01-24T11:42:57Z</time>
      </trkpt>
      <trkpt lat="44.08671" lon="1.73969">
        <ele>288</ele>
        <time>2018-01-24T11:42:59Z</time>
      </trkpt>
      <trkpt lat="44.08679" lon="1.73967">
        <ele>287.7</ele>
        <time>2018-01-24T11:43:02Z</time>
      </trkpt>
      <trkpt lat="44.08688" lon="1.73967">
        <ele>288.2</ele>
        <time>2018-01-24T11:43:05Z</time>
      </trkpt>
      <trkpt lat="44.08696" lon="1.73967">
        <ele>287.4</ele>
        <time>2018-01-24T11:43:08Z</time>
      </trkpt>
      <trkpt lat="44.08704" lon="1.73965">
        <ele>288.2</ele>
        <time>2018-01-24T11:43:11Z</time>
      </trkpt>
      <trkpt lat="44.08712" lon="1.73964">
        <ele>288.2</ele>
        <time>2018-01-24T11:43:14Z</time>
      </trkpt>
      <trkpt lat="44.08722" lon="1.73965">
        <ele>288.1</ele>
        <time>2018-01-24T11:43:17Z</time>
      </trkpt>
      <trkpt lat="44.08732" lon="1.73965">
        <ele>287.7</ele>
        <time>2018-01-24T11:43:20Z</time>
      </trkpt>
      <trkpt lat="44.0874" lon="1.73965">
        <ele>288.3</ele>
        <time>2018-01-24T11:43:23Z</time>
      </trkpt>
      <trkpt lat="44.08747" lon="1.73967">
        <ele>287.7</ele>
        <time>2018-01-24T11:43:26Z</time>
      </trkpt>
      <trkpt lat="44.08756" lon="1.73967">
        <ele>288.7</ele>
        <time>2018-01-24T11:43:30Z</time>
      </trkpt>
      <trkpt lat="44.08764" lon="1.73965">
        <ele>289.9</ele>
        <time>2018-01-24T11:43:34Z</time>
      </trkpt>
      <trkpt lat="44.08773" lon="1.73964">
        <ele>289.7</ele>
        <time>2018-01-24T11:43:38Z</time>
      </trkpt>
      <trkpt lat="44.08783" lon="1.73962">
        <ele>289.9</ele>
        <time>2018-01-24T11:43:42Z</time>
      </trkpt>
      <trkpt lat="44.08792" lon="1.73961">
        <ele>290.9</ele>
        <time>2018-01-24T11:43:46Z</time>
      </trkpt>
      <trkpt lat="44.088" lon="1.7396">
        <ele>291.5</ele>
        <time>2018-01-24T11:43:49Z</time>
      </trkpt>
      <trkpt lat="44.08809" lon="1.73959">
        <ele>293.2</ele>
        <time>2018-01-24T11:43:52Z</time>
      </trkpt>
      <trkpt lat="44.08816" lon="1.73958">
        <ele>295.4</ele>
        <time>2018-01-24T11:43:55Z</time>
      </trkpt>
      <trkpt lat="44.08825" lon="1.73956">
        <ele>297</ele>
        <time>2018-01-24T11:43:59Z</time>
      </trkpt>
      <trkpt lat="44.08835" lon="1.73957">
        <ele>297.8</ele>
        <time>2018-01-24T11:44:03Z</time>
      </trkpt>
      <trkpt lat="44.08842" lon="1.73959">
        <ele>299.3</ele>
        <time>2018-01-24T11:44:07Z</time>
      </trkpt>
      <trkpt lat="44.08851" lon="1.73961">
        <ele>300.1</ele>
        <time>2018-01-24T11:44:11Z</time>
      </trkpt>
      <trkpt lat="44.0886" lon="1.73964">
        <ele>301.1</ele>
        <time>2018-01-24T11:44:15Z</time>
      </trkpt>
      <trkpt lat="44.08867" lon="1.7397">
        <ele>302.3</ele>
        <time>2018-01-24T11:44:20Z</time>
      </trkpt>
      <trkpt lat="44.08873" lon="1.73979">
        <ele>303.5</ele>
        <time>2018-01-24T11:44:24Z</time>
      </trkpt>
      <trkpt lat="44.08879" lon="1.73986">
        <ele>304.8</ele>
        <time>2018-01-24T11:44:28Z</time>
      </trkpt>
      <trkpt lat="44.08885" lon="1.73993">
        <ele>305.8</ele>
        <time>2018-01-24T11:44:32Z</time>
      </trkpt>
      <trkpt lat="44.08891" lon="1.74001">
        <ele>307.7</ele>
        <time>2018-01-24T11:44:37Z</time>
      </trkpt>
      <trkpt lat="44.08897" lon="1.74009">
        <ele>308.8</ele>
        <time>2018-01-24T11:44:41Z</time>
      </trkpt>
      <trkpt lat="44.08905" lon="1.74013">
        <ele>308.8</ele>
        <time>2018-01-24T11:44:45Z</time>
      </trkpt>
      <trkpt lat="44.08912" lon="1.74014">
        <ele>308.1</ele>
        <time>2018-01-24T11:44:49Z</time>
      </trkpt>
      <trkpt lat="44.08921" lon="1.74013">
        <ele>309.5</ele>
        <time>2018-01-24T11:44:54Z</time>
      </trkpt>
      <trkpt lat="44.08929" lon="1.74009">
        <ele>310.9</ele>
        <time>2018-01-24T11:45:00Z</time>
      </trkpt>
      <trkpt lat="44.08938" lon="1.74006">
        <ele>310.8</ele>
        <time>2018-01-24T11:45:05Z</time>
      </trkpt>
      <trkpt lat="44.08946" lon="1.74001">
        <ele>311.2</ele>
        <time>2018-01-24T11:45:09Z</time>
      </trkpt>
      <trkpt lat="44.08953" lon="1.73996">
        <ele>311.4</ele>
        <time>2018-01-24T11:45:13Z</time>
      </trkpt>
      <trkpt lat="44.08961" lon="1.73991">
        <ele>311.6</ele>
        <time>2018-01-24T11:45:17Z</time>
      </trkpt>
      <trkpt lat="44.0897" lon="1.73985">
        <ele>311.2</ele>
        <time>2018-01-24T11:45:21Z</time>
      </trkpt>
      <trkpt lat="44.08977" lon="1.73977">
        <ele>311.6</ele>
        <time>2018-01-24T11:45:25Z</time>
      </trkpt>
      <trkpt lat="44.08983" lon="1.73972">
        <ele>312.4</ele>
        <time>2018-01-24T11:45:28Z</time>
      </trkpt>
      <trkpt lat="44.0899" lon="1.73967">
        <ele>311.8</ele>
        <time>2018-01-24T11:45:31Z</time>
      </trkpt>
      <trkpt lat="44.08999" lon="1.73965">
        <ele>310.5</ele>
        <time>2018-01-24T11:45:35Z</time>
      </trkpt>
      <trkpt lat="44.09006" lon="1.73964">
        <ele>309.3</ele>
        <time>2018-01-24T11:45:39Z</time>
      </trkpt>
      <trkpt lat="44.09014" lon="1.73963">
        <ele>307.8</ele>
        <time>2018-01-24T11:45:43Z</time>
      </trkpt>
      <trkpt lat="44.09023" lon="1.73961">
        <ele>306.5</ele>
        <time>2018-01-24T11:45:47Z</time>
      </trkpt>
      <trkpt lat="44.09032" lon="1.73959">
        <ele>306.1</ele>
        <time>2018-01-24T11:45:51Z</time>
      </trkpt>
      <trkpt lat="44.09041" lon="1.73957">
        <ele>305</ele>
        <time>2018-01-24T11:45:55Z</time>
      </trkpt>
      <trkpt lat="44.09049" lon="1.73956">
        <ele>303.5</ele>
        <time>2018-01-24T11:46:00Z</time>
      </trkpt>
      <trkpt lat="44.09056" lon="1.73953">
        <ele>302.7</ele>
        <time>2018-01-24T11:46:04Z</time>
      </trkpt>
      <trkpt lat="44.09064" lon="1.7395">
        <ele>301.9</ele>
        <time>2018-01-24T11:46:07Z</time>
      </trkpt>
      <trkpt lat="44.09075" lon="1.73947">
        <ele>299.5</ele>
        <time>2018-01-24T11:46:10Z</time>
      </trkpt>
      <trkpt lat="44.09084" lon="1.73946">
        <ele>298.4</ele>
        <time>2018-01-24T11:46:12Z</time>
      </trkpt>
      <trkpt lat="44.09092" lon="1.73947">
        <ele>297.1</ele>
        <time>2018-01-24T11:46:14Z</time>
      </trkpt>
      <trkpt lat="44.09101" lon="1.73946">
        <ele>295.7</ele>
        <time>2018-01-24T11:46:17Z</time>
      </trkpt>
      <trkpt lat="44.09109" lon="1.73949">
        <ele>294.6</ele>
        <time>2018-01-24T11:46:20Z</time>
      </trkpt>
      <trkpt lat="44.09117" lon="1.73948">
        <ele>294.4</ele>
        <time>2018-01-24T11:46:23Z</time>
      </trkpt>
      <trkpt lat="44.09125" lon="1.73948">
        <ele>293.5</ele>
        <time>2018-01-24T11:46:26Z</time>
      </trkpt>
      <trkpt lat="44.09132" lon="1.73948">
        <ele>292.9</ele>
        <time>2018-01-24T11:46:28Z</time>
      </trkpt>
      <trkpt lat="44.0914" lon="1.7395">
        <ele>292.2</ele>
        <time>2018-01-24T11:46:30Z</time>
      </trkpt>
      <trkpt lat="44.09148" lon="1.73952">
        <ele>291</ele>
        <time>2018-01-24T11:46:32Z</time>
      </trkpt>
      <trkpt lat="44.09156" lon="1.73954">
        <ele>290.1</ele>
        <time>2018-01-24T11:46:34Z</time>
      </trkpt>
      <trkpt lat="44.09164" lon="1.73956">
        <ele>288.9</ele>
        <time>2018-01-24T11:46:37Z</time>
      </trkpt>
      <trkpt lat="44.09174" lon="1.73955">
        <ele>289.4</ele>
        <time>2018-01-24T11:46:41Z</time>
      </trkpt>
      <trkpt lat="44.09183" lon="1.73955">
        <ele>289.1</ele>
        <time>2018-01-24T11:46:44Z</time>
      </trkpt>
      <trkpt lat="44.09192" lon="1.73955">
        <ele>290.2</ele>
        <time>2018-01-24T11:46:48Z</time>
      </trkpt>
      <trkpt lat="44.092" lon="1.73953">
        <ele>293.5</ele>
        <time>2018-01-24T11:46:52Z</time>
      </trkpt>
      <trkpt lat="44.09208" lon="1.73952">
        <ele>293.4</ele>
        <time>2018-01-24T11:46:56Z</time>
      </trkpt>
      <trkpt lat="44.09217" lon="1.73951">
        <ele>293.4</ele>
        <time>2018-01-24T11:46:59Z</time>
      </trkpt>
      <trkpt lat="44.09225" lon="1.7395">
        <ele>293.4</ele>
        <time>2018-01-24T11:47:02Z</time>
      </trkpt>
      <trkpt lat="44.09233" lon="1.73953">
        <ele>293.3</ele>
        <time>2018-01-24T11:47:05Z</time>
      </trkpt>
      <trkpt lat="44.09241" lon="1.73956">
        <ele>293.8</ele>
        <time>2018-01-24T11:47:08Z</time>
      </trkpt>
      <trkpt lat="44.09249" lon="1.73961">
        <ele>294.3</ele>
        <time>2018-01-24T11:47:11Z</time>
      </trkpt>
      <trkpt lat="44.09257" lon="1.73967">
        <ele>295.2</ele>
        <time>2018-01-24T11:47:15Z</time>
      </trkpt>
      <trkpt lat="44.09264" lon="1.73974">
        <ele>295.6</ele>
        <time>2018-01-24T11:47:19Z</time>
      </trkpt>
      <trkpt lat="44.09271" lon="1.7398">
        <ele>295.8</ele>
        <time>2018-01-24T11:47:22Z</time>
      </trkpt>
      <trkpt lat="44.09277" lon="1.73988">
        <ele>296.7</ele>
        <time>2018-01-24T11:47:25Z</time>
      </trkpt>
      <trkpt lat="44.09281" lon="1.73996">
        <ele>297.8</ele>
        <time>2018-01-24T11:47:28Z</time>
      </trkpt>
      <trkpt lat="44.09286" lon="1.74005">
        <ele>298.5</ele>
        <time>2018-01-24T11:47:31Z</time>
      </trkpt>
      <trkpt lat="44.09292" lon="1.74016">
        <ele>299.6</ele>
        <time>2018-01-24T11:47:35Z</time>
      </trkpt>
      <trkpt lat="44.09296" lon="1.74027">
        <ele>300.4</ele>
        <time>2018-01-24T11:47:39Z</time>
      </trkpt>
      <trkpt lat="44.09302" lon="1.74034">
        <ele>301.2</ele>
        <time>2018-01-24T11:47:42Z</time>
      </trkpt>
      <trkpt lat="44.09309" lon="1.74038">
        <ele>301</ele>
        <time>2018-01-24T11:47:46Z</time>
      </trkpt>
      <trkpt lat="44.09317" lon="1.74042">
        <ele>300.5</ele>
        <time>2018-01-24T11:47:50Z</time>
      </trkpt>
      <trkpt lat="44.09324" lon="1.74046">
        <ele>300.6</ele>
        <time>2018-01-24T11:47:54Z</time>
      </trkpt>
      <trkpt lat="44.09332" lon="1.74048">
        <ele>300.7</ele>
        <time>2018-01-24T11:47:58Z</time>
      </trkpt>
      <trkpt lat="44.0934" lon="1.74051">
        <ele>300.3</ele>
        <time>2018-01-24T11:48:03Z</time>
      </trkpt>
      <trkpt lat="44.09347" lon="1.74054">
        <ele>300.3</ele>
        <time>2018-01-24T11:48:06Z</time>
      </trkpt>
      <trkpt lat="44.09356" lon="1.74057">
        <ele>298.1</ele>
        <time>2018-01-24T11:48:10Z</time>
      </trkpt>
      <trkpt lat="44.09363" lon="1.74061">
        <ele>298.5</ele>
        <time>2018-01-24T11:48:13Z</time>
      </trkpt>
      <trkpt lat="44.0937" lon="1.74064">
        <ele>298.8</ele>
        <time>2018-01-24T11:48:17Z</time>
      </trkpt>
      <trkpt lat="44.09379" lon="1.74067">
        <ele>299.4</ele>
        <time>2018-01-24T11:48:21Z</time>
      </trkpt>
      <trkpt lat="44.09388" lon="1.74069">
        <ele>300.4</ele>
        <time>2018-01-24T11:48:25Z</time>
      </trkpt>
      <trkpt lat="44.09395" lon="1.74071">
        <ele>300.1</ele>
        <time>2018-01-24T11:48:29Z</time>
      </trkpt>
      <trkpt lat="44.09404" lon="1.74073">
        <ele>300.3</ele>
        <time>2018-01-24T11:48:34Z</time>
      </trkpt>
      <trkpt lat="44.09411" lon="1.74077">
        <ele>300</ele>
        <time>2018-01-24T11:48:38Z</time>
      </trkpt>
      <trkpt lat="44.09416" lon="1.74087">
        <ele>300</ele>
        <time>2018-01-24T11:48:43Z</time>
      </trkpt>
      <trkpt lat="44.09422" lon="1.74096">
        <ele>300.4</ele>
        <time>2018-01-24T11:48:46Z</time>
      </trkpt>
      <trkpt lat="44.09429" lon="1.74102">
        <ele>301.4</ele>
        <time>2018-01-24T11:48:50Z</time>
      </trkpt>
      <trkpt lat="44.09438" lon="1.7411">
        <ele>302.8</ele>
        <time>2018-01-24T11:48:54Z</time>
      </trkpt>
      <trkpt lat="44.09444" lon="1.74117">
        <ele>304.9</ele>
        <time>2018-01-24T11:48:57Z</time>
      </trkpt>
      <trkpt lat="44.0945" lon="1.74123">
        <ele>306.2</ele>
        <time>2018-01-24T11:49:00Z</time>
      </trkpt>
      <trkpt lat="44.09458" lon="1.7413">
        <ele>306.6</ele>
        <time>2018-01-24T11:49:04Z</time>
      </trkpt>
      <trkpt lat="44.09466" lon="1.74134">
        <ele>306.4</ele>
        <time>2018-01-24T11:49:08Z</time>
      </trkpt>
      <trkpt lat="44.09474" lon="1.74138">
        <ele>308</ele>
        <time>2018-01-24T11:49:11Z</time>
      </trkpt>
      <trkpt lat="44.09478" lon="1.74147">
        <ele>308.5</ele>
        <time>2018-01-24T11:49:14Z</time>
      </trkpt>
      <trkpt lat="44.09484" lon="1.74157">
        <ele>308.9</ele>
        <time>2018-01-24T11:49:18Z</time>
      </trkpt>
      <trkpt lat="44.09489" lon="1.74165">
        <ele>309.8</ele>
        <time>2018-01-24T11:49:21Z</time>
      </trkpt>
      <trkpt lat="44.09494" lon="1.74172">
        <ele>310.4</ele>
        <time>2018-01-24T11:49:24Z</time>
      </trkpt>
      <trkpt lat="44.09503" lon="1.74175">
        <ele>311.1</ele>
        <time>2018-01-24T11:49:29Z</time>
      </trkpt>
      <trkpt lat="44.0951" lon="1.74181">
        <ele>313.1</ele>
        <time>2018-01-24T11:49:34Z</time>
      </trkpt>
      <trkpt lat="44.09516" lon="1.74189">
        <ele>313.5</ele>
        <time>2018-01-24T11:49:37Z</time>
      </trkpt>
      <trkpt lat="44.0952" lon="1.74196">
        <ele>314</ele>
        <time>2018-01-24T11:49:41Z</time>
      </trkpt>
      <trkpt lat="44.09529" lon="1.74198">
        <ele>312.7</ele>
        <time>2018-01-24T11:49:46Z</time>
      </trkpt>
      <trkpt lat="44.09537" lon="1.74197">
        <ele>311.9</ele>
        <time>2018-01-24T11:49:51Z</time>
      </trkpt>
      <trkpt lat="44.09545" lon="1.74196">
        <ele>311.7</ele>
        <time>2018-01-24T11:49:55Z</time>
      </trkpt>
      <trkpt lat="44.09552" lon="1.74197">
        <ele>312.2</ele>
        <time>2018-01-24T11:49:59Z</time>
      </trkpt>
      <trkpt lat="44.09561" lon="1.74204">
        <ele>313.1</ele>
        <time>2018-01-24T11:50:05Z</time>
      </trkpt>
      <trkpt lat="44.09567" lon="1.7421">
        <ele>314</ele>
        <time>2018-01-24T11:50:09Z</time>
      </trkpt>
      <trkpt lat="44.09575" lon="1.74214">
        <ele>314.8</ele>
        <time>2018-01-24T11:50:13Z</time>
      </trkpt>
      <trkpt lat="44.09582" lon="1.74217">
        <ele>315.4</ele>
        <time>2018-01-24T11:50:17Z</time>
      </trkpt>
      <trkpt lat="44.0959" lon="1.74217">
        <ele>317.3</ele>
        <time>2018-01-24T11:50:22Z</time>
      </trkpt>
      <trkpt lat="44.09597" lon="1.74221">
        <ele>319.2</ele>
        <time>2018-01-24T11:50:27Z</time>
      </trkpt>
      <trkpt lat="44.09602" lon="1.74231">
        <ele>320.2</ele>
        <time>2018-01-24T11:50:31Z</time>
      </trkpt>
      <trkpt lat="44.09608" lon="1.74239">
        <ele>321</ele>
        <time>2018-01-24T11:50:34Z</time>
      </trkpt>
      <trkpt lat="44.09613" lon="1.74248">
        <ele>321.6</ele>
        <time>2018-01-24T11:50:38Z</time>
      </trkpt>
      <trkpt lat="44.09618" lon="1.74261">
        <ele>322.6</ele>
        <time>2018-01-24T11:50:41Z</time>
      </trkpt>
      <trkpt lat="44.09623" lon="1.74272">
        <ele>323.1</ele>
        <time>2018-01-24T11:50:44Z</time>
      </trkpt>
      <trkpt lat="44.0963" lon="1.74283">
        <ele>323.2</ele>
        <time>2018-01-24T11:50:47Z</time>
      </trkpt>
      <trkpt lat="44.09635" lon="1.74293">
        <ele>323.1</ele>
        <time>2018-01-24T11:50:50Z</time>
      </trkpt>
      <trkpt lat="44.09641" lon="1.74306">
        <ele>323.2</ele>
        <time>2018-01-24T11:50:53Z</time>
      </trkpt>
      <trkpt lat="44.09644" lon="1.74315">
        <ele>323.5</ele>
        <time>2018-01-24T11:50:55Z</time>
      </trkpt>
      <trkpt lat="44.09648" lon="1.74325">
        <ele>323.6</ele>
        <time>2018-01-24T11:50:57Z</time>
      </trkpt>
      <trkpt lat="44.09651" lon="1.74334">
        <ele>323.5</ele>
        <time>2018-01-24T11:50:59Z</time>
      </trkpt>
      <trkpt lat="44.09656" lon="1.74343">
        <ele>323.1</ele>
        <time>2018-01-24T11:51:01Z</time>
      </trkpt>
      <trkpt lat="44.0966" lon="1.74353">
        <ele>323</ele>
        <time>2018-01-24T11:51:03Z</time>
      </trkpt>
      <trkpt lat="44.09664" lon="1.74363">
        <ele>323.1</ele>
        <time>2018-01-24T11:51:05Z</time>
      </trkpt>
      <trkpt lat="44.09668" lon="1.74372">
        <ele>322.8</ele>
        <time>2018-01-24T11:51:07Z</time>
      </trkpt>
      <trkpt lat="44.09673" lon="1.74383">
        <ele>322.4</ele>
        <time>2018-01-24T11:51:10Z</time>
      </trkpt>
      <trkpt lat="44.09677" lon="1.74396">
        <ele>322</ele>
        <time>2018-01-24T11:51:13Z</time>
      </trkpt>
      <trkpt lat="44.09681" lon="1.74405">
        <ele>322</ele>
        <time>2018-01-24T11:51:15Z</time>
      </trkpt>
      <trkpt lat="44.09684" lon="1.74414">
        <ele>321.9</ele>
        <time>2018-01-24T11:51:17Z</time>
      </trkpt>
      <trkpt lat="44.09691" lon="1.74424">
        <ele>322</ele>
        <time>2018-01-24T11:51:20Z</time>
      </trkpt>
      <trkpt lat="44.09696" lon="1.74432">
        <ele>322.1</ele>
        <time>2018-01-24T11:51:22Z</time>
      </trkpt>
      <trkpt lat="44.09705" lon="1.74441">
        <ele>322.8</ele>
        <time>2018-01-24T11:51:25Z</time>
      </trkpt>
      <trkpt lat="44.09713" lon="1.74451">
        <ele>323.1</ele>
        <time>2018-01-24T11:51:28Z</time>
      </trkpt>
      <trkpt lat="44.09718" lon="1.74459">
        <ele>323.5</ele>
        <time>2018-01-24T11:51:30Z</time>
      </trkpt>
      <trkpt lat="44.09725" lon="1.74465">
        <ele>324.2</ele>
        <time>2018-01-24T11:51:32Z</time>
      </trkpt>
      <trkpt lat="44.09733" lon="1.74475">
        <ele>325.4</ele>
        <time>2018-01-24T11:51:35Z</time>
      </trkpt>
      <trkpt lat="44.09739" lon="1.74483">
        <ele>325</ele>
        <time>2018-01-24T11:51:37Z</time>
      </trkpt>
      <trkpt lat="44.09744" lon="1.7449">
        <ele>326.1</ele>
        <time>2018-01-24T11:51:39Z</time>
      </trkpt>
      <trkpt lat="44.0975" lon="1.74497">
        <ele>327.5</ele>
        <time>2018-01-24T11:51:41Z</time>
      </trkpt>
      <trkpt lat="44.09756" lon="1.74506">
        <ele>327.9</ele>
        <time>2018-01-24T11:51:43Z</time>
      </trkpt>
      <trkpt lat="44.09762" lon="1.74516">
        <ele>329.5</ele>
        <time>2018-01-24T11:51:45Z</time>
      </trkpt>
      <trkpt lat="44.09767" lon="1.74525">
        <ele>330.1</ele>
        <time>2018-01-24T11:51:47Z</time>
      </trkpt>
      <trkpt lat="44.09772" lon="1.74535">
        <ele>328.6</ele>
        <time>2018-01-24T11:51:49Z</time>
      </trkpt>
      <trkpt lat="44.09779" lon="1.74544">
        <ele>329.9</ele>
        <time>2018-01-24T11:51:51Z</time>
      </trkpt>
      <trkpt lat="44.09786" lon="1.74553">
        <ele>330.1</ele>
        <time>2018-01-24T11:51:53Z</time>
      </trkpt>
      <trkpt lat="44.09794" lon="1.7456">
        <ele>329.9</ele>
        <time>2018-01-24T11:51:55Z</time>
      </trkpt>
      <trkpt lat="44.09805" lon="1.74566">
        <ele>329.3</ele>
        <time>2018-01-24T11:51:57Z</time>
      </trkpt>
      <trkpt lat="44.09815" lon="1.74573">
        <ele>328.2</ele>
        <time>2018-01-24T11:51:59Z</time>
      </trkpt>
      <trkpt lat="44.09825" lon="1.74582">
        <ele>326.2</ele>
        <time>2018-01-24T11:52:01Z</time>
      </trkpt>
      <trkpt lat="44.09836" lon="1.7459">
        <ele>324.4</ele>
        <time>2018-01-24T11:52:03Z</time>
      </trkpt>
      <trkpt lat="44.09845" lon="1.74598">
        <ele>322.9</ele>
        <time>2018-01-24T11:52:05Z</time>
      </trkpt>
      <trkpt lat="44.09855" lon="1.74606">
        <ele>321.9</ele>
        <time>2018-01-24T11:52:07Z</time>
      </trkpt>
      <trkpt lat="44.09862" lon="1.74613">
        <ele>320.5</ele>
        <time>2018-01-24T11:52:09Z</time>
      </trkpt>
      <trkpt lat="44.09869" lon="1.7462">
        <ele>321</ele>
        <time>2018-01-24T11:52:11Z</time>
      </trkpt>
      <trkpt lat="44.09875" lon="1.74628">
        <ele>319.7</ele>
        <time>2018-01-24T11:52:14Z</time>
      </trkpt>
      <trkpt lat="44.09876" lon="1.74629">
        <ele>318.4</ele>
        <time>2018-01-24T11:52:21Z</time>
      </trkpt>
      <trkpt lat="44.09878" lon="1.74639">
        <ele>313</ele>
        <time>2018-01-24T11:51:49Z</time>
      </trkpt>
      <trkpt lat="44.09878" lon="1.74641">
        <ele>312.2</ele>
        <time>2018-01-24T11:53:01Z</time>
      </trkpt>
      <trkpt lat="44.0988" lon="1.74645">
        <ele>308.7</ele>
        <time>2018-01-24T11:52:49Z</time>
      </trkpt>
      <trkpt lat="44.09886" lon="1.74653">
        <ele>307.1</ele>
        <time>2018-01-24T11:54:18Z</time>
      </trkpt>
      <trkpt lat="44.09895" lon="1.74658">
        <ele>307.6</ele>
        <time>2018-01-24T11:54:22Z</time>
      </trkpt>
      <trkpt lat="44.09903" lon="1.74663">
        <ele>307.7</ele>
        <time>2018-01-24T11:54:25Z</time>
      </trkpt>
      <trkpt lat="44.09911" lon="1.74668">
        <ele>308.2</ele>
        <time>2018-01-24T11:54:28Z</time>
      </trkpt>
      <trkpt lat="44.09919" lon="1.74674">
        <ele>307.5</ele>
        <time>2018-01-24T11:54:31Z</time>
      </trkpt>
      <trkpt lat="44.09927" lon="1.74673">
        <ele>306.6</ele>
        <time>2018-01-24T11:54:33Z</time>
      </trkpt>
      <trkpt lat="44.09934" lon="1.74665">
        <ele>306.3</ele>
        <time>2018-01-24T11:54:36Z</time>
      </trkpt>
      <trkpt lat="44.09942" lon="1.74658">
        <ele>306.9</ele>
        <time>2018-01-24T11:54:39Z</time>
      </trkpt>
      <trkpt lat="44.09951" lon="1.74651">
        <ele>308.2</ele>
        <time>2018-01-24T11:54:42Z</time>
      </trkpt>
      <trkpt lat="44.09957" lon="1.74645">
        <ele>309.5</ele>
        <time>2018-01-24T11:54:45Z</time>
      </trkpt>
      <trkpt lat="44.09966" lon="1.74637">
        <ele>310.2</ele>
        <time>2018-01-24T11:54:48Z</time>
      </trkpt>
      <trkpt lat="44.09973" lon="1.74629">
        <ele>310.1</ele>
        <time>2018-01-24T11:54:50Z</time>
      </trkpt>
      <trkpt lat="44.0998" lon="1.74623">
        <ele>310.3</ele>
        <time>2018-01-24T11:54:53Z</time>
      </trkpt>
      <trkpt lat="44.09986" lon="1.74617">
        <ele>310.5</ele>
        <time>2018-01-24T11:54:56Z</time>
      </trkpt>
      <trkpt lat="44.09993" lon="1.74616">
        <ele>311.1</ele>
        <time>2018-01-24T11:54:59Z</time>
      </trkpt>
      <trkpt lat="44.10001" lon="1.7462">
        <ele>310.3</ele>
        <time>2018-01-24T11:55:02Z</time>
      </trkpt>
      <trkpt lat="44.1001" lon="1.74627">
        <ele>309.9</ele>
        <time>2018-01-24T11:55:05Z</time>
      </trkpt>
      <trkpt lat="44.10016" lon="1.74633">
        <ele>309.7</ele>
        <time>2018-01-24T11:55:07Z</time>
      </trkpt>
      <trkpt lat="44.10022" lon="1.74638">
        <ele>309.9</ele>
        <time>2018-01-24T11:55:09Z</time>
      </trkpt>
      <trkpt lat="44.1003" lon="1.74642">
        <ele>309.6</ele>
        <time>2018-01-24T11:55:11Z</time>
      </trkpt>
      <trkpt lat="44.10038" lon="1.74645">
        <ele>309</ele>
        <time>2018-01-24T11:55:13Z</time>
      </trkpt>
      <trkpt lat="44.10045" lon="1.74648">
        <ele>309.2</ele>
        <time>2018-01-24T11:55:15Z</time>
      </trkpt>
      <trkpt lat="44.10051" lon="1.74655">
        <ele>310.3</ele>
        <time>2018-01-24T11:55:17Z</time>
      </trkpt>
      <trkpt lat="44.10057" lon="1.74663">
        <ele>309.8</ele>
        <time>2018-01-24T11:55:19Z</time>
      </trkpt>
      <trkpt lat="44.10062" lon="1.74671">
        <ele>310.3</ele>
        <time>2018-01-24T11:55:21Z</time>
      </trkpt>
      <trkpt lat="44.10065" lon="1.7468">
        <ele>310.3</ele>
        <time>2018-01-24T11:55:23Z</time>
      </trkpt>
      <trkpt lat="44.1007" lon="1.74691">
        <ele>311</ele>
        <time>2018-01-24T11:55:26Z</time>
      </trkpt>
      <trkpt lat="44.10076" lon="1.74701">
        <ele>311.2</ele>
        <time>2018-01-24T11:55:29Z</time>
      </trkpt>
      <trkpt lat="44.10081" lon="1.74713">
        <ele>311.4</ele>
        <time>2018-01-24T11:55:32Z</time>
      </trkpt>
      <trkpt lat="44.10087" lon="1.7472">
        <ele>311.9</ele>
        <time>2018-01-24T11:55:34Z</time>
      </trkpt>
      <trkpt lat="44.10094" lon="1.74728">
        <ele>312.5</ele>
        <time>2018-01-24T11:55:37Z</time>
      </trkpt>
      <trkpt lat="44.10102" lon="1.74736">
        <ele>312</ele>
        <time>2018-01-24T11:55:40Z</time>
      </trkpt>
      <trkpt lat="44.10108" lon="1.74746">
        <ele>311.9</ele>
        <time>2018-01-24T11:55:43Z</time>
      </trkpt>
      <trkpt lat="44.10115" lon="1.74753">
        <ele>311.6</ele>
        <time>2018-01-24T11:55:46Z</time>
      </trkpt>
      <trkpt lat="44.10122" lon="1.74763">
        <ele>311.3</ele>
        <time>2018-01-24T11:55:50Z</time>
      </trkpt>
      <trkpt lat="44.1013" lon="1.7477">
        <ele>311.2</ele>
        <time>2018-01-24T11:55:53Z</time>
      </trkpt>
      <trkpt lat="44.10139" lon="1.74779">
        <ele>311.5</ele>
        <time>2018-01-24T11:55:56Z</time>
      </trkpt>
      <trkpt lat="44.10145" lon="1.74787">
        <ele>311.9</ele>
        <time>2018-01-24T11:55:59Z</time>
      </trkpt>
      <trkpt lat="44.10152" lon="1.74796">
        <ele>311.9</ele>
        <time>2018-01-24T11:56:02Z</time>
      </trkpt>
      <trkpt lat="44.10159" lon="1.74803">
        <ele>312.5</ele>
        <time>2018-01-24T11:56:05Z</time>
      </trkpt>
      <trkpt lat="44.10167" lon="1.74809">
        <ele>312.5</ele>
        <time>2018-01-24T11:56:09Z</time>
      </trkpt>
      <trkpt lat="44.10173" lon="1.74816">
        <ele>312.4</ele>
        <time>2018-01-24T11:56:12Z</time>
      </trkpt>
      <trkpt lat="44.1018" lon="1.74824">
        <ele>312.8</ele>
        <time>2018-01-24T11:56:16Z</time>
      </trkpt>
      <trkpt lat="44.10187" lon="1.74831">
        <ele>312.8</ele>
        <time>2018-01-24T11:56:20Z</time>
      </trkpt>
      <trkpt lat="44.10194" lon="1.74836">
        <ele>312.4</ele>
        <time>2018-01-24T11:56:24Z</time>
      </trkpt>
      <trkpt lat="44.10201" lon="1.74838">
        <ele>310.8</ele>
        <time>2018-01-24T11:56:28Z</time>
      </trkpt>
      <trkpt lat="44.1021" lon="1.74833">
        <ele>309.5</ele>
        <time>2018-01-24T11:56:32Z</time>
      </trkpt>
      <trkpt lat="44.10213" lon="1.7483">
        <ele>307.1</ele>
        <time>2018-01-24T11:56:39Z</time>
      </trkpt>
      <trkpt lat="44.10221" lon="1.74824">
        <ele>304.8</ele>
        <time>2018-01-24T11:57:00Z</time>
      </trkpt>
      <trkpt lat="44.10228" lon="1.74817">
        <ele>304.5</ele>
        <time>2018-01-24T11:57:04Z</time>
      </trkpt>
      <trkpt lat="44.10235" lon="1.74812">
        <ele>303.9</ele>
        <time>2018-01-24T11:57:07Z</time>
      </trkpt>
      <trkpt lat="44.10242" lon="1.74808">
        <ele>303.2</ele>
        <time>2018-01-24T11:57:10Z</time>
      </trkpt>
      <trkpt lat="44.10248" lon="1.74803">
        <ele>303.2</ele>
        <time>2018-01-24T11:57:13Z</time>
      </trkpt>
      <trkpt lat="44.10256" lon="1.74798">
        <ele>303.7</ele>
        <time>2018-01-24T11:57:16Z</time>
      </trkpt>
      <trkpt lat="44.10263" lon="1.74793">
        <ele>303.5</ele>
        <time>2018-01-24T11:57:19Z</time>
      </trkpt>
      <trkpt lat="44.10269" lon="1.74788">
        <ele>303.6</ele>
        <time>2018-01-24T11:57:22Z</time>
      </trkpt>
      <trkpt lat="44.10276" lon="1.74784">
        <ele>303.8</ele>
        <time>2018-01-24T11:57:25Z</time>
      </trkpt>
      <trkpt lat="44.10283" lon="1.74779">
        <ele>304.4</ele>
        <time>2018-01-24T11:57:28Z</time>
      </trkpt>
      <trkpt lat="44.10292" lon="1.74772">
        <ele>304.3</ele>
        <time>2018-01-24T11:57:32Z</time>
      </trkpt>
      <trkpt lat="44.103" lon="1.74767">
        <ele>304.8</ele>
        <time>2018-01-24T11:57:36Z</time>
      </trkpt>
      <trkpt lat="44.10307" lon="1.74761">
        <ele>305</ele>
        <time>2018-01-24T11:57:39Z</time>
      </trkpt>
      <trkpt lat="44.10313" lon="1.74756">
        <ele>305.1</ele>
        <time>2018-01-24T11:57:42Z</time>
      </trkpt>
      <trkpt lat="44.1032" lon="1.74752">
        <ele>305.3</ele>
        <time>2018-01-24T11:57:45Z</time>
      </trkpt>
      <trkpt lat="44.10328" lon="1.7475">
        <ele>305.5</ele>
        <time>2018-01-24T11:57:48Z</time>
      </trkpt>
      <trkpt lat="44.10337" lon="1.74747">
        <ele>306.7</ele>
        <time>2018-01-24T11:57:51Z</time>
      </trkpt>
      <trkpt lat="44.10344" lon="1.74743">
        <ele>307.3</ele>
        <time>2018-01-24T11:57:54Z</time>
      </trkpt>
      <trkpt lat="44.10349" lon="1.74736">
        <ele>307.8</ele>
        <time>2018-01-24T11:58:00Z</time>
      </trkpt>
      <trkpt lat="44.10353" lon="1.74735">
        <ele>308.9</ele>
        <time>2018-01-24T11:58:07Z</time>
      </trkpt>
      <trkpt lat="44.10359" lon="1.74726">
        <ele>302.8</ele>
        <time>2018-01-24T12:00:26Z</time>
      </trkpt>
      <trkpt lat="44.10363" lon="1.74716">
        <ele>303.1</ele>
        <time>2018-01-24T12:00:30Z</time>
      </trkpt>
      <trkpt lat="44.10369" lon="1.74706">
        <ele>303.6</ele>
        <time>2018-01-24T12:00:33Z</time>
      </trkpt>
      <trkpt lat="44.10377" lon="1.74696">
        <ele>303.3</ele>
        <time>2018-01-24T12:00:36Z</time>
      </trkpt>
      <trkpt lat="44.10383" lon="1.7469">
        <ele>303.7</ele>
        <time>2018-01-24T12:00:39Z</time>
      </trkpt>
      <trkpt lat="44.10391" lon="1.74685">
        <ele>303.6</ele>
        <time>2018-01-24T12:00:42Z</time>
      </trkpt>
      <trkpt lat="44.104" lon="1.74679">
        <ele>303.8</ele>
        <time>2018-01-24T12:00:45Z</time>
      </trkpt>
      <trkpt lat="44.10408" lon="1.74671">
        <ele>304</ele>
        <time>2018-01-24T12:00:48Z</time>
      </trkpt>
      <trkpt lat="44.10416" lon="1.74662">
        <ele>304.2</ele>
        <time>2018-01-24T12:00:51Z</time>
      </trkpt>
      <trkpt lat="44.10422" lon="1.74651">
        <ele>304.9</ele>
        <time>2018-01-24T12:00:54Z</time>
      </trkpt>
      <trkpt lat="44.10428" lon="1.74641">
        <ele>305.1</ele>
        <time>2018-01-24T12:00:57Z</time>
      </trkpt>
      <trkpt lat="44.10434" lon="1.74631">
        <ele>305.3</ele>
        <time>2018-01-24T12:01:00Z</time>
      </trkpt>
      <trkpt lat="44.10438" lon="1.74619">
        <ele>305.5</ele>
        <time>2018-01-24T12:01:03Z</time>
      </trkpt>
      <trkpt lat="44.10441" lon="1.74609">
        <ele>305.7</ele>
        <time>2018-01-24T12:01:06Z</time>
      </trkpt>
      <trkpt lat="44.10447" lon="1.746">
        <ele>305.9</ele>
        <time>2018-01-24T12:01:09Z</time>
      </trkpt>
      <trkpt lat="44.10453" lon="1.74592">
        <ele>306.7</ele>
        <time>2018-01-24T12:01:12Z</time>
      </trkpt>
      <trkpt lat="44.10459" lon="1.74587">
        <ele>307.6</ele>
        <time>2018-01-24T12:01:15Z</time>
      </trkpt>
      <trkpt lat="44.10466" lon="1.74581">
        <ele>308.2</ele>
        <time>2018-01-24T12:01:19Z</time>
      </trkpt>
      <trkpt lat="44.10474" lon="1.74575">
        <ele>308.8</ele>
        <time>2018-01-24T12:01:23Z</time>
      </trkpt>
      <trkpt lat="44.10482" lon="1.74571">
        <ele>309.7</ele>
        <time>2018-01-24T12:01:27Z</time>
      </trkpt>
      <trkpt lat="44.1049" lon="1.74565">
        <ele>310.9</ele>
        <time>2018-01-24T12:01:31Z</time>
      </trkpt>
      <trkpt lat="44.10498" lon="1.74561">
        <ele>311.5</ele>
        <time>2018-01-24T12:01:34Z</time>
      </trkpt>
      <trkpt lat="44.10507" lon="1.74555">
        <ele>312.3</ele>
        <time>2018-01-24T12:01:37Z</time>
      </trkpt>
      <trkpt lat="44.10513" lon="1.74547">
        <ele>313.1</ele>
        <time>2018-01-24T12:01:40Z</time>
      </trkpt>
      <trkpt lat="44.1052" lon="1.7454">
        <ele>313.4</ele>
        <time>2018-01-24T12:01:43Z</time>
      </trkpt>
      <trkpt lat="44.10525" lon="1.74531">
        <ele>314.3</ele>
        <time>2018-01-24T12:01:46Z</time>
      </trkpt>
      <trkpt lat="44.10532" lon="1.74524">
        <ele>314.8</ele>
        <time>2018-01-24T12:01:49Z</time>
      </trkpt>
      <trkpt lat="44.10537" lon="1.74517">
        <ele>315.9</ele>
        <time>2018-01-24T12:01:52Z</time>
      </trkpt>
      <trkpt lat="44.10544" lon="1.74511">
        <ele>315</ele>
        <time>2018-01-24T12:01:55Z</time>
      </trkpt>
      <trkpt lat="44.10553" lon="1.74503">
        <ele>314.7</ele>
        <time>2018-01-24T12:01:58Z</time>
      </trkpt>
      <trkpt lat="44.10559" lon="1.74496">
        <ele>315.4</ele>
        <time>2018-01-24T12:02:01Z</time>
      </trkpt>
      <trkpt lat="44.10565" lon="1.74489">
        <ele>315.8</ele>
        <time>2018-01-24T12:02:04Z</time>
      </trkpt>
      <trkpt lat="44.1057" lon="1.74479">
        <ele>317.6</ele>
        <time>2018-01-24T12:02:07Z</time>
      </trkpt>
      <trkpt lat="44.10576" lon="1.74472">
        <ele>317.4</ele>
        <time>2018-01-24T12:02:10Z</time>
      </trkpt>
      <trkpt lat="44.10584" lon="1.74463">
        <ele>318.3</ele>
        <time>2018-01-24T12:02:14Z</time>
      </trkpt>
      <trkpt lat="44.1059" lon="1.74455">
        <ele>318.4</ele>
        <time>2018-01-24T12:02:17Z</time>
      </trkpt>
      <trkpt lat="44.10597" lon="1.74445">
        <ele>319.1</ele>
        <time>2018-01-24T12:02:20Z</time>
      </trkpt>
      <trkpt lat="44.10601" lon="1.74436">
        <ele>317.9</ele>
        <time>2018-01-24T12:02:23Z</time>
      </trkpt>
      <trkpt lat="44.10606" lon="1.74426">
        <ele>317.9</ele>
        <time>2018-01-24T12:02:26Z</time>
      </trkpt>
      <trkpt lat="44.10612" lon="1.74415">
        <ele>317.1</ele>
        <time>2018-01-24T12:02:29Z</time>
      </trkpt>
      <trkpt lat="44.10616" lon="1.74404">
        <ele>315.7</ele>
        <time>2018-01-24T12:02:32Z</time>
      </trkpt>
      <trkpt lat="44.10615" lon="1.7439">
        <ele>315</ele>
        <time>2018-01-24T12:02:35Z</time>
      </trkpt>
      <trkpt lat="44.10612" lon="1.74376">
        <ele>315.4</ele>
        <time>2018-01-24T12:02:38Z</time>
      </trkpt>
      <trkpt lat="44.10608" lon="1.74367">
        <ele>315.7</ele>
        <time>2018-01-24T12:02:40Z</time>
      </trkpt>
      <trkpt lat="44.10603" lon="1.74354">
        <ele>315.7</ele>
        <time>2018-01-24T12:02:43Z</time>
      </trkpt>
      <trkpt lat="44.10598" lon="1.74344">
        <ele>315.6</ele>
        <time>2018-01-24T12:02:45Z</time>
      </trkpt>
      <trkpt lat="44.10593" lon="1.74337">
        <ele>315.5</ele>
        <time>2018-01-24T12:02:47Z</time>
      </trkpt>
      <trkpt lat="44.10587" lon="1.74329">
        <ele>315</ele>
        <time>2018-01-24T12:02:49Z</time>
      </trkpt>
      <trkpt lat="44.10579" lon="1.7432">
        <ele>314.4</ele>
        <time>2018-01-24T12:02:51Z</time>
      </trkpt>
      <trkpt lat="44.10569" lon="1.74311">
        <ele>314.6</ele>
        <time>2018-01-24T12:02:53Z</time>
      </trkpt>
      <trkpt lat="44.1056" lon="1.74301">
        <ele>313.9</ele>
        <time>2018-01-24T12:02:55Z</time>
      </trkpt>
      <trkpt lat="44.10552" lon="1.7429">
        <ele>313.3</ele>
        <time>2018-01-24T12:02:57Z</time>
      </trkpt>
      <trkpt lat="44.10543" lon="1.7428">
        <ele>312.7</ele>
        <time>2018-01-24T12:02:59Z</time>
      </trkpt>
      <trkpt lat="44.10534" lon="1.7427">
        <ele>313.3</ele>
        <time>2018-01-24T12:03:01Z</time>
      </trkpt>
      <trkpt lat="44.10525" lon="1.74258">
        <ele>314.3</ele>
        <time>2018-01-24T12:03:03Z</time>
      </trkpt>
      <trkpt lat="44.1052" lon="1.74244">
        <ele>315.4</ele>
        <time>2018-01-24T12:03:05Z</time>
      </trkpt>
      <trkpt lat="44.10517" lon="1.74227">
        <ele>315.8</ele>
        <time>2018-01-24T12:03:07Z</time>
      </trkpt>
      <trkpt lat="44.10513" lon="1.74208">
        <ele>316</ele>
        <time>2018-01-24T12:03:09Z</time>
      </trkpt>
      <trkpt lat="44.1051" lon="1.74199">
        <ele>316.2</ele>
        <time>2018-01-24T12:03:10Z</time>
      </trkpt>
      <trkpt lat="44.10506" lon="1.7419">
        <ele>316.3</ele>
        <time>2018-01-24T12:03:11Z</time>
      </trkpt>
      <trkpt lat="44.105" lon="1.74173">
        <ele>316.8</ele>
        <time>2018-01-24T12:03:13Z</time>
      </trkpt>
      <trkpt lat="44.10496" lon="1.74157">
        <ele>317</ele>
        <time>2018-01-24T12:03:15Z</time>
      </trkpt>
      <trkpt lat="44.10488" lon="1.7414">
        <ele>317.1</ele>
        <time>2018-01-24T12:03:17Z</time>
      </trkpt>
      <trkpt lat="44.1048" lon="1.74127">
        <ele>316.9</ele>
        <time>2018-01-24T12:03:19Z</time>
      </trkpt>
      <trkpt lat="44.10473" lon="1.74116">
        <ele>317.3</ele>
        <time>2018-01-24T12:03:21Z</time>
      </trkpt>
      <trkpt lat="44.10467" lon="1.74102">
        <ele>317.8</ele>
        <time>2018-01-24T12:03:23Z</time>
      </trkpt>
      <trkpt lat="44.1046" lon="1.74089">
        <ele>318.4</ele>
        <time>2018-01-24T12:03:25Z</time>
      </trkpt>
      <trkpt lat="44.10453" lon="1.74078">
        <ele>318.6</ele>
        <time>2018-01-24T12:03:27Z</time>
      </trkpt>
      <trkpt lat="44.10446" lon="1.74065">
        <ele>319</ele>
        <time>2018-01-24T12:03:29Z</time>
      </trkpt>
      <trkpt lat="44.10439" lon="1.74051">
        <ele>319.2</ele>
        <time>2018-01-24T12:03:31Z</time>
      </trkpt>
      <trkpt lat="44.10431" lon="1.7404">
        <ele>319.5</ele>
        <time>2018-01-24T12:03:33Z</time>
      </trkpt>
      <trkpt lat="44.10423" lon="1.7403">
        <ele>319.9</ele>
        <time>2018-01-24T12:03:35Z</time>
      </trkpt>
      <trkpt lat="44.10415" lon="1.74021">
        <ele>319.6</ele>
        <time>2018-01-24T12:03:37Z</time>
      </trkpt>
      <trkpt lat="44.10407" lon="1.74009">
        <ele>320.7</ele>
        <time>2018-01-24T12:03:39Z</time>
      </trkpt>
      <trkpt lat="44.10404" lon="1.73993">
        <ele>321.5</ele>
        <time>2018-01-24T12:03:41Z</time>
      </trkpt>
      <trkpt lat="44.10404" lon="1.73976">
        <ele>321.2</ele>
        <time>2018-01-24T12:03:43Z</time>
      </trkpt>
      <trkpt lat="44.10404" lon="1.7396">
        <ele>321.5</ele>
        <time>2018-01-24T12:03:45Z</time>
      </trkpt>
      <trkpt lat="44.10401" lon="1.73946">
        <ele>321.9</ele>
        <time>2018-01-24T12:03:47Z</time>
      </trkpt>
      <trkpt lat="44.10395" lon="1.73934">
        <ele>322.3</ele>
        <time>2018-01-24T12:03:49Z</time>
      </trkpt>
      <trkpt lat="44.10389" lon="1.73925">
        <ele>323</ele>
        <time>2018-01-24T12:03:51Z</time>
      </trkpt>
      <trkpt lat="44.10384" lon="1.73916">
        <ele>324.1</ele>
        <time>2018-01-24T12:03:53Z</time>
      </trkpt>
      <trkpt lat="44.10381" lon="1.73907">
        <ele>323.8</ele>
        <time>2018-01-24T12:03:55Z</time>
      </trkpt>
      <trkpt lat="44.10379" lon="1.73893">
        <ele>323.3</ele>
        <time>2018-01-24T12:03:58Z</time>
      </trkpt>
      <trkpt lat="44.10377" lon="1.7388">
        <ele>325.4</ele>
        <time>2018-01-24T12:04:01Z</time>
      </trkpt>
      <trkpt lat="44.10376" lon="1.73871">
        <ele>325.8</ele>
        <time>2018-01-24T12:04:04Z</time>
      </trkpt>
      <trkpt lat="44.10373" lon="1.73861">
        <ele>328</ele>
        <time>2018-01-24T12:04:08Z</time>
      </trkpt>
      <trkpt lat="44.10376" lon="1.73849">
        <ele>325.7</ele>
        <time>2018-01-24T12:04:34Z</time>
      </trkpt>
      <trkpt lat="44.10377" lon="1.73839">
        <ele>324.8</ele>
        <time>2018-01-24T12:04:37Z</time>
      </trkpt>
      <trkpt lat="44.10379" lon="1.73828">
        <ele>324.4</ele>
        <time>2018-01-24T12:04:39Z</time>
      </trkpt>
      <trkpt lat="44.10382" lon="1.73814">
        <ele>323.7</ele>
        <time>2018-01-24T12:04:41Z</time>
      </trkpt>
      <trkpt lat="44.10383" lon="1.73803">
        <ele>323.5</ele>
        <time>2018-01-24T12:04:43Z</time>
      </trkpt>
      <trkpt lat="44.10386" lon="1.73793">
        <ele>322.9</ele>
        <time>2018-01-24T12:04:45Z</time>
      </trkpt>
      <trkpt lat="44.10393" lon="1.73789">
        <ele>322.4</ele>
        <time>2018-01-24T12:04:47Z</time>
      </trkpt>
      <trkpt lat="44.10401" lon="1.73784">
        <ele>321.4</ele>
        <time>2018-01-24T12:04:49Z</time>
      </trkpt>
      <trkpt lat="44.1041" lon="1.73777">
        <ele>320.6</ele>
        <time>2018-01-24T12:04:51Z</time>
      </trkpt>
      <trkpt lat="44.10418" lon="1.73767">
        <ele>320</ele>
        <time>2018-01-24T12:04:53Z</time>
      </trkpt>
      <trkpt lat="44.10423" lon="1.73755">
        <ele>318.9</ele>
        <time>2018-01-24T12:04:55Z</time>
      </trkpt>
      <trkpt lat="44.10429" lon="1.73741">
        <ele>318.7</ele>
        <time>2018-01-24T12:04:57Z</time>
      </trkpt>
      <trkpt lat="44.10435" lon="1.73729">
        <ele>318.2</ele>
        <time>2018-01-24T12:04:59Z</time>
      </trkpt>
      <trkpt lat="44.10441" lon="1.73717">
        <ele>317.7</ele>
        <time>2018-01-24T12:05:01Z</time>
      </trkpt>
      <trkpt lat="44.1045" lon="1.73706">
        <ele>316.6</ele>
        <time>2018-01-24T12:05:03Z</time>
      </trkpt>
      <trkpt lat="44.1046" lon="1.73692">
        <ele>315.7</ele>
        <time>2018-01-24T12:05:05Z</time>
      </trkpt>
      <trkpt lat="44.10466" lon="1.73686">
        <ele>315.2</ele>
        <time>2018-01-24T12:05:06Z</time>
      </trkpt>
      <trkpt lat="44.10475" lon="1.73674">
        <ele>314.3</ele>
        <time>2018-01-24T12:05:08Z</time>
      </trkpt>
      <trkpt lat="44.10484" lon="1.73662">
        <ele>313.4</ele>
        <time>2018-01-24T12:05:10Z</time>
      </trkpt>
      <trkpt lat="44.10495" lon="1.73652">
        <ele>312.5</ele>
        <time>2018-01-24T12:05:12Z</time>
      </trkpt>
      <trkpt lat="44.10506" lon="1.73641">
        <ele>311.8</ele>
        <time>2018-01-24T12:05:14Z</time>
      </trkpt>
      <trkpt lat="44.10515" lon="1.73633">
        <ele>310.8</ele>
        <time>2018-01-24T12:05:16Z</time>
      </trkpt>
      <trkpt lat="44.10525" lon="1.73624">
        <ele>309.6</ele>
        <time>2018-01-24T12:05:18Z</time>
      </trkpt>
      <trkpt lat="44.10531" lon="1.73617">
        <ele>309</ele>
        <time>2018-01-24T12:05:20Z</time>
      </trkpt>
      <trkpt lat="44.10535" lon="1.73608">
        <ele>308.4</ele>
        <time>2018-01-24T12:05:26Z</time>
      </trkpt>
      <trkpt lat="44.10541" lon="1.73609">
        <ele>307.8</ele>
        <time>2018-01-24T12:05:33Z</time>
      </trkpt>
      <trkpt lat="44.10548" lon="1.73613">
        <ele>307.3</ele>
        <time>2018-01-24T12:05:36Z</time>
      </trkpt>
      <trkpt lat="44.10555" lon="1.73616">
        <ele>307.5</ele>
        <time>2018-01-24T12:05:39Z</time>
      </trkpt>
      <trkpt lat="44.10564" lon="1.7362">
        <ele>307.8</ele>
        <time>2018-01-24T12:05:43Z</time>
      </trkpt>
      <trkpt lat="44.10574" lon="1.73627">
        <ele>306.7</ele>
        <time>2018-01-24T12:05:46Z</time>
      </trkpt>
      <trkpt lat="44.10581" lon="1.73633">
        <ele>306.6</ele>
        <time>2018-01-24T12:05:49Z</time>
      </trkpt>
      <trkpt lat="44.10589" lon="1.73638">
        <ele>307.3</ele>
        <time>2018-01-24T12:05:52Z</time>
      </trkpt>
      <trkpt lat="44.10596" lon="1.73645">
        <ele>306.7</ele>
        <time>2018-01-24T12:05:55Z</time>
      </trkpt>
      <trkpt lat="44.10603" lon="1.7365">
        <ele>307.2</ele>
        <time>2018-01-24T12:05:58Z</time>
      </trkpt>
      <trkpt lat="44.1061" lon="1.73656">
        <ele>308.1</ele>
        <time>2018-01-24T12:06:02Z</time>
      </trkpt>
      <trkpt lat="44.10619" lon="1.73662">
        <ele>308.6</ele>
        <time>2018-01-24T12:06:06Z</time>
      </trkpt>
      <trkpt lat="44.10626" lon="1.73665">
        <ele>308.6</ele>
        <time>2018-01-24T12:06:09Z</time>
      </trkpt>
      <trkpt lat="44.10633" lon="1.73672">
        <ele>308.4</ele>
        <time>2018-01-24T12:06:13Z</time>
      </trkpt>
      <trkpt lat="44.10639" lon="1.7368">
        <ele>307.8</ele>
        <time>2018-01-24T12:06:18Z</time>
      </trkpt>
      <trkpt lat="44.10646" lon="1.73685">
        <ele>307.4</ele>
        <time>2018-01-24T12:06:22Z</time>
      </trkpt>
      <trkpt lat="44.10653" lon="1.73688">
        <ele>307.4</ele>
        <time>2018-01-24T12:06:25Z</time>
      </trkpt>
      <trkpt lat="44.10661" lon="1.73691">
        <ele>307.2</ele>
        <time>2018-01-24T12:06:27Z</time>
      </trkpt>
      <trkpt lat="44.10671" lon="1.73694">
        <ele>307.2</ele>
        <time>2018-01-24T12:06:29Z</time>
      </trkpt>
      <trkpt lat="44.1068" lon="1.73696">
        <ele>306.8</ele>
        <time>2018-01-24T12:06:31Z</time>
      </trkpt>
      <trkpt lat="44.10688" lon="1.73701">
        <ele>306.1</ele>
        <time>2018-01-24T12:06:34Z</time>
      </trkpt>
      <trkpt lat="44.10697" lon="1.73701">
        <ele>305.1</ele>
        <time>2018-01-24T12:06:38Z</time>
      </trkpt>
      <trkpt lat="44.10707" lon="1.73699">
        <ele>304.2</ele>
        <time>2018-01-24T12:06:42Z</time>
      </trkpt>
      <trkpt lat="44.10715" lon="1.73696">
        <ele>303.1</ele>
        <time>2018-01-24T12:06:45Z</time>
      </trkpt>
      <trkpt lat="44.10727" lon="1.73695">
        <ele>301.7</ele>
        <time>2018-01-24T12:06:49Z</time>
      </trkpt>
      <trkpt lat="44.10736" lon="1.73691">
        <ele>302.9</ele>
        <time>2018-01-24T12:06:52Z</time>
      </trkpt>
      <trkpt lat="44.10743" lon="1.73686">
        <ele>302.8</ele>
        <time>2018-01-24T12:06:55Z</time>
      </trkpt>
      <trkpt lat="44.1075" lon="1.73685">
        <ele>305.5</ele>
        <time>2018-01-24T12:06:57Z</time>
      </trkpt>
      <trkpt lat="44.1076" lon="1.73682">
        <ele>307.3</ele>
        <time>2018-01-24T12:07:00Z</time>
      </trkpt>
      <trkpt lat="44.10767" lon="1.73682">
        <ele>308.3</ele>
        <time>2018-01-24T12:07:02Z</time>
      </trkpt>
      <trkpt lat="44.10777" lon="1.73683">
        <ele>310.1</ele>
        <time>2018-01-24T12:07:05Z</time>
      </trkpt>
      <trkpt lat="44.10786" lon="1.73683">
        <ele>312.5</ele>
        <time>2018-01-24T12:07:08Z</time>
      </trkpt>
      <trkpt lat="44.10795" lon="1.73686">
        <ele>311.5</ele>
        <time>2018-01-24T12:07:11Z</time>
      </trkpt>
      <trkpt lat="44.10802" lon="1.73689">
        <ele>311.8</ele>
        <time>2018-01-24T12:07:14Z</time>
      </trkpt>
      <trkpt lat="44.10814" lon="1.73692">
        <ele>312.1</ele>
        <time>2018-01-24T12:07:16Z</time>
      </trkpt>
      <trkpt lat="44.10821" lon="1.73697">
        <ele>312.2</ele>
        <time>2018-01-24T12:07:18Z</time>
      </trkpt>
      <trkpt lat="44.10831" lon="1.73702">
        <ele>313.7</ele>
        <time>2018-01-24T12:07:21Z</time>
      </trkpt>
      <trkpt lat="44.10838" lon="1.73705">
        <ele>314.9</ele>
        <time>2018-01-24T12:07:23Z</time>
      </trkpt>
      <trkpt lat="44.10845" lon="1.73709">
        <ele>314.8</ele>
        <time>2018-01-24T12:07:25Z</time>
      </trkpt>
      <trkpt lat="44.10852" lon="1.73712">
        <ele>316.1</ele>
        <time>2018-01-24T12:07:27Z</time>
      </trkpt>
      <trkpt lat="44.10859" lon="1.73716">
        <ele>316.9</ele>
        <time>2018-01-24T12:07:29Z</time>
      </trkpt>
      <trkpt lat="44.10866" lon="1.7372">
        <ele>316.6</ele>
        <time>2018-01-24T12:07:31Z</time>
      </trkpt>
      <trkpt lat="44.10873" lon="1.73723">
        <ele>318</ele>
        <time>2018-01-24T12:07:33Z</time>
      </trkpt>
      <trkpt lat="44.1088" lon="1.73727">
        <ele>318</ele>
        <time>2018-01-24T12:07:35Z</time>
      </trkpt>
      <trkpt lat="44.10887" lon="1.73731">
        <ele>318.3</ele>
        <time>2018-01-24T12:07:37Z</time>
      </trkpt>
      <trkpt lat="44.10897" lon="1.73736">
        <ele>317.4</ele>
        <time>2018-01-24T12:07:40Z</time>
      </trkpt>
      <trkpt lat="44.10905" lon="1.7374">
        <ele>316.1</ele>
        <time>2018-01-24T12:07:43Z</time>
      </trkpt>
      <trkpt lat="44.10913" lon="1.73743">
        <ele>315.7</ele>
        <time>2018-01-24T12:07:47Z</time>
      </trkpt>
      <trkpt lat="44.10922" lon="1.73749">
        <ele>313.6</ele>
        <time>2018-01-24T12:07:51Z</time>
      </trkpt>
      <trkpt lat="44.10929" lon="1.73755">
        <ele>312.2</ele>
        <time>2018-01-24T12:07:54Z</time>
      </trkpt>
      <trkpt lat="44.10935" lon="1.7376">
        <ele>310.9</ele>
        <time>2018-01-24T12:07:56Z</time>
      </trkpt>
      <trkpt lat="44.10945" lon="1.73768">
        <ele>309.9</ele>
        <time>2018-01-24T12:07:59Z</time>
      </trkpt>
      <trkpt lat="44.10952" lon="1.73773">
        <ele>308.9</ele>
        <time>2018-01-24T12:08:01Z</time>
      </trkpt>
      <trkpt lat="44.1096" lon="1.73777">
        <ele>308.7</ele>
        <time>2018-01-24T12:08:03Z</time>
      </trkpt>
      <trkpt lat="44.10969" lon="1.73782">
        <ele>309.3</ele>
        <time>2018-01-24T12:08:05Z</time>
      </trkpt>
      <trkpt lat="44.10976" lon="1.73786">
        <ele>310.1</ele>
        <time>2018-01-24T12:08:07Z</time>
      </trkpt>
      <trkpt lat="44.10984" lon="1.73791">
        <ele>311.5</ele>
        <time>2018-01-24T12:08:10Z</time>
      </trkpt>
      <trkpt lat="44.10993" lon="1.73795">
        <ele>313.3</ele>
        <time>2018-01-24T12:08:14Z</time>
      </trkpt>
      <trkpt lat="44.11001" lon="1.73798">
        <ele>313.5</ele>
        <time>2018-01-24T12:08:17Z</time>
      </trkpt>
      <trkpt lat="44.1101" lon="1.738">
        <ele>314.5</ele>
        <time>2018-01-24T12:08:20Z</time>
      </trkpt>
      <trkpt lat="44.11018" lon="1.73804">
        <ele>315.4</ele>
        <time>2018-01-24T12:08:23Z</time>
      </trkpt>
      <trkpt lat="44.11025" lon="1.73808">
        <ele>316.4</ele>
        <time>2018-01-24T12:08:26Z</time>
      </trkpt>
      <trkpt lat="44.11032" lon="1.73813">
        <ele>317</ele>
        <time>2018-01-24T12:08:29Z</time>
      </trkpt>
      <trkpt lat="44.11041" lon="1.73819">
        <ele>317.4</ele>
        <time>2018-01-24T12:08:32Z</time>
      </trkpt>
      <trkpt lat="44.11049" lon="1.73824">
        <ele>318.2</ele>
        <time>2018-01-24T12:08:35Z</time>
      </trkpt>
      <trkpt lat="44.11056" lon="1.73832">
        <ele>318.6</ele>
        <time>2018-01-24T12:08:38Z</time>
      </trkpt>
      <trkpt lat="44.11063" lon="1.73841">
        <ele>318.6</ele>
        <time>2018-01-24T12:08:41Z</time>
      </trkpt>
      <trkpt lat="44.11068" lon="1.73848">
        <ele>319.6</ele>
        <time>2018-01-24T12:08:44Z</time>
      </trkpt>
      <trkpt lat="44.11075" lon="1.73854">
        <ele>321.4</ele>
        <time>2018-01-24T12:08:47Z</time>
      </trkpt>
      <trkpt lat="44.11083" lon="1.73859">
        <ele>322.1</ele>
        <time>2018-01-24T12:08:50Z</time>
      </trkpt>
      <trkpt lat="44.11092" lon="1.73865">
        <ele>323.5</ele>
        <time>2018-01-24T12:08:54Z</time>
      </trkpt>
      <trkpt lat="44.11101" lon="1.73869">
        <ele>324.9</ele>
        <time>2018-01-24T12:08:57Z</time>
      </trkpt>
      <trkpt lat="44.11109" lon="1.73873">
        <ele>325</ele>
        <time>2018-01-24T12:09:00Z</time>
      </trkpt>
      <trkpt lat="44.11116" lon="1.73876">
        <ele>325.4</ele>
        <time>2018-01-24T12:09:03Z</time>
      </trkpt>
      <trkpt lat="44.11125" lon="1.73879">
        <ele>325.8</ele>
        <time>2018-01-24T12:09:07Z</time>
      </trkpt>
      <trkpt lat="44.11133" lon="1.7388">
        <ele>325.5</ele>
        <time>2018-01-24T12:09:11Z</time>
      </trkpt>
      <trkpt lat="44.11141" lon="1.7388">
        <ele>325.1</ele>
        <time>2018-01-24T12:09:14Z</time>
      </trkpt>
      <trkpt lat="44.11148" lon="1.73878">
        <ele>324.7</ele>
        <time>2018-01-24T12:09:17Z</time>
      </trkpt>
      <trkpt lat="44.11156" lon="1.73875">
        <ele>324</ele>
        <time>2018-01-24T12:09:22Z</time>
      </trkpt>
      <trkpt lat="44.11163" lon="1.73874">
        <ele>324</ele>
        <time>2018-01-24T12:09:26Z</time>
      </trkpt>
      <trkpt lat="44.11172" lon="1.73875">
        <ele>323.2</ele>
        <time>2018-01-24T12:09:29Z</time>
      </trkpt>
      <trkpt lat="44.11181" lon="1.73875">
        <ele>320.1</ele>
        <time>2018-01-24T12:09:32Z</time>
      </trkpt>
      <trkpt lat="44.11189" lon="1.73872">
        <ele>318.9</ele>
        <time>2018-01-24T12:09:36Z</time>
      </trkpt>
      <trkpt lat="44.11198" lon="1.73874">
        <ele>320.5</ele>
        <time>2018-01-24T12:09:39Z</time>
      </trkpt>
      <trkpt lat="44.11207" lon="1.73879">
        <ele>321.3</ele>
        <time>2018-01-24T12:09:42Z</time>
      </trkpt>
      <trkpt lat="44.11214" lon="1.73884">
        <ele>323</ele>
        <time>2018-01-24T12:09:45Z</time>
      </trkpt>
      <trkpt lat="44.11222" lon="1.73888">
        <ele>323.7</ele>
        <time>2018-01-24T12:09:48Z</time>
      </trkpt>
      <trkpt lat="44.11232" lon="1.73894">
        <ele>324.8</ele>
        <time>2018-01-24T12:09:51Z</time>
      </trkpt>
      <trkpt lat="44.11239" lon="1.73899">
        <ele>326.5</ele>
        <time>2018-01-24T12:09:55Z</time>
      </trkpt>
      <trkpt lat="44.11248" lon="1.73902">
        <ele>328.1</ele>
        <time>2018-01-24T12:09:59Z</time>
      </trkpt>
      <trkpt lat="44.11257" lon="1.73909">
        <ele>329.1</ele>
        <time>2018-01-24T12:10:03Z</time>
      </trkpt>
      <trkpt lat="44.11264" lon="1.73914">
        <ele>328.6</ele>
        <time>2018-01-24T12:10:06Z</time>
      </trkpt>
      <trkpt lat="44.11271" lon="1.73916">
        <ele>329.1</ele>
        <time>2018-01-24T12:10:09Z</time>
      </trkpt>
      <trkpt lat="44.11279" lon="1.73918">
        <ele>330.2</ele>
        <time>2018-01-24T12:10:12Z</time>
      </trkpt>
      <trkpt lat="44.11286" lon="1.73916">
        <ele>331.2</ele>
        <time>2018-01-24T12:10:15Z</time>
      </trkpt>
      <trkpt lat="44.11295" lon="1.73918">
        <ele>333.6</ele>
        <time>2018-01-24T12:10:18Z</time>
      </trkpt>
      <trkpt lat="44.11304" lon="1.7392">
        <ele>335.1</ele>
        <time>2018-01-24T12:10:21Z</time>
      </trkpt>
      <trkpt lat="44.11313" lon="1.73925">
        <ele>335.1</ele>
        <time>2018-01-24T12:10:24Z</time>
      </trkpt>
      <trkpt lat="44.1132" lon="1.73931">
        <ele>335.3</ele>
        <time>2018-01-24T12:10:26Z</time>
      </trkpt>
      <trkpt lat="44.11327" lon="1.7394">
        <ele>335.7</ele>
        <time>2018-01-24T12:10:28Z</time>
      </trkpt>
      <trkpt lat="44.11333" lon="1.73948">
        <ele>336</ele>
        <time>2018-01-24T12:10:30Z</time>
      </trkpt>
      <trkpt lat="44.1134" lon="1.73956">
        <ele>336.4</ele>
        <time>2018-01-24T12:10:32Z</time>
      </trkpt>
      <trkpt lat="44.11348" lon="1.73964">
        <ele>337.1</ele>
        <time>2018-01-24T12:10:34Z</time>
      </trkpt>
      <trkpt lat="44.11355" lon="1.73972">
        <ele>336.9</ele>
        <time>2018-01-24T12:10:36Z</time>
      </trkpt>
      <trkpt lat="44.1136" lon="1.7398">
        <ele>336.3</ele>
        <time>2018-01-24T12:10:38Z</time>
      </trkpt>
      <trkpt lat="44.11365" lon="1.7399">
        <ele>336.3</ele>
        <time>2018-01-24T12:10:40Z</time>
      </trkpt>
      <trkpt lat="44.1137" lon="1.73999">
        <ele>336.6</ele>
        <time>2018-01-24T12:10:42Z</time>
      </trkpt>
      <trkpt lat="44.11375" lon="1.74009">
        <ele>337.4</ele>
        <time>2018-01-24T12:10:44Z</time>
      </trkpt>
      <trkpt lat="44.11382" lon="1.74017">
        <ele>338.1</ele>
        <time>2018-01-24T12:10:46Z</time>
      </trkpt>
      <trkpt lat="44.11388" lon="1.74023">
        <ele>338.3</ele>
        <time>2018-01-24T12:10:48Z</time>
      </trkpt>
      <trkpt lat="44.11393" lon="1.7403">
        <ele>338</ele>
        <time>2018-01-24T12:10:50Z</time>
      </trkpt>
      <trkpt lat="44.11401" lon="1.74041">
        <ele>339.4</ele>
        <time>2018-01-24T12:10:53Z</time>
      </trkpt>
      <trkpt lat="44.11407" lon="1.7405">
        <ele>340.8</ele>
        <time>2018-01-24T12:10:55Z</time>
      </trkpt>
      <trkpt lat="44.11412" lon="1.74058">
        <ele>341.9</ele>
        <time>2018-01-24T12:10:57Z</time>
      </trkpt>
      <trkpt lat="44.11418" lon="1.74068">
        <ele>342.8</ele>
        <time>2018-01-24T12:10:59Z</time>
      </trkpt>
      <trkpt lat="44.11423" lon="1.74075">
        <ele>343.3</ele>
        <time>2018-01-24T12:11:01Z</time>
      </trkpt>
      <trkpt lat="44.11428" lon="1.74086">
        <ele>344.2</ele>
        <time>2018-01-24T12:11:05Z</time>
      </trkpt>
      <trkpt lat="44.11434" lon="1.74097">
        <ele>344.5</ele>
        <time>2018-01-24T12:11:08Z</time>
      </trkpt>
      <trkpt lat="44.11439" lon="1.74108">
        <ele>344.2</ele>
        <time>2018-01-24T12:11:11Z</time>
      </trkpt>
      <trkpt lat="44.11444" lon="1.74119">
        <ele>344.2</ele>
        <time>2018-01-24T12:11:14Z</time>
      </trkpt>
      <trkpt lat="44.11446" lon="1.74129">
        <ele>343.8</ele>
        <time>2018-01-24T12:11:16Z</time>
      </trkpt>
      <trkpt lat="44.11451" lon="1.74139">
        <ele>343.8</ele>
        <time>2018-01-24T12:11:18Z</time>
      </trkpt>
      <trkpt lat="44.11455" lon="1.74148">
        <ele>343.7</ele>
        <time>2018-01-24T12:11:20Z</time>
      </trkpt>
      <trkpt lat="44.11459" lon="1.74157">
        <ele>343.4</ele>
        <time>2018-01-24T12:11:22Z</time>
      </trkpt>
      <trkpt lat="44.11465" lon="1.74169">
        <ele>344</ele>
        <time>2018-01-24T12:11:25Z</time>
      </trkpt>
      <trkpt lat="44.11468" lon="1.7418">
        <ele>345.2</ele>
        <time>2018-01-24T12:11:28Z</time>
      </trkpt>
      <trkpt lat="44.11472" lon="1.74193">
        <ele>347</ele>
        <time>2018-01-24T12:11:31Z</time>
      </trkpt>
      <trkpt lat="44.11477" lon="1.74199">
        <ele>348.1</ele>
        <time>2018-01-24T12:11:33Z</time>
      </trkpt>
      <trkpt lat="44.11485" lon="1.7421">
        <ele>349.3</ele>
        <time>2018-01-24T12:11:36Z</time>
      </trkpt>
      <trkpt lat="44.11492" lon="1.74219">
        <ele>350.3</ele>
        <time>2018-01-24T12:11:39Z</time>
      </trkpt>
      <trkpt lat="44.11498" lon="1.74229">
        <ele>350.6</ele>
        <time>2018-01-24T12:11:42Z</time>
      </trkpt>
      <trkpt lat="44.11503" lon="1.74241">
        <ele>351.4</ele>
        <time>2018-01-24T12:11:45Z</time>
      </trkpt>
      <trkpt lat="44.11506" lon="1.74252">
        <ele>352</ele>
        <time>2018-01-24T12:11:48Z</time>
      </trkpt>
      <trkpt lat="44.1151" lon="1.7426">
        <ele>352.8</ele>
        <time>2018-01-24T12:11:51Z</time>
      </trkpt>
      <trkpt lat="44.11513" lon="1.74272">
        <ele>353.9</ele>
        <time>2018-01-24T12:11:54Z</time>
      </trkpt>
      <trkpt lat="44.11514" lon="1.74287">
        <ele>355.5</ele>
        <time>2018-01-24T12:11:57Z</time>
      </trkpt>
      <trkpt lat="44.11518" lon="1.74297">
        <ele>356.9</ele>
        <time>2018-01-24T12:11:59Z</time>
      </trkpt>
      <trkpt lat="44.11522" lon="1.74305">
        <ele>357.7</ele>
        <time>2018-01-24T12:12:01Z</time>
      </trkpt>
      <trkpt lat="44.11524" lon="1.74315">
        <ele>358.4</ele>
        <time>2018-01-24T12:12:04Z</time>
      </trkpt>
      <trkpt lat="44.11528" lon="1.74329">
        <ele>358.7</ele>
        <time>2018-01-24T12:12:07Z</time>
      </trkpt>
      <trkpt lat="44.11531" lon="1.7434">
        <ele>359.5</ele>
        <time>2018-01-24T12:12:10Z</time>
      </trkpt>
      <trkpt lat="44.11533" lon="1.74356">
        <ele>360.5</ele>
        <time>2018-01-24T12:12:13Z</time>
      </trkpt>
      <trkpt lat="44.11536" lon="1.74365">
        <ele>361</ele>
        <time>2018-01-24T12:12:15Z</time>
      </trkpt>
      <trkpt lat="44.1154" lon="1.74375">
        <ele>361.5</ele>
        <time>2018-01-24T12:12:17Z</time>
      </trkpt>
      <trkpt lat="44.11543" lon="1.7439">
        <ele>362.7</ele>
        <time>2018-01-24T12:12:20Z</time>
      </trkpt>
      <trkpt lat="44.11544" lon="1.744">
        <ele>363.4</ele>
        <time>2018-01-24T12:12:22Z</time>
      </trkpt>
      <trkpt lat="44.11547" lon="1.74411">
        <ele>364.7</ele>
        <time>2018-01-24T12:12:24Z</time>
      </trkpt>
      <trkpt lat="44.11548" lon="1.74423">
        <ele>365.3</ele>
        <time>2018-01-24T12:12:26Z</time>
      </trkpt>
      <trkpt lat="44.11548" lon="1.74435">
        <ele>364.9</ele>
        <time>2018-01-24T12:12:28Z</time>
      </trkpt>
      <trkpt lat="44.11549" lon="1.74446">
        <ele>364.1</ele>
        <time>2018-01-24T12:12:30Z</time>
      </trkpt>
      <trkpt lat="44.11548" lon="1.74457">
        <ele>363.3</ele>
        <time>2018-01-24T12:12:32Z</time>
      </trkpt>
      <trkpt lat="44.11549" lon="1.74471">
        <ele>361.9</ele>
        <time>2018-01-24T12:12:35Z</time>
      </trkpt>
      <trkpt lat="44.11549" lon="1.74485">
        <ele>360.8</ele>
        <time>2018-01-24T12:12:38Z</time>
      </trkpt>
      <trkpt lat="44.11552" lon="1.74499">
        <ele>359.4</ele>
        <time>2018-01-24T12:12:41Z</time>
      </trkpt>
      <trkpt lat="44.11558" lon="1.74511">
        <ele>359.2</ele>
        <time>2018-01-24T12:12:44Z</time>
      </trkpt>
      <trkpt lat="44.11558" lon="1.74523">
        <ele>358.9</ele>
        <time>2018-01-24T12:12:47Z</time>
      </trkpt>
      <trkpt lat="44.11558" lon="1.74533">
        <ele>358.3</ele>
        <time>2018-01-24T12:12:49Z</time>
      </trkpt>
      <trkpt lat="44.11558" lon="1.74546">
        <ele>357.7</ele>
        <time>2018-01-24T12:12:52Z</time>
      </trkpt>
      <trkpt lat="44.1156" lon="1.74557">
        <ele>357.1</ele>
        <time>2018-01-24T12:12:55Z</time>
      </trkpt>
      <trkpt lat="44.11565" lon="1.74569">
        <ele>357.1</ele>
        <time>2018-01-24T12:12:58Z</time>
      </trkpt>
      <trkpt lat="44.11569" lon="1.74582">
        <ele>357.4</ele>
        <time>2018-01-24T12:13:01Z</time>
      </trkpt>
      <trkpt lat="44.11574" lon="1.74594">
        <ele>357.2</ele>
        <time>2018-01-24T12:13:04Z</time>
      </trkpt>
      <trkpt lat="44.11578" lon="1.74607">
        <ele>356.5</ele>
        <time>2018-01-24T12:13:07Z</time>
      </trkpt>
      <trkpt lat="44.11582" lon="1.74617">
        <ele>356.7</ele>
        <time>2018-01-24T12:13:09Z</time>
      </trkpt>
      <trkpt lat="44.11585" lon="1.74626">
        <ele>356.7</ele>
        <time>2018-01-24T12:13:11Z</time>
      </trkpt>
      <trkpt lat="44.11587" lon="1.74636">
        <ele>355.8</ele>
        <time>2018-01-24T12:13:13Z</time>
      </trkpt>
      <trkpt lat="44.11592" lon="1.74647">
        <ele>355.3</ele>
        <time>2018-01-24T12:13:16Z</time>
      </trkpt>
      <trkpt lat="44.11595" lon="1.74658">
        <ele>355.1</ele>
        <time>2018-01-24T12:13:19Z</time>
      </trkpt>
      <trkpt lat="44.116" lon="1.74667">
        <ele>354.4</ele>
        <time>2018-01-24T12:13:21Z</time>
      </trkpt>
      <trkpt lat="44.11603" lon="1.74677">
        <ele>354.1</ele>
        <time>2018-01-24T12:13:23Z</time>
      </trkpt>
      <trkpt lat="44.11607" lon="1.74687">
        <ele>353.7</ele>
        <time>2018-01-24T12:13:25Z</time>
      </trkpt>
      <trkpt lat="44.1161" lon="1.74696">
        <ele>352.8</ele>
        <time>2018-01-24T12:13:28Z</time>
      </trkpt>
      <trkpt lat="44.11613" lon="1.74706">
        <ele>351.9</ele>
        <time>2018-01-24T12:13:32Z</time>
      </trkpt>
      <trkpt lat="44.11618" lon="1.74716">
        <ele>351.1</ele>
        <time>2018-01-24T12:13:35Z</time>
      </trkpt>
      <trkpt lat="44.11621" lon="1.74725">
        <ele>350.7</ele>
        <time>2018-01-24T12:13:38Z</time>
      </trkpt>
      <trkpt lat="44.11625" lon="1.74734">
        <ele>351.6</ele>
        <time>2018-01-24T12:13:41Z</time>
      </trkpt>
      <trkpt lat="44.1163" lon="1.74743">
        <ele>352.6</ele>
        <time>2018-01-24T12:13:47Z</time>
      </trkpt>
      <trkpt lat="44.11633" lon="1.74749">
        <ele>353.2</ele>
        <time>2018-01-24T12:13:54Z</time>
      </trkpt>
      <trkpt lat="44.11627" lon="1.74741">
        <ele>352.7</ele>
        <time>2018-01-24T12:14:01Z</time>
      </trkpt>
      <trkpt lat="44.11627" lon="1.74744">
        <ele>352.5</ele>
        <time>2018-01-24T12:14:08Z</time>
      </trkpt>
      <trkpt lat="44.11627" lon="1.7475">
        <ele>352.5</ele>
        <time>2018-01-24T12:14:15Z</time>
      </trkpt>
      <trkpt lat="44.11629" lon="1.7476">
        <ele>356</ele>
        <time>2018-01-24T12:19:23Z</time>
      </trkpt>
      <trkpt lat="44.11634" lon="1.74768">
        <ele>355.9</ele>
        <time>2018-01-24T12:19:29Z</time>
      </trkpt>
      <trkpt lat="44.11637" lon="1.74779">
        <ele>356.4</ele>
        <time>2018-01-24T12:19:34Z</time>
      </trkpt>
      <trkpt lat="44.11643" lon="1.74789">
        <ele>355.9</ele>
        <time>2018-01-24T12:19:37Z</time>
      </trkpt>
      <trkpt lat="44.11647" lon="1.74801">
        <ele>355.5</ele>
        <time>2018-01-24T12:19:40Z</time>
      </trkpt>
      <trkpt lat="44.11651" lon="1.74811">
        <ele>355.5</ele>
        <time>2018-01-24T12:19:43Z</time>
      </trkpt>
      <trkpt lat="44.11656" lon="1.74822">
        <ele>354.8</ele>
        <time>2018-01-24T12:19:47Z</time>
      </trkpt>
      <trkpt lat="44.11661" lon="1.74831">
        <ele>354.2</ele>
        <time>2018-01-24T12:19:51Z</time>
      </trkpt>
      <trkpt lat="44.11665" lon="1.7484">
        <ele>353.7</ele>
        <time>2018-01-24T12:19:54Z</time>
      </trkpt>
      <trkpt lat="44.11668" lon="1.74851">
        <ele>353.1</ele>
        <time>2018-01-24T12:19:57Z</time>
      </trkpt>
      <trkpt lat="44.11672" lon="1.74863">
        <ele>353</ele>
        <time>2018-01-24T12:20:00Z</time>
      </trkpt>
      <trkpt lat="44.11674" lon="1.74874">
        <ele>352.4</ele>
        <time>2018-01-24T12:20:03Z</time>
      </trkpt>
      <trkpt lat="44.11678" lon="1.74884">
        <ele>352.4</ele>
        <time>2018-01-24T12:20:06Z</time>
      </trkpt>
      <trkpt lat="44.11682" lon="1.74895">
        <ele>352.5</ele>
        <time>2018-01-24T12:20:09Z</time>
      </trkpt>
      <trkpt lat="44.11686" lon="1.74905">
        <ele>352.8</ele>
        <time>2018-01-24T12:20:12Z</time>
      </trkpt>
      <trkpt lat="44.1169" lon="1.74914">
        <ele>353.4</ele>
        <time>2018-01-24T12:20:15Z</time>
      </trkpt>
      <trkpt lat="44.11694" lon="1.74923">
        <ele>353.8</ele>
        <time>2018-01-24T12:20:18Z</time>
      </trkpt>
      <trkpt lat="44.11699" lon="1.74931">
        <ele>354.7</ele>
        <time>2018-01-24T12:20:21Z</time>
      </trkpt>
      <trkpt lat="44.11705" lon="1.74939">
        <ele>356.8</ele>
        <time>2018-01-24T12:20:24Z</time>
      </trkpt>
      <trkpt lat="44.11708" lon="1.74952">
        <ele>357.4</ele>
        <time>2018-01-24T12:20:28Z</time>
      </trkpt>
      <trkpt lat="44.11713" lon="1.74961">
        <ele>358.1</ele>
        <time>2018-01-24T12:20:31Z</time>
      </trkpt>
      <trkpt lat="44.11717" lon="1.7497">
        <ele>359.4</ele>
        <time>2018-01-24T12:20:34Z</time>
      </trkpt>
      <trkpt lat="44.1172" lon="1.74981">
        <ele>358.6</ele>
        <time>2018-01-24T12:20:37Z</time>
      </trkpt>
      <trkpt lat="44.11726" lon="1.7499">
        <ele>358.6</ele>
        <time>2018-01-24T12:20:40Z</time>
      </trkpt>
      <trkpt lat="44.1173" lon="1.75">
        <ele>358.1</ele>
        <time>2018-01-24T12:20:43Z</time>
      </trkpt>
      <trkpt lat="44.11734" lon="1.7501">
        <ele>357.4</ele>
        <time>2018-01-24T12:20:47Z</time>
      </trkpt>
      <trkpt lat="44.11741" lon="1.75019">
        <ele>357.4</ele>
        <time>2018-01-24T12:20:51Z</time>
      </trkpt>
      <trkpt lat="44.11748" lon="1.75025">
        <ele>357.9</ele>
        <time>2018-01-24T12:20:55Z</time>
      </trkpt>
      <trkpt lat="44.11755" lon="1.75033">
        <ele>356.3</ele>
        <time>2018-01-24T12:20:59Z</time>
      </trkpt>
      <trkpt lat="44.11763" lon="1.75039">
        <ele>356.6</ele>
        <time>2018-01-24T12:21:03Z</time>
      </trkpt>
      <trkpt lat="44.1177" lon="1.75046">
        <ele>357.4</ele>
        <time>2018-01-24T12:21:07Z</time>
      </trkpt>
      <trkpt lat="44.11776" lon="1.75051">
        <ele>356.8</ele>
        <time>2018-01-24T12:21:10Z</time>
      </trkpt>
      <trkpt lat="44.11784" lon="1.75059">
        <ele>357.6</ele>
        <time>2018-01-24T12:21:14Z</time>
      </trkpt>
      <trkpt lat="44.1179" lon="1.75065">
        <ele>358</ele>
        <time>2018-01-24T12:21:17Z</time>
      </trkpt>
      <trkpt lat="44.11795" lon="1.75071">
        <ele>358.6</ele>
        <time>2018-01-24T12:21:20Z</time>
      </trkpt>
      <trkpt lat="44.11802" lon="1.75078">
        <ele>357.7</ele>
        <time>2018-01-24T12:21:23Z</time>
      </trkpt>
      <trkpt lat="44.11811" lon="1.75084">
        <ele>359.8</ele>
        <time>2018-01-24T12:21:27Z</time>
      </trkpt>
      <trkpt lat="44.11818" lon="1.75091">
        <ele>360.4</ele>
        <time>2018-01-24T12:21:30Z</time>
      </trkpt>
      <trkpt lat="44.11827" lon="1.75098">
        <ele>360.1</ele>
        <time>2018-01-24T12:21:33Z</time>
      </trkpt>
      <trkpt lat="44.11834" lon="1.75104">
        <ele>360.3</ele>
        <time>2018-01-24T12:21:36Z</time>
      </trkpt>
      <trkpt lat="44.1184" lon="1.75109">
        <ele>362.2</ele>
        <time>2018-01-24T12:21:39Z</time>
      </trkpt>
      <trkpt lat="44.11847" lon="1.75116">
        <ele>362.4</ele>
        <time>2018-01-24T12:21:42Z</time>
      </trkpt>
      <trkpt lat="44.1186" lon="1.75128">
        <ele>362.1</ele>
        <time>2018-01-24T12:21:53Z</time>
      </trkpt>
      <trkpt lat="44.11865" lon="1.75135">
        <ele>362.5</ele>
        <time>2018-01-24T12:21:56Z</time>
      </trkpt>
      <trkpt lat="44.11873" lon="1.75143">
        <ele>361.2</ele>
        <time>2018-01-24T12:21:59Z</time>
      </trkpt>
      <trkpt lat="44.1188" lon="1.75149">
        <ele>360.8</ele>
        <time>2018-01-24T12:22:01Z</time>
      </trkpt>
      <trkpt lat="44.11887" lon="1.75156">
        <ele>360.5</ele>
        <time>2018-01-24T12:22:03Z</time>
      </trkpt>
      <trkpt lat="44.11894" lon="1.75162">
        <ele>360</ele>
        <time>2018-01-24T12:22:05Z</time>
      </trkpt>
      <trkpt lat="44.11904" lon="1.75168">
        <ele>358.7</ele>
        <time>2018-01-24T12:22:07Z</time>
      </trkpt>
      <trkpt lat="44.11913" lon="1.75175">
        <ele>359.1</ele>
        <time>2018-01-24T12:22:09Z</time>
      </trkpt>
      <trkpt lat="44.11922" lon="1.75184">
        <ele>358.8</ele>
        <time>2018-01-24T12:22:11Z</time>
      </trkpt>
      <trkpt lat="44.11931" lon="1.75192">
        <ele>359.2</ele>
        <time>2018-01-24T12:22:13Z</time>
      </trkpt>
      <trkpt lat="44.11939" lon="1.75199">
        <ele>358.6</ele>
        <time>2018-01-24T12:22:15Z</time>
      </trkpt>
      <trkpt lat="44.11949" lon="1.75206">
        <ele>358.7</ele>
        <time>2018-01-24T12:22:17Z</time>
      </trkpt>
      <trkpt lat="44.11958" lon="1.75216">
        <ele>358.1</ele>
        <time>2018-01-24T12:22:19Z</time>
      </trkpt>
      <trkpt lat="44.11967" lon="1.75223">
        <ele>358</ele>
        <time>2018-01-24T12:22:21Z</time>
      </trkpt>
      <trkpt lat="44.11974" lon="1.75229">
        <ele>357.9</ele>
        <time>2018-01-24T12:22:23Z</time>
      </trkpt>
      <trkpt lat="44.1198" lon="1.75235">
        <ele>357.8</ele>
        <time>2018-01-24T12:22:25Z</time>
      </trkpt>
      <trkpt lat="44.11987" lon="1.75241">
        <ele>357.5</ele>
        <time>2018-01-24T12:22:27Z</time>
      </trkpt>
      <trkpt lat="44.11994" lon="1.75246">
        <ele>358</ele>
        <time>2018-01-24T12:22:29Z</time>
      </trkpt>
      <trkpt lat="44.12001" lon="1.75254">
        <ele>357.7</ele>
        <time>2018-01-24T12:22:31Z</time>
      </trkpt>
      <trkpt lat="44.12008" lon="1.75259">
        <ele>357.5</ele>
        <time>2018-01-24T12:22:33Z</time>
      </trkpt>
      <trkpt lat="44.12015" lon="1.75264">
        <ele>357.9</ele>
        <time>2018-01-24T12:22:35Z</time>
      </trkpt>
      <trkpt lat="44.12023" lon="1.75272">
        <ele>356.5</ele>
        <time>2018-01-24T12:22:38Z</time>
      </trkpt>
      <trkpt lat="44.12032" lon="1.75281">
        <ele>355.1</ele>
        <time>2018-01-24T12:22:41Z</time>
      </trkpt>
      <trkpt lat="44.12039" lon="1.7529">
        <ele>354.3</ele>
        <time>2018-01-24T12:22:44Z</time>
      </trkpt>
      <trkpt lat="44.12046" lon="1.75295">
        <ele>354.2</ele>
        <time>2018-01-24T12:22:46Z</time>
      </trkpt>
      <trkpt lat="44.12052" lon="1.75302">
        <ele>354.3</ele>
        <time>2018-01-24T12:22:48Z</time>
      </trkpt>
      <trkpt lat="44.12061" lon="1.75309">
        <ele>354.2</ele>
        <time>2018-01-24T12:22:50Z</time>
      </trkpt>
      <trkpt lat="44.12068" lon="1.75314">
        <ele>354.3</ele>
        <time>2018-01-24T12:22:53Z</time>
      </trkpt>
      <trkpt lat="44.12075" lon="1.75317">
        <ele>355</ele>
        <time>2018-01-24T12:22:58Z</time>
      </trkpt>
      <trkpt lat="44.12082" lon="1.7532">
        <ele>355.8</ele>
        <time>2018-01-24T12:23:02Z</time>
      </trkpt>
      <trkpt lat="44.12091" lon="1.75324">
        <ele>356.7</ele>
        <time>2018-01-24T12:23:07Z</time>
      </trkpt>
      <trkpt lat="44.12098" lon="1.75327">
        <ele>358.3</ele>
        <time>2018-01-24T12:23:11Z</time>
      </trkpt>
      <trkpt lat="44.12106" lon="1.75329">
        <ele>359.3</ele>
        <time>2018-01-24T12:23:15Z</time>
      </trkpt>
      <trkpt lat="44.12113" lon="1.7533">
        <ele>360.9</ele>
        <time>2018-01-24T12:23:19Z</time>
      </trkpt>
      <trkpt lat="44.12122" lon="1.75333">
        <ele>362.8</ele>
        <time>2018-01-24T12:23:23Z</time>
      </trkpt>
      <trkpt lat="44.12131" lon="1.75338">
        <ele>364.5</ele>
        <time>2018-01-24T12:23:27Z</time>
      </trkpt>
      <trkpt lat="44.12139" lon="1.75342">
        <ele>365</ele>
        <time>2018-01-24T12:23:30Z</time>
      </trkpt>
      <trkpt lat="44.12148" lon="1.75349">
        <ele>365.4</ele>
        <time>2018-01-24T12:23:34Z</time>
      </trkpt>
      <trkpt lat="44.12156" lon="1.75352">
        <ele>366.1</ele>
        <time>2018-01-24T12:23:36Z</time>
      </trkpt>
      <trkpt lat="44.12164" lon="1.75356">
        <ele>366.9</ele>
        <time>2018-01-24T12:23:38Z</time>
      </trkpt>
      <trkpt lat="44.12174" lon="1.7536">
        <ele>367.8</ele>
        <time>2018-01-24T12:23:40Z</time>
      </trkpt>
      <trkpt lat="44.12184" lon="1.75365">
        <ele>368.6</ele>
        <time>2018-01-24T12:23:42Z</time>
      </trkpt>
      <trkpt lat="44.12194" lon="1.7537">
        <ele>368.2</ele>
        <time>2018-01-24T12:23:44Z</time>
      </trkpt>
      <trkpt lat="44.12205" lon="1.75373">
        <ele>367.6</ele>
        <time>2018-01-24T12:23:46Z</time>
      </trkpt>
      <trkpt lat="44.12217" lon="1.75376">
        <ele>367.4</ele>
        <time>2018-01-24T12:23:48Z</time>
      </trkpt>
      <trkpt lat="44.12229" lon="1.75382">
        <ele>366.6</ele>
        <time>2018-01-24T12:23:50Z</time>
      </trkpt>
      <trkpt lat="44.1224" lon="1.75387">
        <ele>365.7</ele>
        <time>2018-01-24T12:23:52Z</time>
      </trkpt>
      <trkpt lat="44.12248" lon="1.7539">
        <ele>365.4</ele>
        <time>2018-01-24T12:23:54Z</time>
      </trkpt>
      <trkpt lat="44.12257" lon="1.75393">
        <ele>364.7</ele>
        <time>2018-01-24T12:23:56Z</time>
      </trkpt>
      <trkpt lat="44.12265" lon="1.75396">
        <ele>364.8</ele>
        <time>2018-01-24T12:23:58Z</time>
      </trkpt>
      <trkpt lat="44.12272" lon="1.754">
        <ele>364.4</ele>
        <time>2018-01-24T12:24:00Z</time>
      </trkpt>
      <trkpt lat="44.12281" lon="1.75407">
        <ele>364.2</ele>
        <time>2018-01-24T12:24:03Z</time>
      </trkpt>
      <trkpt lat="44.1229" lon="1.75413">
        <ele>362</ele>
        <time>2018-01-24T12:24:05Z</time>
      </trkpt>
      <trkpt lat="44.123" lon="1.75421">
        <ele>361.4</ele>
        <time>2018-01-24T12:24:08Z</time>
      </trkpt>
      <trkpt lat="44.12307" lon="1.75427">
        <ele>361.1</ele>
        <time>2018-01-24T12:24:11Z</time>
      </trkpt>
      <trkpt lat="44.12315" lon="1.75435">
        <ele>361</ele>
        <time>2018-01-24T12:24:15Z</time>
      </trkpt>
      <trkpt lat="44.12323" lon="1.75441">
        <ele>361.9</ele>
        <time>2018-01-24T12:24:18Z</time>
      </trkpt>
      <trkpt lat="44.12329" lon="1.75445">
        <ele>362.8</ele>
        <time>2018-01-24T12:24:20Z</time>
      </trkpt>
      <trkpt lat="44.12336" lon="1.75451">
        <ele>362.8</ele>
        <time>2018-01-24T12:24:22Z</time>
      </trkpt>
      <trkpt lat="44.12342" lon="1.75457">
        <ele>363</ele>
        <time>2018-01-24T12:24:24Z</time>
      </trkpt>
      <trkpt lat="44.12348" lon="1.75465">
        <ele>362.8</ele>
        <time>2018-01-24T12:24:26Z</time>
      </trkpt>
      <trkpt lat="44.12355" lon="1.75473">
        <ele>363</ele>
        <time>2018-01-24T12:24:28Z</time>
      </trkpt>
      <trkpt lat="44.12361" lon="1.7548">
        <ele>362.5</ele>
        <time>2018-01-24T12:24:30Z</time>
      </trkpt>
      <trkpt lat="44.1237" lon="1.75489">
        <ele>360.8</ele>
        <time>2018-01-24T12:24:33Z</time>
      </trkpt>
      <trkpt lat="44.12376" lon="1.75496">
        <ele>362.5</ele>
        <time>2018-01-24T12:24:35Z</time>
      </trkpt>
      <trkpt lat="44.12383" lon="1.75502">
        <ele>363.7</ele>
        <time>2018-01-24T12:24:37Z</time>
      </trkpt>
      <trkpt lat="44.1239" lon="1.75508">
        <ele>364.1</ele>
        <time>2018-01-24T12:24:39Z</time>
      </trkpt>
      <trkpt lat="44.12396" lon="1.75513">
        <ele>364.7</ele>
        <time>2018-01-24T12:24:41Z</time>
      </trkpt>
      <trkpt lat="44.12402" lon="1.75517">
        <ele>365.5</ele>
        <time>2018-01-24T12:24:43Z</time>
      </trkpt>
      <trkpt lat="44.1241" lon="1.75529">
        <ele>365.2</ele>
        <time>2018-01-24T12:24:46Z</time>
      </trkpt>
      <trkpt lat="44.12416" lon="1.75535">
        <ele>365.2</ele>
        <time>2018-01-24T12:24:48Z</time>
      </trkpt>
      <trkpt lat="44.12423" lon="1.7554">
        <ele>365.2</ele>
        <time>2018-01-24T12:24:50Z</time>
      </trkpt>
      <trkpt lat="44.12429" lon="1.75546">
        <ele>365.1</ele>
        <time>2018-01-24T12:24:52Z</time>
      </trkpt>
      <trkpt lat="44.12436" lon="1.75552">
        <ele>366.5</ele>
        <time>2018-01-24T12:24:54Z</time>
      </trkpt>
      <trkpt lat="44.12442" lon="1.75557">
        <ele>366.9</ele>
        <time>2018-01-24T12:24:56Z</time>
      </trkpt>
      <trkpt lat="44.12449" lon="1.75563">
        <ele>367.3</ele>
        <time>2018-01-24T12:24:58Z</time>
      </trkpt>
      <trkpt lat="44.12457" lon="1.75571">
        <ele>368.4</ele>
        <time>2018-01-24T12:25:01Z</time>
      </trkpt>
      <trkpt lat="44.12467" lon="1.75577">
        <ele>369.9</ele>
        <time>2018-01-24T12:25:04Z</time>
      </trkpt>
      <trkpt lat="44.12476" lon="1.75583">
        <ele>371.1</ele>
        <time>2018-01-24T12:25:07Z</time>
      </trkpt>
      <trkpt lat="44.12485" lon="1.7559">
        <ele>371</ele>
        <time>2018-01-24T12:25:10Z</time>
      </trkpt>
      <trkpt lat="44.12494" lon="1.75596">
        <ele>369.5</ele>
        <time>2018-01-24T12:25:13Z</time>
      </trkpt>
      <trkpt lat="44.12503" lon="1.756">
        <ele>369.1</ele>
        <time>2018-01-24T12:25:16Z</time>
      </trkpt>
      <trkpt lat="44.12511" lon="1.75602">
        <ele>368.5</ele>
        <time>2018-01-24T12:25:19Z</time>
      </trkpt>
      <trkpt lat="44.1252" lon="1.75608">
        <ele>366.6</ele>
        <time>2018-01-24T12:25:23Z</time>
      </trkpt>
      <trkpt lat="44.12528" lon="1.75611">
        <ele>366.4</ele>
        <time>2018-01-24T12:25:26Z</time>
      </trkpt>
      <trkpt lat="44.12535" lon="1.75615">
        <ele>366.2</ele>
        <time>2018-01-24T12:25:29Z</time>
      </trkpt>
      <trkpt lat="44.12544" lon="1.75617">
        <ele>366.2</ele>
        <time>2018-01-24T12:25:33Z</time>
      </trkpt>
      <trkpt lat="44.12552" lon="1.75621">
        <ele>366.1</ele>
        <time>2018-01-24T12:25:37Z</time>
      </trkpt>
      <trkpt lat="44.1256" lon="1.75624">
        <ele>366.4</ele>
        <time>2018-01-24T12:25:41Z</time>
      </trkpt>
      <trkpt lat="44.12567" lon="1.75629">
        <ele>365.7</ele>
        <time>2018-01-24T12:25:45Z</time>
      </trkpt>
      <trkpt lat="44.12575" lon="1.75635">
        <ele>365.1</ele>
        <time>2018-01-24T12:25:49Z</time>
      </trkpt>
      <trkpt lat="44.12581" lon="1.75643">
        <ele>366.1</ele>
        <time>2018-01-24T12:25:54Z</time>
      </trkpt>
      <trkpt lat="44.12589" lon="1.75643">
        <ele>367.3</ele>
        <time>2018-01-24T12:26:00Z</time>
      </trkpt>
      <trkpt lat="44.12596" lon="1.7564">
        <ele>367</ele>
        <time>2018-01-24T12:26:05Z</time>
      </trkpt>
      <trkpt lat="44.12605" lon="1.75641">
        <ele>366.4</ele>
        <time>2018-01-24T12:26:11Z</time>
      </trkpt>
      <trkpt lat="44.12613" lon="1.75642">
        <ele>366.9</ele>
        <time>2018-01-24T12:26:15Z</time>
      </trkpt>
      <trkpt lat="44.12621" lon="1.75644">
        <ele>368</ele>
        <time>2018-01-24T12:26:19Z</time>
      </trkpt>
      <trkpt lat="44.12628" lon="1.75648">
        <ele>368.9</ele>
        <time>2018-01-24T12:26:23Z</time>
      </trkpt>
      <trkpt lat="44.12638" lon="1.75651">
        <ele>368.8</ele>
        <time>2018-01-24T12:26:28Z</time>
      </trkpt>
      <trkpt lat="44.12647" lon="1.75655">
        <ele>369.2</ele>
        <time>2018-01-24T12:26:32Z</time>
      </trkpt>
      <trkpt lat="44.12655" lon="1.75658">
        <ele>370.3</ele>
        <time>2018-01-24T12:26:37Z</time>
      </trkpt>
      <trkpt lat="44.12664" lon="1.75661">
        <ele>370.5</ele>
        <time>2018-01-24T12:26:41Z</time>
      </trkpt>
      <trkpt lat="44.12673" lon="1.75663">
        <ele>371.1</ele>
        <time>2018-01-24T12:26:45Z</time>
      </trkpt>
      <trkpt lat="44.12682" lon="1.75665">
        <ele>372.1</ele>
        <time>2018-01-24T12:26:48Z</time>
      </trkpt>
      <trkpt lat="44.12692" lon="1.75665">
        <ele>372.8</ele>
        <time>2018-01-24T12:26:51Z</time>
      </trkpt>
      <trkpt lat="44.12702" lon="1.75668">
        <ele>371.8</ele>
        <time>2018-01-24T12:26:54Z</time>
      </trkpt>
      <trkpt lat="44.12712" lon="1.7567">
        <ele>371</ele>
        <time>2018-01-24T12:26:57Z</time>
      </trkpt>
      <trkpt lat="44.12719" lon="1.75672">
        <ele>370.9</ele>
        <time>2018-01-24T12:26:59Z</time>
      </trkpt>
      <trkpt lat="44.12727" lon="1.75673">
        <ele>371.4</ele>
        <time>2018-01-24T12:27:01Z</time>
      </trkpt>
      <trkpt lat="44.12735" lon="1.75674">
        <ele>371.6</ele>
        <time>2018-01-24T12:27:03Z</time>
      </trkpt>
      <trkpt lat="44.12745" lon="1.75674">
        <ele>370.6</ele>
        <time>2018-01-24T12:27:06Z</time>
      </trkpt>
      <trkpt lat="44.12752" lon="1.75675">
        <ele>370.8</ele>
        <time>2018-01-24T12:27:08Z</time>
      </trkpt>
      <trkpt lat="44.12762" lon="1.75676">
        <ele>369.4</ele>
        <time>2018-01-24T12:27:11Z</time>
      </trkpt>
      <trkpt lat="44.12772" lon="1.75677">
        <ele>368</ele>
        <time>2018-01-24T12:27:14Z</time>
      </trkpt>
      <trkpt lat="44.12784" lon="1.75679">
        <ele>366.6</ele>
        <time>2018-01-24T12:27:17Z</time>
      </trkpt>
      <trkpt lat="44.12792" lon="1.75679">
        <ele>367.5</ele>
        <time>2018-01-24T12:27:19Z</time>
      </trkpt>
      <trkpt lat="44.128" lon="1.7568">
        <ele>368.8</ele>
        <time>2018-01-24T12:27:21Z</time>
      </trkpt>
      <trkpt lat="44.12808" lon="1.75681">
        <ele>368.6</ele>
        <time>2018-01-24T12:27:23Z</time>
      </trkpt>
      <trkpt lat="44.12816" lon="1.75683">
        <ele>368.5</ele>
        <time>2018-01-24T12:27:25Z</time>
      </trkpt>
      <trkpt lat="44.12823" lon="1.75683">
        <ele>368.3</ele>
        <time>2018-01-24T12:27:27Z</time>
      </trkpt>
      <trkpt lat="44.12831" lon="1.75685">
        <ele>368.8</ele>
        <time>2018-01-24T12:27:29Z</time>
      </trkpt>
      <trkpt lat="44.12839" lon="1.75685">
        <ele>369.7</ele>
        <time>2018-01-24T12:27:31Z</time>
      </trkpt>
      <trkpt lat="44.12847" lon="1.75688">
        <ele>369.9</ele>
        <time>2018-01-24T12:27:33Z</time>
      </trkpt>
      <trkpt lat="44.12855" lon="1.75689">
        <ele>369.2</ele>
        <time>2018-01-24T12:27:35Z</time>
      </trkpt>
      <trkpt lat="44.12863" lon="1.75691">
        <ele>368.5</ele>
        <time>2018-01-24T12:27:37Z</time>
      </trkpt>
      <trkpt lat="44.12872" lon="1.75692">
        <ele>368.6</ele>
        <time>2018-01-24T12:27:39Z</time>
      </trkpt>
      <trkpt lat="44.12882" lon="1.75693">
        <ele>369</ele>
        <time>2018-01-24T12:27:41Z</time>
      </trkpt>
      <trkpt lat="44.12891" lon="1.75692">
        <ele>370.2</ele>
        <time>2018-01-24T12:27:43Z</time>
      </trkpt>
      <trkpt lat="44.129" lon="1.75695">
        <ele>370.4</ele>
        <time>2018-01-24T12:27:45Z</time>
      </trkpt>
      <trkpt lat="44.12909" lon="1.75697">
        <ele>369.9</ele>
        <time>2018-01-24T12:27:47Z</time>
      </trkpt>
      <trkpt lat="44.12917" lon="1.75698">
        <ele>369.5</ele>
        <time>2018-01-24T12:27:49Z</time>
      </trkpt>
      <trkpt lat="44.12926" lon="1.75699">
        <ele>369.4</ele>
        <time>2018-01-24T12:27:51Z</time>
      </trkpt>
      <trkpt lat="44.12935" lon="1.75701">
        <ele>370.1</ele>
        <time>2018-01-24T12:27:53Z</time>
      </trkpt>
      <trkpt lat="44.12943" lon="1.75701">
        <ele>370.3</ele>
        <time>2018-01-24T12:27:55Z</time>
      </trkpt>
      <trkpt lat="44.12953" lon="1.75702">
        <ele>368.7</ele>
        <time>2018-01-24T12:27:58Z</time>
      </trkpt>
      <trkpt lat="44.12963" lon="1.75704">
        <ele>370.4</ele>
        <time>2018-01-24T12:28:01Z</time>
      </trkpt>
      <trkpt lat="44.12973" lon="1.75705">
        <ele>370.1</ele>
        <time>2018-01-24T12:28:04Z</time>
      </trkpt>
      <trkpt lat="44.12984" lon="1.75706">
        <ele>370.2</ele>
        <time>2018-01-24T12:28:07Z</time>
      </trkpt>
      <trkpt lat="44.12992" lon="1.75706">
        <ele>370.6</ele>
        <time>2018-01-24T12:28:09Z</time>
      </trkpt>
      <trkpt lat="44.12999" lon="1.75706">
        <ele>370.8</ele>
        <time>2018-01-24T12:28:11Z</time>
      </trkpt>
      <trkpt lat="44.13007" lon="1.75708">
        <ele>370.3</ele>
        <time>2018-01-24T12:28:13Z</time>
      </trkpt>
      <trkpt lat="44.13014" lon="1.75709">
        <ele>370.9</ele>
        <time>2018-01-24T12:28:15Z</time>
      </trkpt>
      <trkpt lat="44.13022" lon="1.75711">
        <ele>371.6</ele>
        <time>2018-01-24T12:28:17Z</time>
      </trkpt>
      <trkpt lat="44.13032" lon="1.75711">
        <ele>372</ele>
        <time>2018-01-24T12:28:20Z</time>
      </trkpt>
      <trkpt lat="44.13042" lon="1.75712">
        <ele>373.1</ele>
        <time>2018-01-24T12:28:23Z</time>
      </trkpt>
      <trkpt lat="44.13053" lon="1.75714">
        <ele>373</ele>
        <time>2018-01-24T12:28:26Z</time>
      </trkpt>
      <trkpt lat="44.13062" lon="1.75716">
        <ele>373.5</ele>
        <time>2018-01-24T12:28:29Z</time>
      </trkpt>
      <trkpt lat="44.13072" lon="1.75718">
        <ele>373.5</ele>
        <time>2018-01-24T12:28:32Z</time>
      </trkpt>
      <trkpt lat="44.1308" lon="1.75717">
        <ele>373.7</ele>
        <time>2018-01-24T12:28:35Z</time>
      </trkpt>
      <trkpt lat="44.13091" lon="1.75717">
        <ele>372.4</ele>
        <time>2018-01-24T12:28:38Z</time>
      </trkpt>
      <trkpt lat="44.13101" lon="1.75715">
        <ele>373.8</ele>
        <time>2018-01-24T12:28:41Z</time>
      </trkpt>
      <trkpt lat="44.13111" lon="1.75713">
        <ele>374.2</ele>
        <time>2018-01-24T12:28:44Z</time>
      </trkpt>
      <trkpt lat="44.13119" lon="1.75713">
        <ele>374.8</ele>
        <time>2018-01-24T12:28:47Z</time>
      </trkpt>
      <trkpt lat="44.13127" lon="1.75711">
        <ele>375.3</ele>
        <time>2018-01-24T12:28:50Z</time>
      </trkpt>
      <trkpt lat="44.13138" lon="1.75708">
        <ele>375.9</ele>
        <time>2018-01-24T12:28:53Z</time>
      </trkpt>
      <trkpt lat="44.13146" lon="1.75705">
        <ele>376.8</ele>
        <time>2018-01-24T12:28:55Z</time>
      </trkpt>
      <trkpt lat="44.13155" lon="1.75701">
        <ele>377.3</ele>
        <time>2018-01-24T12:28:57Z</time>
      </trkpt>
      <trkpt lat="44.13164" lon="1.757">
        <ele>376.9</ele>
        <time>2018-01-24T12:28:59Z</time>
      </trkpt>
      <trkpt lat="44.13175" lon="1.75701">
        <ele>376.2</ele>
        <time>2018-01-24T12:29:01Z</time>
      </trkpt>
      <trkpt lat="44.13186" lon="1.75702">
        <ele>375.7</ele>
        <time>2018-01-24T12:29:03Z</time>
      </trkpt>
      <trkpt lat="44.13197" lon="1.75705">
        <ele>375.4</ele>
        <time>2018-01-24T12:29:05Z</time>
      </trkpt>
      <trkpt lat="44.13209" lon="1.75705">
        <ele>375.6</ele>
        <time>2018-01-24T12:29:07Z</time>
      </trkpt>
      <trkpt lat="44.13221" lon="1.75703">
        <ele>373.5</ele>
        <time>2018-01-24T12:29:09Z</time>
      </trkpt>
      <trkpt lat="44.13235" lon="1.75703">
        <ele>372.5</ele>
        <time>2018-01-24T12:29:11Z</time>
      </trkpt>
      <trkpt lat="44.13243" lon="1.75704">
        <ele>372.2</ele>
        <time>2018-01-24T12:29:12Z</time>
      </trkpt>
      <trkpt lat="44.1325" lon="1.75705">
        <ele>371.4</ele>
        <time>2018-01-24T12:29:13Z</time>
      </trkpt>
      <trkpt lat="44.13266" lon="1.75706">
        <ele>370.1</ele>
        <time>2018-01-24T12:29:15Z</time>
      </trkpt>
      <trkpt lat="44.13273" lon="1.75706">
        <ele>368.4</ele>
        <time>2018-01-24T12:29:16Z</time>
      </trkpt>
      <trkpt lat="44.13287" lon="1.75708">
        <ele>366.9</ele>
        <time>2018-01-24T12:29:18Z</time>
      </trkpt>
      <trkpt lat="44.133" lon="1.75713">
        <ele>364.3</ele>
        <time>2018-01-24T12:29:20Z</time>
      </trkpt>
      <trkpt lat="44.13307" lon="1.75715">
        <ele>363.6</ele>
        <time>2018-01-24T12:29:21Z</time>
      </trkpt>
      <trkpt lat="44.13314" lon="1.75716">
        <ele>362.9</ele>
        <time>2018-01-24T12:29:22Z</time>
      </trkpt>
      <trkpt lat="44.13327" lon="1.75715">
        <ele>361.9</ele>
        <time>2018-01-24T12:29:24Z</time>
      </trkpt>
      <trkpt lat="44.1334" lon="1.75713">
        <ele>361</ele>
        <time>2018-01-24T12:29:26Z</time>
      </trkpt>
      <trkpt lat="44.1335" lon="1.75709">
        <ele>359.9</ele>
        <time>2018-01-24T12:29:28Z</time>
      </trkpt>
      <trkpt lat="44.13361" lon="1.75703">
        <ele>360</ele>
        <time>2018-01-24T12:29:30Z</time>
      </trkpt>
      <trkpt lat="44.13371" lon="1.75699">
        <ele>360.5</ele>
        <time>2018-01-24T12:29:32Z</time>
      </trkpt>
      <trkpt lat="44.13383" lon="1.75698">
        <ele>360.4</ele>
        <time>2018-01-24T12:29:34Z</time>
      </trkpt>
      <trkpt lat="44.13395" lon="1.75699">
        <ele>361.2</ele>
        <time>2018-01-24T12:29:36Z</time>
      </trkpt>
      <trkpt lat="44.13405" lon="1.757">
        <ele>362.2</ele>
        <time>2018-01-24T12:29:38Z</time>
      </trkpt>
      <trkpt lat="44.13413" lon="1.75698">
        <ele>363.1</ele>
        <time>2018-01-24T12:29:40Z</time>
      </trkpt>
      <trkpt lat="44.13422" lon="1.75693">
        <ele>364.5</ele>
        <time>2018-01-24T12:29:43Z</time>
      </trkpt>
      <trkpt lat="44.1343" lon="1.75689">
        <ele>364.9</ele>
        <time>2018-01-24T12:29:45Z</time>
      </trkpt>
      <trkpt lat="44.13439" lon="1.75687">
        <ele>365.6</ele>
        <time>2018-01-24T12:29:47Z</time>
      </trkpt>
      <trkpt lat="44.13448" lon="1.75684">
        <ele>366.1</ele>
        <time>2018-01-24T12:29:49Z</time>
      </trkpt>
      <trkpt lat="44.13456" lon="1.75683">
        <ele>366.2</ele>
        <time>2018-01-24T12:29:51Z</time>
      </trkpt>
      <trkpt lat="44.13463" lon="1.75681">
        <ele>366.9</ele>
        <time>2018-01-24T12:29:53Z</time>
      </trkpt>
      <trkpt lat="44.13473" lon="1.75679">
        <ele>368.1</ele>
        <time>2018-01-24T12:29:56Z</time>
      </trkpt>
      <trkpt lat="44.13479" lon="1.75681">
        <ele>370.3</ele>
        <time>2018-01-24T12:30:03Z</time>
      </trkpt>
      <trkpt lat="44.13489" lon="1.75677">
        <ele>375.3</ele>
        <time>2018-01-24T12:32:47Z</time>
      </trkpt>
      <trkpt lat="44.13498" lon="1.75672">
        <ele>374.9</ele>
        <time>2018-01-24T12:32:50Z</time>
      </trkpt>
      <trkpt lat="44.13508" lon="1.75669">
        <ele>375</ele>
        <time>2018-01-24T12:32:53Z</time>
      </trkpt>
      <trkpt lat="44.13515" lon="1.75667">
        <ele>375.2</ele>
        <time>2018-01-24T12:32:55Z</time>
      </trkpt>
      <trkpt lat="44.13522" lon="1.75664">
        <ele>375.7</ele>
        <time>2018-01-24T12:32:57Z</time>
      </trkpt>
      <trkpt lat="44.1353" lon="1.75661">
        <ele>376</ele>
        <time>2018-01-24T12:32:59Z</time>
      </trkpt>
      <trkpt lat="44.13538" lon="1.75658">
        <ele>376.3</ele>
        <time>2018-01-24T12:33:01Z</time>
      </trkpt>
      <trkpt lat="44.13546" lon="1.75654">
        <ele>376.5</ele>
        <time>2018-01-24T12:33:03Z</time>
      </trkpt>
      <trkpt lat="44.13555" lon="1.7565">
        <ele>376.8</ele>
        <time>2018-01-24T12:33:05Z</time>
      </trkpt>
      <trkpt lat="44.13565" lon="1.75644">
        <ele>376.9</ele>
        <time>2018-01-24T12:33:07Z</time>
      </trkpt>
      <trkpt lat="44.13574" lon="1.7564">
        <ele>377.5</ele>
        <time>2018-01-24T12:33:09Z</time>
      </trkpt>
      <trkpt lat="44.13582" lon="1.75635">
        <ele>377.9</ele>
        <time>2018-01-24T12:33:11Z</time>
      </trkpt>
      <trkpt lat="44.13589" lon="1.75629">
        <ele>377.8</ele>
        <time>2018-01-24T12:33:13Z</time>
      </trkpt>
      <trkpt lat="44.13596" lon="1.75624">
        <ele>377.6</ele>
        <time>2018-01-24T12:33:15Z</time>
      </trkpt>
      <trkpt lat="44.13603" lon="1.75621">
        <ele>377.3</ele>
        <time>2018-01-24T12:33:17Z</time>
      </trkpt>
      <trkpt lat="44.1361" lon="1.75617">
        <ele>377</ele>
        <time>2018-01-24T12:33:19Z</time>
      </trkpt>
      <trkpt lat="44.1362" lon="1.75615">
        <ele>376.9</ele>
        <time>2018-01-24T12:33:22Z</time>
      </trkpt>
      <trkpt lat="44.1363" lon="1.75616">
        <ele>375.5</ele>
        <time>2018-01-24T12:33:25Z</time>
      </trkpt>
      <trkpt lat="44.1364" lon="1.75615">
        <ele>374.9</ele>
        <time>2018-01-24T12:33:28Z</time>
      </trkpt>
      <trkpt lat="44.1365" lon="1.75614">
        <ele>374.7</ele>
        <time>2018-01-24T12:33:31Z</time>
      </trkpt>
      <trkpt lat="44.13658" lon="1.75614">
        <ele>375</ele>
        <time>2018-01-24T12:33:33Z</time>
      </trkpt>
      <trkpt lat="44.13666" lon="1.75614">
        <ele>374.7</ele>
        <time>2018-01-24T12:33:35Z</time>
      </trkpt>
      <trkpt lat="44.13675" lon="1.75617">
        <ele>374.4</ele>
        <time>2018-01-24T12:33:37Z</time>
      </trkpt>
      <trkpt lat="44.13685" lon="1.75621">
        <ele>373.6</ele>
        <time>2018-01-24T12:33:39Z</time>
      </trkpt>
      <trkpt lat="44.13696" lon="1.75625">
        <ele>371.8</ele>
        <time>2018-01-24T12:33:41Z</time>
      </trkpt>
      <trkpt lat="44.13708" lon="1.75629">
        <ele>370.1</ele>
        <time>2018-01-24T12:33:43Z</time>
      </trkpt>
      <trkpt lat="44.13722" lon="1.75629">
        <ele>369.2</ele>
        <time>2018-01-24T12:33:45Z</time>
      </trkpt>
      <trkpt lat="44.13729" lon="1.75629">
        <ele>368.7</ele>
        <time>2018-01-24T12:33:46Z</time>
      </trkpt>
      <trkpt lat="44.13736" lon="1.75629">
        <ele>366.6</ele>
        <time>2018-01-24T12:33:47Z</time>
      </trkpt>
      <trkpt lat="44.13752" lon="1.75628">
        <ele>364.6</ele>
        <time>2018-01-24T12:33:49Z</time>
      </trkpt>
      <trkpt lat="44.13765" lon="1.75628">
        <ele>362.2</ele>
        <time>2018-01-24T12:33:51Z</time>
      </trkpt>
      <trkpt lat="44.1378" lon="1.75625">
        <ele>360.4</ele>
        <time>2018-01-24T12:33:53Z</time>
      </trkpt>
      <trkpt lat="44.13788" lon="1.75624">
        <ele>359.9</ele>
        <time>2018-01-24T12:33:54Z</time>
      </trkpt>
      <trkpt lat="44.13798" lon="1.75624">
        <ele>359.5</ele>
        <time>2018-01-24T12:33:55Z</time>
      </trkpt>
      <trkpt lat="44.13807" lon="1.75625">
        <ele>359.4</ele>
        <time>2018-01-24T12:33:56Z</time>
      </trkpt>
      <trkpt lat="44.13816" lon="1.75625">
        <ele>358.7</ele>
        <time>2018-01-24T12:33:57Z</time>
      </trkpt>
      <trkpt lat="44.13826" lon="1.75627">
        <ele>358.3</ele>
        <time>2018-01-24T12:33:58Z</time>
      </trkpt>
      <trkpt lat="44.13836" lon="1.75626">
        <ele>356.8</ele>
        <time>2018-01-24T12:33:59Z</time>
      </trkpt>
      <trkpt lat="44.13846" lon="1.75624">
        <ele>356.1</ele>
        <time>2018-01-24T12:34:00Z</time>
      </trkpt>
      <trkpt lat="44.13855" lon="1.7562">
        <ele>355.5</ele>
        <time>2018-01-24T12:34:01Z</time>
      </trkpt>
      <trkpt lat="44.13864" lon="1.75616">
        <ele>355.2</ele>
        <time>2018-01-24T12:34:02Z</time>
      </trkpt>
      <trkpt lat="44.13874" lon="1.75613">
        <ele>354.9</ele>
        <time>2018-01-24T12:34:03Z</time>
      </trkpt>
      <trkpt lat="44.13883" lon="1.7561">
        <ele>354.7</ele>
        <time>2018-01-24T12:34:04Z</time>
      </trkpt>
      <trkpt lat="44.13893" lon="1.75608">
        <ele>354.5</ele>
        <time>2018-01-24T12:34:05Z</time>
      </trkpt>
      <trkpt lat="44.13902" lon="1.75607">
        <ele>355</ele>
        <time>2018-01-24T12:34:06Z</time>
      </trkpt>
      <trkpt lat="44.13911" lon="1.75605">
        <ele>355.3</ele>
        <time>2018-01-24T12:34:07Z</time>
      </trkpt>
      <trkpt lat="44.13919" lon="1.75602">
        <ele>355.4</ele>
        <time>2018-01-24T12:34:08Z</time>
      </trkpt>
      <trkpt lat="44.13928" lon="1.756">
        <ele>355.7</ele>
        <time>2018-01-24T12:34:09Z</time>
      </trkpt>
      <trkpt lat="44.13936" lon="1.75597">
        <ele>355.7</ele>
        <time>2018-01-24T12:34:10Z</time>
      </trkpt>
      <trkpt lat="44.13944" lon="1.75594">
        <ele>355.6</ele>
        <time>2018-01-24T12:34:11Z</time>
      </trkpt>
      <trkpt lat="44.13951" lon="1.7559">
        <ele>355.5</ele>
        <time>2018-01-24T12:34:12Z</time>
      </trkpt>
      <trkpt lat="44.13959" lon="1.75586">
        <ele>355.3</ele>
        <time>2018-01-24T12:34:13Z</time>
      </trkpt>
      <trkpt lat="44.13967" lon="1.75581">
        <ele>355.1</ele>
        <time>2018-01-24T12:34:14Z</time>
      </trkpt>
      <trkpt lat="44.13974" lon="1.75577">
        <ele>354.8</ele>
        <time>2018-01-24T12:34:15Z</time>
      </trkpt>
      <trkpt lat="44.13982" lon="1.75573">
        <ele>354.4</ele>
        <time>2018-01-24T12:34:16Z</time>
      </trkpt>
      <trkpt lat="44.13989" lon="1.75568">
        <ele>354.2</ele>
        <time>2018-01-24T12:34:17Z</time>
      </trkpt>
      <trkpt lat="44.13997" lon="1.75565">
        <ele>353.9</ele>
        <time>2018-01-24T12:34:18Z</time>
      </trkpt>
      <trkpt lat="44.14005" lon="1.75562">
        <ele>353.6</ele>
        <time>2018-01-24T12:34:19Z</time>
      </trkpt>
      <trkpt lat="44.14013" lon="1.75559">
        <ele>353.3</ele>
        <time>2018-01-24T12:34:20Z</time>
      </trkpt>
      <trkpt lat="44.14021" lon="1.75557">
        <ele>352.9</ele>
        <time>2018-01-24T12:34:21Z</time>
      </trkpt>
      <trkpt lat="44.14029" lon="1.75553">
        <ele>352.5</ele>
        <time>2018-01-24T12:34:22Z</time>
      </trkpt>
      <trkpt lat="44.14037" lon="1.75549">
        <ele>352</ele>
        <time>2018-01-24T12:34:23Z</time>
      </trkpt>
      <trkpt lat="44.14044" lon="1.75542">
        <ele>351.5</ele>
        <time>2018-01-24T12:34:24Z</time>
      </trkpt>
      <trkpt lat="44.14051" lon="1.75535">
        <ele>351</ele>
        <time>2018-01-24T12:34:25Z</time>
      </trkpt>
      <trkpt lat="44.14058" lon="1.75527">
        <ele>350.5</ele>
        <time>2018-01-24T12:34:26Z</time>
      </trkpt>
      <trkpt lat="44.14065" lon="1.75521">
        <ele>350.2</ele>
        <time>2018-01-24T12:34:27Z</time>
      </trkpt>
      <trkpt lat="44.14073" lon="1.75513">
        <ele>349.9</ele>
        <time>2018-01-24T12:34:28Z</time>
      </trkpt>
      <trkpt lat="44.1408" lon="1.75507">
        <ele>349.5</ele>
        <time>2018-01-24T12:34:29Z</time>
      </trkpt>
      <trkpt lat="44.14088" lon="1.75499">
        <ele>349</ele>
        <time>2018-01-24T12:34:30Z</time>
      </trkpt>
      <trkpt lat="44.14095" lon="1.75492">
        <ele>348.5</ele>
        <time>2018-01-24T12:34:31Z</time>
      </trkpt>
      <trkpt lat="44.14103" lon="1.75484">
        <ele>347.9</ele>
        <time>2018-01-24T12:34:32Z</time>
      </trkpt>
      <trkpt lat="44.1411" lon="1.75475">
        <ele>347.3</ele>
        <time>2018-01-24T12:34:33Z</time>
      </trkpt>
      <trkpt lat="44.14118" lon="1.75467">
        <ele>346.8</ele>
        <time>2018-01-24T12:34:34Z</time>
      </trkpt>
      <trkpt lat="44.14125" lon="1.75459">
        <ele>346.3</ele>
        <time>2018-01-24T12:34:35Z</time>
      </trkpt>
      <trkpt lat="44.14133" lon="1.7545">
        <ele>345.8</ele>
        <time>2018-01-24T12:34:36Z</time>
      </trkpt>
      <trkpt lat="44.1414" lon="1.75441">
        <ele>345.2</ele>
        <time>2018-01-24T12:34:37Z</time>
      </trkpt>
      <trkpt lat="44.14148" lon="1.75434">
        <ele>344.8</ele>
        <time>2018-01-24T12:34:38Z</time>
      </trkpt>
      <trkpt lat="44.14156" lon="1.75426">
        <ele>344.3</ele>
        <time>2018-01-24T12:34:39Z</time>
      </trkpt>
      <trkpt lat="44.14164" lon="1.75419">
        <ele>343.7</ele>
        <time>2018-01-24T12:34:40Z</time>
      </trkpt>
      <trkpt lat="44.14172" lon="1.75409">
        <ele>343.2</ele>
        <time>2018-01-24T12:34:41Z</time>
      </trkpt>
      <trkpt lat="44.14179" lon="1.754">
        <ele>342.5</ele>
        <time>2018-01-24T12:34:42Z</time>
      </trkpt>
      <trkpt lat="44.14186" lon="1.7539">
        <ele>341.9</ele>
        <time>2018-01-24T12:34:43Z</time>
      </trkpt>
      <trkpt lat="44.14193" lon="1.75381">
        <ele>341.4</ele>
        <time>2018-01-24T12:34:44Z</time>
      </trkpt>
      <trkpt lat="44.14201" lon="1.75374">
        <ele>341.2</ele>
        <time>2018-01-24T12:34:45Z</time>
      </trkpt>
      <trkpt lat="44.14208" lon="1.75372">
        <ele>341.6</ele>
        <time>2018-01-24T12:34:46Z</time>
      </trkpt>
      <trkpt lat="44.14219" lon="1.75373">
        <ele>342.8</ele>
        <time>2018-01-24T12:34:48Z</time>
      </trkpt>
      <trkpt lat="44.14227" lon="1.75367">
        <ele>344.3</ele>
        <time>2018-01-24T12:34:51Z</time>
      </trkpt>
      <trkpt lat="44.14234" lon="1.75362">
        <ele>345.6</ele>
        <time>2018-01-24T12:34:55Z</time>
      </trkpt>
      <trkpt lat="44.14241" lon="1.75356">
        <ele>344.9</ele>
        <time>2018-01-24T12:34:59Z</time>
      </trkpt>
      <trkpt lat="44.14247" lon="1.75349">
        <ele>345.2</ele>
        <time>2018-01-24T12:35:02Z</time>
      </trkpt>
      <trkpt lat="44.14254" lon="1.75343">
        <ele>345.2</ele>
        <time>2018-01-24T12:35:05Z</time>
      </trkpt>
      <trkpt lat="44.14261" lon="1.75339">
        <ele>347</ele>
        <time>2018-01-24T12:35:08Z</time>
      </trkpt>
      <trkpt lat="44.14269" lon="1.75347">
        <ele>348.3</ele>
        <time>2018-01-24T12:35:12Z</time>
      </trkpt>
      <trkpt lat="44.14274" lon="1.75357">
        <ele>349.1</ele>
        <time>2018-01-24T12:35:15Z</time>
      </trkpt>
      <trkpt lat="44.14279" lon="1.75365">
        <ele>349.5</ele>
        <time>2018-01-24T12:35:18Z</time>
      </trkpt>
      <trkpt lat="44.14285" lon="1.75374">
        <ele>349.6</ele>
        <time>2018-01-24T12:35:21Z</time>
      </trkpt>
      <trkpt lat="44.14291" lon="1.75383">
        <ele>349.4</ele>
        <time>2018-01-24T12:35:24Z</time>
      </trkpt>
      <trkpt lat="44.14296" lon="1.75392">
        <ele>349.6</ele>
        <time>2018-01-24T12:35:27Z</time>
      </trkpt>
      <trkpt lat="44.14303" lon="1.75402">
        <ele>349.4</ele>
        <time>2018-01-24T12:35:30Z</time>
      </trkpt>
      <trkpt lat="44.1431" lon="1.75412">
        <ele>349.5</ele>
        <time>2018-01-24T12:35:33Z</time>
      </trkpt>
      <trkpt lat="44.14317" lon="1.75421">
        <ele>348.6</ele>
        <time>2018-01-24T12:35:36Z</time>
      </trkpt>
      <trkpt lat="44.14325" lon="1.7543">
        <ele>347.5</ele>
        <time>2018-01-24T12:35:39Z</time>
      </trkpt>
      <trkpt lat="44.14332" lon="1.75439">
        <ele>347</ele>
        <time>2018-01-24T12:35:42Z</time>
      </trkpt>
      <trkpt lat="44.1434" lon="1.75446">
        <ele>346.4</ele>
        <time>2018-01-24T12:35:45Z</time>
      </trkpt>
      <trkpt lat="44.14347" lon="1.75455">
        <ele>345.5</ele>
        <time>2018-01-24T12:35:48Z</time>
      </trkpt>
      <trkpt lat="44.14352" lon="1.75461">
        <ele>344.9</ele>
        <time>2018-01-24T12:35:50Z</time>
      </trkpt>
      <trkpt lat="44.14358" lon="1.75467">
        <ele>344.1</ele>
        <time>2018-01-24T12:35:52Z</time>
      </trkpt>
      <trkpt lat="44.14365" lon="1.75474">
        <ele>343.7</ele>
        <time>2018-01-24T12:35:54Z</time>
      </trkpt>
      <trkpt lat="44.14371" lon="1.7548">
        <ele>344.1</ele>
        <time>2018-01-24T12:35:56Z</time>
      </trkpt>
      <trkpt lat="44.14377" lon="1.75486">
        <ele>343.7</ele>
        <time>2018-01-24T12:35:58Z</time>
      </trkpt>
      <trkpt lat="44.14386" lon="1.75495">
        <ele>342.5</ele>
        <time>2018-01-24T12:36:01Z</time>
      </trkpt>
      <trkpt lat="44.14393" lon="1.75501">
        <ele>342.3</ele>
        <time>2018-01-24T12:36:03Z</time>
      </trkpt>
      <trkpt lat="44.14403" lon="1.75507">
        <ele>342</ele>
        <time>2018-01-24T12:36:06Z</time>
      </trkpt>
      <trkpt lat="44.1441" lon="1.75513">
        <ele>342.4</ele>
        <time>2018-01-24T12:36:08Z</time>
      </trkpt>
      <trkpt lat="44.14417" lon="1.75517">
        <ele>342</ele>
        <time>2018-01-24T12:36:10Z</time>
      </trkpt>
      <trkpt lat="44.14424" lon="1.75523">
        <ele>341.4</ele>
        <time>2018-01-24T12:36:12Z</time>
      </trkpt>
      <trkpt lat="44.14434" lon="1.75528">
        <ele>340.6</ele>
        <time>2018-01-24T12:36:14Z</time>
      </trkpt>
      <trkpt lat="44.14441" lon="1.75532">
        <ele>339.9</ele>
        <time>2018-01-24T12:36:16Z</time>
      </trkpt>
      <trkpt lat="44.1445" lon="1.75534">
        <ele>340.1</ele>
        <time>2018-01-24T12:36:19Z</time>
      </trkpt>
      <trkpt lat="44.14457" lon="1.75532">
        <ele>339.6</ele>
        <time>2018-01-24T12:36:21Z</time>
      </trkpt>
      <trkpt lat="44.14465" lon="1.75529">
        <ele>339.4</ele>
        <time>2018-01-24T12:36:22Z</time>
      </trkpt>
      <trkpt lat="44.14474" lon="1.75524">
        <ele>339.1</ele>
        <time>2018-01-24T12:36:24Z</time>
      </trkpt>
      <trkpt lat="44.14481" lon="1.75516">
        <ele>338.5</ele>
        <time>2018-01-24T12:36:26Z</time>
      </trkpt>
      <trkpt lat="44.14486" lon="1.75508">
        <ele>339.4</ele>
        <time>2018-01-24T12:36:29Z</time>
      </trkpt>
      <trkpt lat="44.14492" lon="1.75502">
        <ele>339.3</ele>
        <time>2018-01-24T12:36:34Z</time>
      </trkpt>
      <trkpt lat="44.14494" lon="1.75496">
        <ele>339.3</ele>
        <time>2018-01-24T12:36:41Z</time>
      </trkpt>
      <trkpt lat="44.14493" lon="1.75507">
        <ele>340</ele>
        <time>2018-01-24T12:36:47Z</time>
      </trkpt>
      <trkpt lat="44.14495" lon="1.75517">
        <ele>341.5</ele>
        <time>2018-01-24T12:36:53Z</time>
      </trkpt>
      <trkpt lat="44.14497" lon="1.75517">
        <ele>342.1</ele>
        <time>2018-01-24T12:37:00Z</time>
      </trkpt>
      <trkpt lat="44.14501" lon="1.75527">
        <ele>340.2</ele>
        <time>2018-01-24T12:37:14Z</time>
      </trkpt>
      <trkpt lat="44.14508" lon="1.75533">
        <ele>339.8</ele>
        <time>2018-01-24T12:37:19Z</time>
      </trkpt>
      <trkpt lat="44.14517" lon="1.75527">
        <ele>338.1</ele>
        <time>2018-01-24T12:37:23Z</time>
      </trkpt>
      <trkpt lat="44.14526" lon="1.75519">
        <ele>337.3</ele>
        <time>2018-01-24T12:37:26Z</time>
      </trkpt>
      <trkpt lat="44.14533" lon="1.75513">
        <ele>337</ele>
        <time>2018-01-24T12:37:28Z</time>
      </trkpt>
      <trkpt lat="44.1454" lon="1.75508">
        <ele>337.5</ele>
        <time>2018-01-24T12:37:30Z</time>
      </trkpt>
      <trkpt lat="44.14546" lon="1.75502">
        <ele>337.7</ele>
        <time>2018-01-24T12:37:32Z</time>
      </trkpt>
      <trkpt lat="44.14552" lon="1.75496">
        <ele>337.6</ele>
        <time>2018-01-24T12:37:34Z</time>
      </trkpt>
      <trkpt lat="44.14558" lon="1.75489">
        <ele>337.5</ele>
        <time>2018-01-24T12:37:36Z</time>
      </trkpt>
      <trkpt lat="44.14563" lon="1.75481">
        <ele>337.3</ele>
        <time>2018-01-24T12:37:38Z</time>
      </trkpt>
      <trkpt lat="44.14568" lon="1.75471">
        <ele>336.9</ele>
        <time>2018-01-24T12:37:40Z</time>
      </trkpt>
      <trkpt lat="44.14573" lon="1.7546">
        <ele>336.6</ele>
        <time>2018-01-24T12:37:42Z</time>
      </trkpt>
      <trkpt lat="44.14576" lon="1.7545">
        <ele>336.2</ele>
        <time>2018-01-24T12:37:44Z</time>
      </trkpt>
      <trkpt lat="44.14579" lon="1.75438">
        <ele>336</ele>
        <time>2018-01-24T12:37:46Z</time>
      </trkpt>
      <trkpt lat="44.14581" lon="1.75428">
        <ele>335.9</ele>
        <time>2018-01-24T12:37:48Z</time>
      </trkpt>
      <trkpt lat="44.14581" lon="1.75418">
        <ele>335.9</ele>
        <time>2018-01-24T12:37:50Z</time>
      </trkpt>
      <trkpt lat="44.14582" lon="1.75405">
        <ele>335.9</ele>
        <time>2018-01-24T12:37:53Z</time>
      </trkpt>
      <trkpt lat="44.14587" lon="1.75397">
        <ele>336.5</ele>
        <time>2018-01-24T12:37:57Z</time>
      </trkpt>
      <trkpt lat="44.1459" lon="1.75394">
        <ele>336</ele>
        <time>2018-01-24T12:38:04Z</time>
      </trkpt>
      <trkpt lat="44.14596" lon="1.75393">
        <ele>336.6</ele>
        <time>2018-01-24T12:38:19Z</time>
      </trkpt>
      <trkpt lat="44.14597" lon="1.75389">
        <ele>336.8</ele>
        <time>2018-01-24T12:38:26Z</time>
      </trkpt>
      <trkpt lat="44.14595" lon="1.7539">
        <ele>336.9</ele>
        <time>2018-01-24T12:39:49Z</time>
      </trkpt>
      <trkpt lat="44.14594" lon="1.75393">
        <ele>337</ele>
        <time>2018-01-24T12:39:56Z</time>
      </trkpt>
      <trkpt lat="44.1459" lon="1.75394">
        <ele>335.3</ele>
        <time>2018-01-24T12:41:10Z</time>
      </trkpt>
      <trkpt lat="44.14578" lon="1.7539">
        <ele>337.5</ele>
        <time>2018-01-24T12:45:01Z</time>
      </trkpt>
      <trkpt lat="44.14576" lon="1.7539">
        <ele>337</ele>
        <time>2018-01-24T12:45:08Z</time>
      </trkpt>
      <trkpt lat="44.14579" lon="1.75394">
        <ele>335.9</ele>
        <time>2018-01-24T12:46:36Z</time>
      </trkpt>
      <trkpt lat="44.14584" lon="1.75396">
        <ele>336.2</ele>
        <time>2018-01-24T12:47:06Z</time>
      </trkpt>
      <trkpt lat="44.14585" lon="1.75407">
        <ele>335.8</ele>
        <time>2018-01-24T12:47:13Z</time>
      </trkpt>
      <trkpt lat="44.14583" lon="1.75417">
        <ele>335.2</ele>
        <time>2018-01-24T12:47:16Z</time>
      </trkpt>
      <trkpt lat="44.14581" lon="1.75428">
        <ele>334.5</ele>
        <time>2018-01-24T12:47:20Z</time>
      </trkpt>
      <trkpt lat="44.14533" lon="1.7551">
        <ele>332.5</ele>
        <time>2018-01-24T12:47:50Z</time>
      </trkpt>
      <trkpt lat="44.14526" lon="1.75516">
        <ele>332.4</ele>
        <time>2018-01-24T12:47:53Z</time>
      </trkpt>
      <trkpt lat="44.14519" lon="1.75522">
        <ele>332.3</ele>
        <time>2018-01-24T12:47:56Z</time>
      </trkpt>
      <trkpt lat="44.14513" lon="1.75527">
        <ele>332.1</ele>
        <time>2018-01-24T12:47:59Z</time>
      </trkpt>
      <trkpt lat="44.14505" lon="1.75533">
        <ele>331.8</ele>
        <time>2018-01-24T12:48:03Z</time>
      </trkpt>
      <trkpt lat="44.14499" lon="1.75543">
        <ele>332.2</ele>
        <time>2018-01-24T12:48:07Z</time>
      </trkpt>
      <trkpt lat="44.14495" lon="1.75554">
        <ele>332.2</ele>
        <time>2018-01-24T12:48:11Z</time>
      </trkpt>
      <trkpt lat="44.14491" lon="1.75565">
        <ele>333.8</ele>
        <time>2018-01-24T12:48:15Z</time>
      </trkpt>
      <trkpt lat="44.14487" lon="1.75577">
        <ele>334.4</ele>
        <time>2018-01-24T12:48:19Z</time>
      </trkpt>
      <trkpt lat="44.14485" lon="1.75589">
        <ele>334.6</ele>
        <time>2018-01-24T12:48:22Z</time>
      </trkpt>
      <trkpt lat="44.14483" lon="1.756">
        <ele>334.8</ele>
        <time>2018-01-24T12:48:25Z</time>
      </trkpt>
      <trkpt lat="44.14482" lon="1.75611">
        <ele>334.8</ele>
        <time>2018-01-24T12:48:28Z</time>
      </trkpt>
      <trkpt lat="44.14481" lon="1.75623">
        <ele>334.2</ele>
        <time>2018-01-24T12:48:31Z</time>
      </trkpt>
      <trkpt lat="44.14477" lon="1.75634">
        <ele>334</ele>
        <time>2018-01-24T12:48:34Z</time>
      </trkpt>
      <trkpt lat="44.14474" lon="1.75644">
        <ele>333.9</ele>
        <time>2018-01-24T12:48:37Z</time>
      </trkpt>
      <trkpt lat="44.1447" lon="1.75654">
        <ele>334</ele>
        <time>2018-01-24T12:48:40Z</time>
      </trkpt>
      <trkpt lat="44.14467" lon="1.75664">
        <ele>334.3</ele>
        <time>2018-01-24T12:48:43Z</time>
      </trkpt>
      <trkpt lat="44.14462" lon="1.75675">
        <ele>334.4</ele>
        <time>2018-01-24T12:48:46Z</time>
      </trkpt>
      <trkpt lat="44.14459" lon="1.75684">
        <ele>334.6</ele>
        <time>2018-01-24T12:48:49Z</time>
      </trkpt>
      <trkpt lat="44.14453" lon="1.75694">
        <ele>334.6</ele>
        <time>2018-01-24T12:48:52Z</time>
      </trkpt>
      <trkpt lat="44.14448" lon="1.75702">
        <ele>334.7</ele>
        <time>2018-01-24T12:48:55Z</time>
      </trkpt>
      <trkpt lat="44.14443" lon="1.7571">
        <ele>335</ele>
        <time>2018-01-24T12:48:58Z</time>
      </trkpt>
      <trkpt lat="44.14438" lon="1.75718">
        <ele>335.1</ele>
        <time>2018-01-24T12:49:01Z</time>
      </trkpt>
      <trkpt lat="44.14432" lon="1.75726">
        <ele>335.1</ele>
        <time>2018-01-24T12:49:04Z</time>
      </trkpt>
      <trkpt lat="44.14428" lon="1.75736">
        <ele>334.7</ele>
        <time>2018-01-24T12:49:07Z</time>
      </trkpt>
      <trkpt lat="44.14423" lon="1.75744">
        <ele>334.7</ele>
        <time>2018-01-24T12:49:10Z</time>
      </trkpt>
      <trkpt lat="44.14419" lon="1.75755">
        <ele>334.9</ele>
        <time>2018-01-24T12:49:14Z</time>
      </trkpt>
      <trkpt lat="44.1441" lon="1.7576">
        <ele>335.4</ele>
        <time>2018-01-24T12:49:18Z</time>
      </trkpt>
      <trkpt lat="44.14405" lon="1.7577">
        <ele>335.7</ele>
        <time>2018-01-24T12:49:23Z</time>
      </trkpt>
      <trkpt lat="44.14404" lon="1.7578">
        <ele>336.6</ele>
        <time>2018-01-24T12:49:27Z</time>
      </trkpt>
      <trkpt lat="44.14403" lon="1.75791">
        <ele>338.3</ele>
        <time>2018-01-24T12:49:32Z</time>
      </trkpt>
      <trkpt lat="44.14402" lon="1.75802">
        <ele>339.3</ele>
        <time>2018-01-24T12:49:37Z</time>
      </trkpt>
      <trkpt lat="44.14401" lon="1.75813">
        <ele>340.5</ele>
        <time>2018-01-24T12:49:42Z</time>
      </trkpt>
      <trkpt lat="44.14399" lon="1.75826">
        <ele>342.3</ele>
        <time>2018-01-24T12:49:48Z</time>
      </trkpt>
      <trkpt lat="44.144" lon="1.75836">
        <ele>343.6</ele>
        <time>2018-01-24T12:49:53Z</time>
      </trkpt>
      <trkpt lat="44.14398" lon="1.75847">
        <ele>344.5</ele>
        <time>2018-01-24T12:49:59Z</time>
      </trkpt>
      <trkpt lat="44.14397" lon="1.75857">
        <ele>344.8</ele>
        <time>2018-01-24T12:50:03Z</time>
      </trkpt>
      <trkpt lat="44.14396" lon="1.75867">
        <ele>345</ele>
        <time>2018-01-24T12:50:07Z</time>
      </trkpt>
      <trkpt lat="44.14394" lon="1.75878">
        <ele>345.2</ele>
        <time>2018-01-24T12:50:11Z</time>
      </trkpt>
      <trkpt lat="44.14394" lon="1.75889">
        <ele>345.7</ele>
        <time>2018-01-24T12:50:15Z</time>
      </trkpt>
      <trkpt lat="44.14394" lon="1.75901">
        <ele>346.2</ele>
        <time>2018-01-24T12:50:19Z</time>
      </trkpt>
      <trkpt lat="44.14394" lon="1.75911">
        <ele>346.5</ele>
        <time>2018-01-24T12:50:23Z</time>
      </trkpt>
      <trkpt lat="44.14394" lon="1.75921">
        <ele>346.8</ele>
        <time>2018-01-24T12:50:27Z</time>
      </trkpt>
      <trkpt lat="44.14393" lon="1.75933">
        <ele>347</ele>
        <time>2018-01-24T12:50:31Z</time>
      </trkpt>
      <trkpt lat="44.14393" lon="1.75944">
        <ele>347.6</ele>
        <time>2018-01-24T12:50:35Z</time>
      </trkpt>
      <trkpt lat="44.14392" lon="1.75954">
        <ele>347.7</ele>
        <time>2018-01-24T12:50:40Z</time>
      </trkpt>
      <trkpt lat="44.1439" lon="1.75965">
        <ele>348</ele>
        <time>2018-01-24T12:50:45Z</time>
      </trkpt>
      <trkpt lat="44.14389" lon="1.75976">
        <ele>348.5</ele>
        <time>2018-01-24T12:50:48Z</time>
      </trkpt>
      <trkpt lat="44.14386" lon="1.75988">
        <ele>349.4</ele>
        <time>2018-01-24T12:50:51Z</time>
      </trkpt>
      <trkpt lat="44.14384" lon="1.76">
        <ele>349.2</ele>
        <time>2018-01-24T12:50:54Z</time>
      </trkpt>
      <trkpt lat="44.14382" lon="1.76011">
        <ele>349.5</ele>
        <time>2018-01-24T12:50:57Z</time>
      </trkpt>
      <trkpt lat="44.14382" lon="1.76025">
        <ele>349.5</ele>
        <time>2018-01-24T12:51:00Z</time>
      </trkpt>
      <trkpt lat="44.14382" lon="1.76037">
        <ele>349.7</ele>
        <time>2018-01-24T12:51:04Z</time>
      </trkpt>
      <trkpt lat="44.14384" lon="1.76046">
        <ele>350.4</ele>
        <time>2018-01-24T12:51:09Z</time>
      </trkpt>
      <trkpt lat="44.14386" lon="1.76057">
        <ele>351.5</ele>
        <time>2018-01-24T12:51:13Z</time>
      </trkpt>
      <trkpt lat="44.14386" lon="1.76069">
        <ele>352.6</ele>
        <time>2018-01-24T12:51:18Z</time>
      </trkpt>
      <trkpt lat="44.14386" lon="1.76081">
        <ele>352.5</ele>
        <time>2018-01-24T12:51:23Z</time>
      </trkpt>
      <trkpt lat="44.14386" lon="1.76091">
        <ele>353</ele>
        <time>2018-01-24T12:51:27Z</time>
      </trkpt>
      <trkpt lat="44.14385" lon="1.76102">
        <ele>354.4</ele>
        <time>2018-01-24T12:51:31Z</time>
      </trkpt>
      <trkpt lat="44.14386" lon="1.76112">
        <ele>355.2</ele>
        <time>2018-01-24T12:51:35Z</time>
      </trkpt>
      <trkpt lat="44.14385" lon="1.76123">
        <ele>355.9</ele>
        <time>2018-01-24T12:51:39Z</time>
      </trkpt>
      <trkpt lat="44.14384" lon="1.76134">
        <ele>355.8</ele>
        <time>2018-01-24T12:51:43Z</time>
      </trkpt>
      <trkpt lat="44.14383" lon="1.76145">
        <ele>355.5</ele>
        <time>2018-01-24T12:51:47Z</time>
      </trkpt>
      <trkpt lat="44.14383" lon="1.76157">
        <ele>356.8</ele>
        <time>2018-01-24T12:51:51Z</time>
      </trkpt>
      <trkpt lat="44.14381" lon="1.76168">
        <ele>357.2</ele>
        <time>2018-01-24T12:51:55Z</time>
      </trkpt>
      <trkpt lat="44.14378" lon="1.76179">
        <ele>358</ele>
        <time>2018-01-24T12:51:59Z</time>
      </trkpt>
      <trkpt lat="44.14377" lon="1.7619">
        <ele>358.4</ele>
        <time>2018-01-24T12:52:03Z</time>
      </trkpt>
      <trkpt lat="44.14375" lon="1.76202">
        <ele>358.7</ele>
        <time>2018-01-24T12:52:07Z</time>
      </trkpt>
      <trkpt lat="44.14373" lon="1.76215">
        <ele>359.3</ele>
        <time>2018-01-24T12:52:11Z</time>
      </trkpt>
      <trkpt lat="44.14372" lon="1.76227">
        <ele>359.9</ele>
        <time>2018-01-24T12:52:15Z</time>
      </trkpt>
      <trkpt lat="44.1437" lon="1.76239">
        <ele>360</ele>
        <time>2018-01-24T12:52:18Z</time>
      </trkpt>
      <trkpt lat="44.14368" lon="1.76249">
        <ele>360.2</ele>
        <time>2018-01-24T12:52:21Z</time>
      </trkpt>
      <trkpt lat="44.14367" lon="1.7626">
        <ele>360.6</ele>
        <time>2018-01-24T12:52:24Z</time>
      </trkpt>
      <trkpt lat="44.14366" lon="1.76272">
        <ele>360.9</ele>
        <time>2018-01-24T12:52:27Z</time>
      </trkpt>
      <trkpt lat="44.14365" lon="1.76285">
        <ele>361.3</ele>
        <time>2018-01-24T12:52:30Z</time>
      </trkpt>
      <trkpt lat="44.14366" lon="1.76299">
        <ele>361.6</ele>
        <time>2018-01-24T12:52:33Z</time>
      </trkpt>
      <trkpt lat="44.14367" lon="1.76309">
        <ele>362.1</ele>
        <time>2018-01-24T12:52:35Z</time>
      </trkpt>
      <trkpt lat="44.14367" lon="1.76324">
        <ele>362.7</ele>
        <time>2018-01-24T12:52:38Z</time>
      </trkpt>
      <trkpt lat="44.14368" lon="1.76337">
        <ele>363.8</ele>
        <time>2018-01-24T12:52:41Z</time>
      </trkpt>
      <trkpt lat="44.14367" lon="1.7635">
        <ele>363.6</ele>
        <time>2018-01-24T12:52:44Z</time>
      </trkpt>
      <trkpt lat="44.14368" lon="1.76363">
        <ele>363.5</ele>
        <time>2018-01-24T12:52:47Z</time>
      </trkpt>
      <trkpt lat="44.14368" lon="1.76376">
        <ele>363.6</ele>
        <time>2018-01-24T12:52:50Z</time>
      </trkpt>
      <trkpt lat="44.14369" lon="1.76389">
        <ele>363.7</ele>
        <time>2018-01-24T12:52:53Z</time>
      </trkpt>
      <trkpt lat="44.1437" lon="1.76403">
        <ele>363.5</ele>
        <time>2018-01-24T12:52:56Z</time>
      </trkpt>
      <trkpt lat="44.14369" lon="1.76417">
        <ele>363.4</ele>
        <time>2018-01-24T12:52:59Z</time>
      </trkpt>
      <trkpt lat="44.14369" lon="1.7643">
        <ele>363.2</ele>
        <time>2018-01-24T12:53:02Z</time>
      </trkpt>
      <trkpt lat="44.14369" lon="1.76444">
        <ele>363</ele>
        <time>2018-01-24T12:53:05Z</time>
      </trkpt>
      <trkpt lat="44.14369" lon="1.76459">
        <ele>363.2</ele>
        <time>2018-01-24T12:53:08Z</time>
      </trkpt>
      <trkpt lat="44.14369" lon="1.76472">
        <ele>362.6</ele>
        <time>2018-01-24T12:53:11Z</time>
      </trkpt>
      <trkpt lat="44.14369" lon="1.76486">
        <ele>362.3</ele>
        <time>2018-01-24T12:53:14Z</time>
      </trkpt>
      <trkpt lat="44.1437" lon="1.76501">
        <ele>362</ele>
        <time>2018-01-24T12:53:17Z</time>
      </trkpt>
      <trkpt lat="44.1437" lon="1.76511">
        <ele>361.8</ele>
        <time>2018-01-24T12:53:19Z</time>
      </trkpt>
      <trkpt lat="44.14369" lon="1.76522">
        <ele>361.4</ele>
        <time>2018-01-24T12:53:21Z</time>
      </trkpt>
      <trkpt lat="44.14369" lon="1.76532">
        <ele>361</ele>
        <time>2018-01-24T12:53:23Z</time>
      </trkpt>
      <trkpt lat="44.14369" lon="1.76544">
        <ele>360.5</ele>
        <time>2018-01-24T12:53:25Z</time>
      </trkpt>
      <trkpt lat="44.14369" lon="1.76555">
        <ele>360</ele>
        <time>2018-01-24T12:53:27Z</time>
      </trkpt>
      <trkpt lat="44.14369" lon="1.76567">
        <ele>359.5</ele>
        <time>2018-01-24T12:53:29Z</time>
      </trkpt>
      <trkpt lat="44.14369" lon="1.76579">
        <ele>358.9</ele>
        <time>2018-01-24T12:53:31Z</time>
      </trkpt>
      <trkpt lat="44.14369" lon="1.7659">
        <ele>358.5</ele>
        <time>2018-01-24T12:53:33Z</time>
      </trkpt>
      <trkpt lat="44.14368" lon="1.76604">
        <ele>358.2</ele>
        <time>2018-01-24T12:53:35Z</time>
      </trkpt>
      <trkpt lat="44.14368" lon="1.76617">
        <ele>357.9</ele>
        <time>2018-01-24T12:53:37Z</time>
      </trkpt>
      <trkpt lat="44.14367" lon="1.76628">
        <ele>357.7</ele>
        <time>2018-01-24T12:53:39Z</time>
      </trkpt>
      <trkpt lat="44.14366" lon="1.76641">
        <ele>357.5</ele>
        <time>2018-01-24T12:53:41Z</time>
      </trkpt>
      <trkpt lat="44.14365" lon="1.76652">
        <ele>357.5</ele>
        <time>2018-01-24T12:53:43Z</time>
      </trkpt>
      <trkpt lat="44.14365" lon="1.76665">
        <ele>357.3</ele>
        <time>2018-01-24T12:53:45Z</time>
      </trkpt>
      <trkpt lat="44.14365" lon="1.76677">
        <ele>357.1</ele>
        <time>2018-01-24T12:53:47Z</time>
      </trkpt>
      <trkpt lat="44.14365" lon="1.76689">
        <ele>357</ele>
        <time>2018-01-24T12:53:49Z</time>
      </trkpt>
      <trkpt lat="44.14366" lon="1.76701">
        <ele>357</ele>
        <time>2018-01-24T12:53:51Z</time>
      </trkpt>
      <trkpt lat="44.14369" lon="1.76712">
        <ele>357</ele>
        <time>2018-01-24T12:53:53Z</time>
      </trkpt>
      <trkpt lat="44.14371" lon="1.76724">
        <ele>357.2</ele>
        <time>2018-01-24T12:53:55Z</time>
      </trkpt>
      <trkpt lat="44.14373" lon="1.76736">
        <ele>357.2</ele>
        <time>2018-01-24T12:53:57Z</time>
      </trkpt>
      <trkpt lat="44.14376" lon="1.76747">
        <ele>357.3</ele>
        <time>2018-01-24T12:53:59Z</time>
      </trkpt>
      <trkpt lat="44.14379" lon="1.76759">
        <ele>357.4</ele>
        <time>2018-01-24T12:54:01Z</time>
      </trkpt>
      <trkpt lat="44.14383" lon="1.7677">
        <ele>357.3</ele>
        <time>2018-01-24T12:54:03Z</time>
      </trkpt>
      <trkpt lat="44.14386" lon="1.76782">
        <ele>357.2</ele>
        <time>2018-01-24T12:54:05Z</time>
      </trkpt>
      <trkpt lat="44.1439" lon="1.76793">
        <ele>357.4</ele>
        <time>2018-01-24T12:54:07Z</time>
      </trkpt>
      <trkpt lat="44.14394" lon="1.76804">
        <ele>357.4</ele>
        <time>2018-01-24T12:54:09Z</time>
      </trkpt>
      <trkpt lat="44.14397" lon="1.76815">
        <ele>357.5</ele>
        <time>2018-01-24T12:54:11Z</time>
      </trkpt>
      <trkpt lat="44.144" lon="1.76826">
        <ele>357.6</ele>
        <time>2018-01-24T12:54:13Z</time>
      </trkpt>
      <trkpt lat="44.14403" lon="1.76836">
        <ele>357.6</ele>
        <time>2018-01-24T12:54:15Z</time>
      </trkpt>
      <trkpt lat="44.14404" lon="1.76848">
        <ele>357.7</ele>
        <time>2018-01-24T12:54:17Z</time>
      </trkpt>
      <trkpt lat="44.14405" lon="1.76858">
        <ele>357.7</ele>
        <time>2018-01-24T12:54:19Z</time>
      </trkpt>
      <trkpt lat="44.14405" lon="1.7687">
        <ele>357.7</ele>
        <time>2018-01-24T12:54:21Z</time>
      </trkpt>
      <trkpt lat="44.14405" lon="1.7688">
        <ele>357.8</ele>
        <time>2018-01-24T12:54:23Z</time>
      </trkpt>
      <trkpt lat="44.14403" lon="1.76894">
        <ele>357.7</ele>
        <time>2018-01-24T12:54:26Z</time>
      </trkpt>
      <trkpt lat="44.14403" lon="1.76905">
        <ele>357.3</ele>
        <time>2018-01-24T12:54:28Z</time>
      </trkpt>
      <trkpt lat="44.14403" lon="1.76917">
        <ele>357.2</ele>
        <time>2018-01-24T12:54:30Z</time>
      </trkpt>
      <trkpt lat="44.14403" lon="1.76928">
        <ele>357.2</ele>
        <time>2018-01-24T12:54:32Z</time>
      </trkpt>
      <trkpt lat="44.14402" lon="1.76939">
        <ele>357.1</ele>
        <time>2018-01-24T12:54:34Z</time>
      </trkpt>
      <trkpt lat="44.14403" lon="1.76951">
        <ele>357</ele>
        <time>2018-01-24T12:54:36Z</time>
      </trkpt>
      <trkpt lat="44.14403" lon="1.76961">
        <ele>356.6</ele>
        <time>2018-01-24T12:54:38Z</time>
      </trkpt>
      <trkpt lat="44.14402" lon="1.76973">
        <ele>356</ele>
        <time>2018-01-24T12:54:40Z</time>
      </trkpt>
      <trkpt lat="44.14401" lon="1.76984">
        <ele>355.7</ele>
        <time>2018-01-24T12:54:42Z</time>
      </trkpt>
      <trkpt lat="44.14401" lon="1.76995">
        <ele>355.4</ele>
        <time>2018-01-24T12:54:44Z</time>
      </trkpt>
      <trkpt lat="44.14402" lon="1.77006">
        <ele>355</ele>
        <time>2018-01-24T12:54:46Z</time>
      </trkpt>
      <trkpt lat="44.14401" lon="1.77017">
        <ele>354.2</ele>
        <time>2018-01-24T12:54:48Z</time>
      </trkpt>
      <trkpt lat="44.14401" lon="1.7703">
        <ele>353.6</ele>
        <time>2018-01-24T12:54:50Z</time>
      </trkpt>
      <trkpt lat="44.14401" lon="1.77041">
        <ele>353</ele>
        <time>2018-01-24T12:54:52Z</time>
      </trkpt>
      <trkpt lat="44.14401" lon="1.77052">
        <ele>352.5</ele>
        <time>2018-01-24T12:54:54Z</time>
      </trkpt>
      <trkpt lat="44.144" lon="1.77065">
        <ele>351.8</ele>
        <time>2018-01-24T12:54:56Z</time>
      </trkpt>
      <trkpt lat="44.14399" lon="1.7708">
        <ele>351.2</ele>
        <time>2018-01-24T12:54:58Z</time>
      </trkpt>
      <trkpt lat="44.14397" lon="1.77095">
        <ele>350.6</ele>
        <time>2018-01-24T12:55:00Z</time>
      </trkpt>
      <trkpt lat="44.14394" lon="1.77109">
        <ele>350</ele>
        <time>2018-01-24T12:55:02Z</time>
      </trkpt>
      <trkpt lat="44.14391" lon="1.77125">
        <ele>349.3</ele>
        <time>2018-01-24T12:55:04Z</time>
      </trkpt>
      <trkpt lat="44.14386" lon="1.77139">
        <ele>348.8</ele>
        <time>2018-01-24T12:55:06Z</time>
      </trkpt>
      <trkpt lat="44.14381" lon="1.7715">
        <ele>348.3</ele>
        <time>2018-01-24T12:55:08Z</time>
      </trkpt>
      <trkpt lat="44.14374" lon="1.77161">
        <ele>347.7</ele>
        <time>2018-01-24T12:55:10Z</time>
      </trkpt>
      <trkpt lat="44.14368" lon="1.77171">
        <ele>347.3</ele>
        <time>2018-01-24T12:55:12Z</time>
      </trkpt>
      <trkpt lat="44.14361" lon="1.7718">
        <ele>346.8</ele>
        <time>2018-01-24T12:55:14Z</time>
      </trkpt>
      <trkpt lat="44.14354" lon="1.77189">
        <ele>346.5</ele>
        <time>2018-01-24T12:55:16Z</time>
      </trkpt>
      <trkpt lat="44.14348" lon="1.77199">
        <ele>346.1</ele>
        <time>2018-01-24T12:55:18Z</time>
      </trkpt>
      <trkpt lat="44.14343" lon="1.77208">
        <ele>345.7</ele>
        <time>2018-01-24T12:55:20Z</time>
      </trkpt>
      <trkpt lat="44.14338" lon="1.77216">
        <ele>345.5</ele>
        <time>2018-01-24T12:55:22Z</time>
      </trkpt>
      <trkpt lat="44.14332" lon="1.77224">
        <ele>345.3</ele>
        <time>2018-01-24T12:55:24Z</time>
      </trkpt>
      <trkpt lat="44.14327" lon="1.77231">
        <ele>345</ele>
        <time>2018-01-24T12:55:26Z</time>
      </trkpt>
      <trkpt lat="44.14322" lon="1.77241">
        <ele>344.7</ele>
        <time>2018-01-24T12:55:28Z</time>
      </trkpt>
      <trkpt lat="44.14317" lon="1.77251">
        <ele>344.5</ele>
        <time>2018-01-24T12:55:30Z</time>
      </trkpt>
      <trkpt lat="44.14312" lon="1.77261">
        <ele>344.3</ele>
        <time>2018-01-24T12:55:32Z</time>
      </trkpt>
      <trkpt lat="44.14308" lon="1.77273">
        <ele>344</ele>
        <time>2018-01-24T12:55:34Z</time>
      </trkpt>
      <trkpt lat="44.14303" lon="1.77284">
        <ele>343.6</ele>
        <time>2018-01-24T12:55:36Z</time>
      </trkpt>
      <trkpt lat="44.14298" lon="1.77297">
        <ele>343.3</ele>
        <time>2018-01-24T12:55:38Z</time>
      </trkpt>
      <trkpt lat="44.14294" lon="1.77309">
        <ele>343.1</ele>
        <time>2018-01-24T12:55:40Z</time>
      </trkpt>
      <trkpt lat="44.14291" lon="1.77319">
        <ele>342.8</ele>
        <time>2018-01-24T12:55:42Z</time>
      </trkpt>
      <trkpt lat="44.14288" lon="1.77332">
        <ele>342.3</ele>
        <time>2018-01-24T12:55:44Z</time>
      </trkpt>
      <trkpt lat="44.14285" lon="1.77346">
        <ele>341.9</ele>
        <time>2018-01-24T12:55:46Z</time>
      </trkpt>
      <trkpt lat="44.14281" lon="1.77361">
        <ele>341.4</ele>
        <time>2018-01-24T12:55:48Z</time>
      </trkpt>
      <trkpt lat="44.14279" lon="1.77376">
        <ele>341.2</ele>
        <time>2018-01-24T12:55:50Z</time>
      </trkpt>
      <trkpt lat="44.14277" lon="1.77392">
        <ele>341</ele>
        <time>2018-01-24T12:55:52Z</time>
      </trkpt>
      <trkpt lat="44.14276" lon="1.77409">
        <ele>340.7</ele>
        <time>2018-01-24T12:55:54Z</time>
      </trkpt>
      <trkpt lat="44.14276" lon="1.77427">
        <ele>340.6</ele>
        <time>2018-01-24T12:55:56Z</time>
      </trkpt>
      <trkpt lat="44.14277" lon="1.77446">
        <ele>339.8</ele>
        <time>2018-01-24T12:55:58Z</time>
      </trkpt>
      <trkpt lat="44.14277" lon="1.77457">
        <ele>339.4</ele>
        <time>2018-01-24T12:55:59Z</time>
      </trkpt>
      <trkpt lat="44.14279" lon="1.77468">
        <ele>339.1</ele>
        <time>2018-01-24T12:56:00Z</time>
      </trkpt>
      <trkpt lat="44.1428" lon="1.77478">
        <ele>338.8</ele>
        <time>2018-01-24T12:56:01Z</time>
      </trkpt>
      <trkpt lat="44.14282" lon="1.77489">
        <ele>338.4</ele>
        <time>2018-01-24T12:56:02Z</time>
      </trkpt>
      <trkpt lat="44.14284" lon="1.775">
        <ele>338</ele>
        <time>2018-01-24T12:56:03Z</time>
      </trkpt>
      <trkpt lat="44.14287" lon="1.77512">
        <ele>337.6</ele>
        <time>2018-01-24T12:56:04Z</time>
      </trkpt>
      <trkpt lat="44.14289" lon="1.77523">
        <ele>337.3</ele>
        <time>2018-01-24T12:56:05Z</time>
      </trkpt>
      <trkpt lat="44.14291" lon="1.77535">
        <ele>336.8</ele>
        <time>2018-01-24T12:56:06Z</time>
      </trkpt>
      <trkpt lat="44.14294" lon="1.77546">
        <ele>336.4</ele>
        <time>2018-01-24T12:56:07Z</time>
      </trkpt>
      <trkpt lat="44.14296" lon="1.77558">
        <ele>336</ele>
        <time>2018-01-24T12:56:08Z</time>
      </trkpt>
      <trkpt lat="44.14298" lon="1.7757">
        <ele>335.4</ele>
        <time>2018-01-24T12:56:09Z</time>
      </trkpt>
      <trkpt lat="44.14301" lon="1.77583">
        <ele>334.7</ele>
        <time>2018-01-24T12:56:10Z</time>
      </trkpt>
      <trkpt lat="44.14303" lon="1.77596">
        <ele>333.9</ele>
        <time>2018-01-24T12:56:11Z</time>
      </trkpt>
      <trkpt lat="44.14306" lon="1.77609">
        <ele>333.2</ele>
        <time>2018-01-24T12:56:12Z</time>
      </trkpt>
      <trkpt lat="44.14309" lon="1.77623">
        <ele>332.5</ele>
        <time>2018-01-24T12:56:13Z</time>
      </trkpt>
      <trkpt lat="44.14311" lon="1.77637">
        <ele>331.8</ele>
        <time>2018-01-24T12:56:14Z</time>
      </trkpt>
      <trkpt lat="44.14314" lon="1.77652">
        <ele>331.2</ele>
        <time>2018-01-24T12:56:15Z</time>
      </trkpt>
      <trkpt lat="44.14317" lon="1.77667">
        <ele>330.4</ele>
        <time>2018-01-24T12:56:16Z</time>
      </trkpt>
      <trkpt lat="44.14319" lon="1.77681">
        <ele>329.8</ele>
        <time>2018-01-24T12:56:17Z</time>
      </trkpt>
      <trkpt lat="44.14322" lon="1.77696">
        <ele>329.1</ele>
        <time>2018-01-24T12:56:18Z</time>
      </trkpt>
      <trkpt lat="44.14325" lon="1.7771">
        <ele>328.3</ele>
        <time>2018-01-24T12:56:19Z</time>
      </trkpt>
      <trkpt lat="44.14327" lon="1.77724">
        <ele>327.6</ele>
        <time>2018-01-24T12:56:20Z</time>
      </trkpt>
      <trkpt lat="44.14329" lon="1.77739">
        <ele>326.8</ele>
        <time>2018-01-24T12:56:21Z</time>
      </trkpt>
      <trkpt lat="44.14331" lon="1.77753">
        <ele>326</ele>
        <time>2018-01-24T12:56:22Z</time>
      </trkpt>
      <trkpt lat="44.14333" lon="1.77768">
        <ele>325.1</ele>
        <time>2018-01-24T12:56:23Z</time>
      </trkpt>
      <trkpt lat="44.14336" lon="1.77783">
        <ele>324.3</ele>
        <time>2018-01-24T12:56:24Z</time>
      </trkpt>
      <trkpt lat="44.14339" lon="1.77798">
        <ele>323.7</ele>
        <time>2018-01-24T12:56:25Z</time>
      </trkpt>
      <trkpt lat="44.14341" lon="1.77813">
        <ele>323</ele>
        <time>2018-01-24T12:56:26Z</time>
      </trkpt>
      <trkpt lat="44.14344" lon="1.77828">
        <ele>322.4</ele>
        <time>2018-01-24T12:56:27Z</time>
      </trkpt>
      <trkpt lat="44.14346" lon="1.77843">
        <ele>321.7</ele>
        <time>2018-01-24T12:56:28Z</time>
      </trkpt>
      <trkpt lat="44.14348" lon="1.77858">
        <ele>321.1</ele>
        <time>2018-01-24T12:56:29Z</time>
      </trkpt>
      <trkpt lat="44.1435" lon="1.77872">
        <ele>320.6</ele>
        <time>2018-01-24T12:56:30Z</time>
      </trkpt>
      <trkpt lat="44.14352" lon="1.77886">
        <ele>320.3</ele>
        <time>2018-01-24T12:56:31Z</time>
      </trkpt>
      <trkpt lat="44.14353" lon="1.77901">
        <ele>319.8</ele>
        <time>2018-01-24T12:56:32Z</time>
      </trkpt>
      <trkpt lat="44.14355" lon="1.77913">
        <ele>319.4</ele>
        <time>2018-01-24T12:56:33Z</time>
      </trkpt>
      <trkpt lat="44.14356" lon="1.77926">
        <ele>318.9</ele>
        <time>2018-01-24T12:56:34Z</time>
      </trkpt>
      <trkpt lat="44.14357" lon="1.77938">
        <ele>318.5</ele>
        <time>2018-01-24T12:56:35Z</time>
      </trkpt>
      <trkpt lat="44.14358" lon="1.77948">
        <ele>318.2</ele>
        <time>2018-01-24T12:56:36Z</time>
      </trkpt>
      <trkpt lat="44.1436" lon="1.77959">
        <ele>317.9</ele>
        <time>2018-01-24T12:56:37Z</time>
      </trkpt>
      <trkpt lat="44.14361" lon="1.77969">
        <ele>317.7</ele>
        <time>2018-01-24T12:56:38Z</time>
      </trkpt>
      <trkpt lat="44.14363" lon="1.77987">
        <ele>318.3</ele>
        <time>2018-01-24T12:56:40Z</time>
      </trkpt>
      <trkpt lat="44.14365" lon="1.78001">
        <ele>318.4</ele>
        <time>2018-01-24T12:56:42Z</time>
      </trkpt>
      <trkpt lat="44.14367" lon="1.78014">
        <ele>318.5</ele>
        <time>2018-01-24T12:56:44Z</time>
      </trkpt>
      <trkpt lat="44.14368" lon="1.78027">
        <ele>318.7</ele>
        <time>2018-01-24T12:56:46Z</time>
      </trkpt>
      <trkpt lat="44.14369" lon="1.78038">
        <ele>319.3</ele>
        <time>2018-01-24T12:56:48Z</time>
      </trkpt>
      <trkpt lat="44.1437" lon="1.78049">
        <ele>319.8</ele>
        <time>2018-01-24T12:56:50Z</time>
      </trkpt>
      <trkpt lat="44.14371" lon="1.7806">
        <ele>320</ele>
        <time>2018-01-24T12:56:52Z</time>
      </trkpt>
      <trkpt lat="44.14374" lon="1.7807">
        <ele>320.5</ele>
        <time>2018-01-24T12:56:54Z</time>
      </trkpt>
      <trkpt lat="44.14378" lon="1.78083">
        <ele>321.9</ele>
        <time>2018-01-24T12:56:57Z</time>
      </trkpt>
      <trkpt lat="44.1438" lon="1.78095">
        <ele>320.6</ele>
        <time>2018-01-24T12:57:00Z</time>
      </trkpt>
      <trkpt lat="44.14378" lon="1.78108">
        <ele>320.7</ele>
        <time>2018-01-24T12:57:04Z</time>
      </trkpt>
      <trkpt lat="44.14374" lon="1.78115">
        <ele>320.9</ele>
        <time>2018-01-24T12:57:07Z</time>
      </trkpt>
      <trkpt lat="44.14367" lon="1.78126">
        <ele>321</ele>
        <time>2018-01-24T12:57:11Z</time>
      </trkpt>
      <trkpt lat="44.14362" lon="1.78135">
        <ele>320.9</ele>
        <time>2018-01-24T12:57:14Z</time>
      </trkpt>
      <trkpt lat="44.14358" lon="1.78143">
        <ele>320.9</ele>
        <time>2018-01-24T12:57:17Z</time>
      </trkpt>
      <trkpt lat="44.14354" lon="1.78151">
        <ele>320.7</ele>
        <time>2018-01-24T12:57:20Z</time>
      </trkpt>
      <trkpt lat="44.14348" lon="1.78159">
        <ele>320.7</ele>
        <time>2018-01-24T12:57:23Z</time>
      </trkpt>
      <trkpt lat="44.14342" lon="1.78169">
        <ele>320.9</ele>
        <time>2018-01-24T12:57:27Z</time>
      </trkpt>
      <trkpt lat="44.14338" lon="1.78178">
        <ele>320.6</ele>
        <time>2018-01-24T12:57:30Z</time>
      </trkpt>
      <trkpt lat="44.14332" lon="1.78188">
        <ele>320.4</ele>
        <time>2018-01-24T12:57:33Z</time>
      </trkpt>
      <trkpt lat="44.14327" lon="1.78196">
        <ele>320.2</ele>
        <time>2018-01-24T12:57:35Z</time>
      </trkpt>
      <trkpt lat="44.14323" lon="1.78204">
        <ele>320.2</ele>
        <time>2018-01-24T12:57:37Z</time>
      </trkpt>
      <trkpt lat="44.14316" lon="1.78215">
        <ele>319.9</ele>
        <time>2018-01-24T12:57:40Z</time>
      </trkpt>
      <trkpt lat="44.1431" lon="1.78224">
        <ele>319.5</ele>
        <time>2018-01-24T12:57:42Z</time>
      </trkpt>
      <trkpt lat="44.14305" lon="1.78233">
        <ele>319</ele>
        <time>2018-01-24T12:57:44Z</time>
      </trkpt>
      <trkpt lat="44.14299" lon="1.78241">
        <ele>318.7</ele>
        <time>2018-01-24T12:57:46Z</time>
      </trkpt>
      <trkpt lat="44.14293" lon="1.78251">
        <ele>318.3</ele>
        <time>2018-01-24T12:57:48Z</time>
      </trkpt>
      <trkpt lat="44.14287" lon="1.78261">
        <ele>317.8</ele>
        <time>2018-01-24T12:57:50Z</time>
      </trkpt>
      <trkpt lat="44.1428" lon="1.78271">
        <ele>317.2</ele>
        <time>2018-01-24T12:57:52Z</time>
      </trkpt>
      <trkpt lat="44.14273" lon="1.78282">
        <ele>316.6</ele>
        <time>2018-01-24T12:57:54Z</time>
      </trkpt>
      <trkpt lat="44.14265" lon="1.78294">
        <ele>315.9</ele>
        <time>2018-01-24T12:57:56Z</time>
      </trkpt>
      <trkpt lat="44.14258" lon="1.78305">
        <ele>315.6</ele>
        <time>2018-01-24T12:57:58Z</time>
      </trkpt>
      <trkpt lat="44.14252" lon="1.78315">
        <ele>315.3</ele>
        <time>2018-01-24T12:58:00Z</time>
      </trkpt>
      <trkpt lat="44.14246" lon="1.78322">
        <ele>315.1</ele>
        <time>2018-01-24T12:58:02Z</time>
      </trkpt>
      <trkpt lat="44.1424" lon="1.7833">
        <ele>315.1</ele>
        <time>2018-01-24T12:58:04Z</time>
      </trkpt>
      <trkpt lat="44.14235" lon="1.78338">
        <ele>315.1</ele>
        <time>2018-01-24T12:58:06Z</time>
      </trkpt>
      <trkpt lat="44.14231" lon="1.78346">
        <ele>315.2</ele>
        <time>2018-01-24T12:58:08Z</time>
      </trkpt>
      <trkpt lat="44.14223" lon="1.78356">
        <ele>315</ele>
        <time>2018-01-24T12:58:11Z</time>
      </trkpt>
      <trkpt lat="44.14218" lon="1.78365">
        <ele>315</ele>
        <time>2018-01-24T12:58:13Z</time>
      </trkpt>
      <trkpt lat="44.14213" lon="1.78373">
        <ele>315.1</ele>
        <time>2018-01-24T12:58:15Z</time>
      </trkpt>
      <trkpt lat="44.14208" lon="1.7838">
        <ele>315.3</ele>
        <time>2018-01-24T12:58:17Z</time>
      </trkpt>
      <trkpt lat="44.14203" lon="1.78388">
        <ele>315.7</ele>
        <time>2018-01-24T12:58:19Z</time>
      </trkpt>
      <trkpt lat="44.14197" lon="1.784">
        <ele>316</ele>
        <time>2018-01-24T12:58:22Z</time>
      </trkpt>
      <trkpt lat="44.1419" lon="1.78412">
        <ele>316.1</ele>
        <time>2018-01-24T12:58:25Z</time>
      </trkpt>
      <trkpt lat="44.14183" lon="1.78423">
        <ele>316.1</ele>
        <time>2018-01-24T12:58:28Z</time>
      </trkpt>
      <trkpt lat="44.14176" lon="1.78434">
        <ele>316.2</ele>
        <time>2018-01-24T12:58:31Z</time>
      </trkpt>
      <trkpt lat="44.14172" lon="1.78442">
        <ele>316.1</ele>
        <time>2018-01-24T12:58:33Z</time>
      </trkpt>
      <trkpt lat="44.14167" lon="1.7845">
        <ele>316.1</ele>
        <time>2018-01-24T12:58:35Z</time>
      </trkpt>
      <trkpt lat="44.14162" lon="1.78458">
        <ele>316.3</ele>
        <time>2018-01-24T12:58:37Z</time>
      </trkpt>
      <trkpt lat="44.14156" lon="1.78471">
        <ele>316.3</ele>
        <time>2018-01-24T12:58:40Z</time>
      </trkpt>
      <trkpt lat="44.14154" lon="1.7848">
        <ele>316.6</ele>
        <time>2018-01-24T12:58:42Z</time>
      </trkpt>
      <trkpt lat="44.14146" lon="1.78489">
        <ele>316.7</ele>
        <time>2018-01-24T12:58:45Z</time>
      </trkpt>
      <trkpt lat="44.14137" lon="1.78488">
        <ele>316.6</ele>
        <time>2018-01-24T12:58:47Z</time>
      </trkpt>
      <trkpt lat="44.1413" lon="1.78488">
        <ele>316.4</ele>
        <time>2018-01-24T12:58:49Z</time>
      </trkpt>
      <trkpt lat="44.14121" lon="1.78487">
        <ele>316</ele>
        <time>2018-01-24T12:58:51Z</time>
      </trkpt>
      <trkpt lat="44.14113" lon="1.78486">
        <ele>315.8</ele>
        <time>2018-01-24T12:58:53Z</time>
      </trkpt>
      <trkpt lat="44.14106" lon="1.78486">
        <ele>315.4</ele>
        <time>2018-01-24T12:58:55Z</time>
      </trkpt>
      <trkpt lat="44.14096" lon="1.78488">
        <ele>315</ele>
        <time>2018-01-24T12:58:58Z</time>
      </trkpt>
      <trkpt lat="44.14088" lon="1.78489">
        <ele>314.9</ele>
        <time>2018-01-24T12:59:00Z</time>
      </trkpt>
      <trkpt lat="44.1408" lon="1.78489">
        <ele>314.8</ele>
        <time>2018-01-24T12:59:02Z</time>
      </trkpt>
      <trkpt lat="44.1407" lon="1.7849">
        <ele>314.5</ele>
        <time>2018-01-24T12:59:05Z</time>
      </trkpt>
      <trkpt lat="44.14061" lon="1.78491">
        <ele>314.3</ele>
        <time>2018-01-24T12:59:07Z</time>
      </trkpt>
      <trkpt lat="44.14051" lon="1.78492">
        <ele>314.1</ele>
        <time>2018-01-24T12:59:10Z</time>
      </trkpt>
      <trkpt lat="44.14043" lon="1.78491">
        <ele>314.1</ele>
        <time>2018-01-24T12:59:12Z</time>
      </trkpt>
      <trkpt lat="44.14033" lon="1.78492">
        <ele>314.3</ele>
        <time>2018-01-24T12:59:15Z</time>
      </trkpt>
      <trkpt lat="44.14025" lon="1.78492">
        <ele>314.3</ele>
        <time>2018-01-24T12:59:17Z</time>
      </trkpt>
      <trkpt lat="44.14015" lon="1.78491">
        <ele>314.5</ele>
        <time>2018-01-24T12:59:20Z</time>
      </trkpt>
      <trkpt lat="44.14007" lon="1.78492">
        <ele>314.6</ele>
        <time>2018-01-24T12:59:22Z</time>
      </trkpt>
      <trkpt lat="44.14" lon="1.78493">
        <ele>314.5</ele>
        <time>2018-01-24T12:59:24Z</time>
      </trkpt>
      <trkpt lat="44.13992" lon="1.78495">
        <ele>314.6</ele>
        <time>2018-01-24T12:59:26Z</time>
      </trkpt>
      <trkpt lat="44.13985" lon="1.78499">
        <ele>314.5</ele>
        <time>2018-01-24T12:59:28Z</time>
      </trkpt>
      <trkpt lat="44.13978" lon="1.78504">
        <ele>314.6</ele>
        <time>2018-01-24T12:59:30Z</time>
      </trkpt>
      <trkpt lat="44.1397" lon="1.78511">
        <ele>314.1</ele>
        <time>2018-01-24T12:59:33Z</time>
      </trkpt>
      <trkpt lat="44.13962" lon="1.78522">
        <ele>314.2</ele>
        <time>2018-01-24T12:59:36Z</time>
      </trkpt>
      <trkpt lat="44.13956" lon="1.7853">
        <ele>313.9</ele>
        <time>2018-01-24T12:59:38Z</time>
      </trkpt>
      <trkpt lat="44.1395" lon="1.78538">
        <ele>314.2</ele>
        <time>2018-01-24T12:59:40Z</time>
      </trkpt>
      <trkpt lat="44.13944" lon="1.78548">
        <ele>314.1</ele>
        <time>2018-01-24T12:59:42Z</time>
      </trkpt>
      <trkpt lat="44.13937" lon="1.78558">
        <ele>313.7</ele>
        <time>2018-01-24T12:59:44Z</time>
      </trkpt>
      <trkpt lat="44.13931" lon="1.78568">
        <ele>313.6</ele>
        <time>2018-01-24T12:59:46Z</time>
      </trkpt>
      <trkpt lat="44.13924" lon="1.78578">
        <ele>313.9</ele>
        <time>2018-01-24T12:59:48Z</time>
      </trkpt>
      <trkpt lat="44.13917" lon="1.78588">
        <ele>314</ele>
        <time>2018-01-24T12:59:50Z</time>
      </trkpt>
      <trkpt lat="44.13912" lon="1.78598">
        <ele>314.3</ele>
        <time>2018-01-24T12:59:52Z</time>
      </trkpt>
      <trkpt lat="44.13905" lon="1.78607">
        <ele>314.1</ele>
        <time>2018-01-24T12:59:54Z</time>
      </trkpt>
      <trkpt lat="44.13898" lon="1.78617">
        <ele>313.9</ele>
        <time>2018-01-24T12:59:56Z</time>
      </trkpt>
      <trkpt lat="44.13891" lon="1.78627">
        <ele>313.6</ele>
        <time>2018-01-24T12:59:58Z</time>
      </trkpt>
      <trkpt lat="44.13885" lon="1.78634">
        <ele>313.2</ele>
        <time>2018-01-24T13:00:00Z</time>
      </trkpt>
      <trkpt lat="44.13876" lon="1.78641">
        <ele>313</ele>
        <time>2018-01-24T13:00:03Z</time>
      </trkpt>
      <trkpt lat="44.13867" lon="1.78647">
        <ele>313</ele>
        <time>2018-01-24T13:00:06Z</time>
      </trkpt>
      <trkpt lat="44.13859" lon="1.78652">
        <ele>313.8</ele>
        <time>2018-01-24T13:00:09Z</time>
      </trkpt>
      <trkpt lat="44.13851" lon="1.78659">
        <ele>314.4</ele>
        <time>2018-01-24T13:00:13Z</time>
      </trkpt>
      <trkpt lat="44.13845" lon="1.78665">
        <ele>314.5</ele>
        <time>2018-01-24T13:00:16Z</time>
      </trkpt>
      <trkpt lat="44.13838" lon="1.78671">
        <ele>314.8</ele>
        <time>2018-01-24T13:00:19Z</time>
      </trkpt>
      <trkpt lat="44.13832" lon="1.78677">
        <ele>314.9</ele>
        <time>2018-01-24T13:00:22Z</time>
      </trkpt>
      <trkpt lat="44.13825" lon="1.78685">
        <ele>315.1</ele>
        <time>2018-01-24T13:00:25Z</time>
      </trkpt>
      <trkpt lat="44.13818" lon="1.78692">
        <ele>315.7</ele>
        <time>2018-01-24T13:00:28Z</time>
      </trkpt>
      <trkpt lat="44.13812" lon="1.787">
        <ele>316.4</ele>
        <time>2018-01-24T13:00:31Z</time>
      </trkpt>
      <trkpt lat="44.13806" lon="1.78706">
        <ele>317.2</ele>
        <time>2018-01-24T13:00:34Z</time>
      </trkpt>
      <trkpt lat="44.138" lon="1.78714">
        <ele>317.8</ele>
        <time>2018-01-24T13:00:37Z</time>
      </trkpt>
      <trkpt lat="44.13794" lon="1.78721">
        <ele>318.2</ele>
        <time>2018-01-24T13:00:40Z</time>
      </trkpt>
      <trkpt lat="44.13788" lon="1.78729">
        <ele>318.6</ele>
        <time>2018-01-24T13:00:43Z</time>
      </trkpt>
      <trkpt lat="44.13781" lon="1.78738">
        <ele>319.1</ele>
        <time>2018-01-24T13:00:46Z</time>
      </trkpt>
      <trkpt lat="44.13775" lon="1.78747">
        <ele>319.3</ele>
        <time>2018-01-24T13:00:49Z</time>
      </trkpt>
      <trkpt lat="44.13769" lon="1.78756">
        <ele>319.9</ele>
        <time>2018-01-24T13:00:52Z</time>
      </trkpt>
      <trkpt lat="44.13763" lon="1.78765">
        <ele>320.4</ele>
        <time>2018-01-24T13:00:55Z</time>
      </trkpt>
      <trkpt lat="44.13756" lon="1.78775">
        <ele>320.8</ele>
        <time>2018-01-24T13:00:58Z</time>
      </trkpt>
      <trkpt lat="44.1375" lon="1.78786">
        <ele>321.4</ele>
        <time>2018-01-24T13:01:01Z</time>
      </trkpt>
      <trkpt lat="44.13745" lon="1.78796">
        <ele>321.9</ele>
        <time>2018-01-24T13:01:04Z</time>
      </trkpt>
      <trkpt lat="44.1374" lon="1.78803">
        <ele>321.8</ele>
        <time>2018-01-24T13:01:07Z</time>
      </trkpt>
      <trkpt lat="44.13732" lon="1.78806">
        <ele>322.6</ele>
        <time>2018-01-24T13:01:11Z</time>
      </trkpt>
      <trkpt lat="44.13726" lon="1.78797">
        <ele>323.2</ele>
        <time>2018-01-24T13:01:15Z</time>
      </trkpt>
      <trkpt lat="44.13719" lon="1.78791">
        <ele>323.5</ele>
        <time>2018-01-24T13:01:19Z</time>
      </trkpt>
      <trkpt lat="44.13712" lon="1.78785">
        <ele>323.8</ele>
        <time>2018-01-24T13:01:23Z</time>
      </trkpt>
      <trkpt lat="44.13704" lon="1.78786">
        <ele>324.1</ele>
        <time>2018-01-24T13:01:30Z</time>
      </trkpt>
      <trkpt lat="44.13695" lon="1.78789">
        <ele>323.5</ele>
        <time>2018-01-24T13:01:35Z</time>
      </trkpt>
      <trkpt lat="44.13688" lon="1.78791">
        <ele>322.8</ele>
        <time>2018-01-24T13:01:39Z</time>
      </trkpt>
      <trkpt lat="44.13678" lon="1.78796">
        <ele>322.9</ele>
        <time>2018-01-24T13:01:43Z</time>
      </trkpt>
      <trkpt lat="44.13671" lon="1.78801">
        <ele>322.9</ele>
        <time>2018-01-24T13:01:46Z</time>
      </trkpt>
      <trkpt lat="44.13663" lon="1.78806">
        <ele>322.5</ele>
        <time>2018-01-24T13:01:50Z</time>
      </trkpt>
      <trkpt lat="44.13654" lon="1.78812">
        <ele>322</ele>
        <time>2018-01-24T13:01:54Z</time>
      </trkpt>
      <trkpt lat="44.13647" lon="1.78817">
        <ele>321.6</ele>
        <time>2018-01-24T13:01:57Z</time>
      </trkpt>
      <trkpt lat="44.1364" lon="1.78822">
        <ele>321</ele>
        <time>2018-01-24T13:02:01Z</time>
      </trkpt>
      <trkpt lat="44.13632" lon="1.78828">
        <ele>320.5</ele>
        <time>2018-01-24T13:02:05Z</time>
      </trkpt>
      <trkpt lat="44.13622" lon="1.78833">
        <ele>320.2</ele>
        <time>2018-01-24T13:02:08Z</time>
      </trkpt>
      <trkpt lat="44.13613" lon="1.78836">
        <ele>320.4</ele>
        <time>2018-01-24T13:02:11Z</time>
      </trkpt>
      <trkpt lat="44.13606" lon="1.78837">
        <ele>320.1</ele>
        <time>2018-01-24T13:02:14Z</time>
      </trkpt>
      <trkpt lat="44.13598" lon="1.78841">
        <ele>319.1</ele>
        <time>2018-01-24T13:02:18Z</time>
      </trkpt>
      <trkpt lat="44.1359" lon="1.78844">
        <ele>318.8</ele>
        <time>2018-01-24T13:02:21Z</time>
      </trkpt>
      <trkpt lat="44.13583" lon="1.7885">
        <ele>318.2</ele>
        <time>2018-01-24T13:02:25Z</time>
      </trkpt>
      <trkpt lat="44.13576" lon="1.78854">
        <ele>318.1</ele>
        <time>2018-01-24T13:02:29Z</time>
      </trkpt>
      <trkpt lat="44.13568" lon="1.78854">
        <ele>317.7</ele>
        <time>2018-01-24T13:02:35Z</time>
      </trkpt>
      <trkpt lat="44.13564" lon="1.78855">
        <ele>317.7</ele>
        <time>2018-01-24T13:02:42Z</time>
      </trkpt>
      <trkpt lat="44.13557" lon="1.78861">
        <ele>319</ele>
        <time>2018-01-24T13:02:54Z</time>
      </trkpt>
      <trkpt lat="44.13548" lon="1.78864">
        <ele>318.9</ele>
        <time>2018-01-24T13:02:59Z</time>
      </trkpt>
      <trkpt lat="44.13541" lon="1.78868">
        <ele>319</ele>
        <time>2018-01-24T13:03:03Z</time>
      </trkpt>
      <trkpt lat="44.13532" lon="1.78871">
        <ele>318.8</ele>
        <time>2018-01-24T13:03:07Z</time>
      </trkpt>
      <trkpt lat="44.13522" lon="1.78872">
        <ele>318.8</ele>
        <time>2018-01-24T13:03:10Z</time>
      </trkpt>
      <trkpt lat="44.13513" lon="1.78875">
        <ele>318.4</ele>
        <time>2018-01-24T13:03:13Z</time>
      </trkpt>
      <trkpt lat="44.13506" lon="1.78878">
        <ele>318.1</ele>
        <time>2018-01-24T13:03:15Z</time>
      </trkpt>
      <trkpt lat="44.13496" lon="1.7888">
        <ele>317.9</ele>
        <time>2018-01-24T13:03:18Z</time>
      </trkpt>
      <trkpt lat="44.13488" lon="1.78881">
        <ele>317.4</ele>
        <time>2018-01-24T13:03:21Z</time>
      </trkpt>
      <trkpt lat="44.13478" lon="1.78885">
        <ele>317.6</ele>
        <time>2018-01-24T13:03:24Z</time>
      </trkpt>
      <trkpt lat="44.13469" lon="1.7889">
        <ele>317.8</ele>
        <time>2018-01-24T13:03:27Z</time>
      </trkpt>
      <trkpt lat="44.1346" lon="1.78893">
        <ele>317.7</ele>
        <time>2018-01-24T13:03:30Z</time>
      </trkpt>
      <trkpt lat="44.1345" lon="1.78899">
        <ele>317.4</ele>
        <time>2018-01-24T13:03:33Z</time>
      </trkpt>
      <trkpt lat="44.13443" lon="1.78904">
        <ele>316.6</ele>
        <time>2018-01-24T13:03:35Z</time>
      </trkpt>
      <trkpt lat="44.13437" lon="1.78908">
        <ele>316.1</ele>
        <time>2018-01-24T13:03:37Z</time>
      </trkpt>
      <trkpt lat="44.1343" lon="1.78912">
        <ele>315.6</ele>
        <time>2018-01-24T13:03:39Z</time>
      </trkpt>
      <trkpt lat="44.13423" lon="1.78917">
        <ele>314.9</ele>
        <time>2018-01-24T13:03:41Z</time>
      </trkpt>
      <trkpt lat="44.13416" lon="1.7892">
        <ele>314.5</ele>
        <time>2018-01-24T13:03:43Z</time>
      </trkpt>
      <trkpt lat="44.13409" lon="1.78925">
        <ele>314.4</ele>
        <time>2018-01-24T13:03:45Z</time>
      </trkpt>
      <trkpt lat="44.134" lon="1.78932">
        <ele>313.2</ele>
        <time>2018-01-24T13:03:48Z</time>
      </trkpt>
      <trkpt lat="44.13394" lon="1.78938">
        <ele>312.7</ele>
        <time>2018-01-24T13:03:50Z</time>
      </trkpt>
      <trkpt lat="44.13387" lon="1.78946">
        <ele>312.1</ele>
        <time>2018-01-24T13:03:53Z</time>
      </trkpt>
      <trkpt lat="44.1338" lon="1.7895">
        <ele>311.4</ele>
        <time>2018-01-24T13:03:55Z</time>
      </trkpt>
      <trkpt lat="44.13371" lon="1.78956">
        <ele>310.5</ele>
        <time>2018-01-24T13:03:57Z</time>
      </trkpt>
      <trkpt lat="44.13363" lon="1.78963">
        <ele>309.7</ele>
        <time>2018-01-24T13:03:59Z</time>
      </trkpt>
      <trkpt lat="44.13355" lon="1.78969">
        <ele>309</ele>
        <time>2018-01-24T13:04:01Z</time>
      </trkpt>
      <trkpt lat="44.13347" lon="1.78976">
        <ele>308.3</ele>
        <time>2018-01-24T13:04:03Z</time>
      </trkpt>
      <trkpt lat="44.1334" lon="1.78983">
        <ele>307.8</ele>
        <time>2018-01-24T13:04:05Z</time>
      </trkpt>
      <trkpt lat="44.13333" lon="1.78988">
        <ele>307.3</ele>
        <time>2018-01-24T13:04:07Z</time>
      </trkpt>
      <trkpt lat="44.13327" lon="1.78993">
        <ele>306.6</ele>
        <time>2018-01-24T13:04:09Z</time>
      </trkpt>
      <trkpt lat="44.13319" lon="1.78999">
        <ele>306.2</ele>
        <time>2018-01-24T13:04:11Z</time>
      </trkpt>
      <trkpt lat="44.13311" lon="1.79005">
        <ele>305.8</ele>
        <time>2018-01-24T13:04:13Z</time>
      </trkpt>
      <trkpt lat="44.13306" lon="1.79015">
        <ele>305.4</ele>
        <time>2018-01-24T13:04:15Z</time>
      </trkpt>
      <trkpt lat="44.13295" lon="1.79017">
        <ele>305</ele>
        <time>2018-01-24T13:04:18Z</time>
      </trkpt>
      <trkpt lat="44.13287" lon="1.79019">
        <ele>304.9</ele>
        <time>2018-01-24T13:04:21Z</time>
      </trkpt>
      <trkpt lat="44.1328" lon="1.79024">
        <ele>303.5</ele>
        <time>2018-01-24T13:04:25Z</time>
      </trkpt>
      <trkpt lat="44.13273" lon="1.79028">
        <ele>302.4</ele>
        <time>2018-01-24T13:04:28Z</time>
      </trkpt>
      <trkpt lat="44.13265" lon="1.79033">
        <ele>301.7</ele>
        <time>2018-01-24T13:04:31Z</time>
      </trkpt>
      <trkpt lat="44.13257" lon="1.79039">
        <ele>301.2</ele>
        <time>2018-01-24T13:04:34Z</time>
      </trkpt>
      <trkpt lat="44.1325" lon="1.79046">
        <ele>300.5</ele>
        <time>2018-01-24T13:04:37Z</time>
      </trkpt>
      <trkpt lat="44.13243" lon="1.79051">
        <ele>299.9</ele>
        <time>2018-01-24T13:04:40Z</time>
      </trkpt>
      <trkpt lat="44.13235" lon="1.7906">
        <ele>299.1</ele>
        <time>2018-01-24T13:04:43Z</time>
      </trkpt>
      <trkpt lat="44.13228" lon="1.79067">
        <ele>298.8</ele>
        <time>2018-01-24T13:04:45Z</time>
      </trkpt>
      <trkpt lat="44.13219" lon="1.79074">
        <ele>298.3</ele>
        <time>2018-01-24T13:04:47Z</time>
      </trkpt>
      <trkpt lat="44.13211" lon="1.79083">
        <ele>297.7</ele>
        <time>2018-01-24T13:04:49Z</time>
      </trkpt>
      <trkpt lat="44.13202" lon="1.79091">
        <ele>297.1</ele>
        <time>2018-01-24T13:04:51Z</time>
      </trkpt>
      <trkpt lat="44.13193" lon="1.79098">
        <ele>296.7</ele>
        <time>2018-01-24T13:04:53Z</time>
      </trkpt>
      <trkpt lat="44.13185" lon="1.79107">
        <ele>296.2</ele>
        <time>2018-01-24T13:04:55Z</time>
      </trkpt>
      <trkpt lat="44.13176" lon="1.79115">
        <ele>295.8</ele>
        <time>2018-01-24T13:04:57Z</time>
      </trkpt>
      <trkpt lat="44.13169" lon="1.79123">
        <ele>295.4</ele>
        <time>2018-01-24T13:04:59Z</time>
      </trkpt>
      <trkpt lat="44.13162" lon="1.79131">
        <ele>294.9</ele>
        <time>2018-01-24T13:05:01Z</time>
      </trkpt>
      <trkpt lat="44.13155" lon="1.79139">
        <ele>294.4</ele>
        <time>2018-01-24T13:05:03Z</time>
      </trkpt>
      <trkpt lat="44.13149" lon="1.79146">
        <ele>293.9</ele>
        <time>2018-01-24T13:05:05Z</time>
      </trkpt>
      <trkpt lat="44.13145" lon="1.79156">
        <ele>293.8</ele>
        <time>2018-01-24T13:05:07Z</time>
      </trkpt>
      <trkpt lat="44.13143" lon="1.79168">
        <ele>294.4</ele>
        <time>2018-01-24T13:05:09Z</time>
      </trkpt>
      <trkpt lat="44.13139" lon="1.79179">
        <ele>294.5</ele>
        <time>2018-01-24T13:05:11Z</time>
      </trkpt>
      <trkpt lat="44.13136" lon="1.79189">
        <ele>294.6</ele>
        <time>2018-01-24T13:05:13Z</time>
      </trkpt>
      <trkpt lat="44.13132" lon="1.79199">
        <ele>294.6</ele>
        <time>2018-01-24T13:05:15Z</time>
      </trkpt>
      <trkpt lat="44.13128" lon="1.79208">
        <ele>294.5</ele>
        <time>2018-01-24T13:05:17Z</time>
      </trkpt>
      <trkpt lat="44.13124" lon="1.79217">
        <ele>294.3</ele>
        <time>2018-01-24T13:05:19Z</time>
      </trkpt>
      <trkpt lat="44.1312" lon="1.79224">
        <ele>294.6</ele>
        <time>2018-01-24T13:05:21Z</time>
      </trkpt>
      <trkpt lat="44.13115" lon="1.79234">
        <ele>294.9</ele>
        <time>2018-01-24T13:05:23Z</time>
      </trkpt>
      <trkpt lat="44.13113" lon="1.79244">
        <ele>294.6</ele>
        <time>2018-01-24T13:05:25Z</time>
      </trkpt>
      <trkpt lat="44.13108" lon="1.79257">
        <ele>294.4</ele>
        <time>2018-01-24T13:05:27Z</time>
      </trkpt>
      <trkpt lat="44.13104" lon="1.7927">
        <ele>294.4</ele>
        <time>2018-01-24T13:05:29Z</time>
      </trkpt>
      <trkpt lat="44.13098" lon="1.79284">
        <ele>294.4</ele>
        <time>2018-01-24T13:05:31Z</time>
      </trkpt>
      <trkpt lat="44.13096" lon="1.79297">
        <ele>294</ele>
        <time>2018-01-24T13:05:33Z</time>
      </trkpt>
      <trkpt lat="44.13094" lon="1.7931">
        <ele>293.6</ele>
        <time>2018-01-24T13:05:35Z</time>
      </trkpt>
      <trkpt lat="44.13092" lon="1.79324">
        <ele>293.3</ele>
        <time>2018-01-24T13:05:37Z</time>
      </trkpt>
      <trkpt lat="44.1309" lon="1.79337">
        <ele>293</ele>
        <time>2018-01-24T13:05:39Z</time>
      </trkpt>
      <trkpt lat="44.13088" lon="1.79349">
        <ele>292.9</ele>
        <time>2018-01-24T13:05:41Z</time>
      </trkpt>
      <trkpt lat="44.13086" lon="1.79362">
        <ele>293.1</ele>
        <time>2018-01-24T13:05:43Z</time>
      </trkpt>
      <trkpt lat="44.13084" lon="1.79374">
        <ele>292.8</ele>
        <time>2018-01-24T13:05:45Z</time>
      </trkpt>
      <trkpt lat="44.13083" lon="1.79387">
        <ele>292.5</ele>
        <time>2018-01-24T13:05:47Z</time>
      </trkpt>
      <trkpt lat="44.13082" lon="1.794">
        <ele>292</ele>
        <time>2018-01-24T13:05:49Z</time>
      </trkpt>
      <trkpt lat="44.13079" lon="1.79413">
        <ele>291.7</ele>
        <time>2018-01-24T13:05:51Z</time>
      </trkpt>
      <trkpt lat="44.13076" lon="1.79424">
        <ele>291.6</ele>
        <time>2018-01-24T13:05:53Z</time>
      </trkpt>
      <trkpt lat="44.13075" lon="1.79437">
        <ele>291.4</ele>
        <time>2018-01-24T13:05:55Z</time>
      </trkpt>
      <trkpt lat="44.13074" lon="1.7945">
        <ele>290.8</ele>
        <time>2018-01-24T13:05:57Z</time>
      </trkpt>
      <trkpt lat="44.13072" lon="1.79462">
        <ele>290.8</ele>
        <time>2018-01-24T13:05:59Z</time>
      </trkpt>
      <trkpt lat="44.13069" lon="1.79473">
        <ele>290.7</ele>
        <time>2018-01-24T13:06:01Z</time>
      </trkpt>
      <trkpt lat="44.13067" lon="1.79484">
        <ele>290.7</ele>
        <time>2018-01-24T13:06:03Z</time>
      </trkpt>
      <trkpt lat="44.13065" lon="1.79497">
        <ele>290.8</ele>
        <time>2018-01-24T13:06:05Z</time>
      </trkpt>
      <trkpt lat="44.13062" lon="1.79509">
        <ele>290.7</ele>
        <time>2018-01-24T13:06:07Z</time>
      </trkpt>
      <trkpt lat="44.13059" lon="1.7952">
        <ele>291.1</ele>
        <time>2018-01-24T13:06:09Z</time>
      </trkpt>
      <trkpt lat="44.13058" lon="1.79532">
        <ele>291.5</ele>
        <time>2018-01-24T13:06:11Z</time>
      </trkpt>
      <trkpt lat="44.13056" lon="1.79542">
        <ele>291.8</ele>
        <time>2018-01-24T13:06:13Z</time>
      </trkpt>
      <trkpt lat="44.13053" lon="1.79556">
        <ele>292.3</ele>
        <time>2018-01-24T13:06:15Z</time>
      </trkpt>
      <trkpt lat="44.13052" lon="1.79567">
        <ele>292.9</ele>
        <time>2018-01-24T13:06:17Z</time>
      </trkpt>
      <trkpt lat="44.13054" lon="1.79577">
        <ele>293.9</ele>
        <time>2018-01-24T13:06:21Z</time>
      </trkpt>
      <trkpt lat="44.13061" lon="1.79581">
        <ele>296.4</ele>
        <time>2018-01-24T13:06:27Z</time>
      </trkpt>
      <trkpt lat="44.13064" lon="1.79592">
        <ele>298.7</ele>
        <time>2018-01-24T13:06:31Z</time>
      </trkpt>
      <trkpt lat="44.13064" lon="1.79603">
        <ele>299.7</ele>
        <time>2018-01-24T13:06:34Z</time>
      </trkpt>
      <trkpt lat="44.13064" lon="1.79616">
        <ele>300.1</ele>
        <time>2018-01-24T13:06:37Z</time>
      </trkpt>
      <trkpt lat="44.1306" lon="1.79625">
        <ele>300.3</ele>
        <time>2018-01-24T13:06:42Z</time>
      </trkpt>
      <trkpt lat="44.1306" lon="1.7963">
        <ele>300.5</ele>
        <time>2018-01-24T13:06:49Z</time>
      </trkpt>
      <trkpt lat="44.1306" lon="1.79643">
        <ele>303.6</ele>
        <time>2018-01-24T13:07:25Z</time>
      </trkpt>
      <trkpt lat="44.13055" lon="1.79651">
        <ele>303.8</ele>
        <time>2018-01-24T13:07:32Z</time>
      </trkpt>
      <trkpt lat="44.13053" lon="1.7965">
        <ele>304.4</ele>
        <time>2018-01-24T13:07:39Z</time>
      </trkpt>
      <trkpt lat="44.13058" lon="1.79648">
        <ele>304.4</ele>
        <time>2018-01-24T13:07:46Z</time>
      </trkpt>
      <trkpt lat="44.13056" lon="1.79651">
        <ele>304.7</ele>
        <time>2018-01-24T13:08:04Z</time>
      </trkpt>
      <trkpt lat="44.13052" lon="1.79661">
        <ele>308.5</ele>
        <time>2018-01-24T13:08:33Z</time>
      </trkpt>
      <trkpt lat="44.1305" lon="1.79673">
        <ele>309</ele>
        <time>2018-01-24T13:08:37Z</time>
      </trkpt>
      <trkpt lat="44.13049" lon="1.79684">
        <ele>310</ele>
        <time>2018-01-24T13:08:41Z</time>
      </trkpt>
      <trkpt lat="44.13047" lon="1.79694">
        <ele>309.3</ele>
        <time>2018-01-24T13:08:44Z</time>
      </trkpt>
      <trkpt lat="44.13046" lon="1.79706">
        <ele>308.8</ele>
        <time>2018-01-24T13:08:47Z</time>
      </trkpt>
      <trkpt lat="44.13045" lon="1.79718">
        <ele>308.9</ele>
        <time>2018-01-24T13:08:50Z</time>
      </trkpt>
      <trkpt lat="44.13045" lon="1.7973">
        <ele>309.3</ele>
        <time>2018-01-24T13:08:54Z</time>
      </trkpt>
      <trkpt lat="44.13048" lon="1.79741">
        <ele>309.3</ele>
        <time>2018-01-24T13:08:57Z</time>
      </trkpt>
      <trkpt lat="44.13053" lon="1.7975">
        <ele>309.2</ele>
        <time>2018-01-24T13:09:00Z</time>
      </trkpt>
      <trkpt lat="44.13058" lon="1.79759">
        <ele>309.2</ele>
        <time>2018-01-24T13:09:03Z</time>
      </trkpt>
      <trkpt lat="44.13059" lon="1.79772">
        <ele>309.3</ele>
        <time>2018-01-24T13:09:06Z</time>
      </trkpt>
      <trkpt lat="44.13062" lon="1.79782">
        <ele>309.3</ele>
        <time>2018-01-24T13:09:09Z</time>
      </trkpt>
      <trkpt lat="44.1307" lon="1.79791">
        <ele>309.3</ele>
        <time>2018-01-24T13:09:12Z</time>
      </trkpt>
      <trkpt lat="44.13076" lon="1.79796">
        <ele>309.2</ele>
        <time>2018-01-24T13:09:15Z</time>
      </trkpt>
      <trkpt lat="44.13074" lon="1.79806">
        <ele>308.2</ele>
        <time>2018-01-24T13:09:18Z</time>
      </trkpt>
      <trkpt lat="44.13067" lon="1.7981">
        <ele>308</ele>
        <time>2018-01-24T13:09:21Z</time>
      </trkpt>
      <trkpt lat="44.1306" lon="1.79815">
        <ele>307.6</ele>
        <time>2018-01-24T13:09:24Z</time>
      </trkpt>
      <trkpt lat="44.13051" lon="1.79822">
        <ele>306.9</ele>
        <time>2018-01-24T13:09:27Z</time>
      </trkpt>
      <trkpt lat="44.13045" lon="1.79827">
        <ele>306.5</ele>
        <time>2018-01-24T13:09:29Z</time>
      </trkpt>
      <trkpt lat="44.13035" lon="1.79836">
        <ele>306</ele>
        <time>2018-01-24T13:09:32Z</time>
      </trkpt>
      <trkpt lat="44.13028" lon="1.79841">
        <ele>305.5</ele>
        <time>2018-01-24T13:09:34Z</time>
      </trkpt>
      <trkpt lat="44.1302" lon="1.79847">
        <ele>304.8</ele>
        <time>2018-01-24T13:09:36Z</time>
      </trkpt>
      <trkpt lat="44.1301" lon="1.79851">
        <ele>303.5</ele>
        <time>2018-01-24T13:09:38Z</time>
      </trkpt>
      <trkpt lat="44.13002" lon="1.79854">
        <ele>302.3</ele>
        <time>2018-01-24T13:09:40Z</time>
      </trkpt>
      <trkpt lat="44.12994" lon="1.79858">
        <ele>301.3</ele>
        <time>2018-01-24T13:09:42Z</time>
      </trkpt>
      <trkpt lat="44.12987" lon="1.79863">
        <ele>300.6</ele>
        <time>2018-01-24T13:09:44Z</time>
      </trkpt>
      <trkpt lat="44.12981" lon="1.7987">
        <ele>299.9</ele>
        <time>2018-01-24T13:09:46Z</time>
      </trkpt>
      <trkpt lat="44.12974" lon="1.79876">
        <ele>298.9</ele>
        <time>2018-01-24T13:09:48Z</time>
      </trkpt>
      <trkpt lat="44.12967" lon="1.79885">
        <ele>297.9</ele>
        <time>2018-01-24T13:09:50Z</time>
      </trkpt>
      <trkpt lat="44.12959" lon="1.79892">
        <ele>296.1</ele>
        <time>2018-01-24T13:09:53Z</time>
      </trkpt>
      <trkpt lat="44.12952" lon="1.79899">
        <ele>294.6</ele>
        <time>2018-01-24T13:09:55Z</time>
      </trkpt>
      <trkpt lat="44.12943" lon="1.79905">
        <ele>293.4</ele>
        <time>2018-01-24T13:09:57Z</time>
      </trkpt>
      <trkpt lat="44.12936" lon="1.79913">
        <ele>292.3</ele>
        <time>2018-01-24T13:09:59Z</time>
      </trkpt>
      <trkpt lat="44.12929" lon="1.79918">
        <ele>291.3</ele>
        <time>2018-01-24T13:10:01Z</time>
      </trkpt>
      <trkpt lat="44.12922" lon="1.79922">
        <ele>290.7</ele>
        <time>2018-01-24T13:10:03Z</time>
      </trkpt>
      <trkpt lat="44.12915" lon="1.79929">
        <ele>289.8</ele>
        <time>2018-01-24T13:10:05Z</time>
      </trkpt>
      <trkpt lat="44.12907" lon="1.79935">
        <ele>288.8</ele>
        <time>2018-01-24T13:10:07Z</time>
      </trkpt>
      <trkpt lat="44.129" lon="1.79939">
        <ele>287.9</ele>
        <time>2018-01-24T13:10:09Z</time>
      </trkpt>
      <trkpt lat="44.12892" lon="1.79944">
        <ele>286.5</ele>
        <time>2018-01-24T13:10:11Z</time>
      </trkpt>
      <trkpt lat="44.12886" lon="1.79949">
        <ele>285.4</ele>
        <time>2018-01-24T13:10:13Z</time>
      </trkpt>
      <trkpt lat="44.12877" lon="1.79956">
        <ele>283.9</ele>
        <time>2018-01-24T13:10:16Z</time>
      </trkpt>
      <trkpt lat="44.12866" lon="1.79959">
        <ele>282.7</ele>
        <time>2018-01-24T13:10:19Z</time>
      </trkpt>
      <trkpt lat="44.12857" lon="1.79963">
        <ele>281.5</ele>
        <time>2018-01-24T13:10:21Z</time>
      </trkpt>
      <trkpt lat="44.12847" lon="1.7997">
        <ele>280.1</ele>
        <time>2018-01-24T13:10:23Z</time>
      </trkpt>
      <trkpt lat="44.12841" lon="1.79978">
        <ele>278.5</ele>
        <time>2018-01-24T13:10:25Z</time>
      </trkpt>
      <trkpt lat="44.12836" lon="1.79987">
        <ele>277.7</ele>
        <time>2018-01-24T13:10:27Z</time>
      </trkpt>
      <trkpt lat="44.12832" lon="1.79996">
        <ele>276.6</ele>
        <time>2018-01-24T13:10:29Z</time>
      </trkpt>
      <trkpt lat="44.12827" lon="1.8001">
        <ele>275.9</ele>
        <time>2018-01-24T13:10:32Z</time>
      </trkpt>
      <trkpt lat="44.12825" lon="1.8002">
        <ele>275.4</ele>
        <time>2018-01-24T13:10:34Z</time>
      </trkpt>
      <trkpt lat="44.12821" lon="1.80029">
        <ele>275.2</ele>
        <time>2018-01-24T13:10:36Z</time>
      </trkpt>
      <trkpt lat="44.12815" lon="1.80038">
        <ele>274.8</ele>
        <time>2018-01-24T13:10:39Z</time>
      </trkpt>
      <trkpt lat="44.1281" lon="1.80046">
        <ele>274.8</ele>
        <time>2018-01-24T13:10:42Z</time>
      </trkpt>
      <trkpt lat="44.12805" lon="1.80055">
        <ele>274.1</ele>
        <time>2018-01-24T13:10:45Z</time>
      </trkpt>
      <trkpt lat="44.12798" lon="1.80061">
        <ele>273.8</ele>
        <time>2018-01-24T13:10:48Z</time>
      </trkpt>
      <trkpt lat="44.1279" lon="1.80068">
        <ele>273.6</ele>
        <time>2018-01-24T13:10:51Z</time>
      </trkpt>
      <trkpt lat="44.12783" lon="1.80073">
        <ele>274.1</ele>
        <time>2018-01-24T13:10:54Z</time>
      </trkpt>
      <trkpt lat="44.12776" lon="1.8008">
        <ele>274.7</ele>
        <time>2018-01-24T13:10:57Z</time>
      </trkpt>
      <trkpt lat="44.12768" lon="1.80085">
        <ele>275.2</ele>
        <time>2018-01-24T13:11:00Z</time>
      </trkpt>
      <trkpt lat="44.12761" lon="1.80089">
        <ele>275.4</ele>
        <time>2018-01-24T13:11:02Z</time>
      </trkpt>
      <trkpt lat="44.1275" lon="1.80096">
        <ele>275.4</ele>
        <time>2018-01-24T13:11:05Z</time>
      </trkpt>
      <trkpt lat="44.12743" lon="1.80101">
        <ele>275.6</ele>
        <time>2018-01-24T13:11:07Z</time>
      </trkpt>
      <trkpt lat="44.12736" lon="1.80104">
        <ele>275.7</ele>
        <time>2018-01-24T13:11:09Z</time>
      </trkpt>
      <trkpt lat="44.12726" lon="1.80108">
        <ele>275.8</ele>
        <time>2018-01-24T13:11:12Z</time>
      </trkpt>
      <trkpt lat="44.12719" lon="1.8011">
        <ele>276</ele>
        <time>2018-01-24T13:11:14Z</time>
      </trkpt>
      <trkpt lat="44.12711" lon="1.80111">
        <ele>275.9</ele>
        <time>2018-01-24T13:11:16Z</time>
      </trkpt>
      <trkpt lat="44.12704" lon="1.80111">
        <ele>276</ele>
        <time>2018-01-24T13:11:18Z</time>
      </trkpt>
      <trkpt lat="44.12696" lon="1.8011">
        <ele>276.1</ele>
        <time>2018-01-24T13:11:20Z</time>
      </trkpt>
      <trkpt lat="44.12687" lon="1.80106">
        <ele>276.7</ele>
        <time>2018-01-24T13:11:23Z</time>
      </trkpt>
      <trkpt lat="44.1268" lon="1.801">
        <ele>277.3</ele>
        <time>2018-01-24T13:11:26Z</time>
      </trkpt>
      <trkpt lat="44.12672" lon="1.80094">
        <ele>278.2</ele>
        <time>2018-01-24T13:11:29Z</time>
      </trkpt>
      <trkpt lat="44.12664" lon="1.8009">
        <ele>279.1</ele>
        <time>2018-01-24T13:11:32Z</time>
      </trkpt>
      <trkpt lat="44.12657" lon="1.80086">
        <ele>279.7</ele>
        <time>2018-01-24T13:11:35Z</time>
      </trkpt>
      <trkpt lat="44.12649" lon="1.8008">
        <ele>280.3</ele>
        <time>2018-01-24T13:11:39Z</time>
      </trkpt>
      <trkpt lat="44.12643" lon="1.80072">
        <ele>281.3</ele>
        <time>2018-01-24T13:11:44Z</time>
      </trkpt>
      <trkpt lat="44.12636" lon="1.80065">
        <ele>281.9</ele>
        <time>2018-01-24T13:11:48Z</time>
      </trkpt>
      <trkpt lat="44.1263" lon="1.8006">
        <ele>282.7</ele>
        <time>2018-01-24T13:11:51Z</time>
      </trkpt>
      <trkpt lat="44.12624" lon="1.80054">
        <ele>283.1</ele>
        <time>2018-01-24T13:11:54Z</time>
      </trkpt>
      <trkpt lat="44.12618" lon="1.80044">
        <ele>283</ele>
        <time>2018-01-24T13:11:58Z</time>
      </trkpt>
      <trkpt lat="44.12613" lon="1.80035">
        <ele>284.1</ele>
        <time>2018-01-24T13:12:02Z</time>
      </trkpt>
      <trkpt lat="44.12606" lon="1.80026">
        <ele>285.3</ele>
        <time>2018-01-24T13:12:06Z</time>
      </trkpt>
      <trkpt lat="44.12602" lon="1.80019">
        <ele>285.4</ele>
        <time>2018-01-24T13:12:13Z</time>
      </trkpt>
      <trkpt lat="44.12589" lon="1.80003">
        <ele>290.1</ele>
        <time>2018-01-24T13:13:32Z</time>
      </trkpt>
      <trkpt lat="44.12581" lon="1.79999">
        <ele>290.8</ele>
        <time>2018-01-24T13:13:37Z</time>
      </trkpt>
      <trkpt lat="44.12574" lon="1.79993">
        <ele>291.3</ele>
        <time>2018-01-24T13:13:41Z</time>
      </trkpt>
      <trkpt lat="44.12565" lon="1.79987">
        <ele>291.8</ele>
        <time>2018-01-24T13:13:45Z</time>
      </trkpt>
      <trkpt lat="44.12559" lon="1.79981">
        <ele>291.9</ele>
        <time>2018-01-24T13:13:48Z</time>
      </trkpt>
      <trkpt lat="44.12552" lon="1.79975">
        <ele>292.7</ele>
        <time>2018-01-24T13:13:51Z</time>
      </trkpt>
      <trkpt lat="44.12545" lon="1.79969">
        <ele>293.4</ele>
        <time>2018-01-24T13:13:54Z</time>
      </trkpt>
      <trkpt lat="44.12537" lon="1.79962">
        <ele>294.3</ele>
        <time>2018-01-24T13:13:58Z</time>
      </trkpt>
      <trkpt lat="44.1253" lon="1.79957">
        <ele>295.1</ele>
        <time>2018-01-24T13:14:01Z</time>
      </trkpt>
      <trkpt lat="44.12523" lon="1.79955">
        <ele>295.8</ele>
        <time>2018-01-24T13:14:05Z</time>
      </trkpt>
      <trkpt lat="44.12515" lon="1.79951">
        <ele>296.1</ele>
        <time>2018-01-24T13:14:08Z</time>
      </trkpt>
      <trkpt lat="44.12507" lon="1.79947">
        <ele>296.1</ele>
        <time>2018-01-24T13:14:11Z</time>
      </trkpt>
      <trkpt lat="44.12499" lon="1.79944">
        <ele>295.9</ele>
        <time>2018-01-24T13:14:14Z</time>
      </trkpt>
      <trkpt lat="44.12491" lon="1.79939">
        <ele>296.5</ele>
        <time>2018-01-24T13:14:17Z</time>
      </trkpt>
      <trkpt lat="44.12485" lon="1.79935">
        <ele>296.9</ele>
        <time>2018-01-24T13:14:21Z</time>
      </trkpt>
      <trkpt lat="44.12478" lon="1.79929">
        <ele>297.8</ele>
        <time>2018-01-24T13:14:26Z</time>
      </trkpt>
      <trkpt lat="44.12475" lon="1.79918">
        <ele>297.2</ele>
        <time>2018-01-24T13:14:31Z</time>
      </trkpt>
      <trkpt lat="44.12477" lon="1.79908">
        <ele>297</ele>
        <time>2018-01-24T13:14:35Z</time>
      </trkpt>
      <trkpt lat="44.12479" lon="1.79898">
        <ele>297.8</ele>
        <time>2018-01-24T13:14:39Z</time>
      </trkpt>
      <trkpt lat="44.12481" lon="1.79888">
        <ele>298.6</ele>
        <time>2018-01-24T13:14:42Z</time>
      </trkpt>
      <trkpt lat="44.12483" lon="1.79878">
        <ele>299</ele>
        <time>2018-01-24T13:14:45Z</time>
      </trkpt>
      <trkpt lat="44.12482" lon="1.79867">
        <ele>299.7</ele>
        <time>2018-01-24T13:14:50Z</time>
      </trkpt>
      <trkpt lat="44.12481" lon="1.79854">
        <ele>300.7</ele>
        <time>2018-01-24T13:14:55Z</time>
      </trkpt>
      <trkpt lat="44.12481" lon="1.79841">
        <ele>301.5</ele>
        <time>2018-01-24T13:15:00Z</time>
      </trkpt>
      <trkpt lat="44.12478" lon="1.79832">
        <ele>302</ele>
        <time>2018-01-24T13:15:03Z</time>
      </trkpt>
      <trkpt lat="44.12477" lon="1.79822">
        <ele>303.4</ele>
        <time>2018-01-24T13:15:06Z</time>
      </trkpt>
      <trkpt lat="44.12476" lon="1.7981">
        <ele>304.2</ele>
        <time>2018-01-24T13:15:10Z</time>
      </trkpt>
      <trkpt lat="44.12475" lon="1.798">
        <ele>305.1</ele>
        <time>2018-01-24T13:15:15Z</time>
      </trkpt>
      <trkpt lat="44.12474" lon="1.79789">
        <ele>306.1</ele>
        <time>2018-01-24T13:15:20Z</time>
      </trkpt>
      <trkpt lat="44.12475" lon="1.79777">
        <ele>306.8</ele>
        <time>2018-01-24T13:15:25Z</time>
      </trkpt>
      <trkpt lat="44.12476" lon="1.79766">
        <ele>307.4</ele>
        <time>2018-01-24T13:15:28Z</time>
      </trkpt>
      <trkpt lat="44.12476" lon="1.79755">
        <ele>307.9</ele>
        <time>2018-01-24T13:15:31Z</time>
      </trkpt>
      <trkpt lat="44.12473" lon="1.79742">
        <ele>308.2</ele>
        <time>2018-01-24T13:15:34Z</time>
      </trkpt>
      <trkpt lat="44.12467" lon="1.79731">
        <ele>308.3</ele>
        <time>2018-01-24T13:15:37Z</time>
      </trkpt>
      <trkpt lat="44.12461" lon="1.79719">
        <ele>308.4</ele>
        <time>2018-01-24T13:15:40Z</time>
      </trkpt>
      <trkpt lat="44.12454" lon="1.79706">
        <ele>308.1</ele>
        <time>2018-01-24T13:15:43Z</time>
      </trkpt>
      <trkpt lat="44.1245" lon="1.79698">
        <ele>308.1</ele>
        <time>2018-01-24T13:15:45Z</time>
      </trkpt>
      <trkpt lat="44.12446" lon="1.7969">
        <ele>308.3</ele>
        <time>2018-01-24T13:15:47Z</time>
      </trkpt>
      <trkpt lat="44.12443" lon="1.79678">
        <ele>308.8</ele>
        <time>2018-01-24T13:15:50Z</time>
      </trkpt>
      <trkpt lat="44.12439" lon="1.79669">
        <ele>308.6</ele>
        <time>2018-01-24T13:15:56Z</time>
      </trkpt>
      <trkpt lat="44.12432" lon="1.79663">
        <ele>308.4</ele>
        <time>2018-01-24T13:16:01Z</time>
      </trkpt>
      <trkpt lat="44.12426" lon="1.79658">
        <ele>308.4</ele>
        <time>2018-01-24T13:16:05Z</time>
      </trkpt>
      <trkpt lat="44.12418" lon="1.79652">
        <ele>307.8</ele>
        <time>2018-01-24T13:16:09Z</time>
      </trkpt>
      <trkpt lat="44.12411" lon="1.79648">
        <ele>307.2</ele>
        <time>2018-01-24T13:16:13Z</time>
      </trkpt>
      <trkpt lat="44.12404" lon="1.79645">
        <ele>307.1</ele>
        <time>2018-01-24T13:16:17Z</time>
      </trkpt>
      <trkpt lat="44.12396" lon="1.79642">
        <ele>306.6</ele>
        <time>2018-01-24T13:16:21Z</time>
      </trkpt>
      <trkpt lat="44.12389" lon="1.79643">
        <ele>305.7</ele>
        <time>2018-01-24T13:16:25Z</time>
      </trkpt>
      <trkpt lat="44.12383" lon="1.79648">
        <ele>304.4</ele>
        <time>2018-01-24T13:16:30Z</time>
      </trkpt>
      <trkpt lat="44.12375" lon="1.79652">
        <ele>302.7</ele>
        <time>2018-01-24T13:16:34Z</time>
      </trkpt>
      <trkpt lat="44.12367" lon="1.79655">
        <ele>301.4</ele>
        <time>2018-01-24T13:16:37Z</time>
      </trkpt>
      <trkpt lat="44.12358" lon="1.79657">
        <ele>300.6</ele>
        <time>2018-01-24T13:16:40Z</time>
      </trkpt>
      <trkpt lat="44.12351" lon="1.79661">
        <ele>299.8</ele>
        <time>2018-01-24T13:16:42Z</time>
      </trkpt>
      <trkpt lat="44.12343" lon="1.79661">
        <ele>299.5</ele>
        <time>2018-01-24T13:16:44Z</time>
      </trkpt>
      <trkpt lat="44.12334" lon="1.79664">
        <ele>298.9</ele>
        <time>2018-01-24T13:16:47Z</time>
      </trkpt>
      <trkpt lat="44.12326" lon="1.79666">
        <ele>298.4</ele>
        <time>2018-01-24T13:16:51Z</time>
      </trkpt>
      <trkpt lat="44.12317" lon="1.79668">
        <ele>297.8</ele>
        <time>2018-01-24T13:16:54Z</time>
      </trkpt>
      <trkpt lat="44.12309" lon="1.79672">
        <ele>297.2</ele>
        <time>2018-01-24T13:16:57Z</time>
      </trkpt>
      <trkpt lat="44.12301" lon="1.79675">
        <ele>296.7</ele>
        <time>2018-01-24T13:17:00Z</time>
      </trkpt>
      <trkpt lat="44.12292" lon="1.79677">
        <ele>296.3</ele>
        <time>2018-01-24T13:17:03Z</time>
      </trkpt>
      <trkpt lat="44.12284" lon="1.79678">
        <ele>296.1</ele>
        <time>2018-01-24T13:17:06Z</time>
      </trkpt>
      <trkpt lat="44.12274" lon="1.79679">
        <ele>295.6</ele>
        <time>2018-01-24T13:17:09Z</time>
      </trkpt>
      <trkpt lat="44.12267" lon="1.79679">
        <ele>295</ele>
        <time>2018-01-24T13:17:12Z</time>
      </trkpt>
      <trkpt lat="44.12257" lon="1.79681">
        <ele>293.5</ele>
        <time>2018-01-24T13:17:16Z</time>
      </trkpt>
      <trkpt lat="44.1225" lon="1.79679">
        <ele>293.1</ele>
        <time>2018-01-24T13:17:19Z</time>
      </trkpt>
      <trkpt lat="44.12243" lon="1.79678">
        <ele>291.6</ele>
        <time>2018-01-24T13:17:23Z</time>
      </trkpt>
      <trkpt lat="44.12234" lon="1.79677">
        <ele>290.7</ele>
        <time>2018-01-24T13:17:26Z</time>
      </trkpt>
      <trkpt lat="44.12227" lon="1.79678">
        <ele>289.9</ele>
        <time>2018-01-24T13:17:29Z</time>
      </trkpt>
      <trkpt lat="44.12217" lon="1.79681">
        <ele>289.7</ele>
        <time>2018-01-24T13:17:32Z</time>
      </trkpt>
      <trkpt lat="44.12207" lon="1.79683">
        <ele>289</ele>
        <time>2018-01-24T13:17:36Z</time>
      </trkpt>
      <trkpt lat="44.122" lon="1.79684">
        <ele>288</ele>
        <time>2018-01-24T13:17:39Z</time>
      </trkpt>
      <trkpt lat="44.12191" lon="1.79687">
        <ele>287.5</ele>
        <time>2018-01-24T13:17:42Z</time>
      </trkpt>
      <trkpt lat="44.12183" lon="1.79689">
        <ele>286.6</ele>
        <time>2018-01-24T13:17:45Z</time>
      </trkpt>
      <trkpt lat="44.12175" lon="1.79691">
        <ele>287</ele>
        <time>2018-01-24T13:17:48Z</time>
      </trkpt>
      <trkpt lat="44.12165" lon="1.79692">
        <ele>286.7</ele>
        <time>2018-01-24T13:17:52Z</time>
      </trkpt>
      <trkpt lat="44.12156" lon="1.79695">
        <ele>286.6</ele>
        <time>2018-01-24T13:17:55Z</time>
      </trkpt>
      <trkpt lat="44.12149" lon="1.797">
        <ele>286.5</ele>
        <time>2018-01-24T13:17:58Z</time>
      </trkpt>
      <trkpt lat="44.1214" lon="1.79705">
        <ele>286.5</ele>
        <time>2018-01-24T13:18:01Z</time>
      </trkpt>
      <trkpt lat="44.12132" lon="1.79708">
        <ele>286.6</ele>
        <time>2018-01-24T13:18:04Z</time>
      </trkpt>
      <trkpt lat="44.12123" lon="1.79712">
        <ele>287</ele>
        <time>2018-01-24T13:18:07Z</time>
      </trkpt>
      <trkpt lat="44.12115" lon="1.79709">
        <ele>289.1</ele>
        <time>2018-01-24T13:18:12Z</time>
      </trkpt>
      <trkpt lat="44.12113" lon="1.79705">
        <ele>291.3</ele>
        <time>2018-01-24T13:18:19Z</time>
      </trkpt>
      <trkpt lat="44.12107" lon="1.79696">
        <ele>296.2</ele>
        <time>2018-01-24T13:18:35Z</time>
      </trkpt>
      <trkpt lat="44.12108" lon="1.79684">
        <ele>297.7</ele>
        <time>2018-01-24T13:18:40Z</time>
      </trkpt>
      <trkpt lat="44.12109" lon="1.79673">
        <ele>298.9</ele>
        <time>2018-01-24T13:18:43Z</time>
      </trkpt>
      <trkpt lat="44.12112" lon="1.79662">
        <ele>299.8</ele>
        <time>2018-01-24T13:18:46Z</time>
      </trkpt>
      <trkpt lat="44.12115" lon="1.79653">
        <ele>301.1</ele>
        <time>2018-01-24T13:18:49Z</time>
      </trkpt>
      <trkpt lat="44.12118" lon="1.79643">
        <ele>302.5</ele>
        <time>2018-01-24T13:18:52Z</time>
      </trkpt>
      <trkpt lat="44.12121" lon="1.79634">
        <ele>303.8</ele>
        <time>2018-01-24T13:18:55Z</time>
      </trkpt>
      <trkpt lat="44.12126" lon="1.79623">
        <ele>305.2</ele>
        <time>2018-01-24T13:18:58Z</time>
      </trkpt>
      <trkpt lat="44.12129" lon="1.79613">
        <ele>306.2</ele>
        <time>2018-01-24T13:19:01Z</time>
      </trkpt>
      <trkpt lat="44.12132" lon="1.79603">
        <ele>307.6</ele>
        <time>2018-01-24T13:19:04Z</time>
      </trkpt>
      <trkpt lat="44.12134" lon="1.79593">
        <ele>308.7</ele>
        <time>2018-01-24T13:19:07Z</time>
      </trkpt>
      <trkpt lat="44.12138" lon="1.79584">
        <ele>310.6</ele>
        <time>2018-01-24T13:19:10Z</time>
      </trkpt>
      <trkpt lat="44.12143" lon="1.79573">
        <ele>312.9</ele>
        <time>2018-01-24T13:19:15Z</time>
      </trkpt>
      <trkpt lat="44.12147" lon="1.79562">
        <ele>314.2</ele>
        <time>2018-01-24T13:19:19Z</time>
      </trkpt>
      <trkpt lat="44.1215" lon="1.79551">
        <ele>315.3</ele>
        <time>2018-01-24T13:19:23Z</time>
      </trkpt>
      <trkpt lat="44.12154" lon="1.7954">
        <ele>316.5</ele>
        <time>2018-01-24T13:19:26Z</time>
      </trkpt>
      <trkpt lat="44.12155" lon="1.7953">
        <ele>317.2</ele>
        <time>2018-01-24T13:19:32Z</time>
      </trkpt>
      <trkpt lat="44.12148" lon="1.79522">
        <ele>318</ele>
        <time>2018-01-24T13:19:39Z</time>
      </trkpt>
      <trkpt lat="44.12143" lon="1.79514">
        <ele>318.5</ele>
        <time>2018-01-24T13:19:44Z</time>
      </trkpt>
      <trkpt lat="44.12138" lon="1.79505">
        <ele>319.2</ele>
        <time>2018-01-24T13:19:49Z</time>
      </trkpt>
      <trkpt lat="44.12132" lon="1.79497">
        <ele>319.8</ele>
        <time>2018-01-24T13:19:53Z</time>
      </trkpt>
      <trkpt lat="44.12126" lon="1.79489">
        <ele>320.5</ele>
        <time>2018-01-24T13:19:57Z</time>
      </trkpt>
      <trkpt lat="44.1212" lon="1.7948">
        <ele>321.1</ele>
        <time>2018-01-24T13:20:01Z</time>
      </trkpt>
      <trkpt lat="44.12114" lon="1.79473">
        <ele>321.2</ele>
        <time>2018-01-24T13:20:05Z</time>
      </trkpt>
      <trkpt lat="44.12109" lon="1.79463">
        <ele>321</ele>
        <time>2018-01-24T13:20:09Z</time>
      </trkpt>
      <trkpt lat="44.12102" lon="1.79455">
        <ele>321.3</ele>
        <time>2018-01-24T13:20:12Z</time>
      </trkpt>
      <trkpt lat="44.12095" lon="1.79446">
        <ele>321.3</ele>
        <time>2018-01-24T13:20:15Z</time>
      </trkpt>
      <trkpt lat="44.12088" lon="1.79436">
        <ele>321</ele>
        <time>2018-01-24T13:20:18Z</time>
      </trkpt>
      <trkpt lat="44.12084" lon="1.79426">
        <ele>321</ele>
        <time>2018-01-24T13:20:21Z</time>
      </trkpt>
      <trkpt lat="44.12081" lon="1.79414">
        <ele>320.6</ele>
        <time>2018-01-24T13:20:25Z</time>
      </trkpt>
      <trkpt lat="44.12078" lon="1.79403">
        <ele>320.2</ele>
        <time>2018-01-24T13:20:28Z</time>
      </trkpt>
      <trkpt lat="44.12077" lon="1.79393">
        <ele>320.2</ele>
        <time>2018-01-24T13:20:31Z</time>
      </trkpt>
      <trkpt lat="44.12074" lon="1.79381">
        <ele>320</ele>
        <time>2018-01-24T13:20:35Z</time>
      </trkpt>
      <trkpt lat="44.12071" lon="1.7937">
        <ele>320</ele>
        <time>2018-01-24T13:20:39Z</time>
      </trkpt>
      <trkpt lat="44.12069" lon="1.79359">
        <ele>319.6</ele>
        <time>2018-01-24T13:20:42Z</time>
      </trkpt>
      <trkpt lat="44.12068" lon="1.79347">
        <ele>319.1</ele>
        <time>2018-01-24T13:20:45Z</time>
      </trkpt>
      <trkpt lat="44.12067" lon="1.79337">
        <ele>318.8</ele>
        <time>2018-01-24T13:20:48Z</time>
      </trkpt>
      <trkpt lat="44.12065" lon="1.79325">
        <ele>318.9</ele>
        <time>2018-01-24T13:20:51Z</time>
      </trkpt>
      <trkpt lat="44.12062" lon="1.79315">
        <ele>318.9</ele>
        <time>2018-01-24T13:20:54Z</time>
      </trkpt>
      <trkpt lat="44.12058" lon="1.79302">
        <ele>318.6</ele>
        <time>2018-01-24T13:20:57Z</time>
      </trkpt>
      <trkpt lat="44.12053" lon="1.7929">
        <ele>318.4</ele>
        <time>2018-01-24T13:21:00Z</time>
      </trkpt>
      <trkpt lat="44.12049" lon="1.7928">
        <ele>318.1</ele>
        <time>2018-01-24T13:21:03Z</time>
      </trkpt>
      <trkpt lat="44.12046" lon="1.79266">
        <ele>317.9</ele>
        <time>2018-01-24T13:21:06Z</time>
      </trkpt>
      <trkpt lat="44.12042" lon="1.79257">
        <ele>318.1</ele>
        <time>2018-01-24T13:21:09Z</time>
      </trkpt>
      <trkpt lat="44.12038" lon="1.79248">
        <ele>317.9</ele>
        <time>2018-01-24T13:21:12Z</time>
      </trkpt>
      <trkpt lat="44.12033" lon="1.79235">
        <ele>318.1</ele>
        <time>2018-01-24T13:21:16Z</time>
      </trkpt>
      <trkpt lat="44.1203" lon="1.79226">
        <ele>317.8</ele>
        <time>2018-01-24T13:21:18Z</time>
      </trkpt>
      <trkpt lat="44.12026" lon="1.79217">
        <ele>318.2</ele>
        <time>2018-01-24T13:21:20Z</time>
      </trkpt>
      <trkpt lat="44.12024" lon="1.79205">
        <ele>318.3</ele>
        <time>2018-01-24T13:21:23Z</time>
      </trkpt>
      <trkpt lat="44.12028" lon="1.7919">
        <ele>318.3</ele>
        <time>2018-01-24T13:21:26Z</time>
      </trkpt>
      <trkpt lat="44.12035" lon="1.79183">
        <ele>318.6</ele>
        <time>2018-01-24T13:21:28Z</time>
      </trkpt>
      <trkpt lat="44.12042" lon="1.79177">
        <ele>318.8</ele>
        <time>2018-01-24T13:21:30Z</time>
      </trkpt>
      <trkpt lat="44.1205" lon="1.7917">
        <ele>320</ele>
        <time>2018-01-24T13:21:33Z</time>
      </trkpt>
      <trkpt lat="44.12057" lon="1.79164">
        <ele>321.1</ele>
        <time>2018-01-24T13:21:36Z</time>
      </trkpt>
      <trkpt lat="44.12065" lon="1.79159">
        <ele>323.4</ele>
        <time>2018-01-24T13:21:40Z</time>
      </trkpt>
      <trkpt lat="44.12073" lon="1.79156">
        <ele>325.2</ele>
        <time>2018-01-24T13:21:43Z</time>
      </trkpt>
      <trkpt lat="44.12084" lon="1.79155">
        <ele>327.6</ele>
        <time>2018-01-24T13:21:47Z</time>
      </trkpt>
      <trkpt lat="44.12091" lon="1.79156">
        <ele>329.9</ele>
        <time>2018-01-24T13:21:50Z</time>
      </trkpt>
      <trkpt lat="44.121" lon="1.79158">
        <ele>332.1</ele>
        <time>2018-01-24T13:21:53Z</time>
      </trkpt>
      <trkpt lat="44.12109" lon="1.79158">
        <ele>334.2</ele>
        <time>2018-01-24T13:21:56Z</time>
      </trkpt>
      <trkpt lat="44.12118" lon="1.79154">
        <ele>336.3</ele>
        <time>2018-01-24T13:21:59Z</time>
      </trkpt>
      <trkpt lat="44.12125" lon="1.79149">
        <ele>337.9</ele>
        <time>2018-01-24T13:22:02Z</time>
      </trkpt>
      <trkpt lat="44.12132" lon="1.79143">
        <ele>339.5</ele>
        <time>2018-01-24T13:22:05Z</time>
      </trkpt>
      <trkpt lat="44.1214" lon="1.79135">
        <ele>341.4</ele>
        <time>2018-01-24T13:22:09Z</time>
      </trkpt>
      <trkpt lat="44.12147" lon="1.79126">
        <ele>342.6</ele>
        <time>2018-01-24T13:22:12Z</time>
      </trkpt>
      <trkpt lat="44.12153" lon="1.79118">
        <ele>343.4</ele>
        <time>2018-01-24T13:22:15Z</time>
      </trkpt>
      <trkpt lat="44.12158" lon="1.79109">
        <ele>344.1</ele>
        <time>2018-01-24T13:22:18Z</time>
      </trkpt>
      <trkpt lat="44.12164" lon="1.79099">
        <ele>344.8</ele>
        <time>2018-01-24T13:22:21Z</time>
      </trkpt>
      <trkpt lat="44.1217" lon="1.79091">
        <ele>345.4</ele>
        <time>2018-01-24T13:22:24Z</time>
      </trkpt>
      <trkpt lat="44.12177" lon="1.79083">
        <ele>346.1</ele>
        <time>2018-01-24T13:22:27Z</time>
      </trkpt>
      <trkpt lat="44.12181" lon="1.79074">
        <ele>346.7</ele>
        <time>2018-01-24T13:22:30Z</time>
      </trkpt>
      <trkpt lat="44.12188" lon="1.79064">
        <ele>347.3</ele>
        <time>2018-01-24T13:22:33Z</time>
      </trkpt>
      <trkpt lat="44.12195" lon="1.79056">
        <ele>347.9</ele>
        <time>2018-01-24T13:22:36Z</time>
      </trkpt>
      <trkpt lat="44.12203" lon="1.79047">
        <ele>347.8</ele>
        <time>2018-01-24T13:22:39Z</time>
      </trkpt>
      <trkpt lat="44.12207" lon="1.79038">
        <ele>347.3</ele>
        <time>2018-01-24T13:22:42Z</time>
      </trkpt>
      <trkpt lat="44.12214" lon="1.7903">
        <ele>347.7</ele>
        <time>2018-01-24T13:22:46Z</time>
      </trkpt>
      <trkpt lat="44.12221" lon="1.79022">
        <ele>347.9</ele>
        <time>2018-01-24T13:22:49Z</time>
      </trkpt>
      <trkpt lat="44.12226" lon="1.79015">
        <ele>348.4</ele>
        <time>2018-01-24T13:22:52Z</time>
      </trkpt>
      <trkpt lat="44.12233" lon="1.79011">
        <ele>348</ele>
        <time>2018-01-24T13:22:55Z</time>
      </trkpt>
      <trkpt lat="44.1224" lon="1.79006">
        <ele>346.7</ele>
        <time>2018-01-24T13:22:59Z</time>
      </trkpt>
      <trkpt lat="44.12244" lon="1.78997">
        <ele>345.7</ele>
        <time>2018-01-24T13:23:05Z</time>
      </trkpt>
      <trkpt lat="44.12249" lon="1.78988">
        <ele>344.8</ele>
        <time>2018-01-24T13:23:11Z</time>
      </trkpt>
      <trkpt lat="44.12254" lon="1.78977">
        <ele>343.4</ele>
        <time>2018-01-24T13:23:16Z</time>
      </trkpt>
      <trkpt lat="44.12259" lon="1.78967">
        <ele>342.9</ele>
        <time>2018-01-24T13:23:20Z</time>
      </trkpt>
      <trkpt lat="44.12265" lon="1.78959">
        <ele>342.4</ele>
        <time>2018-01-24T13:23:23Z</time>
      </trkpt>
      <trkpt lat="44.12271" lon="1.78948">
        <ele>341.9</ele>
        <time>2018-01-24T13:23:26Z</time>
      </trkpt>
      <trkpt lat="44.12277" lon="1.78938">
        <ele>341.2</ele>
        <time>2018-01-24T13:23:29Z</time>
      </trkpt>
      <trkpt lat="44.12283" lon="1.78928">
        <ele>340.9</ele>
        <time>2018-01-24T13:23:32Z</time>
      </trkpt>
      <trkpt lat="44.1229" lon="1.78918">
        <ele>340.4</ele>
        <time>2018-01-24T13:23:35Z</time>
      </trkpt>
      <trkpt lat="44.12297" lon="1.78908">
        <ele>339.8</ele>
        <time>2018-01-24T13:23:38Z</time>
      </trkpt>
      <trkpt lat="44.12302" lon="1.78898">
        <ele>338.9</ele>
        <time>2018-01-24T13:23:41Z</time>
      </trkpt>
      <trkpt lat="44.12309" lon="1.78888">
        <ele>338</ele>
        <time>2018-01-24T13:23:44Z</time>
      </trkpt>
      <trkpt lat="44.12315" lon="1.78879">
        <ele>336.7</ele>
        <time>2018-01-24T13:23:47Z</time>
      </trkpt>
      <trkpt lat="44.1232" lon="1.7887">
        <ele>335.4</ele>
        <time>2018-01-24T13:23:50Z</time>
      </trkpt>
      <trkpt lat="44.12324" lon="1.7886">
        <ele>333.8</ele>
        <time>2018-01-24T13:23:53Z</time>
      </trkpt>
      <trkpt lat="44.12329" lon="1.78851">
        <ele>334</ele>
        <time>2018-01-24T13:23:56Z</time>
      </trkpt>
      <trkpt lat="44.12335" lon="1.78843">
        <ele>333.2</ele>
        <time>2018-01-24T13:23:59Z</time>
      </trkpt>
      <trkpt lat="44.12342" lon="1.78834">
        <ele>333.4</ele>
        <time>2018-01-24T13:24:02Z</time>
      </trkpt>
      <trkpt lat="44.12348" lon="1.78822">
        <ele>332.1</ele>
        <time>2018-01-24T13:24:05Z</time>
      </trkpt>
      <trkpt lat="44.12353" lon="1.78814">
        <ele>332</ele>
        <time>2018-01-24T13:24:07Z</time>
      </trkpt>
      <trkpt lat="44.12357" lon="1.78806">
        <ele>332</ele>
        <time>2018-01-24T13:24:09Z</time>
      </trkpt>
      <trkpt lat="44.12363" lon="1.78794">
        <ele>331.8</ele>
        <time>2018-01-24T13:24:12Z</time>
      </trkpt>
      <trkpt lat="44.12368" lon="1.78786">
        <ele>331.8</ele>
        <time>2018-01-24T13:24:14Z</time>
      </trkpt>
      <trkpt lat="44.12372" lon="1.78777">
        <ele>331.8</ele>
        <time>2018-01-24T13:24:16Z</time>
      </trkpt>
      <trkpt lat="44.12376" lon="1.78768">
        <ele>331.5</ele>
        <time>2018-01-24T13:24:18Z</time>
      </trkpt>
      <trkpt lat="44.1238" lon="1.78759">
        <ele>331.2</ele>
        <time>2018-01-24T13:24:20Z</time>
      </trkpt>
      <trkpt lat="44.12386" lon="1.78749">
        <ele>330.7</ele>
        <time>2018-01-24T13:24:23Z</time>
      </trkpt>
      <trkpt lat="44.12393" lon="1.78737">
        <ele>330.1</ele>
        <time>2018-01-24T13:24:26Z</time>
      </trkpt>
      <trkpt lat="44.12397" lon="1.78728">
        <ele>329.4</ele>
        <time>2018-01-24T13:24:28Z</time>
      </trkpt>
      <trkpt lat="44.12404" lon="1.78717">
        <ele>328.1</ele>
        <time>2018-01-24T13:24:31Z</time>
      </trkpt>
      <trkpt lat="44.12409" lon="1.78706">
        <ele>327.7</ele>
        <time>2018-01-24T13:24:34Z</time>
      </trkpt>
      <trkpt lat="44.12415" lon="1.78695">
        <ele>327</ele>
        <time>2018-01-24T13:24:37Z</time>
      </trkpt>
      <trkpt lat="44.12423" lon="1.78683">
        <ele>325.6</ele>
        <time>2018-01-24T13:24:40Z</time>
      </trkpt>
      <trkpt lat="44.12429" lon="1.78672">
        <ele>325.6</ele>
        <time>2018-01-24T13:24:43Z</time>
      </trkpt>
      <trkpt lat="44.12435" lon="1.78661">
        <ele>325.1</ele>
        <time>2018-01-24T13:24:46Z</time>
      </trkpt>
      <trkpt lat="44.1244" lon="1.78651">
        <ele>324.6</ele>
        <time>2018-01-24T13:24:49Z</time>
      </trkpt>
      <trkpt lat="44.12442" lon="1.78641">
        <ele>324.4</ele>
        <time>2018-01-24T13:24:55Z</time>
      </trkpt>
      <trkpt lat="44.12441" lon="1.78635">
        <ele>325.4</ele>
        <time>2018-01-24T13:25:02Z</time>
      </trkpt>
      <trkpt lat="44.12441" lon="1.78625">
        <ele>324.9</ele>
        <time>2018-01-24T13:25:07Z</time>
      </trkpt>
      <trkpt lat="44.12439" lon="1.78619">
        <ele>323.4</ele>
        <time>2018-01-24T13:25:14Z</time>
      </trkpt>
      <trkpt lat="44.1244" lon="1.78607">
        <ele>325.2</ele>
        <time>2018-01-24T13:28:14Z</time>
      </trkpt>
      <trkpt lat="44.12443" lon="1.78594">
        <ele>325.5</ele>
        <time>2018-01-24T13:28:18Z</time>
      </trkpt>
      <trkpt lat="44.12446" lon="1.78583">
        <ele>325.8</ele>
        <time>2018-01-24T13:28:22Z</time>
      </trkpt>
      <trkpt lat="44.12447" lon="1.78571">
        <ele>326</ele>
        <time>2018-01-24T13:28:25Z</time>
      </trkpt>
      <trkpt lat="44.12452" lon="1.78561">
        <ele>326.1</ele>
        <time>2018-01-24T13:28:28Z</time>
      </trkpt>
      <trkpt lat="44.12454" lon="1.7855">
        <ele>326.8</ele>
        <time>2018-01-24T13:28:31Z</time>
      </trkpt>
      <trkpt lat="44.12456" lon="1.78539">
        <ele>328.5</ele>
        <time>2018-01-24T13:28:34Z</time>
      </trkpt>
      <trkpt lat="44.12459" lon="1.78526">
        <ele>329.6</ele>
        <time>2018-01-24T13:28:37Z</time>
      </trkpt>
      <trkpt lat="44.12462" lon="1.78516">
        <ele>330.5</ele>
        <time>2018-01-24T13:28:40Z</time>
      </trkpt>
      <trkpt lat="44.12465" lon="1.78505">
        <ele>331.3</ele>
        <time>2018-01-24T13:28:43Z</time>
      </trkpt>
      <trkpt lat="44.12466" lon="1.78492">
        <ele>331.7</ele>
        <time>2018-01-24T13:28:47Z</time>
      </trkpt>
      <trkpt lat="44.12468" lon="1.78482">
        <ele>332.3</ele>
        <time>2018-01-24T13:28:51Z</time>
      </trkpt>
      <trkpt lat="44.12469" lon="1.78468">
        <ele>331.9</ele>
        <time>2018-01-24T13:28:55Z</time>
      </trkpt>
      <trkpt lat="44.12469" lon="1.78458">
        <ele>332.3</ele>
        <time>2018-01-24T13:28:58Z</time>
      </trkpt>
      <trkpt lat="44.12471" lon="1.78447">
        <ele>332.6</ele>
        <time>2018-01-24T13:29:01Z</time>
      </trkpt>
      <trkpt lat="44.12469" lon="1.78437">
        <ele>333.1</ele>
        <time>2018-01-24T13:29:04Z</time>
      </trkpt>
      <trkpt lat="44.12463" lon="1.78431">
        <ele>333.6</ele>
        <time>2018-01-24T13:29:08Z</time>
      </trkpt>
      <trkpt lat="44.12457" lon="1.78427">
        <ele>333.4</ele>
        <time>2018-01-24T13:29:11Z</time>
      </trkpt>
      <trkpt lat="44.12447" lon="1.7842">
        <ele>333.3</ele>
        <time>2018-01-24T13:29:14Z</time>
      </trkpt>
      <trkpt lat="44.12438" lon="1.78414">
        <ele>332.7</ele>
        <time>2018-01-24T13:29:17Z</time>
      </trkpt>
      <trkpt lat="44.1243" lon="1.78405">
        <ele>332.6</ele>
        <time>2018-01-24T13:29:20Z</time>
      </trkpt>
      <trkpt lat="44.12423" lon="1.78398">
        <ele>332.4</ele>
        <time>2018-01-24T13:29:23Z</time>
      </trkpt>
      <trkpt lat="44.12416" lon="1.7839">
        <ele>332.4</ele>
        <time>2018-01-24T13:29:26Z</time>
      </trkpt>
      <trkpt lat="44.12407" lon="1.78382">
        <ele>332</ele>
        <time>2018-01-24T13:29:29Z</time>
      </trkpt>
      <trkpt lat="44.12398" lon="1.78374">
        <ele>331.8</ele>
        <time>2018-01-24T13:29:32Z</time>
      </trkpt>
      <trkpt lat="44.1239" lon="1.78368">
        <ele>331.7</ele>
        <time>2018-01-24T13:29:35Z</time>
      </trkpt>
      <trkpt lat="44.12382" lon="1.7836">
        <ele>331.6</ele>
        <time>2018-01-24T13:29:38Z</time>
      </trkpt>
      <trkpt lat="44.12374" lon="1.78351">
        <ele>331.3</ele>
        <time>2018-01-24T13:29:41Z</time>
      </trkpt>
      <trkpt lat="44.12367" lon="1.78343">
        <ele>331</ele>
        <time>2018-01-24T13:29:44Z</time>
      </trkpt>
      <trkpt lat="44.1236" lon="1.78334">
        <ele>330.6</ele>
        <time>2018-01-24T13:29:47Z</time>
      </trkpt>
      <trkpt lat="44.12354" lon="1.78328">
        <ele>330.4</ele>
        <time>2018-01-24T13:29:49Z</time>
      </trkpt>
      <trkpt lat="44.12349" lon="1.78319">
        <ele>330.3</ele>
        <time>2018-01-24T13:29:51Z</time>
      </trkpt>
      <trkpt lat="44.12344" lon="1.78309">
        <ele>330.2</ele>
        <time>2018-01-24T13:29:53Z</time>
      </trkpt>
      <trkpt lat="44.1234" lon="1.78301">
        <ele>330.1</ele>
        <time>2018-01-24T13:29:55Z</time>
      </trkpt>
      <trkpt lat="44.12333" lon="1.7829">
        <ele>329.8</ele>
        <time>2018-01-24T13:29:58Z</time>
      </trkpt>
      <trkpt lat="44.12326" lon="1.78282">
        <ele>328.8</ele>
        <time>2018-01-24T13:30:01Z</time>
      </trkpt>
      <trkpt lat="44.12317" lon="1.78278">
        <ele>327.7</ele>
        <time>2018-01-24T13:30:05Z</time>
      </trkpt>
      <trkpt lat="44.1231" lon="1.78269">
        <ele>327.5</ele>
        <time>2018-01-24T13:30:08Z</time>
      </trkpt>
      <trkpt lat="44.12302" lon="1.78261">
        <ele>326.5</ele>
        <time>2018-01-24T13:30:11Z</time>
      </trkpt>
      <trkpt lat="44.12297" lon="1.78253">
        <ele>326</ele>
        <time>2018-01-24T13:30:14Z</time>
      </trkpt>
      <trkpt lat="44.12291" lon="1.78247">
        <ele>325.3</ele>
        <time>2018-01-24T13:30:17Z</time>
      </trkpt>
      <trkpt lat="44.12284" lon="1.78239">
        <ele>324.9</ele>
        <time>2018-01-24T13:30:20Z</time>
      </trkpt>
      <trkpt lat="44.12276" lon="1.78231">
        <ele>324.7</ele>
        <time>2018-01-24T13:30:23Z</time>
      </trkpt>
      <trkpt lat="44.1227" lon="1.78225">
        <ele>324.6</ele>
        <time>2018-01-24T13:30:25Z</time>
      </trkpt>
      <trkpt lat="44.12263" lon="1.7822">
        <ele>324.7</ele>
        <time>2018-01-24T13:30:27Z</time>
      </trkpt>
      <trkpt lat="44.12256" lon="1.78216">
        <ele>324.5</ele>
        <time>2018-01-24T13:30:29Z</time>
      </trkpt>
      <trkpt lat="44.12249" lon="1.78212">
        <ele>324.2</ele>
        <time>2018-01-24T13:30:31Z</time>
      </trkpt>
      <trkpt lat="44.1224" lon="1.78207">
        <ele>324</ele>
        <time>2018-01-24T13:30:34Z</time>
      </trkpt>
      <trkpt lat="44.12232" lon="1.78203">
        <ele>323.9</ele>
        <time>2018-01-24T13:30:38Z</time>
      </trkpt>
      <trkpt lat="44.12225" lon="1.78202">
        <ele>323.6</ele>
        <time>2018-01-24T13:30:41Z</time>
      </trkpt>
      <trkpt lat="44.12216" lon="1.78199">
        <ele>323.8</ele>
        <time>2018-01-24T13:30:44Z</time>
      </trkpt>
      <trkpt lat="44.12207" lon="1.78197">
        <ele>323.3</ele>
        <time>2018-01-24T13:30:47Z</time>
      </trkpt>
      <trkpt lat="44.12198" lon="1.78197">
        <ele>322.5</ele>
        <time>2018-01-24T13:30:50Z</time>
      </trkpt>
      <trkpt lat="44.12189" lon="1.78195">
        <ele>321.4</ele>
        <time>2018-01-24T13:30:53Z</time>
      </trkpt>
      <trkpt lat="44.12183" lon="1.7819">
        <ele>322</ele>
        <time>2018-01-24T13:30:56Z</time>
      </trkpt>
      <trkpt lat="44.12174" lon="1.78186">
        <ele>322.6</ele>
        <time>2018-01-24T13:31:00Z</time>
      </trkpt>
      <trkpt lat="44.12167" lon="1.78181">
        <ele>323</ele>
        <time>2018-01-24T13:31:04Z</time>
      </trkpt>
      <trkpt lat="44.1216" lon="1.78176">
        <ele>324</ele>
        <time>2018-01-24T13:31:08Z</time>
      </trkpt>
      <trkpt lat="44.12151" lon="1.78171">
        <ele>324.3</ele>
        <time>2018-01-24T13:31:12Z</time>
      </trkpt>
      <trkpt lat="44.12143" lon="1.78167">
        <ele>325.2</ele>
        <time>2018-01-24T13:31:16Z</time>
      </trkpt>
      <trkpt lat="44.12134" lon="1.78162">
        <ele>325.7</ele>
        <time>2018-01-24T13:31:20Z</time>
      </trkpt>
      <trkpt lat="44.12127" lon="1.78157">
        <ele>326.2</ele>
        <time>2018-01-24T13:31:23Z</time>
      </trkpt>
      <trkpt lat="44.12119" lon="1.78152">
        <ele>326.6</ele>
        <time>2018-01-24T13:31:27Z</time>
      </trkpt>
      <trkpt lat="44.12112" lon="1.78145">
        <ele>326.7</ele>
        <time>2018-01-24T13:31:30Z</time>
      </trkpt>
      <trkpt lat="44.12105" lon="1.78141">
        <ele>326.4</ele>
        <time>2018-01-24T13:31:33Z</time>
      </trkpt>
      <trkpt lat="44.12098" lon="1.78136">
        <ele>328.8</ele>
        <time>2018-01-24T13:31:37Z</time>
      </trkpt>
      <trkpt lat="44.1209" lon="1.78129">
        <ele>329.3</ele>
        <time>2018-01-24T13:31:40Z</time>
      </trkpt>
      <trkpt lat="44.1208" lon="1.78123">
        <ele>329.9</ele>
        <time>2018-01-24T13:31:43Z</time>
      </trkpt>
      <trkpt lat="44.12072" lon="1.78115">
        <ele>330</ele>
        <time>2018-01-24T13:31:46Z</time>
      </trkpt>
      <trkpt lat="44.12065" lon="1.78107">
        <ele>330</ele>
        <time>2018-01-24T13:31:49Z</time>
      </trkpt>
      <trkpt lat="44.12057" lon="1.78099">
        <ele>331.4</ele>
        <time>2018-01-24T13:31:52Z</time>
      </trkpt>
      <trkpt lat="44.1205" lon="1.78092">
        <ele>331.1</ele>
        <time>2018-01-24T13:31:54Z</time>
      </trkpt>
      <trkpt lat="44.12043" lon="1.78087">
        <ele>330.4</ele>
        <time>2018-01-24T13:31:56Z</time>
      </trkpt>
      <trkpt lat="44.12038" lon="1.78078">
        <ele>329.8</ele>
        <time>2018-01-24T13:31:58Z</time>
      </trkpt>
      <trkpt lat="44.12033" lon="1.78071">
        <ele>329</ele>
        <time>2018-01-24T13:32:00Z</time>
      </trkpt>
      <trkpt lat="44.12027" lon="1.78064">
        <ele>328</ele>
        <time>2018-01-24T13:32:02Z</time>
      </trkpt>
      <trkpt lat="44.1202" lon="1.78054">
        <ele>327.5</ele>
        <time>2018-01-24T13:32:04Z</time>
      </trkpt>
      <trkpt lat="44.12013" lon="1.78045">
        <ele>326.7</ele>
        <time>2018-01-24T13:32:06Z</time>
      </trkpt>
      <trkpt lat="44.12006" lon="1.78036">
        <ele>326.4</ele>
        <time>2018-01-24T13:32:08Z</time>
      </trkpt>
      <trkpt lat="44.11999" lon="1.78026">
        <ele>326.3</ele>
        <time>2018-01-24T13:32:10Z</time>
      </trkpt>
      <trkpt lat="44.11992" lon="1.78017">
        <ele>326</ele>
        <time>2018-01-24T13:32:12Z</time>
      </trkpt>
      <trkpt lat="44.11987" lon="1.78009">
        <ele>325.5</ele>
        <time>2018-01-24T13:32:14Z</time>
      </trkpt>
      <trkpt lat="44.11981" lon="1.78001">
        <ele>325.6</ele>
        <time>2018-01-24T13:32:16Z</time>
      </trkpt>
      <trkpt lat="44.11974" lon="1.77993">
        <ele>324.8</ele>
        <time>2018-01-24T13:32:18Z</time>
      </trkpt>
      <trkpt lat="44.11969" lon="1.77986">
        <ele>324.1</ele>
        <time>2018-01-24T13:32:20Z</time>
      </trkpt>
      <trkpt lat="44.11963" lon="1.77976">
        <ele>323.1</ele>
        <time>2018-01-24T13:32:22Z</time>
      </trkpt>
      <trkpt lat="44.11958" lon="1.77968">
        <ele>322.4</ele>
        <time>2018-01-24T13:32:24Z</time>
      </trkpt>
      <trkpt lat="44.11952" lon="1.77959">
        <ele>321.7</ele>
        <time>2018-01-24T13:32:26Z</time>
      </trkpt>
      <trkpt lat="44.11945" lon="1.77951">
        <ele>321.1</ele>
        <time>2018-01-24T13:32:28Z</time>
      </trkpt>
      <trkpt lat="44.11939" lon="1.77943">
        <ele>320.6</ele>
        <time>2018-01-24T13:32:30Z</time>
      </trkpt>
      <trkpt lat="44.11932" lon="1.77936">
        <ele>320.1</ele>
        <time>2018-01-24T13:32:32Z</time>
      </trkpt>
      <trkpt lat="44.11926" lon="1.77927">
        <ele>319.7</ele>
        <time>2018-01-24T13:32:34Z</time>
      </trkpt>
      <trkpt lat="44.11921" lon="1.7792">
        <ele>318.9</ele>
        <time>2018-01-24T13:32:36Z</time>
      </trkpt>
      <trkpt lat="44.11915" lon="1.7791">
        <ele>318.2</ele>
        <time>2018-01-24T13:32:39Z</time>
      </trkpt>
      <trkpt lat="44.11908" lon="1.77902">
        <ele>317.9</ele>
        <time>2018-01-24T13:32:42Z</time>
      </trkpt>
      <trkpt lat="44.11902" lon="1.77894">
        <ele>318</ele>
        <time>2018-01-24T13:32:44Z</time>
      </trkpt>
      <trkpt lat="44.11895" lon="1.7789">
        <ele>318.1</ele>
        <time>2018-01-24T13:32:46Z</time>
      </trkpt>
      <trkpt lat="44.11889" lon="1.77885">
        <ele>317.9</ele>
        <time>2018-01-24T13:32:48Z</time>
      </trkpt>
      <trkpt lat="44.11882" lon="1.77879">
        <ele>317.8</ele>
        <time>2018-01-24T13:32:49Z</time>
      </trkpt>
      <trkpt lat="44.11876" lon="1.77874">
        <ele>317.2</ele>
        <time>2018-01-24T13:32:51Z</time>
      </trkpt>
      <trkpt lat="44.1187" lon="1.77868">
        <ele>317.1</ele>
        <time>2018-01-24T13:32:53Z</time>
      </trkpt>
      <trkpt lat="44.11862" lon="1.7786">
        <ele>316.4</ele>
        <time>2018-01-24T13:32:56Z</time>
      </trkpt>
      <trkpt lat="44.11855" lon="1.77854">
        <ele>315.6</ele>
        <time>2018-01-24T13:32:59Z</time>
      </trkpt>
      <trkpt lat="44.11847" lon="1.77851">
        <ele>314.3</ele>
        <time>2018-01-24T13:33:03Z</time>
      </trkpt>
      <trkpt lat="44.11839" lon="1.77848">
        <ele>313.7</ele>
        <time>2018-01-24T13:33:05Z</time>
      </trkpt>
      <trkpt lat="44.11832" lon="1.77845">
        <ele>312.8</ele>
        <time>2018-01-24T13:33:07Z</time>
      </trkpt>
      <trkpt lat="44.11825" lon="1.77841">
        <ele>312.4</ele>
        <time>2018-01-24T13:33:09Z</time>
      </trkpt>
      <trkpt lat="44.11818" lon="1.77838">
        <ele>312</ele>
        <time>2018-01-24T13:33:11Z</time>
      </trkpt>
      <trkpt lat="44.11811" lon="1.77835">
        <ele>311.2</ele>
        <time>2018-01-24T13:33:13Z</time>
      </trkpt>
      <trkpt lat="44.11804" lon="1.77831">
        <ele>311.1</ele>
        <time>2018-01-24T13:33:15Z</time>
      </trkpt>
      <trkpt lat="44.11795" lon="1.77822">
        <ele>311.9</ele>
        <time>2018-01-24T13:33:18Z</time>
      </trkpt>
      <trkpt lat="44.11789" lon="1.77818">
        <ele>312.3</ele>
        <time>2018-01-24T13:33:20Z</time>
      </trkpt>
      <trkpt lat="44.11782" lon="1.77812">
        <ele>313.4</ele>
        <time>2018-01-24T13:33:23Z</time>
      </trkpt>
      <trkpt lat="44.11772" lon="1.77809">
        <ele>314.5</ele>
        <time>2018-01-24T13:33:26Z</time>
      </trkpt>
      <trkpt lat="44.11765" lon="1.77805">
        <ele>315.2</ele>
        <time>2018-01-24T13:33:28Z</time>
      </trkpt>
      <trkpt lat="44.11756" lon="1.778">
        <ele>316.4</ele>
        <time>2018-01-24T13:33:31Z</time>
      </trkpt>
      <trkpt lat="44.11749" lon="1.77797">
        <ele>318.2</ele>
        <time>2018-01-24T13:33:35Z</time>
      </trkpt>
      <trkpt lat="44.11743" lon="1.7779">
        <ele>318.3</ele>
        <time>2018-01-24T13:33:40Z</time>
      </trkpt>
      <trkpt lat="44.11742" lon="1.77778">
        <ele>319</ele>
        <time>2018-01-24T13:33:45Z</time>
      </trkpt>
      <trkpt lat="44.11736" lon="1.7777">
        <ele>318.4</ele>
        <time>2018-01-24T13:33:49Z</time>
      </trkpt>
      <trkpt lat="44.11727" lon="1.77766">
        <ele>318.3</ele>
        <time>2018-01-24T13:33:53Z</time>
      </trkpt>
      <trkpt lat="44.11719" lon="1.77761">
        <ele>318.7</ele>
        <time>2018-01-24T13:33:56Z</time>
      </trkpt>
      <trkpt lat="44.11711" lon="1.77759">
        <ele>318.8</ele>
        <time>2018-01-24T13:33:59Z</time>
      </trkpt>
      <trkpt lat="44.11703" lon="1.77757">
        <ele>319.2</ele>
        <time>2018-01-24T13:34:02Z</time>
      </trkpt>
      <trkpt lat="44.11695" lon="1.77753">
        <ele>319.9</ele>
        <time>2018-01-24T13:34:05Z</time>
      </trkpt>
      <trkpt lat="44.11687" lon="1.7775">
        <ele>319.9</ele>
        <time>2018-01-24T13:34:09Z</time>
      </trkpt>
      <trkpt lat="44.11678" lon="1.77745">
        <ele>320.4</ele>
        <time>2018-01-24T13:34:13Z</time>
      </trkpt>
      <trkpt lat="44.1167" lon="1.77741">
        <ele>319.8</ele>
        <time>2018-01-24T13:34:16Z</time>
      </trkpt>
      <trkpt lat="44.1166" lon="1.77737">
        <ele>320.1</ele>
        <time>2018-01-24T13:34:20Z</time>
      </trkpt>
      <trkpt lat="44.11655" lon="1.77731">
        <ele>320.6</ele>
        <time>2018-01-24T13:34:23Z</time>
      </trkpt>
      <trkpt lat="44.11648" lon="1.77726">
        <ele>320.8</ele>
        <time>2018-01-24T13:34:26Z</time>
      </trkpt>
      <trkpt lat="44.1164" lon="1.77721">
        <ele>321.3</ele>
        <time>2018-01-24T13:34:30Z</time>
      </trkpt>
      <trkpt lat="44.11632" lon="1.77712">
        <ele>323.1</ele>
        <time>2018-01-24T13:34:33Z</time>
      </trkpt>
      <trkpt lat="44.11626" lon="1.77704">
        <ele>324.1</ele>
        <time>2018-01-24T13:34:36Z</time>
      </trkpt>
      <trkpt lat="44.1162" lon="1.77694">
        <ele>324.6</ele>
        <time>2018-01-24T13:34:39Z</time>
      </trkpt>
      <trkpt lat="44.11615" lon="1.77683">
        <ele>325</ele>
        <time>2018-01-24T13:34:42Z</time>
      </trkpt>
      <trkpt lat="44.11609" lon="1.77673">
        <ele>325.2</ele>
        <time>2018-01-24T13:34:45Z</time>
      </trkpt>
      <trkpt lat="44.11605" lon="1.77664">
        <ele>325.4</ele>
        <time>2018-01-24T13:34:47Z</time>
      </trkpt>
      <trkpt lat="44.11605" lon="1.77651">
        <ele>325.6</ele>
        <time>2018-01-24T13:34:49Z</time>
      </trkpt>
      <trkpt lat="44.11604" lon="1.77639">
        <ele>325.7</ele>
        <time>2018-01-24T13:34:51Z</time>
      </trkpt>
      <trkpt lat="44.11604" lon="1.77624">
        <ele>326</ele>
        <time>2018-01-24T13:34:53Z</time>
      </trkpt>
      <trkpt lat="44.11604" lon="1.77611">
        <ele>326.3</ele>
        <time>2018-01-24T13:34:55Z</time>
      </trkpt>
      <trkpt lat="44.11605" lon="1.776">
        <ele>326.3</ele>
        <time>2018-01-24T13:34:57Z</time>
      </trkpt>
      <trkpt lat="44.11603" lon="1.77588">
        <ele>325.7</ele>
        <time>2018-01-24T13:34:59Z</time>
      </trkpt>
      <trkpt lat="44.11602" lon="1.77575">
        <ele>325.4</ele>
        <time>2018-01-24T13:35:01Z</time>
      </trkpt>
      <trkpt lat="44.116" lon="1.77563">
        <ele>325.5</ele>
        <time>2018-01-24T13:35:03Z</time>
      </trkpt>
      <trkpt lat="44.11601" lon="1.77549">
        <ele>325.9</ele>
        <time>2018-01-24T13:35:06Z</time>
      </trkpt>
      <trkpt lat="44.11604" lon="1.77539">
        <ele>326.4</ele>
        <time>2018-01-24T13:35:08Z</time>
      </trkpt>
      <trkpt lat="44.11609" lon="1.77526">
        <ele>326.9</ele>
        <time>2018-01-24T13:35:11Z</time>
      </trkpt>
      <trkpt lat="44.11611" lon="1.77515">
        <ele>327.3</ele>
        <time>2018-01-24T13:35:14Z</time>
      </trkpt>
      <trkpt lat="44.11611" lon="1.77502">
        <ele>327.6</ele>
        <time>2018-01-24T13:35:17Z</time>
      </trkpt>
      <trkpt lat="44.11609" lon="1.7749">
        <ele>327.5</ele>
        <time>2018-01-24T13:35:20Z</time>
      </trkpt>
      <trkpt lat="44.11604" lon="1.77478">
        <ele>326.9</ele>
        <time>2018-01-24T13:35:23Z</time>
      </trkpt>
      <trkpt lat="44.11602" lon="1.77465">
        <ele>326.7</ele>
        <time>2018-01-24T13:35:26Z</time>
      </trkpt>
      <trkpt lat="44.11596" lon="1.77456">
        <ele>325.7</ele>
        <time>2018-01-24T13:35:30Z</time>
      </trkpt>
      <trkpt lat="44.11589" lon="1.77446">
        <ele>325.6</ele>
        <time>2018-01-24T13:35:33Z</time>
      </trkpt>
      <trkpt lat="44.11583" lon="1.7744">
        <ele>325.3</ele>
        <time>2018-01-24T13:35:35Z</time>
      </trkpt>
      <trkpt lat="44.11579" lon="1.7743">
        <ele>324.8</ele>
        <time>2018-01-24T13:35:38Z</time>
      </trkpt>
      <trkpt lat="44.11575" lon="1.7742">
        <ele>324.3</ele>
        <time>2018-01-24T13:35:41Z</time>
      </trkpt>
      <trkpt lat="44.11571" lon="1.77411">
        <ele>324</ele>
        <time>2018-01-24T13:35:44Z</time>
      </trkpt>
      <trkpt lat="44.11567" lon="1.77401">
        <ele>323.9</ele>
        <time>2018-01-24T13:35:47Z</time>
      </trkpt>
      <trkpt lat="44.1157" lon="1.77389">
        <ele>324.8</ele>
        <time>2018-01-24T13:35:50Z</time>
      </trkpt>
      <trkpt lat="44.11574" lon="1.77379">
        <ele>324.7</ele>
        <time>2018-01-24T13:35:53Z</time>
      </trkpt>
      <trkpt lat="44.11571" lon="1.7737">
        <ele>324.1</ele>
        <time>2018-01-24T13:35:58Z</time>
      </trkpt>
      <trkpt lat="44.11565" lon="1.77362">
        <ele>324.2</ele>
        <time>2018-01-24T13:36:01Z</time>
      </trkpt>
      <trkpt lat="44.11559" lon="1.77354">
        <ele>324.4</ele>
        <time>2018-01-24T13:36:04Z</time>
      </trkpt>
      <trkpt lat="44.11552" lon="1.77346">
        <ele>324.4</ele>
        <time>2018-01-24T13:36:07Z</time>
      </trkpt>
      <trkpt lat="44.11544" lon="1.77341">
        <ele>324.7</ele>
        <time>2018-01-24T13:36:10Z</time>
      </trkpt>
      <trkpt lat="44.11537" lon="1.77336">
        <ele>324.7</ele>
        <time>2018-01-24T13:36:13Z</time>
      </trkpt>
      <trkpt lat="44.11529" lon="1.77334">
        <ele>324.7</ele>
        <time>2018-01-24T13:36:16Z</time>
      </trkpt>
      <trkpt lat="44.1152" lon="1.77329">
        <ele>324.1</ele>
        <time>2018-01-24T13:36:19Z</time>
      </trkpt>
      <trkpt lat="44.11512" lon="1.77326">
        <ele>323.5</ele>
        <time>2018-01-24T13:36:22Z</time>
      </trkpt>
      <trkpt lat="44.11502" lon="1.77322">
        <ele>322.9</ele>
        <time>2018-01-24T13:36:25Z</time>
      </trkpt>
      <trkpt lat="44.11494" lon="1.7732">
        <ele>322.7</ele>
        <time>2018-01-24T13:36:28Z</time>
      </trkpt>
      <trkpt lat="44.11487" lon="1.77318">
        <ele>320.9</ele>
        <time>2018-01-24T13:36:31Z</time>
      </trkpt>
      <trkpt lat="44.11477" lon="1.77315">
        <ele>320.8</ele>
        <time>2018-01-24T13:36:36Z</time>
      </trkpt>
      <trkpt lat="44.11469" lon="1.77312">
        <ele>320.1</ele>
        <time>2018-01-24T13:36:40Z</time>
      </trkpt>
      <trkpt lat="44.11462" lon="1.7731">
        <ele>320.1</ele>
        <time>2018-01-24T13:36:43Z</time>
      </trkpt>
      <trkpt lat="44.11453" lon="1.77306">
        <ele>319.9</ele>
        <time>2018-01-24T13:36:46Z</time>
      </trkpt>
      <trkpt lat="44.11444" lon="1.77302">
        <ele>319.2</ele>
        <time>2018-01-24T13:36:49Z</time>
      </trkpt>
      <trkpt lat="44.11436" lon="1.77298">
        <ele>318.6</ele>
        <time>2018-01-24T13:36:53Z</time>
      </trkpt>
      <trkpt lat="44.11428" lon="1.77295">
        <ele>318</ele>
        <time>2018-01-24T13:36:58Z</time>
      </trkpt>
      <trkpt lat="44.11418" lon="1.77291">
        <ele>317.4</ele>
        <time>2018-01-24T13:37:02Z</time>
      </trkpt>
      <trkpt lat="44.1141" lon="1.77288">
        <ele>316.1</ele>
        <time>2018-01-24T13:37:05Z</time>
      </trkpt>
      <trkpt lat="44.11403" lon="1.77285">
        <ele>315.5</ele>
        <time>2018-01-24T13:37:08Z</time>
      </trkpt>
      <trkpt lat="44.11396" lon="1.77283">
        <ele>314.6</ele>
        <time>2018-01-24T13:37:11Z</time>
      </trkpt>
      <trkpt lat="44.11388" lon="1.77278">
        <ele>313.2</ele>
        <time>2018-01-24T13:37:14Z</time>
      </trkpt>
      <trkpt lat="44.11379" lon="1.77275">
        <ele>312.5</ele>
        <time>2018-01-24T13:37:17Z</time>
      </trkpt>
      <trkpt lat="44.1137" lon="1.77271">
        <ele>312.2</ele>
        <time>2018-01-24T13:37:20Z</time>
      </trkpt>
      <trkpt lat="44.11362" lon="1.77268">
        <ele>311.9</ele>
        <time>2018-01-24T13:37:23Z</time>
      </trkpt>
      <trkpt lat="44.11354" lon="1.77265">
        <ele>311.6</ele>
        <time>2018-01-24T13:37:26Z</time>
      </trkpt>
      <trkpt lat="44.11345" lon="1.77262">
        <ele>311.3</ele>
        <time>2018-01-24T13:37:30Z</time>
      </trkpt>
      <trkpt lat="44.11337" lon="1.77257">
        <ele>311</ele>
        <time>2018-01-24T13:37:34Z</time>
      </trkpt>
      <trkpt lat="44.11329" lon="1.77253">
        <ele>310</ele>
        <time>2018-01-24T13:37:37Z</time>
      </trkpt>
      <trkpt lat="44.1132" lon="1.77248">
        <ele>308.7</ele>
        <time>2018-01-24T13:37:40Z</time>
      </trkpt>
      <trkpt lat="44.11312" lon="1.77244">
        <ele>308.2</ele>
        <time>2018-01-24T13:37:43Z</time>
      </trkpt>
      <trkpt lat="44.11306" lon="1.77237">
        <ele>309.7</ele>
        <time>2018-01-24T13:37:47Z</time>
      </trkpt>
      <trkpt lat="44.11303" lon="1.77227">
        <ele>310.7</ele>
        <time>2018-01-24T13:37:51Z</time>
      </trkpt>
      <trkpt lat="44.11303" lon="1.77214">
        <ele>310.5</ele>
        <time>2018-01-24T13:37:55Z</time>
      </trkpt>
      <trkpt lat="44.11302" lon="1.77203">
        <ele>309.7</ele>
        <time>2018-01-24T13:37:58Z</time>
      </trkpt>
      <trkpt lat="44.11298" lon="1.77193">
        <ele>308.9</ele>
        <time>2018-01-24T13:38:01Z</time>
      </trkpt>
      <trkpt lat="44.11295" lon="1.77182">
        <ele>309.1</ele>
        <time>2018-01-24T13:38:04Z</time>
      </trkpt>
      <trkpt lat="44.11294" lon="1.7717">
        <ele>308.5</ele>
        <time>2018-01-24T13:38:07Z</time>
      </trkpt>
      <trkpt lat="44.11293" lon="1.77159">
        <ele>307.8</ele>
        <time>2018-01-24T13:38:10Z</time>
      </trkpt>
      <trkpt lat="44.11291" lon="1.7715">
        <ele>307</ele>
        <time>2018-01-24T13:38:13Z</time>
      </trkpt>
      <trkpt lat="44.11286" lon="1.77136">
        <ele>306.4</ele>
        <time>2018-01-24T13:38:17Z</time>
      </trkpt>
      <trkpt lat="44.11283" lon="1.77126">
        <ele>306.3</ele>
        <time>2018-01-24T13:38:20Z</time>
      </trkpt>
      <trkpt lat="44.11279" lon="1.77114">
        <ele>305.4</ele>
        <time>2018-01-24T13:38:23Z</time>
      </trkpt>
      <trkpt lat="44.11273" lon="1.77104">
        <ele>304.7</ele>
        <time>2018-01-24T13:38:26Z</time>
      </trkpt>
      <trkpt lat="44.11268" lon="1.77092">
        <ele>303.9</ele>
        <time>2018-01-24T13:38:29Z</time>
      </trkpt>
      <trkpt lat="44.11264" lon="1.77083">
        <ele>303.9</ele>
        <time>2018-01-24T13:38:31Z</time>
      </trkpt>
      <trkpt lat="44.11258" lon="1.77071">
        <ele>303.4</ele>
        <time>2018-01-24T13:38:34Z</time>
      </trkpt>
      <trkpt lat="44.11255" lon="1.77061">
        <ele>303.2</ele>
        <time>2018-01-24T13:38:36Z</time>
      </trkpt>
      <trkpt lat="44.11251" lon="1.77048">
        <ele>303.1</ele>
        <time>2018-01-24T13:38:39Z</time>
      </trkpt>
      <trkpt lat="44.11249" lon="1.77038">
        <ele>302.9</ele>
        <time>2018-01-24T13:38:41Z</time>
      </trkpt>
      <trkpt lat="44.11246" lon="1.77029">
        <ele>302.7</ele>
        <time>2018-01-24T13:38:43Z</time>
      </trkpt>
      <trkpt lat="44.11241" lon="1.7702">
        <ele>302.5</ele>
        <time>2018-01-24T13:38:45Z</time>
      </trkpt>
      <trkpt lat="44.11236" lon="1.77011">
        <ele>302.4</ele>
        <time>2018-01-24T13:38:48Z</time>
      </trkpt>
      <trkpt lat="44.11235" lon="1.77">
        <ele>303</ele>
        <time>2018-01-24T13:38:51Z</time>
      </trkpt>
      <trkpt lat="44.11237" lon="1.76988">
        <ele>303.2</ele>
        <time>2018-01-24T13:38:54Z</time>
      </trkpt>
      <trkpt lat="44.1124" lon="1.76976">
        <ele>303.5</ele>
        <time>2018-01-24T13:38:57Z</time>
      </trkpt>
      <trkpt lat="44.1124" lon="1.76966">
        <ele>303.8</ele>
        <time>2018-01-24T13:39:00Z</time>
      </trkpt>
      <trkpt lat="44.11241" lon="1.76956">
        <ele>304.2</ele>
        <time>2018-01-24T13:39:03Z</time>
      </trkpt>
      <trkpt lat="44.11239" lon="1.76943">
        <ele>304.4</ele>
        <time>2018-01-24T13:39:07Z</time>
      </trkpt>
      <trkpt lat="44.11234" lon="1.76936">
        <ele>304.4</ele>
        <time>2018-01-24T13:39:10Z</time>
      </trkpt>
      <trkpt lat="44.11227" lon="1.76929">
        <ele>304.1</ele>
        <time>2018-01-24T13:39:13Z</time>
      </trkpt>
      <trkpt lat="44.11221" lon="1.76922">
        <ele>303.7</ele>
        <time>2018-01-24T13:39:17Z</time>
      </trkpt>
      <trkpt lat="44.11216" lon="1.76912">
        <ele>303.2</ele>
        <time>2018-01-24T13:39:21Z</time>
      </trkpt>
      <trkpt lat="44.11211" lon="1.76901">
        <ele>304</ele>
        <time>2018-01-24T13:39:25Z</time>
      </trkpt>
      <trkpt lat="44.11208" lon="1.76889">
        <ele>304.8</ele>
        <time>2018-01-24T13:39:29Z</time>
      </trkpt>
      <trkpt lat="44.11208" lon="1.76876">
        <ele>305.9</ele>
        <time>2018-01-24T13:39:33Z</time>
      </trkpt>
      <trkpt lat="44.11205" lon="1.76863">
        <ele>306.2</ele>
        <time>2018-01-24T13:39:37Z</time>
      </trkpt>
      <trkpt lat="44.11202" lon="1.76854">
        <ele>306.4</ele>
        <time>2018-01-24T13:39:40Z</time>
      </trkpt>
      <trkpt lat="44.11198" lon="1.76845">
        <ele>306.7</ele>
        <time>2018-01-24T13:39:43Z</time>
      </trkpt>
      <trkpt lat="44.11194" lon="1.76837">
        <ele>306.9</ele>
        <time>2018-01-24T13:39:46Z</time>
      </trkpt>
      <trkpt lat="44.1119" lon="1.76828">
        <ele>307.2</ele>
        <time>2018-01-24T13:39:49Z</time>
      </trkpt>
      <trkpt lat="44.11184" lon="1.76817">
        <ele>307.4</ele>
        <time>2018-01-24T13:39:53Z</time>
      </trkpt>
      <trkpt lat="44.11179" lon="1.76807">
        <ele>307.6</ele>
        <time>2018-01-24T13:39:56Z</time>
      </trkpt>
      <trkpt lat="44.11173" lon="1.76795">
        <ele>308.1</ele>
        <time>2018-01-24T13:39:59Z</time>
      </trkpt>
      <trkpt lat="44.11167" lon="1.76784">
        <ele>308.4</ele>
        <time>2018-01-24T13:40:02Z</time>
      </trkpt>
      <trkpt lat="44.11163" lon="1.76775">
        <ele>308.7</ele>
        <time>2018-01-24T13:40:04Z</time>
      </trkpt>
      <trkpt lat="44.11158" lon="1.76766">
        <ele>308.7</ele>
        <time>2018-01-24T13:40:06Z</time>
      </trkpt>
      <trkpt lat="44.11155" lon="1.76756">
        <ele>309.2</ele>
        <time>2018-01-24T13:40:08Z</time>
      </trkpt>
      <trkpt lat="44.11151" lon="1.76747">
        <ele>309.7</ele>
        <time>2018-01-24T13:40:10Z</time>
      </trkpt>
      <trkpt lat="44.11148" lon="1.76737">
        <ele>309.5</ele>
        <time>2018-01-24T13:40:12Z</time>
      </trkpt>
      <trkpt lat="44.11143" lon="1.76726">
        <ele>309.3</ele>
        <time>2018-01-24T13:40:14Z</time>
      </trkpt>
      <trkpt lat="44.11137" lon="1.76714">
        <ele>308.6</ele>
        <time>2018-01-24T13:40:16Z</time>
      </trkpt>
      <trkpt lat="44.11131" lon="1.76705">
        <ele>308</ele>
        <time>2018-01-24T13:40:18Z</time>
      </trkpt>
      <trkpt lat="44.11124" lon="1.76697">
        <ele>307.3</ele>
        <time>2018-01-24T13:40:20Z</time>
      </trkpt>
      <trkpt lat="44.11116" lon="1.76691">
        <ele>306</ele>
        <time>2018-01-24T13:40:22Z</time>
      </trkpt>
      <trkpt lat="44.11107" lon="1.76688">
        <ele>305.5</ele>
        <time>2018-01-24T13:40:24Z</time>
      </trkpt>
      <trkpt lat="44.11098" lon="1.76687">
        <ele>305.1</ele>
        <time>2018-01-24T13:40:26Z</time>
      </trkpt>
      <trkpt lat="44.11089" lon="1.76689">
        <ele>304.5</ele>
        <time>2018-01-24T13:40:28Z</time>
      </trkpt>
      <trkpt lat="44.11081" lon="1.76695">
        <ele>303.9</ele>
        <time>2018-01-24T13:40:30Z</time>
      </trkpt>
      <trkpt lat="44.11073" lon="1.76701">
        <ele>303.2</ele>
        <time>2018-01-24T13:40:32Z</time>
      </trkpt>
      <trkpt lat="44.11066" lon="1.76706">
        <ele>302.5</ele>
        <time>2018-01-24T13:40:34Z</time>
      </trkpt>
      <trkpt lat="44.11059" lon="1.7671">
        <ele>301.8</ele>
        <time>2018-01-24T13:40:36Z</time>
      </trkpt>
      <trkpt lat="44.1105" lon="1.76716">
        <ele>300.9</ele>
        <time>2018-01-24T13:40:39Z</time>
      </trkpt>
      <trkpt lat="44.1104" lon="1.76719">
        <ele>299.9</ele>
        <time>2018-01-24T13:40:42Z</time>
      </trkpt>
      <trkpt lat="44.11032" lon="1.76722">
        <ele>299.3</ele>
        <time>2018-01-24T13:40:45Z</time>
      </trkpt>
      <trkpt lat="44.11025" lon="1.76725">
        <ele>299</ele>
        <time>2018-01-24T13:40:48Z</time>
      </trkpt>
      <trkpt lat="44.11017" lon="1.76727">
        <ele>299.1</ele>
        <time>2018-01-24T13:40:51Z</time>
      </trkpt>
      <trkpt lat="44.11009" lon="1.76731">
        <ele>299.4</ele>
        <time>2018-01-24T13:40:54Z</time>
      </trkpt>
      <trkpt lat="44.11001" lon="1.76735">
        <ele>299.5</ele>
        <time>2018-01-24T13:40:57Z</time>
      </trkpt>
      <trkpt lat="44.10992" lon="1.76739">
        <ele>300.2</ele>
        <time>2018-01-24T13:41:00Z</time>
      </trkpt>
      <trkpt lat="44.10984" lon="1.76742">
        <ele>300.2</ele>
        <time>2018-01-24T13:41:03Z</time>
      </trkpt>
      <trkpt lat="44.10975" lon="1.76746">
        <ele>300.3</ele>
        <time>2018-01-24T13:41:06Z</time>
      </trkpt>
      <trkpt lat="44.10966" lon="1.76749">
        <ele>299.4</ele>
        <time>2018-01-24T13:41:09Z</time>
      </trkpt>
      <trkpt lat="44.10956" lon="1.76753">
        <ele>299.2</ele>
        <time>2018-01-24T13:41:12Z</time>
      </trkpt>
      <trkpt lat="44.10948" lon="1.76755">
        <ele>299.5</ele>
        <time>2018-01-24T13:41:14Z</time>
      </trkpt>
      <trkpt lat="44.10941" lon="1.76756">
        <ele>299.5</ele>
        <time>2018-01-24T13:41:16Z</time>
      </trkpt>
      <trkpt lat="44.10931" lon="1.76759">
        <ele>299.3</ele>
        <time>2018-01-24T13:41:19Z</time>
      </trkpt>
      <trkpt lat="44.10922" lon="1.7676">
        <ele>299.3</ele>
        <time>2018-01-24T13:41:22Z</time>
      </trkpt>
      <trkpt lat="44.10915" lon="1.76763">
        <ele>299.1</ele>
        <time>2018-01-24T13:41:24Z</time>
      </trkpt>
      <trkpt lat="44.10906" lon="1.76766">
        <ele>298.6</ele>
        <time>2018-01-24T13:41:27Z</time>
      </trkpt>
      <trkpt lat="44.10897" lon="1.7677">
        <ele>298</ele>
        <time>2018-01-24T13:41:30Z</time>
      </trkpt>
      <trkpt lat="44.1089" lon="1.76774">
        <ele>297.9</ele>
        <time>2018-01-24T13:41:32Z</time>
      </trkpt>
      <trkpt lat="44.10881" lon="1.76781">
        <ele>298.3</ele>
        <time>2018-01-24T13:41:35Z</time>
      </trkpt>
      <trkpt lat="44.10873" lon="1.76785">
        <ele>298.4</ele>
        <time>2018-01-24T13:41:38Z</time>
      </trkpt>
      <trkpt lat="44.10866" lon="1.76789">
        <ele>298.8</ele>
        <time>2018-01-24T13:41:41Z</time>
      </trkpt>
      <trkpt lat="44.10857" lon="1.76793">
        <ele>298.4</ele>
        <time>2018-01-24T13:41:44Z</time>
      </trkpt>
      <trkpt lat="44.10849" lon="1.76798">
        <ele>298.9</ele>
        <time>2018-01-24T13:41:47Z</time>
      </trkpt>
      <trkpt lat="44.10841" lon="1.76802">
        <ele>298.5</ele>
        <time>2018-01-24T13:41:50Z</time>
      </trkpt>
      <trkpt lat="44.10833" lon="1.76804">
        <ele>299.3</ele>
        <time>2018-01-24T13:41:53Z</time>
      </trkpt>
      <trkpt lat="44.10824" lon="1.76808">
        <ele>298.8</ele>
        <time>2018-01-24T13:41:56Z</time>
      </trkpt>
      <trkpt lat="44.10816" lon="1.76811">
        <ele>299.2</ele>
        <time>2018-01-24T13:41:59Z</time>
      </trkpt>
      <trkpt lat="44.10807" lon="1.76816">
        <ele>300.2</ele>
        <time>2018-01-24T13:42:02Z</time>
      </trkpt>
      <trkpt lat="44.10798" lon="1.76818">
        <ele>300.2</ele>
        <time>2018-01-24T13:42:05Z</time>
      </trkpt>
      <trkpt lat="44.10788" lon="1.76821">
        <ele>300.8</ele>
        <time>2018-01-24T13:42:08Z</time>
      </trkpt>
      <trkpt lat="44.10781" lon="1.76824">
        <ele>301.4</ele>
        <time>2018-01-24T13:42:11Z</time>
      </trkpt>
      <trkpt lat="44.10772" lon="1.76827">
        <ele>301.6</ele>
        <time>2018-01-24T13:42:14Z</time>
      </trkpt>
      <trkpt lat="44.10763" lon="1.76831">
        <ele>302</ele>
        <time>2018-01-24T13:42:17Z</time>
      </trkpt>
      <trkpt lat="44.10755" lon="1.76836">
        <ele>303</ele>
        <time>2018-01-24T13:42:20Z</time>
      </trkpt>
      <trkpt lat="44.10748" lon="1.7684">
        <ele>303.4</ele>
        <time>2018-01-24T13:42:23Z</time>
      </trkpt>
      <trkpt lat="44.1074" lon="1.76843">
        <ele>304.4</ele>
        <time>2018-01-24T13:42:26Z</time>
      </trkpt>
      <trkpt lat="44.10731" lon="1.76848">
        <ele>304.9</ele>
        <time>2018-01-24T13:42:29Z</time>
      </trkpt>
      <trkpt lat="44.10723" lon="1.76854">
        <ele>304.4</ele>
        <time>2018-01-24T13:42:32Z</time>
      </trkpt>
      <trkpt lat="44.10714" lon="1.7686">
        <ele>303.9</ele>
        <time>2018-01-24T13:42:35Z</time>
      </trkpt>
      <trkpt lat="44.10707" lon="1.76867">
        <ele>304.6</ele>
        <time>2018-01-24T13:42:39Z</time>
      </trkpt>
      <trkpt lat="44.107" lon="1.76872">
        <ele>305.1</ele>
        <time>2018-01-24T13:42:42Z</time>
      </trkpt>
      <trkpt lat="44.10693" lon="1.76877">
        <ele>305.2</ele>
        <time>2018-01-24T13:42:45Z</time>
      </trkpt>
      <trkpt lat="44.10687" lon="1.76884">
        <ele>305.7</ele>
        <time>2018-01-24T13:42:49Z</time>
      </trkpt>
      <trkpt lat="44.10681" lon="1.7689">
        <ele>305.9</ele>
        <time>2018-01-24T13:42:52Z</time>
      </trkpt>
      <trkpt lat="44.10677" lon="1.76896">
        <ele>306.9</ele>
        <time>2018-01-24T13:42:59Z</time>
      </trkpt>
      <trkpt lat="44.10671" lon="1.76907">
        <ele>315.1</ele>
        <time>2018-01-24T13:43:51Z</time>
      </trkpt>
      <trkpt lat="44.1068" lon="1.76904">
        <ele>314</ele>
        <time>2018-01-24T13:44:09Z</time>
      </trkpt>
      <trkpt lat="44.1068" lon="1.76904">
        <ele>314.3</ele>
        <time>2018-01-24T13:44:16Z</time>
      </trkpt>
      <trkpt lat="44.10674" lon="1.76902">
        <ele>315.8</ele>
        <time>2018-01-24T13:45:36Z</time>
      </trkpt>
      <trkpt lat="44.10668" lon="1.7691">
        <ele>315.7</ele>
        <time>2018-01-24T13:45:53Z</time>
      </trkpt>
      <trkpt lat="44.10661" lon="1.76918">
        <ele>315.5</ele>
        <time>2018-01-24T13:45:57Z</time>
      </trkpt>
      <trkpt lat="44.10656" lon="1.76926">
        <ele>315.4</ele>
        <time>2018-01-24T13:46:02Z</time>
      </trkpt>
      <trkpt lat="44.10648" lon="1.76933">
        <ele>315.3</ele>
        <time>2018-01-24T13:46:06Z</time>
      </trkpt>
      <trkpt lat="44.1064" lon="1.76939">
        <ele>314.1</ele>
        <time>2018-01-24T13:46:09Z</time>
      </trkpt>
      <trkpt lat="44.10633" lon="1.76947">
        <ele>313.5</ele>
        <time>2018-01-24T13:46:13Z</time>
      </trkpt>
      <trkpt lat="44.10626" lon="1.76952">
        <ele>313.1</ele>
        <time>2018-01-24T13:46:16Z</time>
      </trkpt>
      <trkpt lat="44.10618" lon="1.76957">
        <ele>312.5</ele>
        <time>2018-01-24T13:46:19Z</time>
      </trkpt>
      <trkpt lat="44.10611" lon="1.76961">
        <ele>313.4</ele>
        <time>2018-01-24T13:46:22Z</time>
      </trkpt>
      <trkpt lat="44.10604" lon="1.76966">
        <ele>313.6</ele>
        <time>2018-01-24T13:46:25Z</time>
      </trkpt>
      <trkpt lat="44.10596" lon="1.76972">
        <ele>313.1</ele>
        <time>2018-01-24T13:46:28Z</time>
      </trkpt>
      <trkpt lat="44.10589" lon="1.76979">
        <ele>313.2</ele>
        <time>2018-01-24T13:46:31Z</time>
      </trkpt>
      <trkpt lat="44.10582" lon="1.76986">
        <ele>313.1</ele>
        <time>2018-01-24T13:46:35Z</time>
      </trkpt>
      <trkpt lat="44.10574" lon="1.76991">
        <ele>313.4</ele>
        <time>2018-01-24T13:46:38Z</time>
      </trkpt>
      <trkpt lat="44.10568" lon="1.76998">
        <ele>313.7</ele>
        <time>2018-01-24T13:46:42Z</time>
      </trkpt>
      <trkpt lat="44.1056" lon="1.77005">
        <ele>313.7</ele>
        <time>2018-01-24T13:46:45Z</time>
      </trkpt>
      <trkpt lat="44.10552" lon="1.77012">
        <ele>313.9</ele>
        <time>2018-01-24T13:46:48Z</time>
      </trkpt>
      <trkpt lat="44.10543" lon="1.77018">
        <ele>314.2</ele>
        <time>2018-01-24T13:46:51Z</time>
      </trkpt>
      <trkpt lat="44.10534" lon="1.77023">
        <ele>313.2</ele>
        <time>2018-01-24T13:46:54Z</time>
      </trkpt>
      <trkpt lat="44.10525" lon="1.77027">
        <ele>312.9</ele>
        <time>2018-01-24T13:46:57Z</time>
      </trkpt>
      <trkpt lat="44.10515" lon="1.77031">
        <ele>313</ele>
        <time>2018-01-24T13:47:00Z</time>
      </trkpt>
      <trkpt lat="44.10505" lon="1.77033">
        <ele>313.3</ele>
        <time>2018-01-24T13:47:03Z</time>
      </trkpt>
      <trkpt lat="44.10498" lon="1.77038">
        <ele>313.6</ele>
        <time>2018-01-24T13:47:06Z</time>
      </trkpt>
      <trkpt lat="44.1049" lon="1.77042">
        <ele>313.3</ele>
        <time>2018-01-24T13:47:09Z</time>
      </trkpt>
      <trkpt lat="44.10483" lon="1.7705">
        <ele>313.1</ele>
        <time>2018-01-24T13:47:13Z</time>
      </trkpt>
      <trkpt lat="44.10474" lon="1.77057">
        <ele>312.9</ele>
        <time>2018-01-24T13:47:15Z</time>
      </trkpt>
      <trkpt lat="44.10467" lon="1.77063">
        <ele>313</ele>
        <time>2018-01-24T13:47:18Z</time>
      </trkpt>
      <trkpt lat="44.1046" lon="1.77071">
        <ele>313.7</ele>
        <time>2018-01-24T13:47:21Z</time>
      </trkpt>
      <trkpt lat="44.10452" lon="1.77078">
        <ele>314.6</ele>
        <time>2018-01-24T13:47:24Z</time>
      </trkpt>
      <trkpt lat="44.10446" lon="1.77087">
        <ele>315.2</ele>
        <time>2018-01-24T13:47:27Z</time>
      </trkpt>
      <trkpt lat="44.1044" lon="1.77096">
        <ele>316</ele>
        <time>2018-01-24T13:47:30Z</time>
      </trkpt>
      <trkpt lat="44.10434" lon="1.77104">
        <ele>316.4</ele>
        <time>2018-01-24T13:47:32Z</time>
      </trkpt>
      <trkpt lat="44.10429" lon="1.77111">
        <ele>316.7</ele>
        <time>2018-01-24T13:47:34Z</time>
      </trkpt>
      <trkpt lat="44.10421" lon="1.77122">
        <ele>317.1</ele>
        <time>2018-01-24T13:47:37Z</time>
      </trkpt>
      <trkpt lat="44.10415" lon="1.77131">
        <ele>317.2</ele>
        <time>2018-01-24T13:47:39Z</time>
      </trkpt>
      <trkpt lat="44.1041" lon="1.77139">
        <ele>317.4</ele>
        <time>2018-01-24T13:47:41Z</time>
      </trkpt>
      <trkpt lat="44.10403" lon="1.7715">
        <ele>317.5</ele>
        <time>2018-01-24T13:47:44Z</time>
      </trkpt>
      <trkpt lat="44.10397" lon="1.77162">
        <ele>317.7</ele>
        <time>2018-01-24T13:47:47Z</time>
      </trkpt>
      <trkpt lat="44.10391" lon="1.77172">
        <ele>318.1</ele>
        <time>2018-01-24T13:47:49Z</time>
      </trkpt>
      <trkpt lat="44.10385" lon="1.7718">
        <ele>318</ele>
        <time>2018-01-24T13:47:51Z</time>
      </trkpt>
      <trkpt lat="44.1038" lon="1.77189">
        <ele>318</ele>
        <time>2018-01-24T13:47:53Z</time>
      </trkpt>
      <trkpt lat="44.10375" lon="1.77197">
        <ele>318.2</ele>
        <time>2018-01-24T13:47:55Z</time>
      </trkpt>
      <trkpt lat="44.1037" lon="1.77208">
        <ele>318.6</ele>
        <time>2018-01-24T13:47:58Z</time>
      </trkpt>
      <trkpt lat="44.10365" lon="1.77217">
        <ele>318.9</ele>
        <time>2018-01-24T13:48:01Z</time>
      </trkpt>
      <trkpt lat="44.1036" lon="1.77227">
        <ele>318.9</ele>
        <time>2018-01-24T13:48:04Z</time>
      </trkpt>
      <trkpt lat="44.10355" lon="1.77235">
        <ele>318.8</ele>
        <time>2018-01-24T13:48:06Z</time>
      </trkpt>
      <trkpt lat="44.10347" lon="1.77246">
        <ele>319.1</ele>
        <time>2018-01-24T13:48:09Z</time>
      </trkpt>
      <trkpt lat="44.10342" lon="1.77252">
        <ele>319.1</ele>
        <time>2018-01-24T13:48:11Z</time>
      </trkpt>
      <trkpt lat="44.10336" lon="1.77261">
        <ele>318.6</ele>
        <time>2018-01-24T13:48:13Z</time>
      </trkpt>
      <trkpt lat="44.10332" lon="1.77272">
        <ele>318.5</ele>
        <time>2018-01-24T13:48:16Z</time>
      </trkpt>
      <trkpt lat="44.1033" lon="1.77283">
        <ele>318.3</ele>
        <time>2018-01-24T13:48:18Z</time>
      </trkpt>
      <trkpt lat="44.10329" lon="1.77297">
        <ele>318.1</ele>
        <time>2018-01-24T13:48:20Z</time>
      </trkpt>
      <trkpt lat="44.1033" lon="1.77308">
        <ele>318</ele>
        <time>2018-01-24T13:48:22Z</time>
      </trkpt>
      <trkpt lat="44.10331" lon="1.77318">
        <ele>318.1</ele>
        <time>2018-01-24T13:48:24Z</time>
      </trkpt>
      <trkpt lat="44.10334" lon="1.77328">
        <ele>317.9</ele>
        <time>2018-01-24T13:48:26Z</time>
      </trkpt>
      <trkpt lat="44.10339" lon="1.77342">
        <ele>318</ele>
        <time>2018-01-24T13:48:29Z</time>
      </trkpt>
      <trkpt lat="44.10344" lon="1.77354">
        <ele>319.1</ele>
        <time>2018-01-24T13:48:32Z</time>
      </trkpt>
      <trkpt lat="44.10349" lon="1.77365">
        <ele>319.7</ele>
        <time>2018-01-24T13:48:35Z</time>
      </trkpt>
      <trkpt lat="44.10353" lon="1.77374">
        <ele>320.3</ele>
        <time>2018-01-24T13:48:38Z</time>
      </trkpt>
      <trkpt lat="44.10358" lon="1.77385">
        <ele>320.8</ele>
        <time>2018-01-24T13:48:42Z</time>
      </trkpt>
      <trkpt lat="44.10362" lon="1.77396">
        <ele>321.3</ele>
        <time>2018-01-24T13:48:46Z</time>
      </trkpt>
      <trkpt lat="44.10369" lon="1.77404">
        <ele>322.2</ele>
        <time>2018-01-24T13:48:49Z</time>
      </trkpt>
      <trkpt lat="44.10374" lon="1.77413">
        <ele>322.8</ele>
        <time>2018-01-24T13:48:52Z</time>
      </trkpt>
      <trkpt lat="44.10381" lon="1.77423">
        <ele>322.9</ele>
        <time>2018-01-24T13:48:55Z</time>
      </trkpt>
      <trkpt lat="44.10384" lon="1.77432">
        <ele>323.1</ele>
        <time>2018-01-24T13:48:58Z</time>
      </trkpt>
      <trkpt lat="44.10389" lon="1.77441">
        <ele>323.4</ele>
        <time>2018-01-24T13:49:01Z</time>
      </trkpt>
      <trkpt lat="44.10392" lon="1.77451">
        <ele>324.4</ele>
        <time>2018-01-24T13:49:04Z</time>
      </trkpt>
      <trkpt lat="44.10394" lon="1.77461">
        <ele>325.7</ele>
        <time>2018-01-24T13:49:07Z</time>
      </trkpt>
      <trkpt lat="44.10397" lon="1.77472">
        <ele>326.5</ele>
        <time>2018-01-24T13:49:10Z</time>
      </trkpt>
      <trkpt lat="44.10398" lon="1.77482">
        <ele>326.7</ele>
        <time>2018-01-24T13:49:13Z</time>
      </trkpt>
      <trkpt lat="44.10398" lon="1.77492">
        <ele>327.3</ele>
        <time>2018-01-24T13:49:16Z</time>
      </trkpt>
      <trkpt lat="44.10397" lon="1.77502">
        <ele>327.1</ele>
        <time>2018-01-24T13:49:19Z</time>
      </trkpt>
      <trkpt lat="44.10395" lon="1.77513">
        <ele>328</ele>
        <time>2018-01-24T13:49:24Z</time>
      </trkpt>
      <trkpt lat="44.10398" lon="1.77525">
        <ele>328.7</ele>
        <time>2018-01-24T13:49:29Z</time>
      </trkpt>
      <trkpt lat="44.10398" lon="1.77536">
        <ele>328.6</ele>
        <time>2018-01-24T13:49:33Z</time>
      </trkpt>
      <trkpt lat="44.10398" lon="1.77548">
        <ele>328.6</ele>
        <time>2018-01-24T13:49:37Z</time>
      </trkpt>
      <trkpt lat="44.10394" lon="1.77559">
        <ele>328.4</ele>
        <time>2018-01-24T13:49:41Z</time>
      </trkpt>
      <trkpt lat="44.10392" lon="1.77569">
        <ele>328.3</ele>
        <time>2018-01-24T13:49:45Z</time>
      </trkpt>
      <trkpt lat="44.10387" lon="1.7758">
        <ele>327.6</ele>
        <time>2018-01-24T13:49:49Z</time>
      </trkpt>
      <trkpt lat="44.10382" lon="1.77589">
        <ele>326.6</ele>
        <time>2018-01-24T13:49:52Z</time>
      </trkpt>
      <trkpt lat="44.10378" lon="1.776">
        <ele>326.5</ele>
        <time>2018-01-24T13:49:56Z</time>
      </trkpt>
      <trkpt lat="44.10372" lon="1.77608">
        <ele>327.2</ele>
        <time>2018-01-24T13:50:01Z</time>
      </trkpt>
      <trkpt lat="44.10366" lon="1.77618">
        <ele>328.4</ele>
        <time>2018-01-24T13:50:06Z</time>
      </trkpt>
      <trkpt lat="44.10362" lon="1.77628">
        <ele>329.1</ele>
        <time>2018-01-24T13:50:11Z</time>
      </trkpt>
      <trkpt lat="44.10358" lon="1.77638">
        <ele>329.9</ele>
        <time>2018-01-24T13:50:16Z</time>
      </trkpt>
      <trkpt lat="44.10354" lon="1.77647">
        <ele>330.1</ele>
        <time>2018-01-24T13:50:20Z</time>
      </trkpt>
      <trkpt lat="44.10349" lon="1.77658">
        <ele>331</ele>
        <time>2018-01-24T13:50:24Z</time>
      </trkpt>
      <trkpt lat="44.10345" lon="1.77668">
        <ele>330.6</ele>
        <time>2018-01-24T13:50:27Z</time>
      </trkpt>
      <trkpt lat="44.1034" lon="1.77677">
        <ele>329.7</ele>
        <time>2018-01-24T13:50:30Z</time>
      </trkpt>
      <trkpt lat="44.10335" lon="1.77687">
        <ele>327.5</ele>
        <time>2018-01-24T13:50:33Z</time>
      </trkpt>
      <trkpt lat="44.1033" lon="1.77697">
        <ele>325.8</ele>
        <time>2018-01-24T13:50:36Z</time>
      </trkpt>
      <trkpt lat="44.10328" lon="1.77706">
        <ele>325.9</ele>
        <time>2018-01-24T13:50:39Z</time>
      </trkpt>
      <trkpt lat="44.10325" lon="1.77718">
        <ele>326.4</ele>
        <time>2018-01-24T13:50:42Z</time>
      </trkpt>
      <trkpt lat="44.10324" lon="1.77728">
        <ele>327.5</ele>
        <time>2018-01-24T13:50:45Z</time>
      </trkpt>
      <trkpt lat="44.10322" lon="1.77739">
        <ele>328.3</ele>
        <time>2018-01-24T13:50:48Z</time>
      </trkpt>
      <trkpt lat="44.10319" lon="1.77751">
        <ele>329.2</ele>
        <time>2018-01-24T13:50:51Z</time>
      </trkpt>
      <trkpt lat="44.10318" lon="1.77763">
        <ele>330.1</ele>
        <time>2018-01-24T13:50:54Z</time>
      </trkpt>
      <trkpt lat="44.10317" lon="1.77773">
        <ele>330.6</ele>
        <time>2018-01-24T13:50:57Z</time>
      </trkpt>
      <trkpt lat="44.10317" lon="1.77786">
        <ele>331.1</ele>
        <time>2018-01-24T13:51:01Z</time>
      </trkpt>
      <trkpt lat="44.10316" lon="1.77797">
        <ele>331.7</ele>
        <time>2018-01-24T13:51:05Z</time>
      </trkpt>
      <trkpt lat="44.10315" lon="1.77808">
        <ele>332.3</ele>
        <time>2018-01-24T13:51:09Z</time>
      </trkpt>
      <trkpt lat="44.10314" lon="1.7782">
        <ele>333.2</ele>
        <time>2018-01-24T13:51:13Z</time>
      </trkpt>
      <trkpt lat="44.10311" lon="1.77831">
        <ele>333.9</ele>
        <time>2018-01-24T13:51:17Z</time>
      </trkpt>
      <trkpt lat="44.10311" lon="1.77845">
        <ele>334.6</ele>
        <time>2018-01-24T13:51:22Z</time>
      </trkpt>
      <trkpt lat="44.1031" lon="1.77857">
        <ele>335.4</ele>
        <time>2018-01-24T13:51:26Z</time>
      </trkpt>
      <trkpt lat="44.1031" lon="1.77867">
        <ele>336</ele>
        <time>2018-01-24T13:51:29Z</time>
      </trkpt>
      <trkpt lat="44.10309" lon="1.77877">
        <ele>336.9</ele>
        <time>2018-01-24T13:51:32Z</time>
      </trkpt>
      <trkpt lat="44.10309" lon="1.77887">
        <ele>337.5</ele>
        <time>2018-01-24T13:51:35Z</time>
      </trkpt>
      <trkpt lat="44.10308" lon="1.779">
        <ele>338.2</ele>
        <time>2018-01-24T13:51:39Z</time>
      </trkpt>
      <trkpt lat="44.10307" lon="1.77912">
        <ele>339</ele>
        <time>2018-01-24T13:51:43Z</time>
      </trkpt>
      <trkpt lat="44.10306" lon="1.77922">
        <ele>339.9</ele>
        <time>2018-01-24T13:51:47Z</time>
      </trkpt>
      <trkpt lat="44.10303" lon="1.77934">
        <ele>340.2</ele>
        <time>2018-01-24T13:51:51Z</time>
      </trkpt>
      <trkpt lat="44.10301" lon="1.77946">
        <ele>340.6</ele>
        <time>2018-01-24T13:51:55Z</time>
      </trkpt>
      <trkpt lat="44.10298" lon="1.77957">
        <ele>341.8</ele>
        <time>2018-01-24T13:51:59Z</time>
      </trkpt>
      <trkpt lat="44.10295" lon="1.7797">
        <ele>342.7</ele>
        <time>2018-01-24T13:52:03Z</time>
      </trkpt>
      <trkpt lat="44.10292" lon="1.77982">
        <ele>343.1</ele>
        <time>2018-01-24T13:52:07Z</time>
      </trkpt>
      <trkpt lat="44.10287" lon="1.77992">
        <ele>343.4</ele>
        <time>2018-01-24T13:52:11Z</time>
      </trkpt>
      <trkpt lat="44.10283" lon="1.78003">
        <ele>343.2</ele>
        <time>2018-01-24T13:52:15Z</time>
      </trkpt>
      <trkpt lat="44.10279" lon="1.78013">
        <ele>342.8</ele>
        <time>2018-01-24T13:52:18Z</time>
      </trkpt>
      <trkpt lat="44.10273" lon="1.78021">
        <ele>342.8</ele>
        <time>2018-01-24T13:52:22Z</time>
      </trkpt>
      <trkpt lat="44.10268" lon="1.78029">
        <ele>342.9</ele>
        <time>2018-01-24T13:52:26Z</time>
      </trkpt>
      <trkpt lat="44.10261" lon="1.78039">
        <ele>342.4</ele>
        <time>2018-01-24T13:52:30Z</time>
      </trkpt>
      <trkpt lat="44.10256" lon="1.78048">
        <ele>342.2</ele>
        <time>2018-01-24T13:52:32Z</time>
      </trkpt>
      <trkpt lat="44.10252" lon="1.78059">
        <ele>341.8</ele>
        <time>2018-01-24T13:52:34Z</time>
      </trkpt>
      <trkpt lat="44.10249" lon="1.78069">
        <ele>341.6</ele>
        <time>2018-01-24T13:52:36Z</time>
      </trkpt>
      <trkpt lat="44.10248" lon="1.78082">
        <ele>341.7</ele>
        <time>2018-01-24T13:52:39Z</time>
      </trkpt>
      <trkpt lat="44.10247" lon="1.78091">
        <ele>341.5</ele>
        <time>2018-01-24T13:52:41Z</time>
      </trkpt>
      <trkpt lat="44.10247" lon="1.78102">
        <ele>341.3</ele>
        <time>2018-01-24T13:52:43Z</time>
      </trkpt>
      <trkpt lat="44.10249" lon="1.78114">
        <ele>340.9</ele>
        <time>2018-01-24T13:52:45Z</time>
      </trkpt>
      <trkpt lat="44.10253" lon="1.78123">
        <ele>340.4</ele>
        <time>2018-01-24T13:52:47Z</time>
      </trkpt>
      <trkpt lat="44.10257" lon="1.78131">
        <ele>340.1</ele>
        <time>2018-01-24T13:52:49Z</time>
      </trkpt>
      <trkpt lat="44.10265" lon="1.78141">
        <ele>339.6</ele>
        <time>2018-01-24T13:52:52Z</time>
      </trkpt>
      <trkpt lat="44.10277" lon="1.78142">
        <ele>339.4</ele>
        <time>2018-01-24T13:52:55Z</time>
      </trkpt>
      <trkpt lat="44.10285" lon="1.78143">
        <ele>339.4</ele>
        <time>2018-01-24T13:52:57Z</time>
      </trkpt>
      <trkpt lat="44.10294" lon="1.78145">
        <ele>339.8</ele>
        <time>2018-01-24T13:52:59Z</time>
      </trkpt>
      <trkpt lat="44.10307" lon="1.78148">
        <ele>339.7</ele>
        <time>2018-01-24T13:53:01Z</time>
      </trkpt>
      <trkpt lat="44.10319" lon="1.7815">
        <ele>339.7</ele>
        <time>2018-01-24T13:53:03Z</time>
      </trkpt>
      <trkpt lat="44.10327" lon="1.78153">
        <ele>339.4</ele>
        <time>2018-01-24T13:53:04Z</time>
      </trkpt>
      <trkpt lat="44.10334" lon="1.78154">
        <ele>339.2</ele>
        <time>2018-01-24T13:53:05Z</time>
      </trkpt>
      <trkpt lat="44.10347" lon="1.78161">
        <ele>338.1</ele>
        <time>2018-01-24T13:53:07Z</time>
      </trkpt>
      <trkpt lat="44.10355" lon="1.78166">
        <ele>337.5</ele>
        <time>2018-01-24T13:53:08Z</time>
      </trkpt>
      <trkpt lat="44.1036" lon="1.78173">
        <ele>336.5</ele>
        <time>2018-01-24T13:53:09Z</time>
      </trkpt>
      <trkpt lat="44.10366" lon="1.78181">
        <ele>336</ele>
        <time>2018-01-24T13:53:10Z</time>
      </trkpt>
      <trkpt lat="44.10371" lon="1.7819">
        <ele>335.2</ele>
        <time>2018-01-24T13:53:11Z</time>
      </trkpt>
      <trkpt lat="44.1038" lon="1.78202">
        <ele>334.1</ele>
        <time>2018-01-24T13:53:13Z</time>
      </trkpt>
      <trkpt lat="44.10388" lon="1.78206">
        <ele>332.3</ele>
        <time>2018-01-24T13:53:14Z</time>
      </trkpt>
      <trkpt lat="44.10394" lon="1.7821">
        <ele>331.7</ele>
        <time>2018-01-24T13:53:15Z</time>
      </trkpt>
      <trkpt lat="44.10406" lon="1.78217">
        <ele>330.9</ele>
        <time>2018-01-24T13:53:17Z</time>
      </trkpt>
      <trkpt lat="44.10418" lon="1.78224">
        <ele>330.3</ele>
        <time>2018-01-24T13:53:19Z</time>
      </trkpt>
      <trkpt lat="44.10428" lon="1.78231">
        <ele>329.6</ele>
        <time>2018-01-24T13:53:21Z</time>
      </trkpt>
      <trkpt lat="44.10436" lon="1.78235">
        <ele>329.6</ele>
        <time>2018-01-24T13:53:23Z</time>
      </trkpt>
      <trkpt lat="44.10444" lon="1.78241">
        <ele>329.7</ele>
        <time>2018-01-24T13:53:25Z</time>
      </trkpt>
      <trkpt lat="44.10453" lon="1.78245">
        <ele>330.6</ele>
        <time>2018-01-24T13:53:28Z</time>
      </trkpt>
      <trkpt lat="44.1046" lon="1.78248">
        <ele>330.8</ele>
        <time>2018-01-24T13:53:31Z</time>
      </trkpt>
      <trkpt lat="44.10469" lon="1.78251">
        <ele>332.2</ele>
        <time>2018-01-24T13:53:35Z</time>
      </trkpt>
      <trkpt lat="44.10477" lon="1.78259">
        <ele>333.5</ele>
        <time>2018-01-24T13:53:39Z</time>
      </trkpt>
      <trkpt lat="44.10484" lon="1.78264">
        <ele>334.8</ele>
        <time>2018-01-24T13:53:42Z</time>
      </trkpt>
      <trkpt lat="44.10489" lon="1.78272">
        <ele>336</ele>
        <time>2018-01-24T13:53:45Z</time>
      </trkpt>
      <trkpt lat="44.10494" lon="1.7828">
        <ele>337</ele>
        <time>2018-01-24T13:53:48Z</time>
      </trkpt>
      <trkpt lat="44.10501" lon="1.78289">
        <ele>338</ele>
        <time>2018-01-24T13:53:51Z</time>
      </trkpt>
      <trkpt lat="44.10505" lon="1.78298">
        <ele>338.7</ele>
        <time>2018-01-24T13:53:55Z</time>
      </trkpt>
      <trkpt lat="44.10513" lon="1.78305">
        <ele>339.7</ele>
        <time>2018-01-24T13:53:58Z</time>
      </trkpt>
      <trkpt lat="44.10518" lon="1.78311">
        <ele>341.1</ele>
        <time>2018-01-24T13:54:01Z</time>
      </trkpt>
      <trkpt lat="44.10523" lon="1.7832">
        <ele>343.1</ele>
        <time>2018-01-24T13:54:05Z</time>
      </trkpt>
      <trkpt lat="44.10529" lon="1.78329">
        <ele>344.5</ele>
        <time>2018-01-24T13:54:08Z</time>
      </trkpt>
      <trkpt lat="44.10535" lon="1.78339">
        <ele>345.8</ele>
        <time>2018-01-24T13:54:11Z</time>
      </trkpt>
      <trkpt lat="44.1054" lon="1.78348">
        <ele>347</ele>
        <time>2018-01-24T13:54:14Z</time>
      </trkpt>
      <trkpt lat="44.10546" lon="1.78355">
        <ele>348</ele>
        <time>2018-01-24T13:54:16Z</time>
      </trkpt>
      <trkpt lat="44.10553" lon="1.78365">
        <ele>349</ele>
        <time>2018-01-24T13:54:19Z</time>
      </trkpt>
      <trkpt lat="44.1056" lon="1.7837">
        <ele>350.3</ele>
        <time>2018-01-24T13:54:22Z</time>
      </trkpt>
      <trkpt lat="44.10571" lon="1.78374">
        <ele>351.6</ele>
        <time>2018-01-24T13:54:25Z</time>
      </trkpt>
      <trkpt lat="44.10578" lon="1.78376">
        <ele>352.5</ele>
        <time>2018-01-24T13:54:27Z</time>
      </trkpt>
      <trkpt lat="44.10585" lon="1.78376">
        <ele>354.4</ele>
        <time>2018-01-24T13:54:29Z</time>
      </trkpt>
      <trkpt lat="44.10593" lon="1.78379">
        <ele>356.2</ele>
        <time>2018-01-24T13:54:31Z</time>
      </trkpt>
      <trkpt lat="44.10601" lon="1.78388">
        <ele>357.7</ele>
        <time>2018-01-24T13:54:33Z</time>
      </trkpt>
      <trkpt lat="44.1061" lon="1.78399">
        <ele>359.1</ele>
        <time>2018-01-24T13:54:35Z</time>
      </trkpt>
      <trkpt lat="44.10619" lon="1.7841">
        <ele>360.6</ele>
        <time>2018-01-24T13:54:37Z</time>
      </trkpt>
      <trkpt lat="44.10624" lon="1.78417">
        <ele>360.7</ele>
        <time>2018-01-24T13:54:38Z</time>
      </trkpt>
      <trkpt lat="44.1063" lon="1.78427">
        <ele>360.8</ele>
        <time>2018-01-24T13:54:39Z</time>
      </trkpt>
      <trkpt lat="44.10636" lon="1.78436">
        <ele>360.8</ele>
        <time>2018-01-24T13:54:40Z</time>
      </trkpt>
      <trkpt lat="44.10643" lon="1.78446">
        <ele>361.1</ele>
        <time>2018-01-24T13:54:41Z</time>
      </trkpt>
      <trkpt lat="44.10652" lon="1.78455">
        <ele>360.2</ele>
        <time>2018-01-24T13:54:42Z</time>
      </trkpt>
      <trkpt lat="44.1066" lon="1.78463">
        <ele>357.9</ele>
        <time>2018-01-24T13:54:43Z</time>
      </trkpt>
      <trkpt lat="44.10667" lon="1.78471">
        <ele>357.3</ele>
        <time>2018-01-24T13:54:44Z</time>
      </trkpt>
      <trkpt lat="44.10673" lon="1.7848">
        <ele>356.6</ele>
        <time>2018-01-24T13:54:45Z</time>
      </trkpt>
      <trkpt lat="44.1068" lon="1.78488">
        <ele>356</ele>
        <time>2018-01-24T13:54:46Z</time>
      </trkpt>
      <trkpt lat="44.10686" lon="1.78495">
        <ele>355.7</ele>
        <time>2018-01-24T13:54:47Z</time>
      </trkpt>
      <trkpt lat="44.10691" lon="1.78502">
        <ele>355</ele>
        <time>2018-01-24T13:54:48Z</time>
      </trkpt>
      <trkpt lat="44.107" lon="1.78516">
        <ele>354.6</ele>
        <time>2018-01-24T13:54:50Z</time>
      </trkpt>
      <trkpt lat="44.10709" lon="1.78529">
        <ele>354.9</ele>
        <time>2018-01-24T13:54:52Z</time>
      </trkpt>
      <trkpt lat="44.10717" lon="1.78539">
        <ele>355.1</ele>
        <time>2018-01-24T13:54:54Z</time>
      </trkpt>
      <trkpt lat="44.10726" lon="1.78546">
        <ele>355.3</ele>
        <time>2018-01-24T13:54:56Z</time>
      </trkpt>
      <trkpt lat="44.10734" lon="1.78549">
        <ele>354.7</ele>
        <time>2018-01-24T13:54:58Z</time>
      </trkpt>
      <trkpt lat="44.10742" lon="1.7855">
        <ele>354.9</ele>
        <time>2018-01-24T13:55:00Z</time>
      </trkpt>
      <trkpt lat="44.10752" lon="1.78553">
        <ele>355.8</ele>
        <time>2018-01-24T13:55:03Z</time>
      </trkpt>
      <trkpt lat="44.10759" lon="1.78555">
        <ele>355.2</ele>
        <time>2018-01-24T13:55:05Z</time>
      </trkpt>
      <trkpt lat="44.10768" lon="1.78555">
        <ele>354.6</ele>
        <time>2018-01-24T13:55:07Z</time>
      </trkpt>
      <trkpt lat="44.10777" lon="1.78553">
        <ele>351.4</ele>
        <time>2018-01-24T13:55:09Z</time>
      </trkpt>
      <trkpt lat="44.10785" lon="1.78552">
        <ele>350.7</ele>
        <time>2018-01-24T13:55:11Z</time>
      </trkpt>
      <trkpt lat="44.10792" lon="1.78551">
        <ele>350.9</ele>
        <time>2018-01-24T13:55:13Z</time>
      </trkpt>
      <trkpt lat="44.10802" lon="1.78551">
        <ele>351.3</ele>
        <time>2018-01-24T13:55:16Z</time>
      </trkpt>
      <trkpt lat="44.10812" lon="1.7855">
        <ele>352</ele>
        <time>2018-01-24T13:55:19Z</time>
      </trkpt>
      <trkpt lat="44.10816" lon="1.78541">
        <ele>352.6</ele>
        <time>2018-01-24T13:55:22Z</time>
      </trkpt>
      <trkpt lat="44.10816" lon="1.7853">
        <ele>349.8</ele>
        <time>2018-01-24T13:55:29Z</time>
      </trkpt>
      <trkpt lat="44.10816" lon="1.78533">
        <ele>347.8</ele>
        <time>2018-01-24T13:55:36Z</time>
      </trkpt>
    </trkseg>
  </trk>
</gpx>